<?xml version="1.0" encoding="UTF-8" standalone="no" ?>
<gpx xmlns="http://www.topografix.com/GPX/1/1" xmlns:xsi="http://www.w3.org/2001/XMLSchema-instance" xsi:schemaLocation="http://www.topografix.com/GPX/1/1 http://www.topografix.com/GPX/1/1/gpx.xsd" version="1.1" creator="VisuGPX - https://www.visugpx.com">
  <metadata>
    <name>Rando vtt Ambazac 2021</name>
    <desc><![CDATA[Rando top, très physique ! ]]></desc>
  </metadata>
  <trk>
    <name><![CDATA[Rando vtt Ambazac 2021_1]]></name>
    <trkseg>
      <trkpt lat="45.95883" lon="1.40001">
        <ele>364.2</ele>
        <time>2021-11-21T07:42:47Z</time>
      </trkpt>
      <trkpt lat="45.95883" lon="1.39964">
        <ele>365</ele>
        <time>2021-11-21T07:42:56Z</time>
      </trkpt>
      <trkpt lat="45.95884" lon="1.39935">
        <ele>365.2</ele>
        <time>2021-11-21T07:43:01Z</time>
      </trkpt>
      <trkpt lat="45.95884" lon="1.39918">
        <ele>365.4</ele>
        <time>2021-11-21T07:43:04Z</time>
      </trkpt>
      <trkpt lat="45.95881" lon="1.39896">
        <ele>366.2</ele>
        <time>2021-11-21T07:43:08Z</time>
      </trkpt>
      <trkpt lat="45.95879" lon="1.39887">
        <ele>366.8</ele>
        <time>2021-11-21T07:43:10Z</time>
      </trkpt>
      <trkpt lat="45.95878" lon="1.39878">
        <ele>367.2</ele>
        <time>2021-11-21T07:43:12Z</time>
      </trkpt>
      <trkpt lat="45.95878" lon="1.39865">
        <ele>368.4</ele>
        <time>2021-11-21T07:43:15Z</time>
      </trkpt>
      <trkpt lat="45.95878" lon="1.39855">
        <ele>368.8</ele>
        <time>2021-11-21T07:43:17Z</time>
      </trkpt>
      <trkpt lat="45.95878" lon="1.39847">
        <ele>369.6</ele>
        <time>2021-11-21T07:43:19Z</time>
      </trkpt>
      <trkpt lat="45.9588" lon="1.3983">
        <ele>370.6</ele>
        <time>2021-11-21T07:43:23Z</time>
      </trkpt>
      <trkpt lat="45.95882" lon="1.39826">
        <ele>370.8</ele>
        <time>2021-11-21T07:43:24Z</time>
      </trkpt>
      <trkpt lat="45.95888" lon="1.39811">
        <ele>371.8</ele>
        <time>2021-11-21T07:43:28Z</time>
      </trkpt>
      <trkpt lat="45.9589" lon="1.39803">
        <ele>372.2</ele>
        <time>2021-11-21T07:43:30Z</time>
      </trkpt>
      <trkpt lat="45.95889" lon="1.39795">
        <ele>372.8</ele>
        <time>2021-11-21T07:43:32Z</time>
      </trkpt>
      <trkpt lat="45.95885" lon="1.39785">
        <ele>373.2</ele>
        <time>2021-11-21T07:43:35Z</time>
      </trkpt>
      <trkpt lat="45.9587" lon="1.39773">
        <ele>373.6</ele>
        <time>2021-11-21T07:43:40Z</time>
      </trkpt>
      <trkpt lat="45.9586" lon="1.39771">
        <ele>373.8</ele>
        <time>2021-11-21T07:43:43Z</time>
      </trkpt>
      <trkpt lat="45.95846" lon="1.39769">
        <ele>374.4</ele>
        <time>2021-11-21T07:43:47Z</time>
      </trkpt>
      <trkpt lat="45.95837" lon="1.39769">
        <ele>374.8</ele>
        <time>2021-11-21T07:43:50Z</time>
      </trkpt>
      <trkpt lat="45.95823" lon="1.39769">
        <ele>376</ele>
        <time>2021-11-21T07:43:55Z</time>
      </trkpt>
      <trkpt lat="45.95811" lon="1.3977">
        <ele>377.2</ele>
        <time>2021-11-21T07:44:00Z</time>
      </trkpt>
      <trkpt lat="45.95803" lon="1.39767">
        <ele>377.6</ele>
        <time>2021-11-21T07:44:03Z</time>
      </trkpt>
      <trkpt lat="45.95797" lon="1.39766">
        <ele>378.4</ele>
        <time>2021-11-21T07:44:05Z</time>
      </trkpt>
      <trkpt lat="45.95783" lon="1.39761">
        <ele>378.6</ele>
        <time>2021-11-21T07:44:10Z</time>
      </trkpt>
      <trkpt lat="45.95781" lon="1.39758">
        <ele>378.6</ele>
        <time>2021-11-21T07:44:11Z</time>
      </trkpt>
      <trkpt lat="45.95778" lon="1.39745">
        <ele>378.8</ele>
        <time>2021-11-21T07:44:14Z</time>
      </trkpt>
      <trkpt lat="45.95776" lon="1.3972">
        <ele>379.4</ele>
        <time>2021-11-21T07:44:19Z</time>
      </trkpt>
      <trkpt lat="45.95774" lon="1.39705">
        <ele>379.8</ele>
        <time>2021-11-21T07:44:22Z</time>
      </trkpt>
      <trkpt lat="45.95771" lon="1.39668">
        <ele>380.4</ele>
        <time>2021-11-21T07:44:29Z</time>
      </trkpt>
      <trkpt lat="45.95771" lon="1.39663">
        <ele>380.6</ele>
        <time>2021-11-21T07:44:30Z</time>
      </trkpt>
      <trkpt lat="45.9577" lon="1.39623">
        <ele>381</ele>
        <time>2021-11-21T07:44:37Z</time>
      </trkpt>
      <trkpt lat="45.95768" lon="1.39606">
        <ele>381.6</ele>
        <time>2021-11-21T07:44:40Z</time>
      </trkpt>
      <trkpt lat="45.95767" lon="1.39588">
        <ele>382</ele>
        <time>2021-11-21T07:44:43Z</time>
      </trkpt>
      <trkpt lat="45.95767" lon="1.39576">
        <ele>382.2</ele>
        <time>2021-11-21T07:44:45Z</time>
      </trkpt>
      <trkpt lat="45.95767" lon="1.3957">
        <ele>382.4</ele>
        <time>2021-11-21T07:44:46Z</time>
      </trkpt>
      <trkpt lat="45.95767" lon="1.39559">
        <ele>382.8</ele>
        <time>2021-11-21T07:44:48Z</time>
      </trkpt>
      <trkpt lat="45.95765" lon="1.39537">
        <ele>383.4</ele>
        <time>2021-11-21T07:44:52Z</time>
      </trkpt>
      <trkpt lat="45.95762" lon="1.39504">
        <ele>383.8</ele>
        <time>2021-11-21T07:44:58Z</time>
      </trkpt>
      <trkpt lat="45.95761" lon="1.39483">
        <ele>384</ele>
        <time>2021-11-21T07:45:02Z</time>
      </trkpt>
      <trkpt lat="45.9576" lon="1.39443">
        <ele>385</ele>
        <time>2021-11-21T07:45:09Z</time>
      </trkpt>
      <trkpt lat="45.9576" lon="1.39425">
        <ele>385.2</ele>
        <time>2021-11-21T07:45:12Z</time>
      </trkpt>
      <trkpt lat="45.95762" lon="1.39385">
        <ele>386</ele>
        <time>2021-11-21T07:45:19Z</time>
      </trkpt>
      <trkpt lat="45.95764" lon="1.39373">
        <ele>386.4</ele>
        <time>2021-11-21T07:45:21Z</time>
      </trkpt>
      <trkpt lat="45.9577" lon="1.39338">
        <ele>387.2</ele>
        <time>2021-11-21T07:45:27Z</time>
      </trkpt>
      <trkpt lat="45.95774" lon="1.39321">
        <ele>387.4</ele>
        <time>2021-11-21T07:45:30Z</time>
      </trkpt>
      <trkpt lat="45.95788" lon="1.39272">
        <ele>388.2</ele>
        <time>2021-11-21T07:45:39Z</time>
      </trkpt>
      <trkpt lat="45.9579" lon="1.39267">
        <ele>388.2</ele>
        <time>2021-11-21T07:45:40Z</time>
      </trkpt>
      <trkpt lat="45.95806" lon="1.39233">
        <ele>389</ele>
        <time>2021-11-21T07:45:47Z</time>
      </trkpt>
      <trkpt lat="45.95816" lon="1.39216">
        <ele>389.2</ele>
        <time>2021-11-21T07:45:51Z</time>
      </trkpt>
      <trkpt lat="45.95825" lon="1.39203">
        <ele>389.4</ele>
        <time>2021-11-21T07:45:54Z</time>
      </trkpt>
      <trkpt lat="45.95848" lon="1.39174">
        <ele>390.4</ele>
        <time>2021-11-21T07:46:01Z</time>
      </trkpt>
      <trkpt lat="45.95851" lon="1.3917">
        <ele>390.4</ele>
        <time>2021-11-21T07:46:02Z</time>
      </trkpt>
      <trkpt lat="45.95871" lon="1.39145">
        <ele>390.2</ele>
        <time>2021-11-21T07:46:07Z</time>
      </trkpt>
      <trkpt lat="45.95877" lon="1.3913">
        <ele>390</ele>
        <time>2021-11-21T07:46:09Z</time>
      </trkpt>
      <trkpt lat="45.95877" lon="1.39122">
        <ele>390</ele>
        <time>2021-11-21T07:46:10Z</time>
      </trkpt>
      <trkpt lat="45.95877" lon="1.39116">
        <ele>389.8</ele>
        <time>2021-11-21T07:46:11Z</time>
      </trkpt>
      <trkpt lat="45.95874" lon="1.39103">
        <ele>389.8</ele>
        <time>2021-11-21T07:46:13Z</time>
      </trkpt>
      <trkpt lat="45.95872" lon="1.39098">
        <ele>389.8</ele>
        <time>2021-11-21T07:46:14Z</time>
      </trkpt>
      <trkpt lat="45.95856" lon="1.39056">
        <ele>390.4</ele>
        <time>2021-11-21T07:46:21Z</time>
      </trkpt>
      <trkpt lat="45.95852" lon="1.39047">
        <ele>390.8</ele>
        <time>2021-11-21T07:46:23Z</time>
      </trkpt>
      <trkpt lat="45.9585" lon="1.39038">
        <ele>391.4</ele>
        <time>2021-11-21T07:46:25Z</time>
      </trkpt>
      <trkpt lat="45.95847" lon="1.3903">
        <ele>391.8</ele>
        <time>2021-11-21T07:46:27Z</time>
      </trkpt>
      <trkpt lat="45.95846" lon="1.39023">
        <ele>392.8</ele>
        <time>2021-11-21T07:46:29Z</time>
      </trkpt>
      <trkpt lat="45.95844" lon="1.39013">
        <ele>393.8</ele>
        <time>2021-11-21T07:46:32Z</time>
      </trkpt>
      <trkpt lat="45.95844" lon="1.39009">
        <ele>394.2</ele>
        <time>2021-11-21T07:46:33Z</time>
      </trkpt>
      <trkpt lat="45.95844" lon="1.39003">
        <ele>395.2</ele>
        <time>2021-11-21T07:46:35Z</time>
      </trkpt>
      <trkpt lat="45.95846" lon="1.38994">
        <ele>396.2</ele>
        <time>2021-11-21T07:46:38Z</time>
      </trkpt>
      <trkpt lat="45.95847" lon="1.38988">
        <ele>397.2</ele>
        <time>2021-11-21T07:46:40Z</time>
      </trkpt>
      <trkpt lat="45.95848" lon="1.38985">
        <ele>397.6</ele>
        <time>2021-11-21T07:46:41Z</time>
      </trkpt>
      <trkpt lat="45.95852" lon="1.38977">
        <ele>398.8</ele>
        <time>2021-11-21T07:46:44Z</time>
      </trkpt>
      <trkpt lat="45.95858" lon="1.38968">
        <ele>400</ele>
        <time>2021-11-21T07:46:48Z</time>
      </trkpt>
      <trkpt lat="45.95864" lon="1.38959">
        <ele>401</ele>
        <time>2021-11-21T07:46:52Z</time>
      </trkpt>
      <trkpt lat="45.95868" lon="1.38953">
        <ele>402.2</ele>
        <time>2021-11-21T07:46:55Z</time>
      </trkpt>
      <trkpt lat="45.9587" lon="1.3895">
        <ele>402.4</ele>
        <time>2021-11-21T07:46:56Z</time>
      </trkpt>
      <trkpt lat="45.95875" lon="1.3894">
        <ele>403.4</ele>
        <time>2021-11-21T07:47:00Z</time>
      </trkpt>
      <trkpt lat="45.95881" lon="1.3893">
        <ele>404.4</ele>
        <time>2021-11-21T07:47:04Z</time>
      </trkpt>
      <trkpt lat="45.95883" lon="1.38927">
        <ele>404.8</ele>
        <time>2021-11-21T07:47:05Z</time>
      </trkpt>
      <trkpt lat="45.95888" lon="1.3892">
        <ele>405.4</ele>
        <time>2021-11-21T07:47:08Z</time>
      </trkpt>
      <trkpt lat="45.95895" lon="1.38909">
        <ele>406.6</ele>
        <time>2021-11-21T07:47:12Z</time>
      </trkpt>
      <trkpt lat="45.95899" lon="1.38904">
        <ele>407.2</ele>
        <time>2021-11-21T07:47:14Z</time>
      </trkpt>
      <trkpt lat="45.95903" lon="1.38899">
        <ele>407.6</ele>
        <time>2021-11-21T07:47:16Z</time>
      </trkpt>
      <trkpt lat="45.95914" lon="1.38889">
        <ele>408.8</ele>
        <time>2021-11-21T07:47:21Z</time>
      </trkpt>
      <trkpt lat="45.95916" lon="1.38887">
        <ele>409</ele>
        <time>2021-11-21T07:47:22Z</time>
      </trkpt>
      <trkpt lat="45.95923" lon="1.38881">
        <ele>409.8</ele>
        <time>2021-11-21T07:47:25Z</time>
      </trkpt>
      <trkpt lat="45.95931" lon="1.38872">
        <ele>411</ele>
        <time>2021-11-21T07:47:30Z</time>
      </trkpt>
      <trkpt lat="45.95937" lon="1.38862">
        <ele>412.2</ele>
        <time>2021-11-21T07:47:35Z</time>
      </trkpt>
      <trkpt lat="45.9594" lon="1.38856">
        <ele>412.8</ele>
        <time>2021-11-21T07:47:37Z</time>
      </trkpt>
      <trkpt lat="45.95941" lon="1.38852">
        <ele>413.2</ele>
        <time>2021-11-21T07:47:39Z</time>
      </trkpt>
      <trkpt lat="45.95946" lon="1.38843">
        <ele>413.6</ele>
        <time>2021-11-21T07:47:43Z</time>
      </trkpt>
      <trkpt lat="45.95949" lon="1.38836">
        <ele>414.2</ele>
        <time>2021-11-21T07:47:46Z</time>
      </trkpt>
      <trkpt lat="45.95953" lon="1.38826">
        <ele>415.4</ele>
        <time>2021-11-21T07:47:50Z</time>
      </trkpt>
      <trkpt lat="45.95955" lon="1.3882">
        <ele>415.8</ele>
        <time>2021-11-21T07:47:52Z</time>
      </trkpt>
      <trkpt lat="45.95962" lon="1.38802">
        <ele>416.4</ele>
        <time>2021-11-21T07:47:57Z</time>
      </trkpt>
      <trkpt lat="45.95965" lon="1.38795">
        <ele>416.6</ele>
        <time>2021-11-21T07:47:59Z</time>
      </trkpt>
      <trkpt lat="45.95977" lon="1.38757">
        <ele>417.6</ele>
        <time>2021-11-21T07:48:08Z</time>
      </trkpt>
      <trkpt lat="45.95986" lon="1.38726">
        <ele>418</ele>
        <time>2021-11-21T07:48:16Z</time>
      </trkpt>
      <trkpt lat="45.95992" lon="1.38714">
        <ele>418.6</ele>
        <time>2021-11-21T07:48:20Z</time>
      </trkpt>
      <trkpt lat="45.95998" lon="1.38703">
        <ele>419.2</ele>
        <time>2021-11-21T07:48:23Z</time>
      </trkpt>
      <trkpt lat="45.96003" lon="1.38691">
        <ele>419.6</ele>
        <time>2021-11-21T07:48:27Z</time>
      </trkpt>
      <trkpt lat="45.96007" lon="1.38683">
        <ele>420.2</ele>
        <time>2021-11-21T07:48:30Z</time>
      </trkpt>
      <trkpt lat="45.96009" lon="1.38677">
        <ele>420.8</ele>
        <time>2021-11-21T07:48:32Z</time>
      </trkpt>
      <trkpt lat="45.9601" lon="1.38675">
        <ele>421.2</ele>
        <time>2021-11-21T07:48:33Z</time>
      </trkpt>
      <trkpt lat="45.96013" lon="1.38669">
        <ele>421.8</ele>
        <time>2021-11-21T07:48:35Z</time>
      </trkpt>
      <trkpt lat="45.96017" lon="1.3866">
        <ele>422.8</ele>
        <time>2021-11-21T07:48:38Z</time>
      </trkpt>
      <trkpt lat="45.96019" lon="1.38656">
        <ele>423.2</ele>
        <time>2021-11-21T07:48:39Z</time>
      </trkpt>
      <trkpt lat="45.96026" lon="1.3864">
        <ele>423.8</ele>
        <time>2021-11-21T07:48:44Z</time>
      </trkpt>
      <trkpt lat="45.9604" lon="1.38613">
        <ele>424</ele>
        <time>2021-11-21T07:48:53Z</time>
      </trkpt>
      <trkpt lat="45.96053" lon="1.38597">
        <ele>423.6</ele>
        <time>2021-11-21T07:49:00Z</time>
      </trkpt>
      <trkpt lat="45.9607" lon="1.38584">
        <ele>422.4</ele>
        <time>2021-11-21T07:49:06Z</time>
      </trkpt>
      <trkpt lat="45.96077" lon="1.38577">
        <ele>422</ele>
        <time>2021-11-21T07:49:08Z</time>
      </trkpt>
      <trkpt lat="45.96095" lon="1.38565">
        <ele>420.8</ele>
        <time>2021-11-21T07:49:12Z</time>
      </trkpt>
      <trkpt lat="45.9611" lon="1.38558">
        <ele>419.8</ele>
        <time>2021-11-21T07:49:16Z</time>
      </trkpt>
      <trkpt lat="45.96112" lon="1.38557">
        <ele>419.8</ele>
        <time>2021-11-21T07:49:17Z</time>
      </trkpt>
      <trkpt lat="45.9612" lon="1.38554">
        <ele>420.8</ele>
        <time>2021-11-21T07:49:20Z</time>
      </trkpt>
      <trkpt lat="45.96125" lon="1.38552">
        <ele>422</ele>
        <time>2021-11-21T07:49:23Z</time>
      </trkpt>
      <trkpt lat="45.96127" lon="1.38551">
        <ele>422.4</ele>
        <time>2021-11-21T07:49:24Z</time>
      </trkpt>
      <trkpt lat="45.9613" lon="1.3855">
        <ele>423</ele>
        <time>2021-11-21T07:49:26Z</time>
      </trkpt>
      <trkpt lat="45.96135" lon="1.38548">
        <ele>424.2</ele>
        <time>2021-11-21T07:49:29Z</time>
      </trkpt>
      <trkpt lat="45.96141" lon="1.38543">
        <ele>424.8</ele>
        <time>2021-11-21T07:49:32Z</time>
      </trkpt>
      <trkpt lat="45.96152" lon="1.38539">
        <ele>425.2</ele>
        <time>2021-11-21T07:49:37Z</time>
      </trkpt>
      <trkpt lat="45.96157" lon="1.38536">
        <ele>425.4</ele>
        <time>2021-11-21T07:49:39Z</time>
      </trkpt>
      <trkpt lat="45.96178" lon="1.38526">
        <ele>425.6</ele>
        <time>2021-11-21T07:49:46Z</time>
      </trkpt>
      <trkpt lat="45.96186" lon="1.3852">
        <ele>425.4</ele>
        <time>2021-11-21T07:49:51Z</time>
      </trkpt>
      <trkpt lat="45.96187" lon="1.38519">
        <ele>425.4</ele>
        <time>2021-11-21T07:49:52Z</time>
      </trkpt>
      <trkpt lat="45.96192" lon="1.38517">
        <ele>425.4</ele>
        <time>2021-11-21T07:49:56Z</time>
      </trkpt>
      <trkpt lat="45.96199" lon="1.38513">
        <ele>425.6</ele>
        <time>2021-11-21T07:50:03Z</time>
      </trkpt>
      <trkpt lat="45.96206" lon="1.38508">
        <ele>425.4</ele>
        <time>2021-11-21T07:50:11Z</time>
      </trkpt>
      <trkpt lat="45.96208" lon="1.38507">
        <ele>425.6</ele>
        <time>2021-11-21T07:50:13Z</time>
      </trkpt>
      <trkpt lat="45.96214" lon="1.38503">
        <ele>425.8</ele>
        <time>2021-11-21T07:50:20Z</time>
      </trkpt>
      <trkpt lat="45.96219" lon="1.38498">
        <ele>425.8</ele>
        <time>2021-11-21T07:50:22Z</time>
      </trkpt>
      <trkpt lat="45.9622" lon="1.38495">
        <ele>425.8</ele>
        <time>2021-11-21T07:50:23Z</time>
      </trkpt>
      <trkpt lat="45.96227" lon="1.38479">
        <ele>426.2</ele>
        <time>2021-11-21T07:50:27Z</time>
      </trkpt>
      <trkpt lat="45.96237" lon="1.38456">
        <ele>426.4</ele>
        <time>2021-11-21T07:50:33Z</time>
      </trkpt>
      <trkpt lat="45.96247" lon="1.38427">
        <ele>427.2</ele>
        <time>2021-11-21T07:50:40Z</time>
      </trkpt>
      <trkpt lat="45.96257" lon="1.38395">
        <ele>428</ele>
        <time>2021-11-21T07:50:47Z</time>
      </trkpt>
      <trkpt lat="45.96257" lon="1.38392">
        <ele>428.6</ele>
        <time>2021-11-21T07:50:48Z</time>
      </trkpt>
      <trkpt lat="45.96258" lon="1.38373">
        <ele>429.2</ele>
        <time>2021-11-21T07:50:53Z</time>
      </trkpt>
      <trkpt lat="45.96256" lon="1.38363">
        <ele>429.8</ele>
        <time>2021-11-21T07:50:56Z</time>
      </trkpt>
      <trkpt lat="45.96255" lon="1.38355">
        <ele>431</ele>
        <time>2021-11-21T07:50:59Z</time>
      </trkpt>
      <trkpt lat="45.96254" lon="1.38348">
        <ele>432.2</ele>
        <time>2021-11-21T07:51:02Z</time>
      </trkpt>
      <trkpt lat="45.96254" lon="1.38338">
        <ele>433</ele>
        <time>2021-11-21T07:51:06Z</time>
      </trkpt>
      <trkpt lat="45.96254" lon="1.38336">
        <ele>433.4</ele>
        <time>2021-11-21T07:51:07Z</time>
      </trkpt>
      <trkpt lat="45.96254" lon="1.38331">
        <ele>434</ele>
        <time>2021-11-21T07:51:09Z</time>
      </trkpt>
      <trkpt lat="45.96253" lon="1.38326">
        <ele>434.8</ele>
        <time>2021-11-21T07:51:11Z</time>
      </trkpt>
      <trkpt lat="45.96257" lon="1.38315">
        <ele>435.2</ele>
        <time>2021-11-21T07:51:15Z</time>
      </trkpt>
      <trkpt lat="45.96257" lon="1.38297">
        <ele>436</ele>
        <time>2021-11-21T07:51:21Z</time>
      </trkpt>
      <trkpt lat="45.96257" lon="1.38291">
        <ele>437.2</ele>
        <time>2021-11-21T07:51:24Z</time>
      </trkpt>
      <trkpt lat="45.96256" lon="1.38284">
        <ele>438</ele>
        <time>2021-11-21T07:51:27Z</time>
      </trkpt>
      <trkpt lat="45.96256" lon="1.38281">
        <ele>438.2</ele>
        <time>2021-11-21T07:51:28Z</time>
      </trkpt>
      <trkpt lat="45.96256" lon="1.38277">
        <ele>438.2</ele>
        <time>2021-11-21T07:51:30Z</time>
      </trkpt>
      <trkpt lat="45.96256" lon="1.38272">
        <ele>439.2</ele>
        <time>2021-11-21T07:51:33Z</time>
      </trkpt>
      <trkpt lat="45.96256" lon="1.38271">
        <ele>439.6</ele>
        <time>2021-11-21T07:51:34Z</time>
      </trkpt>
      <trkpt lat="45.96256" lon="1.38269">
        <ele>439.8</ele>
        <time>2021-11-21T07:51:35Z</time>
      </trkpt>
      <trkpt lat="45.96258" lon="1.38266">
        <ele>440.2</ele>
        <time>2021-11-21T07:51:37Z</time>
      </trkpt>
      <trkpt lat="45.96258" lon="1.38264">
        <ele>440.8</ele>
        <time>2021-11-21T07:51:38Z</time>
      </trkpt>
      <trkpt lat="45.96258" lon="1.38255">
        <ele>441.2</ele>
        <time>2021-11-21T07:51:42Z</time>
      </trkpt>
      <trkpt lat="45.96257" lon="1.38253">
        <ele>441.2</ele>
        <time>2021-11-21T07:51:43Z</time>
      </trkpt>
      <trkpt lat="45.96256" lon="1.38246">
        <ele>441.6</ele>
        <time>2021-11-21T07:51:46Z</time>
      </trkpt>
      <trkpt lat="45.96257" lon="1.38242">
        <ele>442.4</ele>
        <time>2021-11-21T07:51:49Z</time>
      </trkpt>
      <trkpt lat="45.96256" lon="1.3823">
        <ele>443.2</ele>
        <time>2021-11-21T07:51:56Z</time>
      </trkpt>
      <trkpt lat="45.96256" lon="1.38226">
        <ele>443.6</ele>
        <time>2021-11-21T07:51:58Z</time>
      </trkpt>
      <trkpt lat="45.96256" lon="1.38224">
        <ele>443.8</ele>
        <time>2021-11-21T07:51:59Z</time>
      </trkpt>
      <trkpt lat="45.96255" lon="1.38219">
        <ele>444.8</ele>
        <time>2021-11-21T07:52:02Z</time>
      </trkpt>
      <trkpt lat="45.96256" lon="1.38205">
        <ele>445.8</ele>
        <time>2021-11-21T07:52:09Z</time>
      </trkpt>
      <trkpt lat="45.96256" lon="1.38198">
        <ele>446.6</ele>
        <time>2021-11-21T07:52:12Z</time>
      </trkpt>
      <trkpt lat="45.96256" lon="1.38195">
        <ele>447</ele>
        <time>2021-11-21T07:52:14Z</time>
      </trkpt>
      <trkpt lat="45.96259" lon="1.38185">
        <ele>448.2</ele>
        <time>2021-11-21T07:52:20Z</time>
      </trkpt>
      <trkpt lat="45.96262" lon="1.38183">
        <ele>448.6</ele>
        <time>2021-11-21T07:52:22Z</time>
      </trkpt>
      <trkpt lat="45.96267" lon="1.3818">
        <ele>449.4</ele>
        <time>2021-11-21T07:52:25Z</time>
      </trkpt>
      <trkpt lat="45.96272" lon="1.38182">
        <ele>450.2</ele>
        <time>2021-11-21T07:52:29Z</time>
      </trkpt>
      <trkpt lat="45.96273" lon="1.38183">
        <ele>450.6</ele>
        <time>2021-11-21T07:52:30Z</time>
      </trkpt>
      <trkpt lat="45.96281" lon="1.38188">
        <ele>451.6</ele>
        <time>2021-11-21T07:52:37Z</time>
      </trkpt>
      <trkpt lat="45.96282" lon="1.38189">
        <ele>451.8</ele>
        <time>2021-11-21T07:52:38Z</time>
      </trkpt>
      <trkpt lat="45.96286" lon="1.38193">
        <ele>452.8</ele>
        <time>2021-11-21T07:52:42Z</time>
      </trkpt>
      <trkpt lat="45.96291" lon="1.38199">
        <ele>453.6</ele>
        <time>2021-11-21T07:52:46Z</time>
      </trkpt>
      <trkpt lat="45.96294" lon="1.38201">
        <ele>454</ele>
        <time>2021-11-21T07:52:48Z</time>
      </trkpt>
      <trkpt lat="45.96298" lon="1.38206">
        <ele>455</ele>
        <time>2021-11-21T07:52:52Z</time>
      </trkpt>
      <trkpt lat="45.963" lon="1.38208">
        <ele>455.2</ele>
        <time>2021-11-21T07:52:53Z</time>
      </trkpt>
      <trkpt lat="45.96307" lon="1.38214">
        <ele>456.2</ele>
        <time>2021-11-21T07:52:58Z</time>
      </trkpt>
      <trkpt lat="45.96309" lon="1.38216">
        <ele>456.8</ele>
        <time>2021-11-21T07:53:00Z</time>
      </trkpt>
      <trkpt lat="45.96312" lon="1.38219">
        <ele>457.2</ele>
        <time>2021-11-21T07:53:02Z</time>
      </trkpt>
      <trkpt lat="45.96317" lon="1.38225">
        <ele>458.2</ele>
        <time>2021-11-21T07:53:08Z</time>
      </trkpt>
      <trkpt lat="45.96318" lon="1.38225">
        <ele>458.4</ele>
        <time>2021-11-21T07:53:09Z</time>
      </trkpt>
      <trkpt lat="45.96322" lon="1.38229">
        <ele>459.4</ele>
        <time>2021-11-21T07:53:13Z</time>
      </trkpt>
      <trkpt lat="45.96322" lon="1.3823">
        <ele>459.6</ele>
        <time>2021-11-21T07:53:14Z</time>
      </trkpt>
      <trkpt lat="45.96322" lon="1.38231">
        <ele>460</ele>
        <time>2021-11-21T07:53:16Z</time>
      </trkpt>
      <trkpt lat="45.96325" lon="1.38231">
        <ele>460.2</ele>
        <time>2021-11-21T07:53:18Z</time>
      </trkpt>
      <trkpt lat="45.96327" lon="1.3823">
        <ele>460.8</ele>
        <time>2021-11-21T07:53:20Z</time>
      </trkpt>
      <trkpt lat="45.96329" lon="1.38229">
        <ele>461.2</ele>
        <time>2021-11-21T07:53:22Z</time>
      </trkpt>
      <trkpt lat="45.96333" lon="1.38229">
        <ele>461.8</ele>
        <time>2021-11-21T07:53:25Z</time>
      </trkpt>
      <trkpt lat="45.96334" lon="1.38229">
        <ele>462</ele>
        <time>2021-11-21T07:53:26Z</time>
      </trkpt>
      <trkpt lat="45.96338" lon="1.38229">
        <ele>463</ele>
        <time>2021-11-21T07:53:29Z</time>
      </trkpt>
      <trkpt lat="45.96339" lon="1.38229">
        <ele>463.2</ele>
        <time>2021-11-21T07:53:30Z</time>
      </trkpt>
      <trkpt lat="45.96344" lon="1.3823">
        <ele>464</ele>
        <time>2021-11-21T07:53:34Z</time>
      </trkpt>
      <trkpt lat="45.9635" lon="1.38231">
        <ele>465.2</ele>
        <time>2021-11-21T07:53:40Z</time>
      </trkpt>
      <trkpt lat="45.96351" lon="1.38232">
        <ele>465.4</ele>
        <time>2021-11-21T07:53:41Z</time>
      </trkpt>
      <trkpt lat="45.96359" lon="1.38234">
        <ele>466.2</ele>
        <time>2021-11-21T07:53:47Z</time>
      </trkpt>
      <trkpt lat="45.96366" lon="1.38238">
        <ele>467.6</ele>
        <time>2021-11-21T07:53:53Z</time>
      </trkpt>
      <trkpt lat="45.96371" lon="1.3824">
        <ele>468.6</ele>
        <time>2021-11-21T07:53:58Z</time>
      </trkpt>
      <trkpt lat="45.96374" lon="1.3824">
        <ele>469.4</ele>
        <time>2021-11-21T07:54:02Z</time>
      </trkpt>
      <trkpt lat="45.96378" lon="1.3824">
        <ele>469.8</ele>
        <time>2021-11-21T07:54:05Z</time>
      </trkpt>
      <trkpt lat="45.96379" lon="1.3824">
        <ele>470</ele>
        <time>2021-11-21T07:54:06Z</time>
      </trkpt>
      <trkpt lat="45.96381" lon="1.3824">
        <ele>470.4</ele>
        <time>2021-11-21T07:54:08Z</time>
      </trkpt>
      <trkpt lat="45.96383" lon="1.38239">
        <ele>471</ele>
        <time>2021-11-21T07:54:10Z</time>
      </trkpt>
      <trkpt lat="45.96387" lon="1.38237">
        <ele>471.8</ele>
        <time>2021-11-21T07:54:13Z</time>
      </trkpt>
      <trkpt lat="45.96389" lon="1.38236">
        <ele>472</ele>
        <time>2021-11-21T07:54:15Z</time>
      </trkpt>
      <trkpt lat="45.96393" lon="1.38234">
        <ele>472.6</ele>
        <time>2021-11-21T07:54:18Z</time>
      </trkpt>
      <trkpt lat="45.96397" lon="1.38231">
        <ele>473.2</ele>
        <time>2021-11-21T07:54:23Z</time>
      </trkpt>
      <trkpt lat="45.96402" lon="1.38222">
        <ele>474.2</ele>
        <time>2021-11-21T07:54:29Z</time>
      </trkpt>
      <trkpt lat="45.96405" lon="1.38214">
        <ele>475.6</ele>
        <time>2021-11-21T07:54:35Z</time>
      </trkpt>
      <trkpt lat="45.96408" lon="1.38207">
        <ele>476.8</ele>
        <time>2021-11-21T07:54:39Z</time>
      </trkpt>
      <trkpt lat="45.96411" lon="1.382">
        <ele>477.4</ele>
        <time>2021-11-21T07:54:43Z</time>
      </trkpt>
      <trkpt lat="45.96413" lon="1.38196">
        <ele>477.8</ele>
        <time>2021-11-21T07:54:45Z</time>
      </trkpt>
      <trkpt lat="45.9642" lon="1.38182">
        <ele>479</ele>
        <time>2021-11-21T07:54:53Z</time>
      </trkpt>
      <trkpt lat="45.96423" lon="1.38176">
        <ele>479.6</ele>
        <time>2021-11-21T07:54:57Z</time>
      </trkpt>
      <trkpt lat="45.96425" lon="1.38172">
        <ele>480</ele>
        <time>2021-11-21T07:55:00Z</time>
      </trkpt>
      <trkpt lat="45.96431" lon="1.38163">
        <ele>481.2</ele>
        <time>2021-11-21T07:55:05Z</time>
      </trkpt>
      <trkpt lat="45.96438" lon="1.38155">
        <ele>482.2</ele>
        <time>2021-11-21T07:55:10Z</time>
      </trkpt>
      <trkpt lat="45.9644" lon="1.38153">
        <ele>482.4</ele>
        <time>2021-11-21T07:55:11Z</time>
      </trkpt>
      <trkpt lat="45.9645" lon="1.38142">
        <ele>483.4</ele>
        <time>2021-11-21T07:55:18Z</time>
      </trkpt>
      <trkpt lat="45.96457" lon="1.38137">
        <ele>484</ele>
        <time>2021-11-21T07:55:23Z</time>
      </trkpt>
      <trkpt lat="45.96461" lon="1.38134">
        <ele>484.6</ele>
        <time>2021-11-21T07:55:26Z</time>
      </trkpt>
      <trkpt lat="45.96466" lon="1.38132">
        <ele>485.8</ele>
        <time>2021-11-21T07:55:30Z</time>
      </trkpt>
      <trkpt lat="45.96476" lon="1.38126">
        <ele>486.6</ele>
        <time>2021-11-21T07:55:37Z</time>
      </trkpt>
      <trkpt lat="45.96477" lon="1.38125">
        <ele>486.8</ele>
        <time>2021-11-21T07:55:38Z</time>
      </trkpt>
      <trkpt lat="45.96489" lon="1.38117">
        <ele>488</ele>
        <time>2021-11-21T07:55:45Z</time>
      </trkpt>
      <trkpt lat="45.96495" lon="1.38111">
        <ele>488.8</ele>
        <time>2021-11-21T07:55:50Z</time>
      </trkpt>
      <trkpt lat="45.96498" lon="1.38109">
        <ele>489</ele>
        <time>2021-11-21T07:55:52Z</time>
      </trkpt>
      <trkpt lat="45.96508" lon="1.38106">
        <ele>490.2</ele>
        <time>2021-11-21T07:55:59Z</time>
      </trkpt>
      <trkpt lat="45.9651" lon="1.38106">
        <ele>490.4</ele>
        <time>2021-11-21T07:56:00Z</time>
      </trkpt>
      <trkpt lat="45.96519" lon="1.38106">
        <ele>491</ele>
        <time>2021-11-21T07:56:05Z</time>
      </trkpt>
      <trkpt lat="45.96529" lon="1.38108">
        <ele>491.2</ele>
        <time>2021-11-21T07:56:10Z</time>
      </trkpt>
      <trkpt lat="45.96534" lon="1.38109">
        <ele>491.4</ele>
        <time>2021-11-21T07:56:12Z</time>
      </trkpt>
      <trkpt lat="45.96545" lon="1.38109">
        <ele>492</ele>
        <time>2021-11-21T07:56:17Z</time>
      </trkpt>
      <trkpt lat="45.96556" lon="1.38108">
        <ele>492.4</ele>
        <time>2021-11-21T07:56:22Z</time>
      </trkpt>
      <trkpt lat="45.9656" lon="1.38107">
        <ele>492.4</ele>
        <time>2021-11-21T07:56:24Z</time>
      </trkpt>
      <trkpt lat="45.96574" lon="1.38101">
        <ele>492.2</ele>
        <time>2021-11-21T07:56:31Z</time>
      </trkpt>
      <trkpt lat="45.96597" lon="1.38087">
        <ele>492.4</ele>
        <time>2021-11-21T07:56:39Z</time>
      </trkpt>
      <trkpt lat="45.96628" lon="1.38075">
        <ele>493.4</ele>
        <time>2021-11-21T07:56:47Z</time>
      </trkpt>
      <trkpt lat="45.96632" lon="1.38075">
        <ele>493.4</ele>
        <time>2021-11-21T07:56:48Z</time>
      </trkpt>
      <trkpt lat="45.96653" lon="1.38074">
        <ele>493.4</ele>
        <time>2021-11-21T07:56:53Z</time>
      </trkpt>
      <trkpt lat="45.96674" lon="1.38073">
        <ele>492.8</ele>
        <time>2021-11-21T07:56:59Z</time>
      </trkpt>
      <trkpt lat="45.96677" lon="1.38074">
        <ele>492.8</ele>
        <time>2021-11-21T07:57:00Z</time>
      </trkpt>
      <trkpt lat="45.9669" lon="1.38076">
        <ele>492.4</ele>
        <time>2021-11-21T07:57:03Z</time>
      </trkpt>
      <trkpt lat="45.96701" lon="1.38081">
        <ele>491.6</ele>
        <time>2021-11-21T07:57:06Z</time>
      </trkpt>
      <trkpt lat="45.96709" lon="1.38084">
        <ele>491</ele>
        <time>2021-11-21T07:57:08Z</time>
      </trkpt>
      <trkpt lat="45.9672" lon="1.38086">
        <ele>490.2</ele>
        <time>2021-11-21T07:57:09Z</time>
      </trkpt>
      <trkpt lat="45.9673" lon="1.38088">
        <ele>490</ele>
        <time>2021-11-21T07:57:12Z</time>
      </trkpt>
      <trkpt lat="45.96735" lon="1.38089">
        <ele>489.8</ele>
        <time>2021-11-21T07:57:13Z</time>
      </trkpt>
      <trkpt lat="45.96747" lon="1.3809">
        <ele>489.6</ele>
        <time>2021-11-21T07:57:16Z</time>
      </trkpt>
      <trkpt lat="45.96753" lon="1.38092">
        <ele>489.8</ele>
        <time>2021-11-21T07:57:18Z</time>
      </trkpt>
      <trkpt lat="45.9676" lon="1.38099">
        <ele>490.4</ele>
        <time>2021-11-21T07:57:21Z</time>
      </trkpt>
      <trkpt lat="45.9678" lon="1.38114">
        <ele>490.6</ele>
        <time>2021-11-21T07:57:27Z</time>
      </trkpt>
      <trkpt lat="45.96787" lon="1.38118">
        <ele>491.4</ele>
        <time>2021-11-21T07:57:29Z</time>
      </trkpt>
      <trkpt lat="45.96799" lon="1.38123">
        <ele>492.6</ele>
        <time>2021-11-21T07:57:33Z</time>
      </trkpt>
      <trkpt lat="45.96805" lon="1.38126">
        <ele>493</ele>
        <time>2021-11-21T07:57:35Z</time>
      </trkpt>
      <trkpt lat="45.96821" lon="1.38128">
        <ele>493.8</ele>
        <time>2021-11-21T07:57:39Z</time>
      </trkpt>
      <trkpt lat="45.96835" lon="1.38131">
        <ele>494</ele>
        <time>2021-11-21T07:57:43Z</time>
      </trkpt>
      <trkpt lat="45.96863" lon="1.38141">
        <ele>494.6</ele>
        <time>2021-11-21T07:57:50Z</time>
      </trkpt>
      <trkpt lat="45.96866" lon="1.38142">
        <ele>494.8</ele>
        <time>2021-11-21T07:57:51Z</time>
      </trkpt>
      <trkpt lat="45.96878" lon="1.38143">
        <ele>495.8</ele>
        <time>2021-11-21T07:57:55Z</time>
      </trkpt>
      <trkpt lat="45.96881" lon="1.38143">
        <ele>496</ele>
        <time>2021-11-21T07:57:56Z</time>
      </trkpt>
      <trkpt lat="45.96899" lon="1.38134">
        <ele>496.8</ele>
        <time>2021-11-21T07:58:04Z</time>
      </trkpt>
      <trkpt lat="45.96904" lon="1.38133">
        <ele>496.8</ele>
        <time>2021-11-21T07:58:06Z</time>
      </trkpt>
      <trkpt lat="45.96911" lon="1.38134">
        <ele>497.6</ele>
        <time>2021-11-21T07:58:09Z</time>
      </trkpt>
      <trkpt lat="45.96916" lon="1.38133">
        <ele>497.6</ele>
        <time>2021-11-21T07:58:11Z</time>
      </trkpt>
      <trkpt lat="45.9692" lon="1.3813">
        <ele>497.8</ele>
        <time>2021-11-21T07:58:13Z</time>
      </trkpt>
      <trkpt lat="45.96924" lon="1.38127">
        <ele>498</ele>
        <time>2021-11-21T07:58:15Z</time>
      </trkpt>
      <trkpt lat="45.96932" lon="1.38117">
        <ele>498.8</ele>
        <time>2021-11-21T07:58:21Z</time>
      </trkpt>
      <trkpt lat="45.96934" lon="1.38112">
        <ele>499</ele>
        <time>2021-11-21T07:58:23Z</time>
      </trkpt>
      <trkpt lat="45.96941" lon="1.38103">
        <ele>499.8</ele>
        <time>2021-11-21T07:58:28Z</time>
      </trkpt>
      <trkpt lat="45.96942" lon="1.38102">
        <ele>500.2</ele>
        <time>2021-11-21T07:58:29Z</time>
      </trkpt>
      <trkpt lat="45.96947" lon="1.38092">
        <ele>501.4</ele>
        <time>2021-11-21T07:58:36Z</time>
      </trkpt>
      <trkpt lat="45.96947" lon="1.38089">
        <ele>502</ele>
        <time>2021-11-21T07:58:38Z</time>
      </trkpt>
      <trkpt lat="45.96947" lon="1.38087">
        <ele>502.6</ele>
        <time>2021-11-21T07:58:40Z</time>
      </trkpt>
      <trkpt lat="45.96947" lon="1.38083">
        <ele>502.8</ele>
        <time>2021-11-21T07:58:42Z</time>
      </trkpt>
      <trkpt lat="45.96949" lon="1.38076">
        <ele>503.6</ele>
        <time>2021-11-21T07:58:46Z</time>
      </trkpt>
      <trkpt lat="45.9695" lon="1.38072">
        <ele>504.2</ele>
        <time>2021-11-21T07:58:48Z</time>
      </trkpt>
      <trkpt lat="45.96951" lon="1.38069">
        <ele>504.6</ele>
        <time>2021-11-21T07:58:49Z</time>
      </trkpt>
      <trkpt lat="45.96951" lon="1.38068">
        <ele>504.8</ele>
        <time>2021-11-21T07:58:50Z</time>
      </trkpt>
      <trkpt lat="45.96953" lon="1.38062">
        <ele>506.2</ele>
        <time>2021-11-21T07:58:54Z</time>
      </trkpt>
      <trkpt lat="45.96955" lon="1.38056">
        <ele>507.4</ele>
        <time>2021-11-21T07:58:57Z</time>
      </trkpt>
      <trkpt lat="45.96959" lon="1.38048">
        <ele>508.6</ele>
        <time>2021-11-21T07:59:01Z</time>
      </trkpt>
      <trkpt lat="45.96961" lon="1.38043">
        <ele>509.8</ele>
        <time>2021-11-21T07:59:04Z</time>
      </trkpt>
      <trkpt lat="45.96962" lon="1.38037">
        <ele>511</ele>
        <time>2021-11-21T07:59:08Z</time>
      </trkpt>
      <trkpt lat="45.96964" lon="1.3803">
        <ele>512.4</ele>
        <time>2021-11-21T07:59:13Z</time>
      </trkpt>
      <trkpt lat="45.96964" lon="1.38028">
        <ele>512.6</ele>
        <time>2021-11-21T07:59:14Z</time>
      </trkpt>
      <trkpt lat="45.96965" lon="1.38027">
        <ele>512.8</ele>
        <time>2021-11-21T07:59:15Z</time>
      </trkpt>
      <trkpt lat="45.96966" lon="1.38023">
        <ele>513.6</ele>
        <time>2021-11-21T07:59:18Z</time>
      </trkpt>
      <trkpt lat="45.96967" lon="1.38019">
        <ele>514.6</ele>
        <time>2021-11-21T07:59:21Z</time>
      </trkpt>
      <trkpt lat="45.96967" lon="1.38017">
        <ele>515</ele>
        <time>2021-11-21T07:59:22Z</time>
      </trkpt>
      <trkpt lat="45.96969" lon="1.38011">
        <ele>515.6</ele>
        <time>2021-11-21T07:59:25Z</time>
      </trkpt>
      <trkpt lat="45.96969" lon="1.3801">
        <ele>516</ele>
        <time>2021-11-21T07:59:26Z</time>
      </trkpt>
      <trkpt lat="45.96969" lon="1.38008">
        <ele>516.2</ele>
        <time>2021-11-21T07:59:27Z</time>
      </trkpt>
      <trkpt lat="45.9697" lon="1.38003">
        <ele>517.2</ele>
        <time>2021-11-21T07:59:30Z</time>
      </trkpt>
      <trkpt lat="45.96971" lon="1.38001">
        <ele>517.4</ele>
        <time>2021-11-21T07:59:31Z</time>
      </trkpt>
      <trkpt lat="45.96973" lon="1.37996">
        <ele>518.2</ele>
        <time>2021-11-21T07:59:34Z</time>
      </trkpt>
      <trkpt lat="45.96973" lon="1.37994">
        <ele>518.6</ele>
        <time>2021-11-21T07:59:35Z</time>
      </trkpt>
      <trkpt lat="45.96975" lon="1.37986">
        <ele>519.4</ele>
        <time>2021-11-21T07:59:39Z</time>
      </trkpt>
      <trkpt lat="45.96976" lon="1.37983">
        <ele>519.8</ele>
        <time>2021-11-21T07:59:40Z</time>
      </trkpt>
      <trkpt lat="45.96981" lon="1.37967">
        <ele>520.8</ele>
        <time>2021-11-21T07:59:50Z</time>
      </trkpt>
      <trkpt lat="45.96982" lon="1.37964">
        <ele>521.4</ele>
        <time>2021-11-21T07:59:53Z</time>
      </trkpt>
      <trkpt lat="45.96983" lon="1.3796">
        <ele>522</ele>
        <time>2021-11-21T07:59:57Z</time>
      </trkpt>
      <trkpt lat="45.96985" lon="1.37956">
        <ele>522.2</ele>
        <time>2021-11-21T08:00:02Z</time>
      </trkpt>
      <trkpt lat="45.96988" lon="1.37947">
        <ele>522.8</ele>
        <time>2021-11-21T08:00:14Z</time>
      </trkpt>
      <trkpt lat="45.96989" lon="1.37946">
        <ele>523</ele>
        <time>2021-11-21T08:00:15Z</time>
      </trkpt>
      <trkpt lat="45.96989" lon="1.37943">
        <ele>523</ele>
        <time>2021-11-21T08:00:24Z</time>
      </trkpt>
      <trkpt lat="45.9699" lon="1.37942">
        <ele>523.4</ele>
        <time>2021-11-21T08:00:35Z</time>
      </trkpt>
      <trkpt lat="45.9699" lon="1.37942">
        <ele>523.2</ele>
        <time>2021-11-21T08:00:54Z</time>
      </trkpt>
      <trkpt lat="45.96992" lon="1.37938">
        <ele>523.6</ele>
        <time>2021-11-21T08:01:05Z</time>
      </trkpt>
      <trkpt lat="45.96992" lon="1.37936">
        <ele>523.8</ele>
        <time>2021-11-21T08:01:06Z</time>
      </trkpt>
      <trkpt lat="45.96993" lon="1.37932">
        <ele>524</ele>
        <time>2021-11-21T08:01:08Z</time>
      </trkpt>
      <trkpt lat="45.96996" lon="1.37925">
        <ele>525.2</ele>
        <time>2021-11-21T08:01:12Z</time>
      </trkpt>
      <trkpt lat="45.96996" lon="1.37921">
        <ele>526.4</ele>
        <time>2021-11-21T08:01:14Z</time>
      </trkpt>
      <trkpt lat="45.96996" lon="1.37916">
        <ele>527</ele>
        <time>2021-11-21T08:01:17Z</time>
      </trkpt>
      <trkpt lat="45.96997" lon="1.37913">
        <ele>527.8</ele>
        <time>2021-11-21T08:01:19Z</time>
      </trkpt>
      <trkpt lat="45.96997" lon="1.3791">
        <ele>528.6</ele>
        <time>2021-11-21T08:01:21Z</time>
      </trkpt>
      <trkpt lat="45.96998" lon="1.37909">
        <ele>529</ele>
        <time>2021-11-21T08:01:22Z</time>
      </trkpt>
      <trkpt lat="45.96999" lon="1.37905">
        <ele>530</ele>
        <time>2021-11-21T08:01:25Z</time>
      </trkpt>
      <trkpt lat="45.96999" lon="1.37904">
        <ele>530.2</ele>
        <time>2021-11-21T08:01:26Z</time>
      </trkpt>
      <trkpt lat="45.96999" lon="1.37902">
        <ele>531</ele>
        <time>2021-11-21T08:01:28Z</time>
      </trkpt>
      <trkpt lat="45.96999" lon="1.379">
        <ele>532</ele>
        <time>2021-11-21T08:01:32Z</time>
      </trkpt>
      <trkpt lat="45.97003" lon="1.37896">
        <ele>533.2</ele>
        <time>2021-11-21T08:01:39Z</time>
      </trkpt>
      <trkpt lat="45.97005" lon="1.37891">
        <ele>534.2</ele>
        <time>2021-11-21T08:01:43Z</time>
      </trkpt>
      <trkpt lat="45.97008" lon="1.37886">
        <ele>535.2</ele>
        <time>2021-11-21T08:01:49Z</time>
      </trkpt>
      <trkpt lat="45.97008" lon="1.37884">
        <ele>535.6</ele>
        <time>2021-11-21T08:01:51Z</time>
      </trkpt>
      <trkpt lat="45.97009" lon="1.37882">
        <ele>536.2</ele>
        <time>2021-11-21T08:01:53Z</time>
      </trkpt>
      <trkpt lat="45.9701" lon="1.37879">
        <ele>536.4</ele>
        <time>2021-11-21T08:01:55Z</time>
      </trkpt>
      <trkpt lat="45.97011" lon="1.37875">
        <ele>537</ele>
        <time>2021-11-21T08:01:58Z</time>
      </trkpt>
      <trkpt lat="45.97011" lon="1.37872">
        <ele>537.4</ele>
        <time>2021-11-21T08:02:00Z</time>
      </trkpt>
      <trkpt lat="45.97012" lon="1.37866">
        <ele>537.8</ele>
        <time>2021-11-21T08:02:05Z</time>
      </trkpt>
      <trkpt lat="45.97016" lon="1.37858">
        <ele>538</ele>
        <time>2021-11-21T08:02:11Z</time>
      </trkpt>
      <trkpt lat="45.97019" lon="1.37852">
        <ele>538</ele>
        <time>2021-11-21T08:02:13Z</time>
      </trkpt>
      <trkpt lat="45.97022" lon="1.37845">
        <ele>537.2</ele>
        <time>2021-11-21T08:02:15Z</time>
      </trkpt>
      <trkpt lat="45.97023" lon="1.37836">
        <ele>537</ele>
        <time>2021-11-21T08:02:17Z</time>
      </trkpt>
      <trkpt lat="45.97029" lon="1.37817">
        <ele>536.8</ele>
        <time>2021-11-21T08:02:22Z</time>
      </trkpt>
      <trkpt lat="45.97031" lon="1.37799">
        <ele>537</ele>
        <time>2021-11-21T08:02:27Z</time>
      </trkpt>
      <trkpt lat="45.9703" lon="1.37796">
        <ele>537</ele>
        <time>2021-11-21T08:02:28Z</time>
      </trkpt>
      <trkpt lat="45.97023" lon="1.37778">
        <ele>538.6</ele>
        <time>2021-11-21T08:02:35Z</time>
      </trkpt>
      <trkpt lat="45.97022" lon="1.37776">
        <ele>539</ele>
        <time>2021-11-21T08:02:36Z</time>
      </trkpt>
      <trkpt lat="45.97021" lon="1.37769">
        <ele>539.8</ele>
        <time>2021-11-21T08:02:39Z</time>
      </trkpt>
      <trkpt lat="45.97021" lon="1.37766">
        <ele>540.4</ele>
        <time>2021-11-21T08:02:41Z</time>
      </trkpt>
      <trkpt lat="45.97022" lon="1.3776">
        <ele>541.2</ele>
        <time>2021-11-21T08:02:44Z</time>
      </trkpt>
      <trkpt lat="45.9702" lon="1.37751">
        <ele>542</ele>
        <time>2021-11-21T08:02:49Z</time>
      </trkpt>
      <trkpt lat="45.9702" lon="1.37749">
        <ele>542.2</ele>
        <time>2021-11-21T08:02:50Z</time>
      </trkpt>
      <trkpt lat="45.97021" lon="1.37747">
        <ele>542.2</ele>
        <time>2021-11-21T08:02:51Z</time>
      </trkpt>
      <trkpt lat="45.97022" lon="1.37741">
        <ele>543.2</ele>
        <time>2021-11-21T08:02:55Z</time>
      </trkpt>
      <trkpt lat="45.97024" lon="1.37735">
        <ele>544.4</ele>
        <time>2021-11-21T08:02:58Z</time>
      </trkpt>
      <trkpt lat="45.97026" lon="1.37726">
        <ele>545.6</ele>
        <time>2021-11-21T08:03:03Z</time>
      </trkpt>
      <trkpt lat="45.97027" lon="1.37723">
        <ele>546.8</ele>
        <time>2021-11-21T08:03:06Z</time>
      </trkpt>
      <trkpt lat="45.97027" lon="1.37722">
        <ele>547.2</ele>
        <time>2021-11-21T08:03:07Z</time>
      </trkpt>
      <trkpt lat="45.97028" lon="1.3772">
        <ele>547.4</ele>
        <time>2021-11-21T08:03:08Z</time>
      </trkpt>
      <trkpt lat="45.97029" lon="1.37714">
        <ele>548</ele>
        <time>2021-11-21T08:03:13Z</time>
      </trkpt>
      <trkpt lat="45.97032" lon="1.37708">
        <ele>548.8</ele>
        <time>2021-11-21T08:03:18Z</time>
      </trkpt>
      <trkpt lat="45.97034" lon="1.37705">
        <ele>549.2</ele>
        <time>2021-11-21T08:03:20Z</time>
      </trkpt>
      <trkpt lat="45.97038" lon="1.37702">
        <ele>550.2</ele>
        <time>2021-11-21T08:03:25Z</time>
      </trkpt>
      <trkpt lat="45.97041" lon="1.37703">
        <ele>550.8</ele>
        <time>2021-11-21T08:03:28Z</time>
      </trkpt>
      <trkpt lat="45.97041" lon="1.37703">
        <ele>551</ele>
        <time>2021-11-21T08:03:29Z</time>
      </trkpt>
      <trkpt lat="45.97043" lon="1.37705">
        <ele>551.4</ele>
        <time>2021-11-21T08:03:32Z</time>
      </trkpt>
      <trkpt lat="45.97044" lon="1.37705">
        <ele>551.6</ele>
        <time>2021-11-21T08:03:33Z</time>
      </trkpt>
      <trkpt lat="45.97049" lon="1.37708">
        <ele>552.4</ele>
        <time>2021-11-21T08:03:40Z</time>
      </trkpt>
      <trkpt lat="45.9705" lon="1.37708">
        <ele>552.6</ele>
        <time>2021-11-21T08:03:41Z</time>
      </trkpt>
      <trkpt lat="45.97054" lon="1.37709">
        <ele>553.6</ele>
        <time>2021-11-21T08:03:46Z</time>
      </trkpt>
      <trkpt lat="45.97057" lon="1.37703">
        <ele>554.8</ele>
        <time>2021-11-21T08:03:52Z</time>
      </trkpt>
      <trkpt lat="45.97058" lon="1.37702">
        <ele>555.2</ele>
        <time>2021-11-21T08:03:54Z</time>
      </trkpt>
      <trkpt lat="45.97058" lon="1.37701">
        <ele>555.4</ele>
        <time>2021-11-21T08:03:55Z</time>
      </trkpt>
      <trkpt lat="45.97059" lon="1.377">
        <ele>555.8</ele>
        <time>2021-11-21T08:03:57Z</time>
      </trkpt>
      <trkpt lat="45.97059" lon="1.37699">
        <ele>555.8</ele>
        <time>2021-11-21T08:03:58Z</time>
      </trkpt>
      <trkpt lat="45.97061" lon="1.37696">
        <ele>556.6</ele>
        <time>2021-11-21T08:04:02Z</time>
      </trkpt>
      <trkpt lat="45.97062" lon="1.37694">
        <ele>557</ele>
        <time>2021-11-21T08:04:04Z</time>
      </trkpt>
      <trkpt lat="45.97063" lon="1.37691">
        <ele>557.4</ele>
        <time>2021-11-21T08:04:07Z</time>
      </trkpt>
      <trkpt lat="45.97064" lon="1.37688">
        <ele>558</ele>
        <time>2021-11-21T08:04:09Z</time>
      </trkpt>
      <trkpt lat="45.97064" lon="1.37687">
        <ele>558.2</ele>
        <time>2021-11-21T08:04:10Z</time>
      </trkpt>
      <trkpt lat="45.97065" lon="1.37685">
        <ele>558.4</ele>
        <time>2021-11-21T08:04:12Z</time>
      </trkpt>
      <trkpt lat="45.9707" lon="1.37675">
        <ele>559</ele>
        <time>2021-11-21T08:04:20Z</time>
      </trkpt>
      <trkpt lat="45.9707" lon="1.37674">
        <ele>559.2</ele>
        <time>2021-11-21T08:04:21Z</time>
      </trkpt>
      <trkpt lat="45.97072" lon="1.37672">
        <ele>559.8</ele>
        <time>2021-11-21T08:04:30Z</time>
      </trkpt>
      <trkpt lat="45.97075" lon="1.37666">
        <ele>559.8</ele>
        <time>2021-11-21T08:04:42Z</time>
      </trkpt>
      <trkpt lat="45.97075" lon="1.37663">
        <ele>560</ele>
        <time>2021-11-21T08:04:43Z</time>
      </trkpt>
      <trkpt lat="45.97076" lon="1.3766">
        <ele>560.4</ele>
        <time>2021-11-21T08:04:45Z</time>
      </trkpt>
      <trkpt lat="45.97075" lon="1.37651">
        <ele>561</ele>
        <time>2021-11-21T08:04:49Z</time>
      </trkpt>
      <trkpt lat="45.97076" lon="1.37646">
        <ele>561.6</ele>
        <time>2021-11-21T08:04:52Z</time>
      </trkpt>
      <trkpt lat="45.97077" lon="1.37637">
        <ele>562</ele>
        <time>2021-11-21T08:04:57Z</time>
      </trkpt>
      <trkpt lat="45.9708" lon="1.37623">
        <ele>562.2</ele>
        <time>2021-11-21T08:05:05Z</time>
      </trkpt>
      <trkpt lat="45.97085" lon="1.37605">
        <ele>561.4</ele>
        <time>2021-11-21T08:05:11Z</time>
      </trkpt>
      <trkpt lat="45.97094" lon="1.37587">
        <ele>560.6</ele>
        <time>2021-11-21T08:05:16Z</time>
      </trkpt>
      <trkpt lat="45.97097" lon="1.37583">
        <ele>560.4</ele>
        <time>2021-11-21T08:05:17Z</time>
      </trkpt>
      <trkpt lat="45.971" lon="1.37568">
        <ele>559.8</ele>
        <time>2021-11-21T08:05:21Z</time>
      </trkpt>
      <trkpt lat="45.971" lon="1.37563">
        <ele>559.2</ele>
        <time>2021-11-21T08:05:22Z</time>
      </trkpt>
      <trkpt lat="45.97096" lon="1.37543">
        <ele>557.8</ele>
        <time>2021-11-21T08:05:25Z</time>
      </trkpt>
      <trkpt lat="45.97092" lon="1.37532">
        <ele>557.6</ele>
        <time>2021-11-21T08:05:26Z</time>
      </trkpt>
      <trkpt lat="45.97084" lon="1.37501">
        <ele>557</ele>
        <time>2021-11-21T08:05:29Z</time>
      </trkpt>
      <trkpt lat="45.97082" lon="1.37484">
        <ele>556.8</ele>
        <time>2021-11-21T08:05:31Z</time>
      </trkpt>
      <trkpt lat="45.97084" lon="1.37469">
        <ele>556.4</ele>
        <time>2021-11-21T08:05:33Z</time>
      </trkpt>
      <trkpt lat="45.97087" lon="1.37458">
        <ele>556.2</ele>
        <time>2021-11-21T08:05:35Z</time>
      </trkpt>
      <trkpt lat="45.97101" lon="1.37425">
        <ele>556.2</ele>
        <time>2021-11-21T08:05:42Z</time>
      </trkpt>
      <trkpt lat="45.97117" lon="1.37392">
        <ele>557</ele>
        <time>2021-11-21T08:05:49Z</time>
      </trkpt>
      <trkpt lat="45.97125" lon="1.37372">
        <ele>557.8</ele>
        <time>2021-11-21T08:05:53Z</time>
      </trkpt>
      <trkpt lat="45.97133" lon="1.37351">
        <ele>559.2</ele>
        <time>2021-11-21T08:05:58Z</time>
      </trkpt>
      <trkpt lat="45.97137" lon="1.37323">
        <ele>560.4</ele>
        <time>2021-11-21T08:06:04Z</time>
      </trkpt>
      <trkpt lat="45.97137" lon="1.37319">
        <ele>560.6</ele>
        <time>2021-11-21T08:06:05Z</time>
      </trkpt>
      <trkpt lat="45.97144" lon="1.37296">
        <ele>560.6</ele>
        <time>2021-11-21T08:06:10Z</time>
      </trkpt>
      <trkpt lat="45.97152" lon="1.37276">
        <ele>560</ele>
        <time>2021-11-21T08:06:14Z</time>
      </trkpt>
      <trkpt lat="45.97159" lon="1.37264">
        <ele>559.8</ele>
        <time>2021-11-21T08:06:16Z</time>
      </trkpt>
      <trkpt lat="45.97166" lon="1.37252">
        <ele>559</ele>
        <time>2021-11-21T08:06:18Z</time>
      </trkpt>
      <trkpt lat="45.97182" lon="1.37225">
        <ele>557.6</ele>
        <time>2021-11-21T08:06:22Z</time>
      </trkpt>
      <trkpt lat="45.97186" lon="1.37218">
        <ele>557.2</ele>
        <time>2021-11-21T08:06:23Z</time>
      </trkpt>
      <trkpt lat="45.97201" lon="1.37197">
        <ele>556.4</ele>
        <time>2021-11-21T08:06:26Z</time>
      </trkpt>
      <trkpt lat="45.9721" lon="1.37183">
        <ele>555.2</ele>
        <time>2021-11-21T08:06:28Z</time>
      </trkpt>
      <trkpt lat="45.97215" lon="1.37176">
        <ele>554.2</ele>
        <time>2021-11-21T08:06:29Z</time>
      </trkpt>
      <trkpt lat="45.9722" lon="1.37171">
        <ele>553.8</ele>
        <time>2021-11-21T08:06:30Z</time>
      </trkpt>
      <trkpt lat="45.97241" lon="1.37148">
        <ele>552.8</ele>
        <time>2021-11-21T08:06:34Z</time>
      </trkpt>
      <trkpt lat="45.97246" lon="1.37142">
        <ele>552.8</ele>
        <time>2021-11-21T08:06:35Z</time>
      </trkpt>
      <trkpt lat="45.9726" lon="1.37125">
        <ele>551.6</ele>
        <time>2021-11-21T08:06:38Z</time>
      </trkpt>
      <trkpt lat="45.97272" lon="1.3711">
        <ele>550.6</ele>
        <time>2021-11-21T08:06:41Z</time>
      </trkpt>
      <trkpt lat="45.97288" lon="1.37094">
        <ele>550.6</ele>
        <time>2021-11-21T08:06:46Z</time>
      </trkpt>
      <trkpt lat="45.97293" lon="1.3709">
        <ele>551.4</ele>
        <time>2021-11-21T08:06:48Z</time>
      </trkpt>
      <trkpt lat="45.97296" lon="1.37088">
        <ele>551.8</ele>
        <time>2021-11-21T08:06:49Z</time>
      </trkpt>
      <trkpt lat="45.97304" lon="1.37084">
        <ele>552</ele>
        <time>2021-11-21T08:06:52Z</time>
      </trkpt>
      <trkpt lat="45.97316" lon="1.37079">
        <ele>552.8</ele>
        <time>2021-11-21T08:06:56Z</time>
      </trkpt>
      <trkpt lat="45.97322" lon="1.37077">
        <ele>553.4</ele>
        <time>2021-11-21T08:06:58Z</time>
      </trkpt>
      <trkpt lat="45.97334" lon="1.37074">
        <ele>553.8</ele>
        <time>2021-11-21T08:07:01Z</time>
      </trkpt>
      <trkpt lat="45.97347" lon="1.3707">
        <ele>554.4</ele>
        <time>2021-11-21T08:07:06Z</time>
      </trkpt>
      <trkpt lat="45.97356" lon="1.37066">
        <ele>555</ele>
        <time>2021-11-21T08:07:10Z</time>
      </trkpt>
      <trkpt lat="45.97363" lon="1.37063">
        <ele>555.6</ele>
        <time>2021-11-21T08:07:13Z</time>
      </trkpt>
      <trkpt lat="45.97366" lon="1.37061">
        <ele>556</ele>
        <time>2021-11-21T08:07:14Z</time>
      </trkpt>
      <trkpt lat="45.97388" lon="1.3705">
        <ele>557.2</ele>
        <time>2021-11-21T08:07:21Z</time>
      </trkpt>
      <trkpt lat="45.97409" lon="1.37036">
        <ele>557.6</ele>
        <time>2021-11-21T08:07:28Z</time>
      </trkpt>
      <trkpt lat="45.97433" lon="1.37018">
        <ele>557.6</ele>
        <time>2021-11-21T08:07:34Z</time>
      </trkpt>
      <trkpt lat="45.97448" lon="1.37006">
        <ele>557</ele>
        <time>2021-11-21T08:07:38Z</time>
      </trkpt>
      <trkpt lat="45.97463" lon="1.36996">
        <ele>557</ele>
        <time>2021-11-21T08:07:41Z</time>
      </trkpt>
      <trkpt lat="45.97472" lon="1.3699">
        <ele>557</ele>
        <time>2021-11-21T08:07:43Z</time>
      </trkpt>
      <trkpt lat="45.97476" lon="1.36988">
        <ele>557</ele>
        <time>2021-11-21T08:07:44Z</time>
      </trkpt>
      <trkpt lat="45.97484" lon="1.36985">
        <ele>556.6</ele>
        <time>2021-11-21T08:07:46Z</time>
      </trkpt>
      <trkpt lat="45.97507" lon="1.3698">
        <ele>556</ele>
        <time>2021-11-21T08:07:52Z</time>
      </trkpt>
      <trkpt lat="45.97528" lon="1.36971">
        <ele>555.2</ele>
        <time>2021-11-21T08:07:56Z</time>
      </trkpt>
      <trkpt lat="45.97533" lon="1.36968">
        <ele>554.8</ele>
        <time>2021-11-21T08:07:57Z</time>
      </trkpt>
      <trkpt lat="45.97539" lon="1.36964">
        <ele>554.6</ele>
        <time>2021-11-21T08:07:58Z</time>
      </trkpt>
      <trkpt lat="45.97545" lon="1.36959">
        <ele>553.8</ele>
        <time>2021-11-21T08:07:59Z</time>
      </trkpt>
      <trkpt lat="45.97552" lon="1.36953">
        <ele>553.4</ele>
        <time>2021-11-21T08:08:00Z</time>
      </trkpt>
      <trkpt lat="45.97557" lon="1.36946">
        <ele>552.8</ele>
        <time>2021-11-21T08:08:01Z</time>
      </trkpt>
      <trkpt lat="45.97563" lon="1.36939">
        <ele>551.8</ele>
        <time>2021-11-21T08:08:02Z</time>
      </trkpt>
      <trkpt lat="45.97567" lon="1.36931">
        <ele>550.8</ele>
        <time>2021-11-21T08:08:03Z</time>
      </trkpt>
      <trkpt lat="45.97575" lon="1.36917">
        <ele>550</ele>
        <time>2021-11-21T08:08:05Z</time>
      </trkpt>
      <trkpt lat="45.97582" lon="1.36902">
        <ele>549.6</ele>
        <time>2021-11-21T08:08:07Z</time>
      </trkpt>
      <trkpt lat="45.9759" lon="1.36889">
        <ele>549</ele>
        <time>2021-11-21T08:08:09Z</time>
      </trkpt>
      <trkpt lat="45.97618" lon="1.36843">
        <ele>548.2</ele>
        <time>2021-11-21T08:08:16Z</time>
      </trkpt>
      <trkpt lat="45.97625" lon="1.36829">
        <ele>547.4</ele>
        <time>2021-11-21T08:08:18Z</time>
      </trkpt>
      <trkpt lat="45.97629" lon="1.36823">
        <ele>547</ele>
        <time>2021-11-21T08:08:19Z</time>
      </trkpt>
      <trkpt lat="45.97642" lon="1.36804">
        <ele>546.2</ele>
        <time>2021-11-21T08:08:22Z</time>
      </trkpt>
      <trkpt lat="45.97653" lon="1.36793">
        <ele>546</ele>
        <time>2021-11-21T08:08:24Z</time>
      </trkpt>
      <trkpt lat="45.97659" lon="1.36788">
        <ele>546</ele>
        <time>2021-11-21T08:08:25Z</time>
      </trkpt>
      <trkpt lat="45.97666" lon="1.36783">
        <ele>546</ele>
        <time>2021-11-21T08:08:26Z</time>
      </trkpt>
      <trkpt lat="45.97683" lon="1.36769">
        <ele>544.8</ele>
        <time>2021-11-21T08:08:29Z</time>
      </trkpt>
      <trkpt lat="45.97688" lon="1.36766">
        <ele>544.4</ele>
        <time>2021-11-21T08:08:30Z</time>
      </trkpt>
      <trkpt lat="45.97694" lon="1.36765">
        <ele>544</ele>
        <time>2021-11-21T08:08:31Z</time>
      </trkpt>
      <trkpt lat="45.97698" lon="1.36766">
        <ele>544</ele>
        <time>2021-11-21T08:08:32Z</time>
      </trkpt>
      <trkpt lat="45.97707" lon="1.36776">
        <ele>543.4</ele>
        <time>2021-11-21T08:08:34Z</time>
      </trkpt>
      <trkpt lat="45.97717" lon="1.3679">
        <ele>542.6</ele>
        <time>2021-11-21T08:08:36Z</time>
      </trkpt>
      <trkpt lat="45.97721" lon="1.36798">
        <ele>542.2</ele>
        <time>2021-11-21T08:08:37Z</time>
      </trkpt>
      <trkpt lat="45.97725" lon="1.36804">
        <ele>542</ele>
        <time>2021-11-21T08:08:38Z</time>
      </trkpt>
      <trkpt lat="45.97748" lon="1.36844">
        <ele>541.2</ele>
        <time>2021-11-21T08:08:44Z</time>
      </trkpt>
      <trkpt lat="45.97752" lon="1.36851">
        <ele>541</ele>
        <time>2021-11-21T08:08:45Z</time>
      </trkpt>
      <trkpt lat="45.97771" lon="1.36889">
        <ele>540.2</ele>
        <time>2021-11-21T08:08:51Z</time>
      </trkpt>
      <trkpt lat="45.97775" lon="1.36894">
        <ele>540.2</ele>
        <time>2021-11-21T08:08:52Z</time>
      </trkpt>
      <trkpt lat="45.97784" lon="1.36906">
        <ele>540.2</ele>
        <time>2021-11-21T08:08:55Z</time>
      </trkpt>
      <trkpt lat="45.97795" lon="1.36915">
        <ele>540.4</ele>
        <time>2021-11-21T08:08:58Z</time>
      </trkpt>
      <trkpt lat="45.97814" lon="1.36933">
        <ele>540.2</ele>
        <time>2021-11-21T08:09:04Z</time>
      </trkpt>
      <trkpt lat="45.97816" lon="1.36938">
        <ele>540</ele>
        <time>2021-11-21T08:09:05Z</time>
      </trkpt>
      <trkpt lat="45.97815" lon="1.36948">
        <ele>540</ele>
        <time>2021-11-21T08:09:07Z</time>
      </trkpt>
      <trkpt lat="45.97816" lon="1.36961">
        <ele>539.8</ele>
        <time>2021-11-21T08:09:09Z</time>
      </trkpt>
      <trkpt lat="45.97818" lon="1.36968">
        <ele>539.8</ele>
        <time>2021-11-21T08:09:10Z</time>
      </trkpt>
      <trkpt lat="45.97836" lon="1.3701">
        <ele>539.4</ele>
        <time>2021-11-21T08:09:16Z</time>
      </trkpt>
      <trkpt lat="45.97838" lon="1.37017">
        <ele>539.2</ele>
        <time>2021-11-21T08:09:17Z</time>
      </trkpt>
      <trkpt lat="45.97839" lon="1.37023">
        <ele>539.2</ele>
        <time>2021-11-21T08:09:18Z</time>
      </trkpt>
      <trkpt lat="45.97839" lon="1.37028">
        <ele>539</ele>
        <time>2021-11-21T08:09:19Z</time>
      </trkpt>
      <trkpt lat="45.97839" lon="1.37033">
        <ele>539.2</ele>
        <time>2021-11-21T08:09:20Z</time>
      </trkpt>
      <trkpt lat="45.97837" lon="1.37037">
        <ele>539.4</ele>
        <time>2021-11-21T08:09:21Z</time>
      </trkpt>
      <trkpt lat="45.97832" lon="1.3705">
        <ele>539.6</ele>
        <time>2021-11-21T08:09:25Z</time>
      </trkpt>
      <trkpt lat="45.97827" lon="1.37072">
        <ele>540.2</ele>
        <time>2021-11-21T08:09:31Z</time>
      </trkpt>
      <trkpt lat="45.97827" lon="1.37079">
        <ele>541.2</ele>
        <time>2021-11-21T08:09:34Z</time>
      </trkpt>
      <trkpt lat="45.97827" lon="1.37088">
        <ele>542.2</ele>
        <time>2021-11-21T08:09:37Z</time>
      </trkpt>
      <trkpt lat="45.97829" lon="1.3709">
        <ele>542.6</ele>
        <time>2021-11-21T08:09:38Z</time>
      </trkpt>
      <trkpt lat="45.97842" lon="1.37103">
        <ele>543.6</ele>
        <time>2021-11-21T08:09:44Z</time>
      </trkpt>
      <trkpt lat="45.97849" lon="1.3711">
        <ele>545.2</ele>
        <time>2021-11-21T08:09:48Z</time>
      </trkpt>
      <trkpt lat="45.97851" lon="1.37112">
        <ele>545.6</ele>
        <time>2021-11-21T08:09:49Z</time>
      </trkpt>
      <trkpt lat="45.97857" lon="1.37115">
        <ele>546.2</ele>
        <time>2021-11-21T08:09:52Z</time>
      </trkpt>
      <trkpt lat="45.97862" lon="1.37118">
        <ele>546.6</ele>
        <time>2021-11-21T08:09:55Z</time>
      </trkpt>
      <trkpt lat="45.97868" lon="1.37121">
        <ele>547.4</ele>
        <time>2021-11-21T08:09:58Z</time>
      </trkpt>
      <trkpt lat="45.97872" lon="1.37127">
        <ele>547.8</ele>
        <time>2021-11-21T08:10:01Z</time>
      </trkpt>
      <trkpt lat="45.97874" lon="1.37131">
        <ele>548.4</ele>
        <time>2021-11-21T08:10:03Z</time>
      </trkpt>
      <trkpt lat="45.97874" lon="1.37139">
        <ele>549</ele>
        <time>2021-11-21T08:10:06Z</time>
      </trkpt>
      <trkpt lat="45.97876" lon="1.37155">
        <ele>549.6</ele>
        <time>2021-11-21T08:10:10Z</time>
      </trkpt>
      <trkpt lat="45.97875" lon="1.37169">
        <ele>550</ele>
        <time>2021-11-21T08:10:14Z</time>
      </trkpt>
      <trkpt lat="45.97875" lon="1.37187">
        <ele>550.8</ele>
        <time>2021-11-21T08:10:19Z</time>
      </trkpt>
      <trkpt lat="45.97875" lon="1.37195">
        <ele>551</ele>
        <time>2021-11-21T08:10:21Z</time>
      </trkpt>
      <trkpt lat="45.97874" lon="1.37223">
        <ele>551.8</ele>
        <time>2021-11-21T08:10:28Z</time>
      </trkpt>
      <trkpt lat="45.97874" lon="1.37226">
        <ele>552.2</ele>
        <time>2021-11-21T08:10:29Z</time>
      </trkpt>
      <trkpt lat="45.97869" lon="1.37241">
        <ele>552.8</ele>
        <time>2021-11-21T08:10:33Z</time>
      </trkpt>
      <trkpt lat="45.97867" lon="1.37263">
        <ele>553.2</ele>
        <time>2021-11-21T08:10:37Z</time>
      </trkpt>
      <trkpt lat="45.97866" lon="1.3727">
        <ele>553.2</ele>
        <time>2021-11-21T08:10:38Z</time>
      </trkpt>
      <trkpt lat="45.97864" lon="1.37298">
        <ele>553.4</ele>
        <time>2021-11-21T08:10:43Z</time>
      </trkpt>
      <trkpt lat="45.97863" lon="1.37337">
        <ele>553.8</ele>
        <time>2021-11-21T08:10:49Z</time>
      </trkpt>
      <trkpt lat="45.97865" lon="1.37354">
        <ele>554.4</ele>
        <time>2021-11-21T08:10:52Z</time>
      </trkpt>
      <trkpt lat="45.97866" lon="1.37368">
        <ele>554.4</ele>
        <time>2021-11-21T08:10:55Z</time>
      </trkpt>
      <trkpt lat="45.9787" lon="1.37391">
        <ele>554.2</ele>
        <time>2021-11-21T08:11:01Z</time>
      </trkpt>
      <trkpt lat="45.97873" lon="1.37408">
        <ele>553.2</ele>
        <time>2021-11-21T08:11:06Z</time>
      </trkpt>
      <trkpt lat="45.97876" lon="1.37413">
        <ele>552.6</ele>
        <time>2021-11-21T08:11:08Z</time>
      </trkpt>
      <trkpt lat="45.97878" lon="1.37415">
        <ele>552.4</ele>
        <time>2021-11-21T08:11:09Z</time>
      </trkpt>
      <trkpt lat="45.97884" lon="1.37415">
        <ele>551.8</ele>
        <time>2021-11-21T08:11:11Z</time>
      </trkpt>
      <trkpt lat="45.97887" lon="1.37415">
        <ele>551.6</ele>
        <time>2021-11-21T08:11:12Z</time>
      </trkpt>
      <trkpt lat="45.97892" lon="1.37414">
        <ele>551.2</ele>
        <time>2021-11-21T08:11:13Z</time>
      </trkpt>
      <trkpt lat="45.97896" lon="1.37415">
        <ele>550.6</ele>
        <time>2021-11-21T08:11:14Z</time>
      </trkpt>
      <trkpt lat="45.97901" lon="1.37416">
        <ele>549.6</ele>
        <time>2021-11-21T08:11:15Z</time>
      </trkpt>
      <trkpt lat="45.97906" lon="1.37417">
        <ele>548.8</ele>
        <time>2021-11-21T08:11:16Z</time>
      </trkpt>
      <trkpt lat="45.9791" lon="1.37419">
        <ele>547.6</ele>
        <time>2021-11-21T08:11:17Z</time>
      </trkpt>
      <trkpt lat="45.97924" lon="1.37425">
        <ele>546.6</ele>
        <time>2021-11-21T08:11:19Z</time>
      </trkpt>
      <trkpt lat="45.97943" lon="1.3744">
        <ele>545.4</ele>
        <time>2021-11-21T08:11:22Z</time>
      </trkpt>
      <trkpt lat="45.97948" lon="1.37444">
        <ele>544.6</ele>
        <time>2021-11-21T08:11:23Z</time>
      </trkpt>
      <trkpt lat="45.97953" lon="1.37447">
        <ele>543.4</ele>
        <time>2021-11-21T08:11:24Z</time>
      </trkpt>
      <trkpt lat="45.97958" lon="1.37449">
        <ele>542.6</ele>
        <time>2021-11-21T08:11:25Z</time>
      </trkpt>
      <trkpt lat="45.97963" lon="1.3745">
        <ele>542</ele>
        <time>2021-11-21T08:11:26Z</time>
      </trkpt>
      <trkpt lat="45.97969" lon="1.37451">
        <ele>541.8</ele>
        <time>2021-11-21T08:11:27Z</time>
      </trkpt>
      <trkpt lat="45.97984" lon="1.3745">
        <ele>540.8</ele>
        <time>2021-11-21T08:11:29Z</time>
      </trkpt>
      <trkpt lat="45.98002" lon="1.37453">
        <ele>540.2</ele>
        <time>2021-11-21T08:11:31Z</time>
      </trkpt>
      <trkpt lat="45.98028" lon="1.37454">
        <ele>539.6</ele>
        <time>2021-11-21T08:11:34Z</time>
      </trkpt>
      <trkpt lat="45.98056" lon="1.37455">
        <ele>539.6</ele>
        <time>2021-11-21T08:11:37Z</time>
      </trkpt>
      <trkpt lat="45.98063" lon="1.37457">
        <ele>539.4</ele>
        <time>2021-11-21T08:11:38Z</time>
      </trkpt>
      <trkpt lat="45.98083" lon="1.37466">
        <ele>539.2</ele>
        <time>2021-11-21T08:11:41Z</time>
      </trkpt>
      <trkpt lat="45.98088" lon="1.37469">
        <ele>539.2</ele>
        <time>2021-11-21T08:11:42Z</time>
      </trkpt>
      <trkpt lat="45.98093" lon="1.37471">
        <ele>539.2</ele>
        <time>2021-11-21T08:11:43Z</time>
      </trkpt>
      <trkpt lat="45.98102" lon="1.37473">
        <ele>539.2</ele>
        <time>2021-11-21T08:11:45Z</time>
      </trkpt>
      <trkpt lat="45.98106" lon="1.37473">
        <ele>539.4</ele>
        <time>2021-11-21T08:11:46Z</time>
      </trkpt>
      <trkpt lat="45.98123" lon="1.37476">
        <ele>541</ele>
        <time>2021-11-21T08:11:50Z</time>
      </trkpt>
      <trkpt lat="45.98127" lon="1.37477">
        <ele>541.4</ele>
        <time>2021-11-21T08:11:51Z</time>
      </trkpt>
      <trkpt lat="45.98132" lon="1.37477">
        <ele>541.8</ele>
        <time>2021-11-21T08:11:52Z</time>
      </trkpt>
      <trkpt lat="45.98141" lon="1.37476">
        <ele>542.2</ele>
        <time>2021-11-21T08:11:54Z</time>
      </trkpt>
      <trkpt lat="45.98162" lon="1.37474">
        <ele>543.6</ele>
        <time>2021-11-21T08:11:59Z</time>
      </trkpt>
      <trkpt lat="45.98173" lon="1.37474">
        <ele>544.8</ele>
        <time>2021-11-21T08:12:02Z</time>
      </trkpt>
      <trkpt lat="45.98177" lon="1.37473">
        <ele>545.2</ele>
        <time>2021-11-21T08:12:04Z</time>
      </trkpt>
      <trkpt lat="45.98185" lon="1.37473">
        <ele>546</ele>
        <time>2021-11-21T08:12:08Z</time>
      </trkpt>
      <trkpt lat="45.98188" lon="1.37474">
        <ele>546.2</ele>
        <time>2021-11-21T08:12:10Z</time>
      </trkpt>
      <trkpt lat="45.98196" lon="1.37475">
        <ele>547</ele>
        <time>2021-11-21T08:12:14Z</time>
      </trkpt>
      <trkpt lat="45.98207" lon="1.37478">
        <ele>547.8</ele>
        <time>2021-11-21T08:12:18Z</time>
      </trkpt>
      <trkpt lat="45.98234" lon="1.37481">
        <ele>547.8</ele>
        <time>2021-11-21T08:12:26Z</time>
      </trkpt>
      <trkpt lat="45.98245" lon="1.37483">
        <ele>546.8</ele>
        <time>2021-11-21T08:12:29Z</time>
      </trkpt>
      <trkpt lat="45.98254" lon="1.37481">
        <ele>545.2</ele>
        <time>2021-11-21T08:12:31Z</time>
      </trkpt>
      <trkpt lat="45.98265" lon="1.37476">
        <ele>544</ele>
        <time>2021-11-21T08:12:34Z</time>
      </trkpt>
      <trkpt lat="45.98271" lon="1.37476">
        <ele>543.2</ele>
        <time>2021-11-21T08:12:36Z</time>
      </trkpt>
      <trkpt lat="45.98274" lon="1.37479">
        <ele>543</ele>
        <time>2021-11-21T08:12:37Z</time>
      </trkpt>
      <trkpt lat="45.98276" lon="1.37483">
        <ele>541.8</ele>
        <time>2021-11-21T08:12:38Z</time>
      </trkpt>
      <trkpt lat="45.98278" lon="1.37489">
        <ele>541</ele>
        <time>2021-11-21T08:12:39Z</time>
      </trkpt>
      <trkpt lat="45.9828" lon="1.37496">
        <ele>540.6</ele>
        <time>2021-11-21T08:12:40Z</time>
      </trkpt>
      <trkpt lat="45.98283" lon="1.3751">
        <ele>538.4</ele>
        <time>2021-11-21T08:12:42Z</time>
      </trkpt>
      <trkpt lat="45.98284" lon="1.37516">
        <ele>537.6</ele>
        <time>2021-11-21T08:12:43Z</time>
      </trkpt>
      <trkpt lat="45.98284" lon="1.37516">
        <ele>536.4</ele>
        <time>2021-11-21T08:12:45Z</time>
      </trkpt>
      <trkpt lat="45.98284" lon="1.3753">
        <ele>535.6</ele>
        <time>2021-11-21T08:12:47Z</time>
      </trkpt>
      <trkpt lat="45.98284" lon="1.37533">
        <ele>534.4</ele>
        <time>2021-11-21T08:12:48Z</time>
      </trkpt>
      <trkpt lat="45.98284" lon="1.37539">
        <ele>533.4</ele>
        <time>2021-11-21T08:12:50Z</time>
      </trkpt>
      <trkpt lat="45.98288" lon="1.37542">
        <ele>532.6</ele>
        <time>2021-11-21T08:12:52Z</time>
      </trkpt>
      <trkpt lat="45.98291" lon="1.3754">
        <ele>532</ele>
        <time>2021-11-21T08:12:54Z</time>
      </trkpt>
      <trkpt lat="45.98298" lon="1.37532">
        <ele>530.6</ele>
        <time>2021-11-21T08:12:57Z</time>
      </trkpt>
      <trkpt lat="45.98302" lon="1.37529">
        <ele>530.2</ele>
        <time>2021-11-21T08:12:58Z</time>
      </trkpt>
      <trkpt lat="45.98308" lon="1.37521">
        <ele>529.6</ele>
        <time>2021-11-21T08:13:00Z</time>
      </trkpt>
      <trkpt lat="45.98312" lon="1.37517">
        <ele>529.2</ele>
        <time>2021-11-21T08:13:01Z</time>
      </trkpt>
      <trkpt lat="45.98313" lon="1.37514">
        <ele>528.4</ele>
        <time>2021-11-21T08:13:02Z</time>
      </trkpt>
      <trkpt lat="45.98315" lon="1.37511">
        <ele>527.4</ele>
        <time>2021-11-21T08:13:03Z</time>
      </trkpt>
      <trkpt lat="45.98318" lon="1.37508">
        <ele>526</ele>
        <time>2021-11-21T08:13:05Z</time>
      </trkpt>
      <trkpt lat="45.98319" lon="1.37509">
        <ele>525</ele>
        <time>2021-11-21T08:13:06Z</time>
      </trkpt>
      <trkpt lat="45.98319" lon="1.3751">
        <ele>524.4</ele>
        <time>2021-11-21T08:13:07Z</time>
      </trkpt>
      <trkpt lat="45.98321" lon="1.37512">
        <ele>524</ele>
        <time>2021-11-21T08:13:08Z</time>
      </trkpt>
      <trkpt lat="45.98322" lon="1.37517">
        <ele>523.4</ele>
        <time>2021-11-21T08:13:10Z</time>
      </trkpt>
      <trkpt lat="45.98322" lon="1.37522">
        <ele>523</ele>
        <time>2021-11-21T08:13:11Z</time>
      </trkpt>
      <trkpt lat="45.98324" lon="1.37536">
        <ele>521.2</ele>
        <time>2021-11-21T08:13:14Z</time>
      </trkpt>
      <trkpt lat="45.98323" lon="1.37546">
        <ele>520</ele>
        <time>2021-11-21T08:13:16Z</time>
      </trkpt>
      <trkpt lat="45.98321" lon="1.37554">
        <ele>518.6</ele>
        <time>2021-11-21T08:13:18Z</time>
      </trkpt>
      <trkpt lat="45.98321" lon="1.37554">
        <ele>517</ele>
        <time>2021-11-21T08:13:19Z</time>
      </trkpt>
      <trkpt lat="45.9832" lon="1.37564">
        <ele>517</ele>
        <time>2021-11-21T08:13:20Z</time>
      </trkpt>
      <trkpt lat="45.98317" lon="1.37575">
        <ele>515</ele>
        <time>2021-11-21T08:13:22Z</time>
      </trkpt>
      <trkpt lat="45.98312" lon="1.37588">
        <ele>513.4</ele>
        <time>2021-11-21T08:13:24Z</time>
      </trkpt>
      <trkpt lat="45.9831" lon="1.37594">
        <ele>512</ele>
        <time>2021-11-21T08:13:25Z</time>
      </trkpt>
      <trkpt lat="45.98307" lon="1.37605">
        <ele>510.8</ele>
        <time>2021-11-21T08:13:27Z</time>
      </trkpt>
      <trkpt lat="45.98307" lon="1.3761">
        <ele>510.4</ele>
        <time>2021-11-21T08:13:28Z</time>
      </trkpt>
      <trkpt lat="45.98306" lon="1.37616">
        <ele>510.2</ele>
        <time>2021-11-21T08:13:29Z</time>
      </trkpt>
      <trkpt lat="45.98305" lon="1.3762">
        <ele>509.2</ele>
        <time>2021-11-21T08:13:30Z</time>
      </trkpt>
      <trkpt lat="45.98302" lon="1.37632">
        <ele>507.8</ele>
        <time>2021-11-21T08:13:32Z</time>
      </trkpt>
      <trkpt lat="45.98299" lon="1.37638">
        <ele>507.4</ele>
        <time>2021-11-21T08:13:33Z</time>
      </trkpt>
      <trkpt lat="45.98292" lon="1.37649">
        <ele>506.4</ele>
        <time>2021-11-21T08:13:35Z</time>
      </trkpt>
      <trkpt lat="45.98287" lon="1.37659">
        <ele>504.2</ele>
        <time>2021-11-21T08:13:37Z</time>
      </trkpt>
      <trkpt lat="45.98281" lon="1.37668">
        <ele>503</ele>
        <time>2021-11-21T08:13:39Z</time>
      </trkpt>
      <trkpt lat="45.98274" lon="1.37679">
        <ele>501.6</ele>
        <time>2021-11-21T08:13:41Z</time>
      </trkpt>
      <trkpt lat="45.98269" lon="1.37691">
        <ele>500.2</ele>
        <time>2021-11-21T08:13:43Z</time>
      </trkpt>
      <trkpt lat="45.98266" lon="1.37698">
        <ele>499.2</ele>
        <time>2021-11-21T08:13:44Z</time>
      </trkpt>
      <trkpt lat="45.98261" lon="1.3771">
        <ele>497</ele>
        <time>2021-11-21T08:13:46Z</time>
      </trkpt>
      <trkpt lat="45.98258" lon="1.37715">
        <ele>495.6</ele>
        <time>2021-11-21T08:13:47Z</time>
      </trkpt>
      <trkpt lat="45.98253" lon="1.37725">
        <ele>494.4</ele>
        <time>2021-11-21T08:13:49Z</time>
      </trkpt>
      <trkpt lat="45.98248" lon="1.37735">
        <ele>493.2</ele>
        <time>2021-11-21T08:13:51Z</time>
      </trkpt>
      <trkpt lat="45.98243" lon="1.37741">
        <ele>491.6</ele>
        <time>2021-11-21T08:13:53Z</time>
      </trkpt>
      <trkpt lat="45.98237" lon="1.37747">
        <ele>489.8</ele>
        <time>2021-11-21T08:13:55Z</time>
      </trkpt>
      <trkpt lat="45.98232" lon="1.37755">
        <ele>488.2</ele>
        <time>2021-11-21T08:13:57Z</time>
      </trkpt>
      <trkpt lat="45.98228" lon="1.37762">
        <ele>486</ele>
        <time>2021-11-21T08:13:59Z</time>
      </trkpt>
      <trkpt lat="45.98223" lon="1.37768">
        <ele>484.4</ele>
        <time>2021-11-21T08:14:01Z</time>
      </trkpt>
      <trkpt lat="45.98218" lon="1.37775">
        <ele>483</ele>
        <time>2021-11-21T08:14:03Z</time>
      </trkpt>
      <trkpt lat="45.98214" lon="1.3778">
        <ele>481.6</ele>
        <time>2021-11-21T08:14:05Z</time>
      </trkpt>
      <trkpt lat="45.98208" lon="1.37785">
        <ele>479.8</ele>
        <time>2021-11-21T08:14:07Z</time>
      </trkpt>
      <trkpt lat="45.98207" lon="1.37787">
        <ele>479</ele>
        <time>2021-11-21T08:14:08Z</time>
      </trkpt>
      <trkpt lat="45.98205" lon="1.37789">
        <ele>478.6</ele>
        <time>2021-11-21T08:14:09Z</time>
      </trkpt>
      <trkpt lat="45.98196" lon="1.37795">
        <ele>477.6</ele>
        <time>2021-11-21T08:14:11Z</time>
      </trkpt>
      <trkpt lat="45.98193" lon="1.37798">
        <ele>477</ele>
        <time>2021-11-21T08:14:12Z</time>
      </trkpt>
      <trkpt lat="45.98192" lon="1.37801">
        <ele>476</ele>
        <time>2021-11-21T08:14:13Z</time>
      </trkpt>
      <trkpt lat="45.98191" lon="1.37804">
        <ele>475.4</ele>
        <time>2021-11-21T08:14:14Z</time>
      </trkpt>
      <trkpt lat="45.98192" lon="1.37805">
        <ele>474.8</ele>
        <time>2021-11-21T08:14:15Z</time>
      </trkpt>
      <trkpt lat="45.98196" lon="1.37808">
        <ele>473.8</ele>
        <time>2021-11-21T08:14:17Z</time>
      </trkpt>
      <trkpt lat="45.98197" lon="1.3781">
        <ele>473.2</ele>
        <time>2021-11-21T08:14:18Z</time>
      </trkpt>
      <trkpt lat="45.98203" lon="1.37819">
        <ele>471.2</ele>
        <time>2021-11-21T08:14:21Z</time>
      </trkpt>
      <trkpt lat="45.98204" lon="1.37821">
        <ele>469.4</ele>
        <time>2021-11-21T08:14:22Z</time>
      </trkpt>
      <trkpt lat="45.98206" lon="1.37822">
        <ele>468.2</ele>
        <time>2021-11-21T08:14:23Z</time>
      </trkpt>
      <trkpt lat="45.98211" lon="1.37826">
        <ele>467</ele>
        <time>2021-11-21T08:14:25Z</time>
      </trkpt>
      <trkpt lat="45.98214" lon="1.37832">
        <ele>465.6</ele>
        <time>2021-11-21T08:14:27Z</time>
      </trkpt>
      <trkpt lat="45.9822" lon="1.37836">
        <ele>464.4</ele>
        <time>2021-11-21T08:14:29Z</time>
      </trkpt>
      <trkpt lat="45.98227" lon="1.37836">
        <ele>463.2</ele>
        <time>2021-11-21T08:14:31Z</time>
      </trkpt>
      <trkpt lat="45.98235" lon="1.37836">
        <ele>461.4</ele>
        <time>2021-11-21T08:14:33Z</time>
      </trkpt>
      <trkpt lat="45.98244" lon="1.37836">
        <ele>459.4</ele>
        <time>2021-11-21T08:14:35Z</time>
      </trkpt>
      <trkpt lat="45.98249" lon="1.37836">
        <ele>458.8</ele>
        <time>2021-11-21T08:14:36Z</time>
      </trkpt>
      <trkpt lat="45.98258" lon="1.37837">
        <ele>458.4</ele>
        <time>2021-11-21T08:14:38Z</time>
      </trkpt>
      <trkpt lat="45.98262" lon="1.37837">
        <ele>458.4</ele>
        <time>2021-11-21T08:14:39Z</time>
      </trkpt>
      <trkpt lat="45.98268" lon="1.37834">
        <ele>458.2</ele>
        <time>2021-11-21T08:14:41Z</time>
      </trkpt>
      <trkpt lat="45.98283" lon="1.37825">
        <ele>459.4</ele>
        <time>2021-11-21T08:14:46Z</time>
      </trkpt>
      <trkpt lat="45.9829" lon="1.3782">
        <ele>459.8</ele>
        <time>2021-11-21T08:14:48Z</time>
      </trkpt>
      <trkpt lat="45.98301" lon="1.37813">
        <ele>459.8</ele>
        <time>2021-11-21T08:14:51Z</time>
      </trkpt>
      <trkpt lat="45.9831" lon="1.37804">
        <ele>460</ele>
        <time>2021-11-21T08:14:54Z</time>
      </trkpt>
      <trkpt lat="45.98321" lon="1.3779">
        <ele>460.6</ele>
        <time>2021-11-21T08:14:59Z</time>
      </trkpt>
      <trkpt lat="45.98327" lon="1.37781">
        <ele>461.2</ele>
        <time>2021-11-21T08:15:02Z</time>
      </trkpt>
      <trkpt lat="45.98338" lon="1.37759">
        <ele>461.8</ele>
        <time>2021-11-21T08:15:08Z</time>
      </trkpt>
      <trkpt lat="45.98353" lon="1.37746">
        <ele>462.4</ele>
        <time>2021-11-21T08:15:13Z</time>
      </trkpt>
      <trkpt lat="45.98361" lon="1.37741">
        <ele>462.4</ele>
        <time>2021-11-21T08:15:15Z</time>
      </trkpt>
      <trkpt lat="45.98371" lon="1.3773">
        <ele>461.4</ele>
        <time>2021-11-21T08:15:18Z</time>
      </trkpt>
      <trkpt lat="45.98382" lon="1.37718">
        <ele>460.6</ele>
        <time>2021-11-21T08:15:21Z</time>
      </trkpt>
      <trkpt lat="45.98385" lon="1.37709">
        <ele>460</ele>
        <time>2021-11-21T08:15:24Z</time>
      </trkpt>
      <trkpt lat="45.98385" lon="1.37706">
        <ele>460</ele>
        <time>2021-11-21T08:15:25Z</time>
      </trkpt>
      <trkpt lat="45.98388" lon="1.37692">
        <ele>462</ele>
        <time>2021-11-21T08:15:31Z</time>
      </trkpt>
      <trkpt lat="45.98388" lon="1.3769">
        <ele>462.4</ele>
        <time>2021-11-21T08:15:32Z</time>
      </trkpt>
      <trkpt lat="45.9839" lon="1.37686">
        <ele>463</ele>
        <time>2021-11-21T08:15:35Z</time>
      </trkpt>
      <trkpt lat="45.98391" lon="1.37685">
        <ele>463.2</ele>
        <time>2021-11-21T08:15:36Z</time>
      </trkpt>
      <trkpt lat="45.98393" lon="1.3768">
        <ele>464.2</ele>
        <time>2021-11-21T08:15:39Z</time>
      </trkpt>
      <trkpt lat="45.98399" lon="1.37665">
        <ele>465.4</ele>
        <time>2021-11-21T08:15:46Z</time>
      </trkpt>
      <trkpt lat="45.98401" lon="1.37656">
        <ele>466.4</ele>
        <time>2021-11-21T08:15:50Z</time>
      </trkpt>
      <trkpt lat="45.98402" lon="1.37653">
        <ele>466.8</ele>
        <time>2021-11-21T08:15:52Z</time>
      </trkpt>
      <trkpt lat="45.98403" lon="1.37651">
        <ele>467</ele>
        <time>2021-11-21T08:15:53Z</time>
      </trkpt>
      <trkpt lat="45.98405" lon="1.37647">
        <ele>467.4</ele>
        <time>2021-11-21T08:15:55Z</time>
      </trkpt>
      <trkpt lat="45.98407" lon="1.3764">
        <ele>468.6</ele>
        <time>2021-11-21T08:15:59Z</time>
      </trkpt>
      <trkpt lat="45.98407" lon="1.37638">
        <ele>468.8</ele>
        <time>2021-11-21T08:16:00Z</time>
      </trkpt>
      <trkpt lat="45.98408" lon="1.3763">
        <ele>469.8</ele>
        <time>2021-11-21T08:16:04Z</time>
      </trkpt>
      <trkpt lat="45.98407" lon="1.37627">
        <ele>470.6</ele>
        <time>2021-11-21T08:16:06Z</time>
      </trkpt>
      <trkpt lat="45.98407" lon="1.37625">
        <ele>471</ele>
        <time>2021-11-21T08:16:08Z</time>
      </trkpt>
      <trkpt lat="45.98408" lon="1.37622">
        <ele>471.6</ele>
        <time>2021-11-21T08:16:10Z</time>
      </trkpt>
      <trkpt lat="45.9841" lon="1.37618">
        <ele>472.2</ele>
        <time>2021-11-21T08:16:12Z</time>
      </trkpt>
      <trkpt lat="45.98412" lon="1.37616">
        <ele>472.6</ele>
        <time>2021-11-21T08:16:13Z</time>
      </trkpt>
      <trkpt lat="45.98414" lon="1.37612">
        <ele>473.2</ele>
        <time>2021-11-21T08:16:15Z</time>
      </trkpt>
      <trkpt lat="45.98415" lon="1.37607">
        <ele>474</ele>
        <time>2021-11-21T08:16:19Z</time>
      </trkpt>
      <trkpt lat="45.98415" lon="1.37605">
        <ele>474.4</ele>
        <time>2021-11-21T08:16:20Z</time>
      </trkpt>
      <trkpt lat="45.98417" lon="1.37595">
        <ele>475.6</ele>
        <time>2021-11-21T08:16:26Z</time>
      </trkpt>
      <trkpt lat="45.98418" lon="1.37592">
        <ele>476</ele>
        <time>2021-11-21T08:16:28Z</time>
      </trkpt>
      <trkpt lat="45.98419" lon="1.37589">
        <ele>476.4</ele>
        <time>2021-11-21T08:16:30Z</time>
      </trkpt>
      <trkpt lat="45.9842" lon="1.37588">
        <ele>476.6</ele>
        <time>2021-11-21T08:16:31Z</time>
      </trkpt>
      <trkpt lat="45.98421" lon="1.37586">
        <ele>477</ele>
        <time>2021-11-21T08:16:33Z</time>
      </trkpt>
      <trkpt lat="45.98422" lon="1.37582">
        <ele>477.2</ele>
        <time>2021-11-21T08:16:35Z</time>
      </trkpt>
      <trkpt lat="45.98422" lon="1.3758">
        <ele>477.2</ele>
        <time>2021-11-21T08:16:36Z</time>
      </trkpt>
      <trkpt lat="45.98424" lon="1.37577">
        <ele>477.8</ele>
        <time>2021-11-21T08:16:38Z</time>
      </trkpt>
      <trkpt lat="45.98425" lon="1.37571">
        <ele>478.2</ele>
        <time>2021-11-21T08:16:41Z</time>
      </trkpt>
      <trkpt lat="45.98426" lon="1.37569">
        <ele>478.4</ele>
        <time>2021-11-21T08:16:43Z</time>
      </trkpt>
      <trkpt lat="45.98427" lon="1.37566">
        <ele>478.8</ele>
        <time>2021-11-21T08:16:45Z</time>
      </trkpt>
      <trkpt lat="45.98427" lon="1.3756">
        <ele>479.8</ele>
        <time>2021-11-21T08:16:49Z</time>
      </trkpt>
      <trkpt lat="45.98427" lon="1.37559">
        <ele>480</ele>
        <time>2021-11-21T08:16:50Z</time>
      </trkpt>
      <trkpt lat="45.98427" lon="1.37557">
        <ele>480</ele>
        <time>2021-11-21T08:16:51Z</time>
      </trkpt>
      <trkpt lat="45.98427" lon="1.37552">
        <ele>480.8</ele>
        <time>2021-11-21T08:16:55Z</time>
      </trkpt>
      <trkpt lat="45.98428" lon="1.3755">
        <ele>481.2</ele>
        <time>2021-11-21T08:16:56Z</time>
      </trkpt>
      <trkpt lat="45.98427" lon="1.37547">
        <ele>481.6</ele>
        <time>2021-11-21T08:16:58Z</time>
      </trkpt>
      <trkpt lat="45.98428" lon="1.37546">
        <ele>481.8</ele>
        <time>2021-11-21T08:16:59Z</time>
      </trkpt>
      <trkpt lat="45.98428" lon="1.37542">
        <ele>482.2</ele>
        <time>2021-11-21T08:17:01Z</time>
      </trkpt>
      <trkpt lat="45.98429" lon="1.37536">
        <ele>482.8</ele>
        <time>2021-11-21T08:17:05Z</time>
      </trkpt>
      <trkpt lat="45.98429" lon="1.37535">
        <ele>483.2</ele>
        <time>2021-11-21T08:17:06Z</time>
      </trkpt>
      <trkpt lat="45.98428" lon="1.37534">
        <ele>483.4</ele>
        <time>2021-11-21T08:17:07Z</time>
      </trkpt>
      <trkpt lat="45.98428" lon="1.37533">
        <ele>483.4</ele>
        <time>2021-11-21T08:17:08Z</time>
      </trkpt>
      <trkpt lat="45.98428" lon="1.37529">
        <ele>484</ele>
        <time>2021-11-21T08:17:11Z</time>
      </trkpt>
      <trkpt lat="45.98429" lon="1.37525">
        <ele>484.2</ele>
        <time>2021-11-21T08:17:13Z</time>
      </trkpt>
      <trkpt lat="45.98429" lon="1.37524">
        <ele>484.6</ele>
        <time>2021-11-21T08:17:14Z</time>
      </trkpt>
      <trkpt lat="45.98429" lon="1.37522">
        <ele>484.8</ele>
        <time>2021-11-21T08:17:15Z</time>
      </trkpt>
      <trkpt lat="45.98429" lon="1.37515">
        <ele>485.2</ele>
        <time>2021-11-21T08:17:18Z</time>
      </trkpt>
      <trkpt lat="45.98431" lon="1.37512">
        <ele>485.6</ele>
        <time>2021-11-21T08:17:20Z</time>
      </trkpt>
      <trkpt lat="45.9843" lon="1.37508">
        <ele>486.4</ele>
        <time>2021-11-21T08:17:23Z</time>
      </trkpt>
      <trkpt lat="45.9843" lon="1.37506">
        <ele>486.8</ele>
        <time>2021-11-21T08:17:24Z</time>
      </trkpt>
      <trkpt lat="45.9843" lon="1.37505">
        <ele>487</ele>
        <time>2021-11-21T08:17:25Z</time>
      </trkpt>
      <trkpt lat="45.9843" lon="1.375">
        <ele>487.6</ele>
        <time>2021-11-21T08:17:28Z</time>
      </trkpt>
      <trkpt lat="45.98429" lon="1.37496">
        <ele>488</ele>
        <time>2021-11-21T08:17:30Z</time>
      </trkpt>
      <trkpt lat="45.98431" lon="1.37484">
        <ele>489.2</ele>
        <time>2021-11-21T08:17:36Z</time>
      </trkpt>
      <trkpt lat="45.98431" lon="1.37479">
        <ele>490.2</ele>
        <time>2021-11-21T08:17:39Z</time>
      </trkpt>
      <trkpt lat="45.98431" lon="1.37477">
        <ele>490.4</ele>
        <time>2021-11-21T08:17:40Z</time>
      </trkpt>
      <trkpt lat="45.98432" lon="1.37467">
        <ele>491.6</ele>
        <time>2021-11-21T08:17:47Z</time>
      </trkpt>
      <trkpt lat="45.98431" lon="1.3746">
        <ele>492.6</ele>
        <time>2021-11-21T08:17:51Z</time>
      </trkpt>
      <trkpt lat="45.9843" lon="1.37458">
        <ele>493</ele>
        <time>2021-11-21T08:17:53Z</time>
      </trkpt>
      <trkpt lat="45.98427" lon="1.37449">
        <ele>493.6</ele>
        <time>2021-11-21T08:17:58Z</time>
      </trkpt>
      <trkpt lat="45.98425" lon="1.37443">
        <ele>494.6</ele>
        <time>2021-11-21T08:18:03Z</time>
      </trkpt>
      <trkpt lat="45.98424" lon="1.37442">
        <ele>494.8</ele>
        <time>2021-11-21T08:18:04Z</time>
      </trkpt>
      <trkpt lat="45.98423" lon="1.37428">
        <ele>496</ele>
        <time>2021-11-21T08:18:15Z</time>
      </trkpt>
      <trkpt lat="45.98424" lon="1.37423">
        <ele>496.4</ele>
        <time>2021-11-21T08:18:18Z</time>
      </trkpt>
      <trkpt lat="45.98424" lon="1.37416">
        <ele>496.6</ele>
        <time>2021-11-21T08:18:22Z</time>
      </trkpt>
      <trkpt lat="45.98426" lon="1.37411">
        <ele>496.4</ele>
        <time>2021-11-21T08:18:24Z</time>
      </trkpt>
      <trkpt lat="45.98432" lon="1.374">
        <ele>496.2</ele>
        <time>2021-11-21T08:18:29Z</time>
      </trkpt>
      <trkpt lat="45.98444" lon="1.37389">
        <ele>496.2</ele>
        <time>2021-11-21T08:18:36Z</time>
      </trkpt>
      <trkpt lat="45.98453" lon="1.37375">
        <ele>497.2</ele>
        <time>2021-11-21T08:18:43Z</time>
      </trkpt>
      <trkpt lat="45.98459" lon="1.37367">
        <ele>498.4</ele>
        <time>2021-11-21T08:18:48Z</time>
      </trkpt>
      <trkpt lat="45.98463" lon="1.37364">
        <ele>498.8</ele>
        <time>2021-11-21T08:18:51Z</time>
      </trkpt>
      <trkpt lat="45.98465" lon="1.37361">
        <ele>499.6</ele>
        <time>2021-11-21T08:18:53Z</time>
      </trkpt>
      <trkpt lat="45.98473" lon="1.37354">
        <ele>500.8</ele>
        <time>2021-11-21T08:18:58Z</time>
      </trkpt>
      <trkpt lat="45.98477" lon="1.37351">
        <ele>501.2</ele>
        <time>2021-11-21T08:19:00Z</time>
      </trkpt>
      <trkpt lat="45.9848" lon="1.37349">
        <ele>502</ele>
        <time>2021-11-21T08:19:02Z</time>
      </trkpt>
      <trkpt lat="45.98485" lon="1.37345">
        <ele>503</ele>
        <time>2021-11-21T08:19:05Z</time>
      </trkpt>
      <trkpt lat="45.98489" lon="1.37341">
        <ele>503.8</ele>
        <time>2021-11-21T08:19:08Z</time>
      </trkpt>
      <trkpt lat="45.9849" lon="1.37339">
        <ele>504.4</ele>
        <time>2021-11-21T08:19:09Z</time>
      </trkpt>
      <trkpt lat="45.98494" lon="1.37335">
        <ele>505</ele>
        <time>2021-11-21T08:19:13Z</time>
      </trkpt>
      <trkpt lat="45.98496" lon="1.3733">
        <ele>505.4</ele>
        <time>2021-11-21T08:19:16Z</time>
      </trkpt>
      <trkpt lat="45.98497" lon="1.37329">
        <ele>505.4</ele>
        <time>2021-11-21T08:19:17Z</time>
      </trkpt>
      <trkpt lat="45.985" lon="1.37321">
        <ele>506.6</ele>
        <time>2021-11-21T08:19:21Z</time>
      </trkpt>
      <trkpt lat="45.98502" lon="1.37316">
        <ele>507.8</ele>
        <time>2021-11-21T08:19:24Z</time>
      </trkpt>
      <trkpt lat="45.98506" lon="1.3731">
        <ele>508.4</ele>
        <time>2021-11-21T08:19:28Z</time>
      </trkpt>
      <trkpt lat="45.98507" lon="1.37309">
        <ele>508.8</ele>
        <time>2021-11-21T08:19:29Z</time>
      </trkpt>
      <trkpt lat="45.98512" lon="1.37299">
        <ele>510</ele>
        <time>2021-11-21T08:19:36Z</time>
      </trkpt>
      <trkpt lat="45.98513" lon="1.37294">
        <ele>510.6</ele>
        <time>2021-11-21T08:19:40Z</time>
      </trkpt>
      <trkpt lat="45.98513" lon="1.37291">
        <ele>511</ele>
        <time>2021-11-21T08:19:42Z</time>
      </trkpt>
      <trkpt lat="45.98516" lon="1.37281">
        <ele>512.2</ele>
        <time>2021-11-21T08:19:49Z</time>
      </trkpt>
      <trkpt lat="45.98517" lon="1.37274">
        <ele>512.6</ele>
        <time>2021-11-21T08:19:52Z</time>
      </trkpt>
      <trkpt lat="45.98517" lon="1.37261">
        <ele>513.2</ele>
        <time>2021-11-21T08:19:59Z</time>
      </trkpt>
      <trkpt lat="45.98515" lon="1.37248">
        <ele>514.2</ele>
        <time>2021-11-21T08:20:07Z</time>
      </trkpt>
      <trkpt lat="45.98515" lon="1.37246">
        <ele>514.4</ele>
        <time>2021-11-21T08:20:08Z</time>
      </trkpt>
      <trkpt lat="45.98514" lon="1.37231">
        <ele>515.6</ele>
        <time>2021-11-21T08:20:16Z</time>
      </trkpt>
      <trkpt lat="45.98514" lon="1.37225">
        <ele>516.4</ele>
        <time>2021-11-21T08:20:20Z</time>
      </trkpt>
      <trkpt lat="45.98513" lon="1.37221">
        <ele>516.6</ele>
        <time>2021-11-21T08:20:22Z</time>
      </trkpt>
      <trkpt lat="45.98512" lon="1.37212">
        <ele>517.6</ele>
        <time>2021-11-21T08:20:27Z</time>
      </trkpt>
      <trkpt lat="45.9851" lon="1.37204">
        <ele>518.8</ele>
        <time>2021-11-21T08:20:32Z</time>
      </trkpt>
      <trkpt lat="45.98508" lon="1.37201">
        <ele>519.4</ele>
        <time>2021-11-21T08:20:34Z</time>
      </trkpt>
      <trkpt lat="45.98507" lon="1.37196">
        <ele>519.8</ele>
        <time>2021-11-21T08:20:37Z</time>
      </trkpt>
      <trkpt lat="45.98503" lon="1.37186">
        <ele>521</ele>
        <time>2021-11-21T08:20:43Z</time>
      </trkpt>
      <trkpt lat="45.98497" lon="1.37179">
        <ele>521.8</ele>
        <time>2021-11-21T08:20:48Z</time>
      </trkpt>
      <trkpt lat="45.98496" lon="1.37178">
        <ele>522.2</ele>
        <time>2021-11-21T08:20:49Z</time>
      </trkpt>
      <trkpt lat="45.98492" lon="1.37175">
        <ele>523.2</ele>
        <time>2021-11-21T08:20:53Z</time>
      </trkpt>
      <trkpt lat="45.98485" lon="1.37168">
        <ele>524</ele>
        <time>2021-11-21T08:21:00Z</time>
      </trkpt>
      <trkpt lat="45.98484" lon="1.37167">
        <ele>524.2</ele>
        <time>2021-11-21T08:21:01Z</time>
      </trkpt>
      <trkpt lat="45.98477" lon="1.37164">
        <ele>525.4</ele>
        <time>2021-11-21T08:21:06Z</time>
      </trkpt>
      <trkpt lat="45.9847" lon="1.37163">
        <ele>526</ele>
        <time>2021-11-21T08:21:12Z</time>
      </trkpt>
      <trkpt lat="45.98467" lon="1.37162">
        <ele>526.4</ele>
        <time>2021-11-21T08:21:15Z</time>
      </trkpt>
      <trkpt lat="45.98457" lon="1.37161">
        <ele>527.6</ele>
        <time>2021-11-21T08:21:23Z</time>
      </trkpt>
      <trkpt lat="45.98456" lon="1.3716">
        <ele>527.8</ele>
        <time>2021-11-21T08:21:24Z</time>
      </trkpt>
      <trkpt lat="45.98452" lon="1.37161">
        <ele>528.6</ele>
        <time>2021-11-21T08:21:28Z</time>
      </trkpt>
      <trkpt lat="45.98447" lon="1.37163">
        <ele>529.8</ele>
        <time>2021-11-21T08:21:33Z</time>
      </trkpt>
      <trkpt lat="45.98443" lon="1.37165">
        <ele>530</ele>
        <time>2021-11-21T08:21:37Z</time>
      </trkpt>
      <trkpt lat="45.98437" lon="1.37167">
        <ele>530.8</ele>
        <time>2021-11-21T08:21:42Z</time>
      </trkpt>
      <trkpt lat="45.98427" lon="1.37171">
        <ele>532</ele>
        <time>2021-11-21T08:21:49Z</time>
      </trkpt>
      <trkpt lat="45.98426" lon="1.37172">
        <ele>532</ele>
        <time>2021-11-21T08:21:50Z</time>
      </trkpt>
      <trkpt lat="45.98417" lon="1.37181">
        <ele>533</ele>
        <time>2021-11-21T08:21:57Z</time>
      </trkpt>
      <trkpt lat="45.98413" lon="1.37187">
        <ele>533.4</ele>
        <time>2021-11-21T08:22:01Z</time>
      </trkpt>
      <trkpt lat="45.98411" lon="1.37193">
        <ele>534.2</ele>
        <time>2021-11-21T08:22:04Z</time>
      </trkpt>
      <trkpt lat="45.98406" lon="1.37202">
        <ele>535.2</ele>
        <time>2021-11-21T08:22:09Z</time>
      </trkpt>
      <trkpt lat="45.98404" lon="1.37206">
        <ele>535.6</ele>
        <time>2021-11-21T08:22:11Z</time>
      </trkpt>
      <trkpt lat="45.984" lon="1.37212">
        <ele>536.2</ele>
        <time>2021-11-21T08:22:15Z</time>
      </trkpt>
      <trkpt lat="45.98391" lon="1.37223">
        <ele>536.6</ele>
        <time>2021-11-21T08:22:22Z</time>
      </trkpt>
      <trkpt lat="45.98377" lon="1.37234">
        <ele>537.2</ele>
        <time>2021-11-21T08:22:30Z</time>
      </trkpt>
      <trkpt lat="45.98376" lon="1.37234">
        <ele>537.2</ele>
        <time>2021-11-21T08:22:31Z</time>
      </trkpt>
      <trkpt lat="45.98365" lon="1.3724">
        <ele>538</ele>
        <time>2021-11-21T08:22:38Z</time>
      </trkpt>
      <trkpt lat="45.98361" lon="1.37242">
        <ele>538.2</ele>
        <time>2021-11-21T08:22:40Z</time>
      </trkpt>
      <trkpt lat="45.9835" lon="1.37244">
        <ele>538.8</ele>
        <time>2021-11-21T08:22:45Z</time>
      </trkpt>
      <trkpt lat="45.98341" lon="1.37257">
        <ele>538.6</ele>
        <time>2021-11-21T08:22:50Z</time>
      </trkpt>
      <trkpt lat="45.98332" lon="1.37282">
        <ele>538.4</ele>
        <time>2021-11-21T08:22:57Z</time>
      </trkpt>
      <trkpt lat="45.98317" lon="1.37293">
        <ele>539</ele>
        <time>2021-11-21T08:23:03Z</time>
      </trkpt>
      <trkpt lat="45.98309" lon="1.37292">
        <ele>539</ele>
        <time>2021-11-21T08:23:05Z</time>
      </trkpt>
      <trkpt lat="45.98306" lon="1.37289">
        <ele>539</ele>
        <time>2021-11-21T08:23:06Z</time>
      </trkpt>
      <trkpt lat="45.98303" lon="1.37284">
        <ele>538.8</ele>
        <time>2021-11-21T08:23:07Z</time>
      </trkpt>
      <trkpt lat="45.98301" lon="1.37268">
        <ele>538.2</ele>
        <time>2021-11-21T08:23:10Z</time>
      </trkpt>
      <trkpt lat="45.983" lon="1.37263">
        <ele>538.2</ele>
        <time>2021-11-21T08:23:11Z</time>
      </trkpt>
      <trkpt lat="45.98299" lon="1.37255">
        <ele>537.2</ele>
        <time>2021-11-21T08:23:13Z</time>
      </trkpt>
      <trkpt lat="45.98298" lon="1.37249">
        <ele>536.4</ele>
        <time>2021-11-21T08:23:15Z</time>
      </trkpt>
      <trkpt lat="45.98298" lon="1.37249">
        <ele>536</ele>
        <time>2021-11-21T08:23:17Z</time>
      </trkpt>
      <trkpt lat="45.98298" lon="1.37251">
        <ele>536</ele>
        <time>2021-11-21T08:23:18Z</time>
      </trkpt>
      <trkpt lat="45.98297" lon="1.37269">
        <ele>536.4</ele>
        <time>2021-11-21T08:23:22Z</time>
      </trkpt>
      <trkpt lat="45.98297" lon="1.37281">
        <ele>537.2</ele>
        <time>2021-11-21T08:23:26Z</time>
      </trkpt>
      <trkpt lat="45.98296" lon="1.37281">
        <ele>537.4</ele>
        <time>2021-11-21T08:23:27Z</time>
      </trkpt>
      <trkpt lat="45.98296" lon="1.37268">
        <ele>537.6</ele>
        <time>2021-11-21T08:23:31Z</time>
      </trkpt>
      <trkpt lat="45.98297" lon="1.3725">
        <ele>537.2</ele>
        <time>2021-11-21T08:23:34Z</time>
      </trkpt>
      <trkpt lat="45.98299" lon="1.37244">
        <ele>536.6</ele>
        <time>2021-11-21T08:23:35Z</time>
      </trkpt>
      <trkpt lat="45.98302" lon="1.37237">
        <ele>536.4</ele>
        <time>2021-11-21T08:23:36Z</time>
      </trkpt>
      <trkpt lat="45.98306" lon="1.3723">
        <ele>536</ele>
        <time>2021-11-21T08:23:37Z</time>
      </trkpt>
      <trkpt lat="45.98314" lon="1.37216">
        <ele>535.6</ele>
        <time>2021-11-21T08:23:39Z</time>
      </trkpt>
      <trkpt lat="45.98328" lon="1.37192">
        <ele>534.8</ele>
        <time>2021-11-21T08:23:42Z</time>
      </trkpt>
      <trkpt lat="45.98332" lon="1.37183">
        <ele>534.2</ele>
        <time>2021-11-21T08:23:43Z</time>
      </trkpt>
      <trkpt lat="45.98335" lon="1.37173">
        <ele>533.6</ele>
        <time>2021-11-21T08:23:44Z</time>
      </trkpt>
      <trkpt lat="45.98337" lon="1.37162">
        <ele>533</ele>
        <time>2021-11-21T08:23:45Z</time>
      </trkpt>
      <trkpt lat="45.98337" lon="1.3714">
        <ele>532.6</ele>
        <time>2021-11-21T08:23:47Z</time>
      </trkpt>
      <trkpt lat="45.98336" lon="1.37129">
        <ele>532.6</ele>
        <time>2021-11-21T08:23:48Z</time>
      </trkpt>
      <trkpt lat="45.98333" lon="1.37098">
        <ele>532</ele>
        <time>2021-11-21T08:23:52Z</time>
      </trkpt>
      <trkpt lat="45.98329" lon="1.37079">
        <ele>533.2</ele>
        <time>2021-11-21T08:23:56Z</time>
      </trkpt>
      <trkpt lat="45.98327" lon="1.37074">
        <ele>533.6</ele>
        <time>2021-11-21T08:23:57Z</time>
      </trkpt>
      <trkpt lat="45.98325" lon="1.37068">
        <ele>534</ele>
        <time>2021-11-21T08:23:58Z</time>
      </trkpt>
      <trkpt lat="45.98323" lon="1.37064">
        <ele>534.2</ele>
        <time>2021-11-21T08:23:59Z</time>
      </trkpt>
      <trkpt lat="45.9832" lon="1.3706">
        <ele>534.8</ele>
        <time>2021-11-21T08:24:00Z</time>
      </trkpt>
      <trkpt lat="45.98317" lon="1.37057">
        <ele>535</ele>
        <time>2021-11-21T08:24:01Z</time>
      </trkpt>
      <trkpt lat="45.98313" lon="1.37053">
        <ele>535.2</ele>
        <time>2021-11-21T08:24:02Z</time>
      </trkpt>
      <trkpt lat="45.98298" lon="1.37042">
        <ele>536</ele>
        <time>2021-11-21T08:24:06Z</time>
      </trkpt>
      <trkpt lat="45.98285" lon="1.37034">
        <ele>536.4</ele>
        <time>2021-11-21T08:24:09Z</time>
      </trkpt>
      <trkpt lat="45.98254" lon="1.37015">
        <ele>536.6</ele>
        <time>2021-11-21T08:24:16Z</time>
      </trkpt>
      <trkpt lat="45.98243" lon="1.3701">
        <ele>536</ele>
        <time>2021-11-21T08:24:18Z</time>
      </trkpt>
      <trkpt lat="45.98224" lon="1.37">
        <ele>535.6</ele>
        <time>2021-11-21T08:24:21Z</time>
      </trkpt>
      <trkpt lat="45.98218" lon="1.36996">
        <ele>535.4</ele>
        <time>2021-11-21T08:24:22Z</time>
      </trkpt>
      <trkpt lat="45.98205" lon="1.36984">
        <ele>534.8</ele>
        <time>2021-11-21T08:24:24Z</time>
      </trkpt>
      <trkpt lat="45.982" lon="1.36977">
        <ele>534.2</ele>
        <time>2021-11-21T08:24:25Z</time>
      </trkpt>
      <trkpt lat="45.98195" lon="1.36969">
        <ele>533.8</ele>
        <time>2021-11-21T08:24:26Z</time>
      </trkpt>
      <trkpt lat="45.98191" lon="1.36961">
        <ele>533.4</ele>
        <time>2021-11-21T08:24:27Z</time>
      </trkpt>
      <trkpt lat="45.98183" lon="1.36943">
        <ele>532.2</ele>
        <time>2021-11-21T08:24:29Z</time>
      </trkpt>
      <trkpt lat="45.98159" lon="1.36887">
        <ele>531.4</ele>
        <time>2021-11-21T08:24:36Z</time>
      </trkpt>
      <trkpt lat="45.98157" lon="1.3688">
        <ele>531.2</ele>
        <time>2021-11-21T08:24:37Z</time>
      </trkpt>
      <trkpt lat="45.98144" lon="1.36847">
        <ele>531</ele>
        <time>2021-11-21T08:24:42Z</time>
      </trkpt>
      <trkpt lat="45.98138" lon="1.36827">
        <ele>531.2</ele>
        <time>2021-11-21T08:24:45Z</time>
      </trkpt>
      <trkpt lat="45.98137" lon="1.36813">
        <ele>532</ele>
        <time>2021-11-21T08:24:47Z</time>
      </trkpt>
      <trkpt lat="45.98137" lon="1.36807">
        <ele>532.2</ele>
        <time>2021-11-21T08:24:48Z</time>
      </trkpt>
      <trkpt lat="45.98141" lon="1.36792">
        <ele>533.2</ele>
        <time>2021-11-21T08:24:52Z</time>
      </trkpt>
      <trkpt lat="45.98144" lon="1.36787">
        <ele>533.6</ele>
        <time>2021-11-21T08:24:53Z</time>
      </trkpt>
      <trkpt lat="45.98146" lon="1.36783">
        <ele>534</ele>
        <time>2021-11-21T08:24:54Z</time>
      </trkpt>
      <trkpt lat="45.98156" lon="1.36765">
        <ele>534.8</ele>
        <time>2021-11-21T08:24:58Z</time>
      </trkpt>
      <trkpt lat="45.98159" lon="1.36756">
        <ele>535</ele>
        <time>2021-11-21T08:25:00Z</time>
      </trkpt>
      <trkpt lat="45.98164" lon="1.36739">
        <ele>535.8</ele>
        <time>2021-11-21T08:25:04Z</time>
      </trkpt>
      <trkpt lat="45.98166" lon="1.36728">
        <ele>536.4</ele>
        <time>2021-11-21T08:25:06Z</time>
      </trkpt>
      <trkpt lat="45.98167" lon="1.36712">
        <ele>537</ele>
        <time>2021-11-21T08:25:09Z</time>
      </trkpt>
      <trkpt lat="45.98166" lon="1.3669">
        <ele>538.2</ele>
        <time>2021-11-21T08:25:14Z</time>
      </trkpt>
      <trkpt lat="45.98165" lon="1.36664">
        <ele>539.2</ele>
        <time>2021-11-21T08:25:20Z</time>
      </trkpt>
      <trkpt lat="45.98164" lon="1.36652">
        <ele>539.8</ele>
        <time>2021-11-21T08:25:23Z</time>
      </trkpt>
      <trkpt lat="45.98161" lon="1.36641">
        <ele>540.4</ele>
        <time>2021-11-21T08:25:26Z</time>
      </trkpt>
      <trkpt lat="45.98156" lon="1.36633">
        <ele>541</ele>
        <time>2021-11-21T08:25:29Z</time>
      </trkpt>
      <trkpt lat="45.98151" lon="1.36628">
        <ele>541.4</ele>
        <time>2021-11-21T08:25:31Z</time>
      </trkpt>
      <trkpt lat="45.9814" lon="1.36621">
        <ele>542.4</ele>
        <time>2021-11-21T08:25:36Z</time>
      </trkpt>
      <trkpt lat="45.98138" lon="1.36619">
        <ele>542.6</ele>
        <time>2021-11-21T08:25:37Z</time>
      </trkpt>
      <trkpt lat="45.98123" lon="1.36607">
        <ele>543.6</ele>
        <time>2021-11-21T08:25:44Z</time>
      </trkpt>
      <trkpt lat="45.98122" lon="1.36605">
        <ele>543.6</ele>
        <time>2021-11-21T08:25:45Z</time>
      </trkpt>
      <trkpt lat="45.98116" lon="1.36592">
        <ele>544.8</ele>
        <time>2021-11-21T08:25:51Z</time>
      </trkpt>
      <trkpt lat="45.98115" lon="1.36587">
        <ele>545.2</ele>
        <time>2021-11-21T08:25:53Z</time>
      </trkpt>
      <trkpt lat="45.98112" lon="1.36574">
        <ele>545.8</ele>
        <time>2021-11-21T08:25:58Z</time>
      </trkpt>
      <trkpt lat="45.9811" lon="1.36562">
        <ele>546.4</ele>
        <time>2021-11-21T08:26:02Z</time>
      </trkpt>
      <trkpt lat="45.98108" lon="1.36554">
        <ele>547</ele>
        <time>2021-11-21T08:26:05Z</time>
      </trkpt>
      <trkpt lat="45.98104" lon="1.36536">
        <ele>548</ele>
        <time>2021-11-21T08:26:11Z</time>
      </trkpt>
      <trkpt lat="45.98103" lon="1.36533">
        <ele>548</ele>
        <time>2021-11-21T08:26:12Z</time>
      </trkpt>
      <trkpt lat="45.98098" lon="1.36511">
        <ele>549.2</ele>
        <time>2021-11-21T08:26:19Z</time>
      </trkpt>
      <trkpt lat="45.98097" lon="1.36509">
        <ele>549.2</ele>
        <time>2021-11-21T08:26:20Z</time>
      </trkpt>
      <trkpt lat="45.98091" lon="1.36484">
        <ele>549.8</ele>
        <time>2021-11-21T08:26:29Z</time>
      </trkpt>
      <trkpt lat="45.9808" lon="1.36462">
        <ele>550</ele>
        <time>2021-11-21T08:26:36Z</time>
      </trkpt>
      <trkpt lat="45.98076" lon="1.36456">
        <ele>549.8</ele>
        <time>2021-11-21T08:26:38Z</time>
      </trkpt>
      <trkpt lat="45.98069" lon="1.36443">
        <ele>549.6</ele>
        <time>2021-11-21T08:26:42Z</time>
      </trkpt>
      <trkpt lat="45.98065" lon="1.36424">
        <ele>549.4</ele>
        <time>2021-11-21T08:26:47Z</time>
      </trkpt>
      <trkpt lat="45.98057" lon="1.36397">
        <ele>549.8</ele>
        <time>2021-11-21T08:26:53Z</time>
      </trkpt>
      <trkpt lat="45.9805" lon="1.3638">
        <ele>550</ele>
        <time>2021-11-21T08:26:56Z</time>
      </trkpt>
      <trkpt lat="45.98042" lon="1.36366">
        <ele>550.2</ele>
        <time>2021-11-21T08:26:59Z</time>
      </trkpt>
      <trkpt lat="45.98039" lon="1.36361">
        <ele>550.2</ele>
        <time>2021-11-21T08:27:00Z</time>
      </trkpt>
      <trkpt lat="45.9802" lon="1.36332">
        <ele>550.8</ele>
        <time>2021-11-21T08:27:07Z</time>
      </trkpt>
      <trkpt lat="45.98012" lon="1.36304">
        <ele>551</ele>
        <time>2021-11-21T08:27:13Z</time>
      </trkpt>
      <trkpt lat="45.98009" lon="1.3626">
        <ele>551.2</ele>
        <time>2021-11-21T08:27:21Z</time>
      </trkpt>
      <trkpt lat="45.98009" lon="1.36255">
        <ele>551.4</ele>
        <time>2021-11-21T08:27:22Z</time>
      </trkpt>
      <trkpt lat="45.98009" lon="1.36222">
        <ele>551.4</ele>
        <time>2021-11-21T08:27:28Z</time>
      </trkpt>
      <trkpt lat="45.98012" lon="1.36191">
        <ele>551.4</ele>
        <time>2021-11-21T08:27:33Z</time>
      </trkpt>
      <trkpt lat="45.98015" lon="1.3618">
        <ele>551.6</ele>
        <time>2021-11-21T08:27:35Z</time>
      </trkpt>
      <trkpt lat="45.9802" lon="1.36169">
        <ele>551.6</ele>
        <time>2021-11-21T08:27:37Z</time>
      </trkpt>
      <trkpt lat="45.98023" lon="1.36164">
        <ele>551.4</ele>
        <time>2021-11-21T08:27:38Z</time>
      </trkpt>
      <trkpt lat="45.98026" lon="1.36159">
        <ele>551.4</ele>
        <time>2021-11-21T08:27:39Z</time>
      </trkpt>
      <trkpt lat="45.98036" lon="1.36126">
        <ele>550.8</ele>
        <time>2021-11-21T08:27:44Z</time>
      </trkpt>
      <trkpt lat="45.98041" lon="1.36099">
        <ele>550.4</ele>
        <time>2021-11-21T08:27:48Z</time>
      </trkpt>
      <trkpt lat="45.98041" lon="1.36088">
        <ele>550.2</ele>
        <time>2021-11-21T08:27:50Z</time>
      </trkpt>
      <trkpt lat="45.98042" lon="1.36082">
        <ele>550.2</ele>
        <time>2021-11-21T08:27:51Z</time>
      </trkpt>
      <trkpt lat="45.98042" lon="1.36054">
        <ele>550.2</ele>
        <time>2021-11-21T08:27:56Z</time>
      </trkpt>
      <trkpt lat="45.98037" lon="1.3604">
        <ele>549.6</ele>
        <time>2021-11-21T08:28:00Z</time>
      </trkpt>
      <trkpt lat="45.98022" lon="1.36024">
        <ele>549.8</ele>
        <time>2021-11-21T08:28:08Z</time>
      </trkpt>
      <trkpt lat="45.98016" lon="1.36019">
        <ele>549.4</ele>
        <time>2021-11-21T08:28:11Z</time>
      </trkpt>
      <trkpt lat="45.98011" lon="1.36014">
        <ele>549.4</ele>
        <time>2021-11-21T08:28:13Z</time>
      </trkpt>
      <trkpt lat="45.98006" lon="1.36009">
        <ele>548.8</ele>
        <time>2021-11-21T08:28:15Z</time>
      </trkpt>
      <trkpt lat="45.97987" lon="1.35991">
        <ele>549.4</ele>
        <time>2021-11-21T08:28:22Z</time>
      </trkpt>
      <trkpt lat="45.97975" lon="1.35982">
        <ele>550.4</ele>
        <time>2021-11-21T08:28:26Z</time>
      </trkpt>
      <trkpt lat="45.97968" lon="1.35978">
        <ele>551.4</ele>
        <time>2021-11-21T08:28:28Z</time>
      </trkpt>
      <trkpt lat="45.97965" lon="1.35975">
        <ele>551.6</ele>
        <time>2021-11-21T08:28:29Z</time>
      </trkpt>
      <trkpt lat="45.97946" lon="1.35962">
        <ele>552.2</ele>
        <time>2021-11-21T08:28:34Z</time>
      </trkpt>
      <trkpt lat="45.97921" lon="1.35932">
        <ele>552.4</ele>
        <time>2021-11-21T08:28:42Z</time>
      </trkpt>
      <trkpt lat="45.97903" lon="1.35908">
        <ele>551.2</ele>
        <time>2021-11-21T08:28:49Z</time>
      </trkpt>
      <trkpt lat="45.97884" lon="1.35882">
        <ele>550.6</ele>
        <time>2021-11-21T08:28:54Z</time>
      </trkpt>
      <trkpt lat="45.97847" lon="1.35837">
        <ele>550</ele>
        <time>2021-11-21T08:29:02Z</time>
      </trkpt>
      <trkpt lat="45.97821" lon="1.358">
        <ele>549.6</ele>
        <time>2021-11-21T08:29:07Z</time>
      </trkpt>
      <trkpt lat="45.97816" lon="1.35792">
        <ele>548.8</ele>
        <time>2021-11-21T08:29:08Z</time>
      </trkpt>
      <trkpt lat="45.97802" lon="1.35768">
        <ele>547.4</ele>
        <time>2021-11-21T08:29:11Z</time>
      </trkpt>
      <trkpt lat="45.97793" lon="1.35753">
        <ele>546.8</ele>
        <time>2021-11-21T08:29:13Z</time>
      </trkpt>
      <trkpt lat="45.97789" lon="1.35745">
        <ele>546</ele>
        <time>2021-11-21T08:29:14Z</time>
      </trkpt>
      <trkpt lat="45.97779" lon="1.35729">
        <ele>544.4</ele>
        <time>2021-11-21T08:29:16Z</time>
      </trkpt>
      <trkpt lat="45.97774" lon="1.35722">
        <ele>543.8</ele>
        <time>2021-11-21T08:29:17Z</time>
      </trkpt>
      <trkpt lat="45.97769" lon="1.35716">
        <ele>543</ele>
        <time>2021-11-21T08:29:18Z</time>
      </trkpt>
      <trkpt lat="45.97765" lon="1.3571">
        <ele>541.6</ele>
        <time>2021-11-21T08:29:19Z</time>
      </trkpt>
      <trkpt lat="45.97762" lon="1.35704">
        <ele>540.6</ele>
        <time>2021-11-21T08:29:20Z</time>
      </trkpt>
      <trkpt lat="45.97758" lon="1.35697">
        <ele>539.8</ele>
        <time>2021-11-21T08:29:21Z</time>
      </trkpt>
      <trkpt lat="45.97754" lon="1.35692">
        <ele>539.2</ele>
        <time>2021-11-21T08:29:22Z</time>
      </trkpt>
      <trkpt lat="45.97751" lon="1.35686">
        <ele>538.8</ele>
        <time>2021-11-21T08:29:23Z</time>
      </trkpt>
      <trkpt lat="45.97747" lon="1.3568">
        <ele>537.4</ele>
        <time>2021-11-21T08:29:24Z</time>
      </trkpt>
      <trkpt lat="45.97743" lon="1.35673">
        <ele>536.4</ele>
        <time>2021-11-21T08:29:25Z</time>
      </trkpt>
      <trkpt lat="45.97739" lon="1.35665">
        <ele>534.4</ele>
        <time>2021-11-21T08:29:26Z</time>
      </trkpt>
      <trkpt lat="45.97735" lon="1.35657">
        <ele>533.4</ele>
        <time>2021-11-21T08:29:27Z</time>
      </trkpt>
      <trkpt lat="45.97729" lon="1.3565">
        <ele>532.2</ele>
        <time>2021-11-21T08:29:28Z</time>
      </trkpt>
      <trkpt lat="45.97724" lon="1.35645">
        <ele>531.6</ele>
        <time>2021-11-21T08:29:29Z</time>
      </trkpt>
      <trkpt lat="45.97718" lon="1.35641">
        <ele>530.2</ele>
        <time>2021-11-21T08:29:30Z</time>
      </trkpt>
      <trkpt lat="45.97711" lon="1.35637">
        <ele>529.6</ele>
        <time>2021-11-21T08:29:31Z</time>
      </trkpt>
      <trkpt lat="45.97704" lon="1.35634">
        <ele>528.6</ele>
        <time>2021-11-21T08:29:32Z</time>
      </trkpt>
      <trkpt lat="45.97691" lon="1.35629">
        <ele>527.2</ele>
        <time>2021-11-21T08:29:34Z</time>
      </trkpt>
      <trkpt lat="45.97679" lon="1.35627">
        <ele>525.6</ele>
        <time>2021-11-21T08:29:36Z</time>
      </trkpt>
      <trkpt lat="45.97668" lon="1.35624">
        <ele>524.8</ele>
        <time>2021-11-21T08:29:38Z</time>
      </trkpt>
      <trkpt lat="45.97664" lon="1.35622">
        <ele>523.8</ele>
        <time>2021-11-21T08:29:39Z</time>
      </trkpt>
      <trkpt lat="45.9766" lon="1.35618">
        <ele>523</ele>
        <time>2021-11-21T08:29:40Z</time>
      </trkpt>
      <trkpt lat="45.97657" lon="1.35614">
        <ele>522.4</ele>
        <time>2021-11-21T08:29:41Z</time>
      </trkpt>
      <trkpt lat="45.97654" lon="1.35608">
        <ele>521.4</ele>
        <time>2021-11-21T08:29:42Z</time>
      </trkpt>
      <trkpt lat="45.97652" lon="1.35601">
        <ele>520.4</ele>
        <time>2021-11-21T08:29:43Z</time>
      </trkpt>
      <trkpt lat="45.97649" lon="1.35594">
        <ele>520</ele>
        <time>2021-11-21T08:29:44Z</time>
      </trkpt>
      <trkpt lat="45.97645" lon="1.35577">
        <ele>518.8</ele>
        <time>2021-11-21T08:29:46Z</time>
      </trkpt>
      <trkpt lat="45.97643" lon="1.35567">
        <ele>517.8</ele>
        <time>2021-11-21T08:29:47Z</time>
      </trkpt>
      <trkpt lat="45.97642" lon="1.35557">
        <ele>516.6</ele>
        <time>2021-11-21T08:29:48Z</time>
      </trkpt>
      <trkpt lat="45.97641" lon="1.35547">
        <ele>515.8</ele>
        <time>2021-11-21T08:29:49Z</time>
      </trkpt>
      <trkpt lat="45.9764" lon="1.35537">
        <ele>515</ele>
        <time>2021-11-21T08:29:50Z</time>
      </trkpt>
      <trkpt lat="45.97639" lon="1.35526">
        <ele>514</ele>
        <time>2021-11-21T08:29:51Z</time>
      </trkpt>
      <trkpt lat="45.97634" lon="1.35509">
        <ele>512.8</ele>
        <time>2021-11-21T08:29:53Z</time>
      </trkpt>
      <trkpt lat="45.97624" lon="1.35484">
        <ele>512</ele>
        <time>2021-11-21T08:29:57Z</time>
      </trkpt>
      <trkpt lat="45.97624" lon="1.35479">
        <ele>512</ele>
        <time>2021-11-21T08:29:58Z</time>
      </trkpt>
      <trkpt lat="45.97622" lon="1.35469">
        <ele>512.8</ele>
        <time>2021-11-21T08:30:02Z</time>
      </trkpt>
      <trkpt lat="45.97621" lon="1.35456">
        <ele>514.2</ele>
        <time>2021-11-21T08:30:05Z</time>
      </trkpt>
      <trkpt lat="45.97621" lon="1.35444">
        <ele>514.8</ele>
        <time>2021-11-21T08:30:09Z</time>
      </trkpt>
      <trkpt lat="45.97623" lon="1.35436">
        <ele>515.2</ele>
        <time>2021-11-21T08:30:12Z</time>
      </trkpt>
      <trkpt lat="45.97626" lon="1.3543">
        <ele>515.6</ele>
        <time>2021-11-21T08:30:14Z</time>
      </trkpt>
      <trkpt lat="45.97629" lon="1.35422">
        <ele>516.4</ele>
        <time>2021-11-21T08:30:17Z</time>
      </trkpt>
      <trkpt lat="45.97631" lon="1.35414">
        <ele>516.8</ele>
        <time>2021-11-21T08:30:20Z</time>
      </trkpt>
      <trkpt lat="45.97633" lon="1.35406">
        <ele>517.6</ele>
        <time>2021-11-21T08:30:24Z</time>
      </trkpt>
      <trkpt lat="45.97633" lon="1.35404">
        <ele>518</ele>
        <time>2021-11-21T08:30:25Z</time>
      </trkpt>
      <trkpt lat="45.97634" lon="1.354">
        <ele>519</ele>
        <time>2021-11-21T08:30:27Z</time>
      </trkpt>
      <trkpt lat="45.97635" lon="1.35398">
        <ele>519.2</ele>
        <time>2021-11-21T08:30:28Z</time>
      </trkpt>
      <trkpt lat="45.97641" lon="1.35387">
        <ele>520.6</ele>
        <time>2021-11-21T08:30:32Z</time>
      </trkpt>
      <trkpt lat="45.97644" lon="1.35382">
        <ele>521.8</ele>
        <time>2021-11-21T08:30:35Z</time>
      </trkpt>
      <trkpt lat="45.97646" lon="1.35373">
        <ele>523.2</ele>
        <time>2021-11-21T08:30:39Z</time>
      </trkpt>
      <trkpt lat="45.97647" lon="1.35368">
        <ele>523.6</ele>
        <time>2021-11-21T08:30:42Z</time>
      </trkpt>
      <trkpt lat="45.97648" lon="1.35367">
        <ele>523.8</ele>
        <time>2021-11-21T08:30:43Z</time>
      </trkpt>
      <trkpt lat="45.97649" lon="1.35364">
        <ele>524</ele>
        <time>2021-11-21T08:30:44Z</time>
      </trkpt>
      <trkpt lat="45.97649" lon="1.35362">
        <ele>524.2</ele>
        <time>2021-11-21T08:30:45Z</time>
      </trkpt>
      <trkpt lat="45.97653" lon="1.35349">
        <ele>525.6</ele>
        <time>2021-11-21T08:30:51Z</time>
      </trkpt>
      <trkpt lat="45.97665" lon="1.35325">
        <ele>526.2</ele>
        <time>2021-11-21T08:31:00Z</time>
      </trkpt>
      <trkpt lat="45.9767" lon="1.35319">
        <ele>526.6</ele>
        <time>2021-11-21T08:31:03Z</time>
      </trkpt>
      <trkpt lat="45.97676" lon="1.35311">
        <ele>527.4</ele>
        <time>2021-11-21T08:31:07Z</time>
      </trkpt>
      <trkpt lat="45.9768" lon="1.35307">
        <ele>528</ele>
        <time>2021-11-21T08:31:09Z</time>
      </trkpt>
      <trkpt lat="45.97689" lon="1.35295">
        <ele>528.6</ele>
        <time>2021-11-21T08:31:15Z</time>
      </trkpt>
      <trkpt lat="45.97693" lon="1.35289">
        <ele>529.2</ele>
        <time>2021-11-21T08:31:18Z</time>
      </trkpt>
      <trkpt lat="45.977" lon="1.3528">
        <ele>529.6</ele>
        <time>2021-11-21T08:31:22Z</time>
      </trkpt>
      <trkpt lat="45.97703" lon="1.35277">
        <ele>530.4</ele>
        <time>2021-11-21T08:31:24Z</time>
      </trkpt>
      <trkpt lat="45.97708" lon="1.35272">
        <ele>530.8</ele>
        <time>2021-11-21T08:31:28Z</time>
      </trkpt>
      <trkpt lat="45.97715" lon="1.35266">
        <ele>531.6</ele>
        <time>2021-11-21T08:31:33Z</time>
      </trkpt>
      <trkpt lat="45.97717" lon="1.35264">
        <ele>531.8</ele>
        <time>2021-11-21T08:31:34Z</time>
      </trkpt>
      <trkpt lat="45.97728" lon="1.35257">
        <ele>532.8</ele>
        <time>2021-11-21T08:31:41Z</time>
      </trkpt>
      <trkpt lat="45.9773" lon="1.35257">
        <ele>533</ele>
        <time>2021-11-21T08:31:42Z</time>
      </trkpt>
      <trkpt lat="45.97733" lon="1.35256">
        <ele>533.2</ele>
        <time>2021-11-21T08:31:44Z</time>
      </trkpt>
      <trkpt lat="45.97742" lon="1.35254">
        <ele>533.8</ele>
        <time>2021-11-21T08:31:50Z</time>
      </trkpt>
      <trkpt lat="45.97744" lon="1.35255">
        <ele>534.4</ele>
        <time>2021-11-21T08:31:51Z</time>
      </trkpt>
      <trkpt lat="45.97748" lon="1.35255">
        <ele>535</ele>
        <time>2021-11-21T08:31:54Z</time>
      </trkpt>
      <trkpt lat="45.97753" lon="1.35256">
        <ele>536</ele>
        <time>2021-11-21T08:31:59Z</time>
      </trkpt>
      <trkpt lat="45.97756" lon="1.35257">
        <ele>537.2</ele>
        <time>2021-11-21T08:32:02Z</time>
      </trkpt>
      <trkpt lat="45.97761" lon="1.3526">
        <ele>537.8</ele>
        <time>2021-11-21T08:32:07Z</time>
      </trkpt>
      <trkpt lat="45.97763" lon="1.3526">
        <ele>538.2</ele>
        <time>2021-11-21T08:32:09Z</time>
      </trkpt>
      <trkpt lat="45.97767" lon="1.35258">
        <ele>538.8</ele>
        <time>2021-11-21T08:32:14Z</time>
      </trkpt>
      <trkpt lat="45.97767" lon="1.35252">
        <ele>538.6</ele>
        <time>2021-11-21T08:32:16Z</time>
      </trkpt>
      <trkpt lat="45.97765" lon="1.35242">
        <ele>536</ele>
        <time>2021-11-21T08:32:19Z</time>
      </trkpt>
      <trkpt lat="45.97764" lon="1.35238">
        <ele>535</ele>
        <time>2021-11-21T08:32:20Z</time>
      </trkpt>
      <trkpt lat="45.97762" lon="1.35234">
        <ele>533.8</ele>
        <time>2021-11-21T08:32:21Z</time>
      </trkpt>
      <trkpt lat="45.9776" lon="1.3523">
        <ele>532.2</ele>
        <time>2021-11-21T08:32:22Z</time>
      </trkpt>
      <trkpt lat="45.97758" lon="1.35227">
        <ele>531</ele>
        <time>2021-11-21T08:32:23Z</time>
      </trkpt>
      <trkpt lat="45.97753" lon="1.35221">
        <ele>529.8</ele>
        <time>2021-11-21T08:32:25Z</time>
      </trkpt>
      <trkpt lat="45.97749" lon="1.35215">
        <ele>528.4</ele>
        <time>2021-11-21T08:32:27Z</time>
      </trkpt>
      <trkpt lat="45.97744" lon="1.35208">
        <ele>526.8</ele>
        <time>2021-11-21T08:32:29Z</time>
      </trkpt>
      <trkpt lat="45.97742" lon="1.35206">
        <ele>525.4</ele>
        <time>2021-11-21T08:32:30Z</time>
      </trkpt>
      <trkpt lat="45.97741" lon="1.35205">
        <ele>524.2</ele>
        <time>2021-11-21T08:32:31Z</time>
      </trkpt>
      <trkpt lat="45.97739" lon="1.35203">
        <ele>523.2</ele>
        <time>2021-11-21T08:32:32Z</time>
      </trkpt>
      <trkpt lat="45.97738" lon="1.35202">
        <ele>522.8</ele>
        <time>2021-11-21T08:32:33Z</time>
      </trkpt>
      <trkpt lat="45.97736" lon="1.35199">
        <ele>521.2</ele>
        <time>2021-11-21T08:32:35Z</time>
      </trkpt>
      <trkpt lat="45.97734" lon="1.35194">
        <ele>519.8</ele>
        <time>2021-11-21T08:32:37Z</time>
      </trkpt>
      <trkpt lat="45.97733" lon="1.35192">
        <ele>519.4</ele>
        <time>2021-11-21T08:32:38Z</time>
      </trkpt>
      <trkpt lat="45.9773" lon="1.35191">
        <ele>518.4</ele>
        <time>2021-11-21T08:32:39Z</time>
      </trkpt>
      <trkpt lat="45.9772" lon="1.35186">
        <ele>517.4</ele>
        <time>2021-11-21T08:32:42Z</time>
      </trkpt>
      <trkpt lat="45.97717" lon="1.35186">
        <ele>516.8</ele>
        <time>2021-11-21T08:32:43Z</time>
      </trkpt>
      <trkpt lat="45.97711" lon="1.35186">
        <ele>516.2</ele>
        <time>2021-11-21T08:32:45Z</time>
      </trkpt>
      <trkpt lat="45.97707" lon="1.35185">
        <ele>515.6</ele>
        <time>2021-11-21T08:32:46Z</time>
      </trkpt>
      <trkpt lat="45.97705" lon="1.35183">
        <ele>515</ele>
        <time>2021-11-21T08:32:47Z</time>
      </trkpt>
      <trkpt lat="45.977" lon="1.35182">
        <ele>513.6</ele>
        <time>2021-11-21T08:32:49Z</time>
      </trkpt>
      <trkpt lat="45.97698" lon="1.35182">
        <ele>513.4</ele>
        <time>2021-11-21T08:32:50Z</time>
      </trkpt>
      <trkpt lat="45.97692" lon="1.35181">
        <ele>512.6</ele>
        <time>2021-11-21T08:32:52Z</time>
      </trkpt>
      <trkpt lat="45.97684" lon="1.35177">
        <ele>511.2</ele>
        <time>2021-11-21T08:32:56Z</time>
      </trkpt>
      <trkpt lat="45.9768" lon="1.35176">
        <ele>509.8</ele>
        <time>2021-11-21T08:32:58Z</time>
      </trkpt>
      <trkpt lat="45.97676" lon="1.35173">
        <ele>508.2</ele>
        <time>2021-11-21T08:33:00Z</time>
      </trkpt>
      <trkpt lat="45.97672" lon="1.3517">
        <ele>507</ele>
        <time>2021-11-21T08:33:02Z</time>
      </trkpt>
      <trkpt lat="45.97667" lon="1.35166">
        <ele>505.4</ele>
        <time>2021-11-21T08:33:04Z</time>
      </trkpt>
      <trkpt lat="45.97662" lon="1.35164">
        <ele>503.8</ele>
        <time>2021-11-21T08:33:06Z</time>
      </trkpt>
      <trkpt lat="45.9766" lon="1.35163">
        <ele>502.8</ele>
        <time>2021-11-21T08:33:07Z</time>
      </trkpt>
      <trkpt lat="45.97656" lon="1.35161">
        <ele>501.4</ele>
        <time>2021-11-21T08:33:09Z</time>
      </trkpt>
      <trkpt lat="45.97654" lon="1.35161">
        <ele>500.8</ele>
        <time>2021-11-21T08:33:10Z</time>
      </trkpt>
      <trkpt lat="45.97651" lon="1.3516">
        <ele>500.2</ele>
        <time>2021-11-21T08:33:11Z</time>
      </trkpt>
      <trkpt lat="45.97646" lon="1.35157">
        <ele>499</ele>
        <time>2021-11-21T08:33:13Z</time>
      </trkpt>
      <trkpt lat="45.97643" lon="1.35152">
        <ele>497.2</ele>
        <time>2021-11-21T08:33:15Z</time>
      </trkpt>
      <trkpt lat="45.97642" lon="1.35149">
        <ele>496.2</ele>
        <time>2021-11-21T08:33:16Z</time>
      </trkpt>
      <trkpt lat="45.97641" lon="1.35144">
        <ele>494.8</ele>
        <time>2021-11-21T08:33:18Z</time>
      </trkpt>
      <trkpt lat="45.9764" lon="1.35141">
        <ele>493.6</ele>
        <time>2021-11-21T08:33:19Z</time>
      </trkpt>
      <trkpt lat="45.97637" lon="1.35138">
        <ele>492.4</ele>
        <time>2021-11-21T08:33:21Z</time>
      </trkpt>
      <trkpt lat="45.97636" lon="1.35136">
        <ele>491.4</ele>
        <time>2021-11-21T08:33:22Z</time>
      </trkpt>
      <trkpt lat="45.97635" lon="1.35134">
        <ele>490.8</ele>
        <time>2021-11-21T08:33:23Z</time>
      </trkpt>
      <trkpt lat="45.97636" lon="1.35132">
        <ele>489</ele>
        <time>2021-11-21T08:33:25Z</time>
      </trkpt>
      <trkpt lat="45.97637" lon="1.3513">
        <ele>488.4</ele>
        <time>2021-11-21T08:33:27Z</time>
      </trkpt>
      <trkpt lat="45.97643" lon="1.35123">
        <ele>488.8</ele>
        <time>2021-11-21T08:33:34Z</time>
      </trkpt>
      <trkpt lat="45.97651" lon="1.35118">
        <ele>490</ele>
        <time>2021-11-21T08:33:42Z</time>
      </trkpt>
      <trkpt lat="45.97658" lon="1.35113">
        <ele>490.8</ele>
        <time>2021-11-21T08:33:49Z</time>
      </trkpt>
      <trkpt lat="45.97661" lon="1.35111">
        <ele>491.2</ele>
        <time>2021-11-21T08:33:51Z</time>
      </trkpt>
      <trkpt lat="45.97668" lon="1.35107">
        <ele>492.4</ele>
        <time>2021-11-21T08:33:57Z</time>
      </trkpt>
      <trkpt lat="45.97678" lon="1.35105">
        <ele>493.6</ele>
        <time>2021-11-21T08:34:02Z</time>
      </trkpt>
      <trkpt lat="45.97681" lon="1.35104">
        <ele>494.2</ele>
        <time>2021-11-21T08:34:04Z</time>
      </trkpt>
      <trkpt lat="45.97685" lon="1.35103">
        <ele>495</ele>
        <time>2021-11-21T08:34:07Z</time>
      </trkpt>
      <trkpt lat="45.97698" lon="1.351">
        <ele>496</ele>
        <time>2021-11-21T08:34:13Z</time>
      </trkpt>
      <trkpt lat="45.97704" lon="1.35099">
        <ele>497.2</ele>
        <time>2021-11-21T08:34:17Z</time>
      </trkpt>
      <trkpt lat="45.97711" lon="1.351">
        <ele>497.8</ele>
        <time>2021-11-21T08:34:22Z</time>
      </trkpt>
      <trkpt lat="45.97712" lon="1.351">
        <ele>498.2</ele>
        <time>2021-11-21T08:34:23Z</time>
      </trkpt>
      <trkpt lat="45.97722" lon="1.35101">
        <ele>499.4</ele>
        <time>2021-11-21T08:34:29Z</time>
      </trkpt>
      <trkpt lat="45.97723" lon="1.35102">
        <ele>499.6</ele>
        <time>2021-11-21T08:34:30Z</time>
      </trkpt>
      <trkpt lat="45.97731" lon="1.35103">
        <ele>500.6</ele>
        <time>2021-11-21T08:34:35Z</time>
      </trkpt>
      <trkpt lat="45.97738" lon="1.35102">
        <ele>501.2</ele>
        <time>2021-11-21T08:34:39Z</time>
      </trkpt>
      <trkpt lat="45.9774" lon="1.35102">
        <ele>501.6</ele>
        <time>2021-11-21T08:34:40Z</time>
      </trkpt>
      <trkpt lat="45.97744" lon="1.35104">
        <ele>502.6</ele>
        <time>2021-11-21T08:34:43Z</time>
      </trkpt>
      <trkpt lat="45.97748" lon="1.35105">
        <ele>503</ele>
        <time>2021-11-21T08:34:46Z</time>
      </trkpt>
      <trkpt lat="45.9775" lon="1.35105">
        <ele>503.2</ele>
        <time>2021-11-21T08:34:47Z</time>
      </trkpt>
      <trkpt lat="45.97755" lon="1.35105">
        <ele>503.8</ele>
        <time>2021-11-21T08:34:50Z</time>
      </trkpt>
      <trkpt lat="45.97762" lon="1.35105">
        <ele>504.4</ele>
        <time>2021-11-21T08:34:54Z</time>
      </trkpt>
      <trkpt lat="45.97763" lon="1.35105">
        <ele>504.8</ele>
        <time>2021-11-21T08:34:55Z</time>
      </trkpt>
      <trkpt lat="45.97764" lon="1.35106">
        <ele>505.2</ele>
        <time>2021-11-21T08:34:56Z</time>
      </trkpt>
      <trkpt lat="45.97768" lon="1.35107">
        <ele>505.6</ele>
        <time>2021-11-21T08:34:59Z</time>
      </trkpt>
      <trkpt lat="45.97771" lon="1.35108">
        <ele>506</ele>
        <time>2021-11-21T08:35:01Z</time>
      </trkpt>
      <trkpt lat="45.97773" lon="1.35109">
        <ele>506.2</ele>
        <time>2021-11-21T08:35:02Z</time>
      </trkpt>
      <trkpt lat="45.97777" lon="1.35112">
        <ele>507</ele>
        <time>2021-11-21T08:35:05Z</time>
      </trkpt>
      <trkpt lat="45.97782" lon="1.35116">
        <ele>508</ele>
        <time>2021-11-21T08:35:10Z</time>
      </trkpt>
      <trkpt lat="45.97784" lon="1.35117">
        <ele>508.4</ele>
        <time>2021-11-21T08:35:11Z</time>
      </trkpt>
      <trkpt lat="45.97789" lon="1.35124">
        <ele>509.6</ele>
        <time>2021-11-21T08:35:17Z</time>
      </trkpt>
      <trkpt lat="45.97791" lon="1.35125">
        <ele>510.4</ele>
        <time>2021-11-21T08:35:19Z</time>
      </trkpt>
      <trkpt lat="45.97792" lon="1.35126">
        <ele>510.6</ele>
        <time>2021-11-21T08:35:20Z</time>
      </trkpt>
      <trkpt lat="45.97796" lon="1.35131">
        <ele>511.8</ele>
        <time>2021-11-21T08:35:24Z</time>
      </trkpt>
      <trkpt lat="45.97799" lon="1.35137">
        <ele>512.8</ele>
        <time>2021-11-21T08:35:29Z</time>
      </trkpt>
      <trkpt lat="45.97803" lon="1.35143">
        <ele>514</ele>
        <time>2021-11-21T08:35:34Z</time>
      </trkpt>
      <trkpt lat="45.97805" lon="1.35151">
        <ele>515.2</ele>
        <time>2021-11-21T08:35:40Z</time>
      </trkpt>
      <trkpt lat="45.97808" lon="1.35159">
        <ele>516.4</ele>
        <time>2021-11-21T08:35:45Z</time>
      </trkpt>
      <trkpt lat="45.97809" lon="1.3516">
        <ele>516.6</ele>
        <time>2021-11-21T08:35:46Z</time>
      </trkpt>
      <trkpt lat="45.97812" lon="1.35165">
        <ele>517.2</ele>
        <time>2021-11-21T08:35:49Z</time>
      </trkpt>
      <trkpt lat="45.97814" lon="1.35168">
        <ele>517.6</ele>
        <time>2021-11-21T08:35:51Z</time>
      </trkpt>
      <trkpt lat="45.97821" lon="1.35174">
        <ele>518.2</ele>
        <time>2021-11-21T08:35:56Z</time>
      </trkpt>
      <trkpt lat="45.97832" lon="1.35186">
        <ele>518.6</ele>
        <time>2021-11-21T08:36:05Z</time>
      </trkpt>
      <trkpt lat="45.97835" lon="1.35191">
        <ele>519</ele>
        <time>2021-11-21T08:36:08Z</time>
      </trkpt>
      <trkpt lat="45.97842" lon="1.35195">
        <ele>519.8</ele>
        <time>2021-11-21T08:36:14Z</time>
      </trkpt>
      <trkpt lat="45.9785" lon="1.35198">
        <ele>520.8</ele>
        <time>2021-11-21T08:36:19Z</time>
      </trkpt>
      <trkpt lat="45.97855" lon="1.35198">
        <ele>522</ele>
        <time>2021-11-21T08:36:23Z</time>
      </trkpt>
      <trkpt lat="45.97861" lon="1.352">
        <ele>523</ele>
        <time>2021-11-21T08:36:27Z</time>
      </trkpt>
      <trkpt lat="45.97865" lon="1.35199">
        <ele>523.6</ele>
        <time>2021-11-21T08:36:30Z</time>
      </trkpt>
      <trkpt lat="45.97868" lon="1.35199">
        <ele>524</ele>
        <time>2021-11-21T08:36:33Z</time>
      </trkpt>
      <trkpt lat="45.97877" lon="1.35201">
        <ele>525.2</ele>
        <time>2021-11-21T08:36:39Z</time>
      </trkpt>
      <trkpt lat="45.97881" lon="1.35202">
        <ele>525.6</ele>
        <time>2021-11-21T08:36:42Z</time>
      </trkpt>
      <trkpt lat="45.97888" lon="1.35204">
        <ele>526.2</ele>
        <time>2021-11-21T08:36:46Z</time>
      </trkpt>
      <trkpt lat="45.97895" lon="1.35203">
        <ele>527.2</ele>
        <time>2021-11-21T08:36:51Z</time>
      </trkpt>
      <trkpt lat="45.97899" lon="1.35206">
        <ele>528</ele>
        <time>2021-11-21T08:36:54Z</time>
      </trkpt>
      <trkpt lat="45.97899" lon="1.35206">
        <ele>528.4</ele>
        <time>2021-11-21T08:36:55Z</time>
      </trkpt>
      <trkpt lat="45.97906" lon="1.3521">
        <ele>529.4</ele>
        <time>2021-11-21T08:37:00Z</time>
      </trkpt>
      <trkpt lat="45.97914" lon="1.35215">
        <ele>530.6</ele>
        <time>2021-11-21T08:37:07Z</time>
      </trkpt>
      <trkpt lat="45.9792" lon="1.35218">
        <ele>531.6</ele>
        <time>2021-11-21T08:37:13Z</time>
      </trkpt>
      <trkpt lat="45.97929" lon="1.35226">
        <ele>532.6</ele>
        <time>2021-11-21T08:37:21Z</time>
      </trkpt>
      <trkpt lat="45.97938" lon="1.35231">
        <ele>533.8</ele>
        <time>2021-11-21T08:37:28Z</time>
      </trkpt>
      <trkpt lat="45.97946" lon="1.35236">
        <ele>534.8</ele>
        <time>2021-11-21T08:37:34Z</time>
      </trkpt>
      <trkpt lat="45.97948" lon="1.35237">
        <ele>535</ele>
        <time>2021-11-21T08:37:35Z</time>
      </trkpt>
      <trkpt lat="45.97955" lon="1.35244">
        <ele>536</ele>
        <time>2021-11-21T08:37:40Z</time>
      </trkpt>
      <trkpt lat="45.97964" lon="1.3525">
        <ele>536.8</ele>
        <time>2021-11-21T08:37:46Z</time>
      </trkpt>
      <trkpt lat="45.97967" lon="1.35253">
        <ele>537</ele>
        <time>2021-11-21T08:37:49Z</time>
      </trkpt>
      <trkpt lat="45.97978" lon="1.35264">
        <ele>538.2</ele>
        <time>2021-11-21T08:37:59Z</time>
      </trkpt>
      <trkpt lat="45.9798" lon="1.35265">
        <ele>538.4</ele>
        <time>2021-11-21T08:38:00Z</time>
      </trkpt>
      <trkpt lat="45.97994" lon="1.35272">
        <ele>539.4</ele>
        <time>2021-11-21T08:38:08Z</time>
      </trkpt>
      <trkpt lat="45.98004" lon="1.35276">
        <ele>540.2</ele>
        <time>2021-11-21T08:38:13Z</time>
      </trkpt>
      <trkpt lat="45.98006" lon="1.35276">
        <ele>540.4</ele>
        <time>2021-11-21T08:38:14Z</time>
      </trkpt>
      <trkpt lat="45.98018" lon="1.35279">
        <ele>541.4</ele>
        <time>2021-11-21T08:38:22Z</time>
      </trkpt>
      <trkpt lat="45.98019" lon="1.3528">
        <ele>541.4</ele>
        <time>2021-11-21T08:38:23Z</time>
      </trkpt>
      <trkpt lat="45.98025" lon="1.3528">
        <ele>542.4</ele>
        <time>2021-11-21T08:38:27Z</time>
      </trkpt>
      <trkpt lat="45.98037" lon="1.3528">
        <ele>543</ele>
        <time>2021-11-21T08:38:34Z</time>
      </trkpt>
      <trkpt lat="45.98045" lon="1.35278">
        <ele>543.6</ele>
        <time>2021-11-21T08:38:39Z</time>
      </trkpt>
      <trkpt lat="45.9806" lon="1.35284">
        <ele>543.8</ele>
        <time>2021-11-21T08:38:45Z</time>
      </trkpt>
      <trkpt lat="45.98074" lon="1.35292">
        <ele>544.6</ele>
        <time>2021-11-21T08:38:50Z</time>
      </trkpt>
      <trkpt lat="45.98076" lon="1.35294">
        <ele>544.8</ele>
        <time>2021-11-21T08:38:51Z</time>
      </trkpt>
      <trkpt lat="45.98084" lon="1.35301">
        <ele>545.6</ele>
        <time>2021-11-21T08:38:55Z</time>
      </trkpt>
      <trkpt lat="45.98092" lon="1.35307">
        <ele>546.6</ele>
        <time>2021-11-21T08:38:59Z</time>
      </trkpt>
      <trkpt lat="45.98103" lon="1.35315">
        <ele>547.4</ele>
        <time>2021-11-21T08:39:06Z</time>
      </trkpt>
      <trkpt lat="45.98106" lon="1.35316">
        <ele>547.8</ele>
        <time>2021-11-21T08:39:08Z</time>
      </trkpt>
      <trkpt lat="45.98114" lon="1.3532">
        <ele>548.2</ele>
        <time>2021-11-21T08:39:13Z</time>
      </trkpt>
      <trkpt lat="45.98123" lon="1.35329">
        <ele>548.8</ele>
        <time>2021-11-21T08:39:18Z</time>
      </trkpt>
      <trkpt lat="45.98125" lon="1.35331">
        <ele>549</ele>
        <time>2021-11-21T08:39:19Z</time>
      </trkpt>
      <trkpt lat="45.98139" lon="1.35346">
        <ele>548.4</ele>
        <time>2021-11-21T08:39:26Z</time>
      </trkpt>
      <trkpt lat="45.98159" lon="1.3535">
        <ele>548.6</ele>
        <time>2021-11-21T08:39:32Z</time>
      </trkpt>
      <trkpt lat="45.98177" lon="1.35345">
        <ele>549</ele>
        <time>2021-11-21T08:39:37Z</time>
      </trkpt>
      <trkpt lat="45.98188" lon="1.35339">
        <ele>550</ele>
        <time>2021-11-21T08:39:41Z</time>
      </trkpt>
      <trkpt lat="45.98198" lon="1.35332">
        <ele>550.2</ele>
        <time>2021-11-21T08:39:44Z</time>
      </trkpt>
      <trkpt lat="45.98207" lon="1.35329">
        <ele>551.2</ele>
        <time>2021-11-21T08:39:48Z</time>
      </trkpt>
      <trkpt lat="45.98211" lon="1.35328">
        <ele>551.4</ele>
        <time>2021-11-21T08:39:50Z</time>
      </trkpt>
      <trkpt lat="45.98231" lon="1.35325">
        <ele>550.8</ele>
        <time>2021-11-21T08:39:57Z</time>
      </trkpt>
      <trkpt lat="45.98237" lon="1.35323">
        <ele>550.4</ele>
        <time>2021-11-21T08:39:59Z</time>
      </trkpt>
      <trkpt lat="45.98241" lon="1.35323">
        <ele>549.8</ele>
        <time>2021-11-21T08:40:00Z</time>
      </trkpt>
      <trkpt lat="45.98246" lon="1.35326">
        <ele>549.6</ele>
        <time>2021-11-21T08:40:01Z</time>
      </trkpt>
      <trkpt lat="45.98251" lon="1.35328">
        <ele>549.4</ele>
        <time>2021-11-21T08:40:02Z</time>
      </trkpt>
      <trkpt lat="45.98272" lon="1.35336">
        <ele>548.8</ele>
        <time>2021-11-21T08:40:06Z</time>
      </trkpt>
      <trkpt lat="45.98285" lon="1.35343">
        <ele>548.6</ele>
        <time>2021-11-21T08:40:08Z</time>
      </trkpt>
      <trkpt lat="45.98305" lon="1.35356">
        <ele>547.6</ele>
        <time>2021-11-21T08:40:11Z</time>
      </trkpt>
      <trkpt lat="45.98318" lon="1.35367">
        <ele>546.8</ele>
        <time>2021-11-21T08:40:13Z</time>
      </trkpt>
      <trkpt lat="45.98324" lon="1.35372">
        <ele>546.6</ele>
        <time>2021-11-21T08:40:14Z</time>
      </trkpt>
      <trkpt lat="45.98336" lon="1.35389">
        <ele>546</ele>
        <time>2021-11-21T08:40:17Z</time>
      </trkpt>
      <trkpt lat="45.98339" lon="1.35394">
        <ele>545.8</ele>
        <time>2021-11-21T08:40:18Z</time>
      </trkpt>
      <trkpt lat="45.98347" lon="1.35404">
        <ele>545.6</ele>
        <time>2021-11-21T08:40:20Z</time>
      </trkpt>
      <trkpt lat="45.98351" lon="1.35408">
        <ele>545.6</ele>
        <time>2021-11-21T08:40:21Z</time>
      </trkpt>
      <trkpt lat="45.98359" lon="1.35416">
        <ele>545.4</ele>
        <time>2021-11-21T08:40:23Z</time>
      </trkpt>
      <trkpt lat="45.98387" lon="1.35443">
        <ele>545.4</ele>
        <time>2021-11-21T08:40:29Z</time>
      </trkpt>
      <trkpt lat="45.98391" lon="1.35446">
        <ele>545.4</ele>
        <time>2021-11-21T08:40:30Z</time>
      </trkpt>
      <trkpt lat="45.98401" lon="1.35454">
        <ele>545.4</ele>
        <time>2021-11-21T08:40:32Z</time>
      </trkpt>
      <trkpt lat="45.9841" lon="1.35463">
        <ele>545.6</ele>
        <time>2021-11-21T08:40:34Z</time>
      </trkpt>
      <trkpt lat="45.98414" lon="1.35467">
        <ele>545.6</ele>
        <time>2021-11-21T08:40:35Z</time>
      </trkpt>
      <trkpt lat="45.98431" lon="1.35484">
        <ele>546.2</ele>
        <time>2021-11-21T08:40:40Z</time>
      </trkpt>
      <trkpt lat="45.98436" lon="1.3549">
        <ele>546.6</ele>
        <time>2021-11-21T08:40:42Z</time>
      </trkpt>
      <trkpt lat="45.98448" lon="1.35505">
        <ele>547.2</ele>
        <time>2021-11-21T08:40:46Z</time>
      </trkpt>
      <trkpt lat="45.98462" lon="1.35519">
        <ele>547.2</ele>
        <time>2021-11-21T08:40:50Z</time>
      </trkpt>
      <trkpt lat="45.98467" lon="1.3552">
        <ele>546.8</ele>
        <time>2021-11-21T08:40:51Z</time>
      </trkpt>
      <trkpt lat="45.98477" lon="1.35525">
        <ele>546</ele>
        <time>2021-11-21T08:40:53Z</time>
      </trkpt>
      <trkpt lat="45.98491" lon="1.35532">
        <ele>545.6</ele>
        <time>2021-11-21T08:40:55Z</time>
      </trkpt>
      <trkpt lat="45.985" lon="1.3554">
        <ele>545.2</ele>
        <time>2021-11-21T08:40:57Z</time>
      </trkpt>
      <trkpt lat="45.98516" lon="1.35553">
        <ele>544.2</ele>
        <time>2021-11-21T08:41:00Z</time>
      </trkpt>
      <trkpt lat="45.98524" lon="1.35557">
        <ele>543.6</ele>
        <time>2021-11-21T08:41:01Z</time>
      </trkpt>
      <trkpt lat="45.98531" lon="1.35561">
        <ele>542</ele>
        <time>2021-11-21T08:41:02Z</time>
      </trkpt>
      <trkpt lat="45.98536" lon="1.35565">
        <ele>541</ele>
        <time>2021-11-21T08:41:03Z</time>
      </trkpt>
      <trkpt lat="45.9854" lon="1.3557">
        <ele>540.2</ele>
        <time>2021-11-21T08:41:04Z</time>
      </trkpt>
      <trkpt lat="45.98542" lon="1.35576">
        <ele>539.4</ele>
        <time>2021-11-21T08:41:05Z</time>
      </trkpt>
      <trkpt lat="45.98545" lon="1.35583">
        <ele>538.4</ele>
        <time>2021-11-21T08:41:06Z</time>
      </trkpt>
      <trkpt lat="45.98546" lon="1.35591">
        <ele>537.2</ele>
        <time>2021-11-21T08:41:07Z</time>
      </trkpt>
      <trkpt lat="45.98549" lon="1.35601">
        <ele>536.2</ele>
        <time>2021-11-21T08:41:08Z</time>
      </trkpt>
      <trkpt lat="45.9855" lon="1.35619">
        <ele>534.8</ele>
        <time>2021-11-21T08:41:10Z</time>
      </trkpt>
      <trkpt lat="45.98551" lon="1.35634">
        <ele>532.8</ele>
        <time>2021-11-21T08:41:12Z</time>
      </trkpt>
      <trkpt lat="45.98552" lon="1.35641">
        <ele>532</ele>
        <time>2021-11-21T08:41:13Z</time>
      </trkpt>
      <trkpt lat="45.98552" lon="1.35647">
        <ele>531.6</ele>
        <time>2021-11-21T08:41:14Z</time>
      </trkpt>
      <trkpt lat="45.98555" lon="1.35656">
        <ele>531</ele>
        <time>2021-11-21T08:41:16Z</time>
      </trkpt>
      <trkpt lat="45.98558" lon="1.3566">
        <ele>530.8</ele>
        <time>2021-11-21T08:41:17Z</time>
      </trkpt>
      <trkpt lat="45.98559" lon="1.35665">
        <ele>530.2</ele>
        <time>2021-11-21T08:41:18Z</time>
      </trkpt>
      <trkpt lat="45.98561" lon="1.35671">
        <ele>529</ele>
        <time>2021-11-21T08:41:19Z</time>
      </trkpt>
      <trkpt lat="45.98566" lon="1.35684">
        <ele>528</ele>
        <time>2021-11-21T08:41:21Z</time>
      </trkpt>
      <trkpt lat="45.98569" lon="1.35689">
        <ele>527</ele>
        <time>2021-11-21T08:41:22Z</time>
      </trkpt>
      <trkpt lat="45.98575" lon="1.35702">
        <ele>525.6</ele>
        <time>2021-11-21T08:41:24Z</time>
      </trkpt>
      <trkpt lat="45.98585" lon="1.35719">
        <ele>523.8</ele>
        <time>2021-11-21T08:41:27Z</time>
      </trkpt>
      <trkpt lat="45.98592" lon="1.3572">
        <ele>522.6</ele>
        <time>2021-11-21T08:41:29Z</time>
      </trkpt>
      <trkpt lat="45.98594" lon="1.35721">
        <ele>522.2</ele>
        <time>2021-11-21T08:41:30Z</time>
      </trkpt>
      <trkpt lat="45.98597" lon="1.35724">
        <ele>521.6</ele>
        <time>2021-11-21T08:41:31Z</time>
      </trkpt>
      <trkpt lat="45.986" lon="1.35729">
        <ele>521.2</ele>
        <time>2021-11-21T08:41:32Z</time>
      </trkpt>
      <trkpt lat="45.98602" lon="1.35735">
        <ele>520.8</ele>
        <time>2021-11-21T08:41:33Z</time>
      </trkpt>
      <trkpt lat="45.98603" lon="1.35741">
        <ele>520.4</ele>
        <time>2021-11-21T08:41:34Z</time>
      </trkpt>
      <trkpt lat="45.98603" lon="1.35757">
        <ele>519</ele>
        <time>2021-11-21T08:41:36Z</time>
      </trkpt>
      <trkpt lat="45.98608" lon="1.35775">
        <ele>518</ele>
        <time>2021-11-21T08:41:38Z</time>
      </trkpt>
      <trkpt lat="45.9861" lon="1.35784">
        <ele>517.8</ele>
        <time>2021-11-21T08:41:39Z</time>
      </trkpt>
      <trkpt lat="45.98623" lon="1.35825">
        <ele>517.4</ele>
        <time>2021-11-21T08:41:44Z</time>
      </trkpt>
      <trkpt lat="45.98629" lon="1.35842">
        <ele>518</ele>
        <time>2021-11-21T08:41:48Z</time>
      </trkpt>
      <trkpt lat="45.98635" lon="1.35855">
        <ele>518.2</ele>
        <time>2021-11-21T08:41:54Z</time>
      </trkpt>
      <trkpt lat="45.98638" lon="1.35858">
        <ele>519.2</ele>
        <time>2021-11-21T08:41:56Z</time>
      </trkpt>
      <trkpt lat="45.98641" lon="1.35866">
        <ele>519.8</ele>
        <time>2021-11-21T08:42:00Z</time>
      </trkpt>
      <trkpt lat="45.98646" lon="1.35872">
        <ele>520.4</ele>
        <time>2021-11-21T08:42:03Z</time>
      </trkpt>
      <trkpt lat="45.98651" lon="1.35881">
        <ele>521.4</ele>
        <time>2021-11-21T08:42:07Z</time>
      </trkpt>
      <trkpt lat="45.98652" lon="1.35883">
        <ele>521.8</ele>
        <time>2021-11-21T08:42:08Z</time>
      </trkpt>
      <trkpt lat="45.98659" lon="1.35894">
        <ele>523.2</ele>
        <time>2021-11-21T08:42:13Z</time>
      </trkpt>
      <trkpt lat="45.98669" lon="1.35911">
        <ele>523.8</ele>
        <time>2021-11-21T08:42:20Z</time>
      </trkpt>
      <trkpt lat="45.98675" lon="1.35918">
        <ele>524.2</ele>
        <time>2021-11-21T08:42:24Z</time>
      </trkpt>
      <trkpt lat="45.98681" lon="1.35923">
        <ele>524.6</ele>
        <time>2021-11-21T08:42:28Z</time>
      </trkpt>
      <trkpt lat="45.98683" lon="1.35924">
        <ele>525.2</ele>
        <time>2021-11-21T08:42:30Z</time>
      </trkpt>
      <trkpt lat="45.98689" lon="1.35929">
        <ele>526.4</ele>
        <time>2021-11-21T08:42:35Z</time>
      </trkpt>
      <trkpt lat="45.98693" lon="1.35931">
        <ele>527.6</ele>
        <time>2021-11-21T08:42:38Z</time>
      </trkpt>
      <trkpt lat="45.98701" lon="1.35938">
        <ele>528.2</ele>
        <time>2021-11-21T08:42:43Z</time>
      </trkpt>
      <trkpt lat="45.98706" lon="1.35942">
        <ele>528.8</ele>
        <time>2021-11-21T08:42:47Z</time>
      </trkpt>
      <trkpt lat="45.98708" lon="1.35943">
        <ele>529.4</ele>
        <time>2021-11-21T08:42:49Z</time>
      </trkpt>
      <trkpt lat="45.98717" lon="1.35948">
        <ele>529.8</ele>
        <time>2021-11-21T08:42:56Z</time>
      </trkpt>
      <trkpt lat="45.98722" lon="1.35951">
        <ele>530</ele>
        <time>2021-11-21T08:42:59Z</time>
      </trkpt>
      <trkpt lat="45.98728" lon="1.35954">
        <ele>531</ele>
        <time>2021-11-21T08:43:03Z</time>
      </trkpt>
      <trkpt lat="45.98734" lon="1.35955">
        <ele>531.4</ele>
        <time>2021-11-21T08:43:07Z</time>
      </trkpt>
      <trkpt lat="45.98741" lon="1.35958">
        <ele>532.2</ele>
        <time>2021-11-21T08:43:12Z</time>
      </trkpt>
      <trkpt lat="45.98745" lon="1.35958">
        <ele>532.8</ele>
        <time>2021-11-21T08:43:15Z</time>
      </trkpt>
      <trkpt lat="45.98751" lon="1.3596">
        <ele>533.2</ele>
        <time>2021-11-21T08:43:19Z</time>
      </trkpt>
      <trkpt lat="45.98758" lon="1.35962">
        <ele>534.2</ele>
        <time>2021-11-21T08:43:24Z</time>
      </trkpt>
      <trkpt lat="45.98759" lon="1.35962">
        <ele>534.4</ele>
        <time>2021-11-21T08:43:25Z</time>
      </trkpt>
      <trkpt lat="45.9877" lon="1.35963">
        <ele>535.4</ele>
        <time>2021-11-21T08:43:32Z</time>
      </trkpt>
      <trkpt lat="45.98779" lon="1.35966">
        <ele>536.4</ele>
        <time>2021-11-21T08:43:38Z</time>
      </trkpt>
      <trkpt lat="45.98781" lon="1.35967">
        <ele>536.8</ele>
        <time>2021-11-21T08:43:40Z</time>
      </trkpt>
      <trkpt lat="45.98788" lon="1.35969">
        <ele>537.4</ele>
        <time>2021-11-21T08:43:46Z</time>
      </trkpt>
      <trkpt lat="45.9879" lon="1.35968">
        <ele>538</ele>
        <time>2021-11-21T08:43:48Z</time>
      </trkpt>
      <trkpt lat="45.98793" lon="1.35968">
        <ele>538.6</ele>
        <time>2021-11-21T08:43:52Z</time>
      </trkpt>
      <trkpt lat="45.98793" lon="1.35968">
        <ele>538.6</ele>
        <time>2021-11-21T08:43:53Z</time>
      </trkpt>
      <trkpt lat="45.98794" lon="1.35967">
        <ele>538.6</ele>
        <time>2021-11-21T08:43:56Z</time>
      </trkpt>
      <trkpt lat="45.98798" lon="1.35967">
        <ele>539.2</ele>
        <time>2021-11-21T08:44:09Z</time>
      </trkpt>
      <trkpt lat="45.98801" lon="1.35966">
        <ele>539.4</ele>
        <time>2021-11-21T08:44:12Z</time>
      </trkpt>
      <trkpt lat="45.98802" lon="1.35967">
        <ele>539.6</ele>
        <time>2021-11-21T08:44:13Z</time>
      </trkpt>
      <trkpt lat="45.98808" lon="1.35966">
        <ele>540.8</ele>
        <time>2021-11-21T08:44:19Z</time>
      </trkpt>
      <trkpt lat="45.9881" lon="1.35966">
        <ele>541</ele>
        <time>2021-11-21T08:44:22Z</time>
      </trkpt>
      <trkpt lat="45.98815" lon="1.35968">
        <ele>541.2</ele>
        <time>2021-11-21T08:44:32Z</time>
      </trkpt>
      <trkpt lat="45.98818" lon="1.35975">
        <ele>541.4</ele>
        <time>2021-11-21T08:44:37Z</time>
      </trkpt>
      <trkpt lat="45.98819" lon="1.35981">
        <ele>541.8</ele>
        <time>2021-11-21T08:44:39Z</time>
      </trkpt>
      <trkpt lat="45.98823" lon="1.35999">
        <ele>543</ele>
        <time>2021-11-21T08:44:46Z</time>
      </trkpt>
      <trkpt lat="45.98824" lon="1.36003">
        <ele>543.6</ele>
        <time>2021-11-21T08:44:48Z</time>
      </trkpt>
      <trkpt lat="45.98825" lon="1.36005">
        <ele>544.2</ele>
        <time>2021-11-21T08:44:49Z</time>
      </trkpt>
      <trkpt lat="45.98828" lon="1.36013">
        <ele>545</ele>
        <time>2021-11-21T08:44:53Z</time>
      </trkpt>
      <trkpt lat="45.98829" lon="1.3602">
        <ele>545.2</ele>
        <time>2021-11-21T08:44:56Z</time>
      </trkpt>
      <trkpt lat="45.9883" lon="1.3603">
        <ele>545.4</ele>
        <time>2021-11-21T08:45:00Z</time>
      </trkpt>
      <trkpt lat="45.9883" lon="1.3605">
        <ele>545.8</ele>
        <time>2021-11-21T08:45:07Z</time>
      </trkpt>
      <trkpt lat="45.98832" lon="1.36066">
        <ele>546.2</ele>
        <time>2021-11-21T08:45:13Z</time>
      </trkpt>
      <trkpt lat="45.98832" lon="1.3607">
        <ele>546.4</ele>
        <time>2021-11-21T08:45:15Z</time>
      </trkpt>
      <trkpt lat="45.98832" lon="1.36087">
        <ele>547.2</ele>
        <time>2021-11-21T08:45:22Z</time>
      </trkpt>
      <trkpt lat="45.98838" lon="1.36097">
        <ele>549</ele>
        <time>2021-11-21T08:45:28Z</time>
      </trkpt>
      <trkpt lat="45.98839" lon="1.361">
        <ele>549.4</ele>
        <time>2021-11-21T08:45:30Z</time>
      </trkpt>
      <trkpt lat="45.98843" lon="1.36108">
        <ele>550</ele>
        <time>2021-11-21T08:45:35Z</time>
      </trkpt>
      <trkpt lat="45.98844" lon="1.36113">
        <ele>550.4</ele>
        <time>2021-11-21T08:45:37Z</time>
      </trkpt>
      <trkpt lat="45.98846" lon="1.36117">
        <ele>551</ele>
        <time>2021-11-21T08:45:39Z</time>
      </trkpt>
      <trkpt lat="45.98848" lon="1.36125">
        <ele>552.2</ele>
        <time>2021-11-21T08:45:43Z</time>
      </trkpt>
      <trkpt lat="45.98849" lon="1.36129">
        <ele>552.4</ele>
        <time>2021-11-21T08:45:45Z</time>
      </trkpt>
      <trkpt lat="45.98854" lon="1.36144">
        <ele>553.4</ele>
        <time>2021-11-21T08:45:53Z</time>
      </trkpt>
      <trkpt lat="45.9886" lon="1.36152">
        <ele>554.4</ele>
        <time>2021-11-21T08:45:58Z</time>
      </trkpt>
      <trkpt lat="45.98861" lon="1.36153">
        <ele>554.4</ele>
        <time>2021-11-21T08:45:59Z</time>
      </trkpt>
      <trkpt lat="45.98871" lon="1.3617">
        <ele>555.4</ele>
        <time>2021-11-21T08:46:06Z</time>
      </trkpt>
      <trkpt lat="45.98879" lon="1.36184">
        <ele>556.6</ele>
        <time>2021-11-21T08:46:12Z</time>
      </trkpt>
      <trkpt lat="45.9888" lon="1.36187">
        <ele>556.6</ele>
        <time>2021-11-21T08:46:13Z</time>
      </trkpt>
      <trkpt lat="45.98889" lon="1.36208">
        <ele>557.6</ele>
        <time>2021-11-21T08:46:20Z</time>
      </trkpt>
      <trkpt lat="45.98891" lon="1.36214">
        <ele>558.2</ele>
        <time>2021-11-21T08:46:22Z</time>
      </trkpt>
      <trkpt lat="45.98898" lon="1.36236">
        <ele>558.4</ele>
        <time>2021-11-21T08:46:28Z</time>
      </trkpt>
      <trkpt lat="45.989" lon="1.36243">
        <ele>558.6</ele>
        <time>2021-11-21T08:46:30Z</time>
      </trkpt>
      <trkpt lat="45.98905" lon="1.36262">
        <ele>559.4</ele>
        <time>2021-11-21T08:46:35Z</time>
      </trkpt>
      <trkpt lat="45.98908" lon="1.36274">
        <ele>559.8</ele>
        <time>2021-11-21T08:46:39Z</time>
      </trkpt>
      <trkpt lat="45.98912" lon="1.36291">
        <ele>560.6</ele>
        <time>2021-11-21T08:46:44Z</time>
      </trkpt>
      <trkpt lat="45.98915" lon="1.36299">
        <ele>561</ele>
        <time>2021-11-21T08:46:46Z</time>
      </trkpt>
      <trkpt lat="45.98919" lon="1.3632">
        <ele>561.8</ele>
        <time>2021-11-21T08:46:51Z</time>
      </trkpt>
      <trkpt lat="45.9892" lon="1.36324">
        <ele>562</ele>
        <time>2021-11-21T08:46:52Z</time>
      </trkpt>
      <trkpt lat="45.98923" lon="1.36341">
        <ele>562.8</ele>
        <time>2021-11-21T08:46:57Z</time>
      </trkpt>
      <trkpt lat="45.98924" lon="1.36349">
        <ele>563</ele>
        <time>2021-11-21T08:46:59Z</time>
      </trkpt>
      <trkpt lat="45.98925" lon="1.36373">
        <ele>563.2</ele>
        <time>2021-11-21T08:47:05Z</time>
      </trkpt>
      <trkpt lat="45.98925" lon="1.36397">
        <ele>563.4</ele>
        <time>2021-11-21T08:47:11Z</time>
      </trkpt>
      <trkpt lat="45.98925" lon="1.36434">
        <ele>564</ele>
        <time>2021-11-21T08:47:19Z</time>
      </trkpt>
      <trkpt lat="45.98924" lon="1.3644">
        <ele>564.2</ele>
        <time>2021-11-21T08:47:20Z</time>
      </trkpt>
      <trkpt lat="45.98925" lon="1.36483">
        <ele>564.6</ele>
        <time>2021-11-21T08:47:28Z</time>
      </trkpt>
      <trkpt lat="45.98931" lon="1.36501">
        <ele>565.4</ele>
        <time>2021-11-21T08:47:32Z</time>
      </trkpt>
      <trkpt lat="45.98933" lon="1.36505">
        <ele>565.6</ele>
        <time>2021-11-21T08:47:33Z</time>
      </trkpt>
      <trkpt lat="45.9894" lon="1.36522">
        <ele>566</ele>
        <time>2021-11-21T08:47:39Z</time>
      </trkpt>
      <trkpt lat="45.98945" lon="1.36547">
        <ele>566.4</ele>
        <time>2021-11-21T08:47:45Z</time>
      </trkpt>
      <trkpt lat="45.98953" lon="1.36582">
        <ele>565.2</ele>
        <time>2021-11-21T08:47:51Z</time>
      </trkpt>
      <trkpt lat="45.98957" lon="1.366">
        <ele>564.2</ele>
        <time>2021-11-21T08:47:54Z</time>
      </trkpt>
      <trkpt lat="45.98961" lon="1.36609">
        <ele>562.8</ele>
        <time>2021-11-21T08:47:56Z</time>
      </trkpt>
      <trkpt lat="45.98961" lon="1.36609">
        <ele>561.4</ele>
        <time>2021-11-21T08:47:57Z</time>
      </trkpt>
      <trkpt lat="45.98962" lon="1.36622">
        <ele>560.2</ele>
        <time>2021-11-21T08:48:00Z</time>
      </trkpt>
      <trkpt lat="45.98962" lon="1.36624">
        <ele>559.8</ele>
        <time>2021-11-21T08:48:01Z</time>
      </trkpt>
      <trkpt lat="45.98962" lon="1.36626">
        <ele>559.2</ele>
        <time>2021-11-21T08:48:02Z</time>
      </trkpt>
      <trkpt lat="45.9896" lon="1.36634">
        <ele>557.8</ele>
        <time>2021-11-21T08:48:05Z</time>
      </trkpt>
      <trkpt lat="45.9896" lon="1.36637">
        <ele>557</ele>
        <time>2021-11-21T08:48:06Z</time>
      </trkpt>
      <trkpt lat="45.98961" lon="1.3664">
        <ele>556.2</ele>
        <time>2021-11-21T08:48:07Z</time>
      </trkpt>
      <trkpt lat="45.98962" lon="1.36642">
        <ele>554.6</ele>
        <time>2021-11-21T08:48:08Z</time>
      </trkpt>
      <trkpt lat="45.98963" lon="1.36645">
        <ele>553.8</ele>
        <time>2021-11-21T08:48:09Z</time>
      </trkpt>
      <trkpt lat="45.98965" lon="1.36648">
        <ele>553.2</ele>
        <time>2021-11-21T08:48:10Z</time>
      </trkpt>
      <trkpt lat="45.98976" lon="1.36661">
        <ele>551.6</ele>
        <time>2021-11-21T08:48:14Z</time>
      </trkpt>
      <trkpt lat="45.9898" lon="1.36664">
        <ele>551</ele>
        <time>2021-11-21T08:48:15Z</time>
      </trkpt>
      <trkpt lat="45.98984" lon="1.36667">
        <ele>550.2</ele>
        <time>2021-11-21T08:48:16Z</time>
      </trkpt>
      <trkpt lat="45.98992" lon="1.36673">
        <ele>549.4</ele>
        <time>2021-11-21T08:48:18Z</time>
      </trkpt>
      <trkpt lat="45.98996" lon="1.36676">
        <ele>549</ele>
        <time>2021-11-21T08:48:19Z</time>
      </trkpt>
      <trkpt lat="45.98999" lon="1.36679">
        <ele>548.8</ele>
        <time>2021-11-21T08:48:20Z</time>
      </trkpt>
      <trkpt lat="45.99008" lon="1.36688">
        <ele>548</ele>
        <time>2021-11-21T08:48:23Z</time>
      </trkpt>
      <trkpt lat="45.99025" lon="1.36703">
        <ele>546.8</ele>
        <time>2021-11-21T08:48:27Z</time>
      </trkpt>
      <trkpt lat="45.99029" lon="1.36706">
        <ele>546.2</ele>
        <time>2021-11-21T08:48:28Z</time>
      </trkpt>
      <trkpt lat="45.99033" lon="1.36709">
        <ele>545.2</ele>
        <time>2021-11-21T08:48:29Z</time>
      </trkpt>
      <trkpt lat="45.99042" lon="1.36714">
        <ele>544.4</ele>
        <time>2021-11-21T08:48:31Z</time>
      </trkpt>
      <trkpt lat="45.99049" lon="1.36717">
        <ele>544.2</ele>
        <time>2021-11-21T08:48:33Z</time>
      </trkpt>
      <trkpt lat="45.99053" lon="1.36719">
        <ele>544</ele>
        <time>2021-11-21T08:48:34Z</time>
      </trkpt>
      <trkpt lat="45.99058" lon="1.36722">
        <ele>543</ele>
        <time>2021-11-21T08:48:36Z</time>
      </trkpt>
      <trkpt lat="45.99063" lon="1.36724">
        <ele>542</ele>
        <time>2021-11-21T08:48:38Z</time>
      </trkpt>
      <trkpt lat="45.99072" lon="1.36722">
        <ele>540.8</ele>
        <time>2021-11-21T08:48:42Z</time>
      </trkpt>
      <trkpt lat="45.99074" lon="1.36719">
        <ele>540.6</ele>
        <time>2021-11-21T08:48:43Z</time>
      </trkpt>
      <trkpt lat="45.99079" lon="1.36714">
        <ele>539.6</ele>
        <time>2021-11-21T08:48:45Z</time>
      </trkpt>
      <trkpt lat="45.99088" lon="1.3671">
        <ele>538.8</ele>
        <time>2021-11-21T08:48:48Z</time>
      </trkpt>
      <trkpt lat="45.99092" lon="1.36711">
        <ele>538.6</ele>
        <time>2021-11-21T08:48:49Z</time>
      </trkpt>
      <trkpt lat="45.99096" lon="1.36713">
        <ele>538.4</ele>
        <time>2021-11-21T08:48:50Z</time>
      </trkpt>
      <trkpt lat="45.99104" lon="1.36719">
        <ele>538</ele>
        <time>2021-11-21T08:48:52Z</time>
      </trkpt>
      <trkpt lat="45.99117" lon="1.36729">
        <ele>537</ele>
        <time>2021-11-21T08:48:55Z</time>
      </trkpt>
      <trkpt lat="45.99125" lon="1.36736">
        <ele>536.6</ele>
        <time>2021-11-21T08:48:57Z</time>
      </trkpt>
      <trkpt lat="45.99131" lon="1.36744">
        <ele>536.4</ele>
        <time>2021-11-21T08:48:59Z</time>
      </trkpt>
      <trkpt lat="45.99142" lon="1.36755">
        <ele>535.8</ele>
        <time>2021-11-21T08:49:02Z</time>
      </trkpt>
      <trkpt lat="45.99155" lon="1.36767">
        <ele>535.4</ele>
        <time>2021-11-21T08:49:05Z</time>
      </trkpt>
      <trkpt lat="45.9916" lon="1.36771">
        <ele>535.4</ele>
        <time>2021-11-21T08:49:06Z</time>
      </trkpt>
      <trkpt lat="45.9917" lon="1.36777">
        <ele>534.6</ele>
        <time>2021-11-21T08:49:08Z</time>
      </trkpt>
      <trkpt lat="45.99179" lon="1.36786">
        <ele>534.2</ele>
        <time>2021-11-21T08:49:10Z</time>
      </trkpt>
      <trkpt lat="45.99184" lon="1.3679">
        <ele>533.6</ele>
        <time>2021-11-21T08:49:11Z</time>
      </trkpt>
      <trkpt lat="45.99203" lon="1.3681">
        <ele>532.8</ele>
        <time>2021-11-21T08:49:16Z</time>
      </trkpt>
      <trkpt lat="45.99207" lon="1.36813">
        <ele>532.6</ele>
        <time>2021-11-21T08:49:17Z</time>
      </trkpt>
      <trkpt lat="45.99226" lon="1.3683">
        <ele>532.2</ele>
        <time>2021-11-21T08:49:23Z</time>
      </trkpt>
      <trkpt lat="45.99231" lon="1.36835">
        <ele>532.2</ele>
        <time>2021-11-21T08:49:25Z</time>
      </trkpt>
      <trkpt lat="45.99236" lon="1.36844">
        <ele>532.2</ele>
        <time>2021-11-21T08:49:27Z</time>
      </trkpt>
      <trkpt lat="45.99239" lon="1.36848">
        <ele>532.4</ele>
        <time>2021-11-21T08:49:28Z</time>
      </trkpt>
      <trkpt lat="45.99243" lon="1.36856">
        <ele>532.4</ele>
        <time>2021-11-21T08:49:30Z</time>
      </trkpt>
      <trkpt lat="45.99249" lon="1.36864">
        <ele>532.6</ele>
        <time>2021-11-21T08:49:32Z</time>
      </trkpt>
      <trkpt lat="45.99254" lon="1.36871">
        <ele>532.8</ele>
        <time>2021-11-21T08:49:34Z</time>
      </trkpt>
      <trkpt lat="45.99262" lon="1.36882">
        <ele>533.6</ele>
        <time>2021-11-21T08:49:38Z</time>
      </trkpt>
      <trkpt lat="45.99264" lon="1.36884">
        <ele>533.8</ele>
        <time>2021-11-21T08:49:39Z</time>
      </trkpt>
      <trkpt lat="45.99279" lon="1.36902">
        <ele>534.2</ele>
        <time>2021-11-21T08:49:46Z</time>
      </trkpt>
      <trkpt lat="45.9929" lon="1.36925">
        <ele>534</ele>
        <time>2021-11-21T08:49:51Z</time>
      </trkpt>
      <trkpt lat="45.99292" lon="1.3693">
        <ele>534</ele>
        <time>2021-11-21T08:49:52Z</time>
      </trkpt>
      <trkpt lat="45.99299" lon="1.3694">
        <ele>534</ele>
        <time>2021-11-21T08:49:54Z</time>
      </trkpt>
      <trkpt lat="45.99306" lon="1.36946">
        <ele>533.6</ele>
        <time>2021-11-21T08:49:56Z</time>
      </trkpt>
      <trkpt lat="45.99321" lon="1.3696">
        <ele>533.4</ele>
        <time>2021-11-21T08:50:00Z</time>
      </trkpt>
      <trkpt lat="45.9933" lon="1.3697">
        <ele>533</ele>
        <time>2021-11-21T08:50:02Z</time>
      </trkpt>
      <trkpt lat="45.99337" lon="1.3698">
        <ele>532.4</ele>
        <time>2021-11-21T08:50:04Z</time>
      </trkpt>
      <trkpt lat="45.99354" lon="1.37">
        <ele>531.8</ele>
        <time>2021-11-21T08:50:08Z</time>
      </trkpt>
      <trkpt lat="45.99384" lon="1.37032">
        <ele>532</ele>
        <time>2021-11-21T08:50:15Z</time>
      </trkpt>
      <trkpt lat="45.99389" lon="1.37036">
        <ele>531.8</ele>
        <time>2021-11-21T08:50:16Z</time>
      </trkpt>
      <trkpt lat="45.99393" lon="1.37036">
        <ele>531.8</ele>
        <time>2021-11-21T08:50:18Z</time>
      </trkpt>
      <trkpt lat="45.99397" lon="1.37036">
        <ele>531.8</ele>
        <time>2021-11-21T08:50:19Z</time>
      </trkpt>
      <trkpt lat="45.9941" lon="1.37038">
        <ele>531.8</ele>
        <time>2021-11-21T08:50:23Z</time>
      </trkpt>
      <trkpt lat="45.99419" lon="1.37039">
        <ele>533.4</ele>
        <time>2021-11-21T08:50:28Z</time>
      </trkpt>
      <trkpt lat="45.99421" lon="1.3704">
        <ele>533.4</ele>
        <time>2021-11-21T08:50:29Z</time>
      </trkpt>
      <trkpt lat="45.99431" lon="1.37043">
        <ele>533.8</ele>
        <time>2021-11-21T08:50:34Z</time>
      </trkpt>
      <trkpt lat="45.99436" lon="1.37044">
        <ele>534.4</ele>
        <time>2021-11-21T08:50:37Z</time>
      </trkpt>
      <trkpt lat="45.99446" lon="1.37046">
        <ele>535</ele>
        <time>2021-11-21T08:50:42Z</time>
      </trkpt>
      <trkpt lat="45.99449" lon="1.37047">
        <ele>535.6</ele>
        <time>2021-11-21T08:50:44Z</time>
      </trkpt>
      <trkpt lat="45.99459" lon="1.37053">
        <ele>536.4</ele>
        <time>2021-11-21T08:50:49Z</time>
      </trkpt>
      <trkpt lat="45.99469" lon="1.37062">
        <ele>536.4</ele>
        <time>2021-11-21T08:50:54Z</time>
      </trkpt>
      <trkpt lat="45.99473" lon="1.37068">
        <ele>536.4</ele>
        <time>2021-11-21T08:50:57Z</time>
      </trkpt>
      <trkpt lat="45.99474" lon="1.3707">
        <ele>536.8</ele>
        <time>2021-11-21T08:50:58Z</time>
      </trkpt>
      <trkpt lat="45.99482" lon="1.37082">
        <ele>537.2</ele>
        <time>2021-11-21T08:51:03Z</time>
      </trkpt>
      <trkpt lat="45.99487" lon="1.37097">
        <ele>537.4</ele>
        <time>2021-11-21T08:51:09Z</time>
      </trkpt>
      <trkpt lat="45.99489" lon="1.37106">
        <ele>537.8</ele>
        <time>2021-11-21T08:51:12Z</time>
      </trkpt>
      <trkpt lat="45.99496" lon="1.37121">
        <ele>538</ele>
        <time>2021-11-21T08:51:17Z</time>
      </trkpt>
      <trkpt lat="45.99503" lon="1.37136">
        <ele>538.4</ele>
        <time>2021-11-21T08:51:23Z</time>
      </trkpt>
      <trkpt lat="45.99507" lon="1.3714">
        <ele>538.8</ele>
        <time>2021-11-21T08:51:25Z</time>
      </trkpt>
      <trkpt lat="45.99519" lon="1.3715">
        <ele>539.6</ele>
        <time>2021-11-21T08:51:30Z</time>
      </trkpt>
      <trkpt lat="45.99523" lon="1.37152">
        <ele>540</ele>
        <time>2021-11-21T08:51:32Z</time>
      </trkpt>
      <trkpt lat="45.99533" lon="1.3716">
        <ele>540.4</ele>
        <time>2021-11-21T08:51:37Z</time>
      </trkpt>
      <trkpt lat="45.99546" lon="1.37172">
        <ele>541</ele>
        <time>2021-11-21T08:51:43Z</time>
      </trkpt>
      <trkpt lat="45.99548" lon="1.37174">
        <ele>541.2</ele>
        <time>2021-11-21T08:51:44Z</time>
      </trkpt>
      <trkpt lat="45.99559" lon="1.37189">
        <ele>541.4</ele>
        <time>2021-11-21T08:51:50Z</time>
      </trkpt>
      <trkpt lat="45.99567" lon="1.37197">
        <ele>540.8</ele>
        <time>2021-11-21T08:51:54Z</time>
      </trkpt>
      <trkpt lat="45.99571" lon="1.37201">
        <ele>540.4</ele>
        <time>2021-11-21T08:51:56Z</time>
      </trkpt>
      <trkpt lat="45.99573" lon="1.37204">
        <ele>540</ele>
        <time>2021-11-21T08:51:57Z</time>
      </trkpt>
      <trkpt lat="45.99575" lon="1.37206">
        <ele>540</ele>
        <time>2021-11-21T08:51:58Z</time>
      </trkpt>
      <trkpt lat="45.99579" lon="1.37212">
        <ele>539.6</ele>
        <time>2021-11-21T08:52:00Z</time>
      </trkpt>
      <trkpt lat="45.99586" lon="1.37217">
        <ele>539.4</ele>
        <time>2021-11-21T08:52:02Z</time>
      </trkpt>
      <trkpt lat="45.99609" lon="1.37234">
        <ele>539.4</ele>
        <time>2021-11-21T08:52:09Z</time>
      </trkpt>
      <trkpt lat="45.99613" lon="1.37237">
        <ele>539.6</ele>
        <time>2021-11-21T08:52:10Z</time>
      </trkpt>
      <trkpt lat="45.99624" lon="1.37249">
        <ele>539.6</ele>
        <time>2021-11-21T08:52:13Z</time>
      </trkpt>
      <trkpt lat="45.9963" lon="1.37255">
        <ele>539.6</ele>
        <time>2021-11-21T08:52:15Z</time>
      </trkpt>
      <trkpt lat="45.99637" lon="1.37261">
        <ele>539.6</ele>
        <time>2021-11-21T08:52:17Z</time>
      </trkpt>
      <trkpt lat="45.99655" lon="1.37279">
        <ele>540</ele>
        <time>2021-11-21T08:52:22Z</time>
      </trkpt>
      <trkpt lat="45.9966" lon="1.37284">
        <ele>540</ele>
        <time>2021-11-21T08:52:23Z</time>
      </trkpt>
      <trkpt lat="45.99678" lon="1.37298">
        <ele>540.2</ele>
        <time>2021-11-21T08:52:27Z</time>
      </trkpt>
      <trkpt lat="45.997" lon="1.37313">
        <ele>541</ele>
        <time>2021-11-21T08:52:33Z</time>
      </trkpt>
      <trkpt lat="45.99703" lon="1.37316">
        <ele>541</ele>
        <time>2021-11-21T08:52:34Z</time>
      </trkpt>
      <trkpt lat="45.99715" lon="1.37328">
        <ele>541.8</ele>
        <time>2021-11-21T08:52:39Z</time>
      </trkpt>
      <trkpt lat="45.9972" lon="1.37331">
        <ele>542.2</ele>
        <time>2021-11-21T08:52:40Z</time>
      </trkpt>
      <trkpt lat="45.9973" lon="1.37344">
        <ele>542.8</ele>
        <time>2021-11-21T08:52:45Z</time>
      </trkpt>
      <trkpt lat="45.9974" lon="1.37359">
        <ele>543.2</ele>
        <time>2021-11-21T08:52:50Z</time>
      </trkpt>
      <trkpt lat="45.99745" lon="1.37365">
        <ele>543.6</ele>
        <time>2021-11-21T08:52:52Z</time>
      </trkpt>
      <trkpt lat="45.9976" lon="1.37381">
        <ele>544</ele>
        <time>2021-11-21T08:52:58Z</time>
      </trkpt>
      <trkpt lat="45.99766" lon="1.37391">
        <ele>544.2</ele>
        <time>2021-11-21T08:53:01Z</time>
      </trkpt>
      <trkpt lat="45.99779" lon="1.37406">
        <ele>544.4</ele>
        <time>2021-11-21T08:53:05Z</time>
      </trkpt>
      <trkpt lat="45.99802" lon="1.37431">
        <ele>544.2</ele>
        <time>2021-11-21T08:53:11Z</time>
      </trkpt>
      <trkpt lat="45.99812" lon="1.37442">
        <ele>543.8</ele>
        <time>2021-11-21T08:53:16Z</time>
      </trkpt>
      <trkpt lat="45.9982" lon="1.37451">
        <ele>543.2</ele>
        <time>2021-11-21T08:53:20Z</time>
      </trkpt>
      <trkpt lat="45.99823" lon="1.37455">
        <ele>543.2</ele>
        <time>2021-11-21T08:53:21Z</time>
      </trkpt>
      <trkpt lat="45.99834" lon="1.37475">
        <ele>542</ele>
        <time>2021-11-21T08:53:25Z</time>
      </trkpt>
      <trkpt lat="45.9984" lon="1.37486">
        <ele>540.4</ele>
        <time>2021-11-21T08:53:27Z</time>
      </trkpt>
      <trkpt lat="45.99843" lon="1.37491">
        <ele>540.2</ele>
        <time>2021-11-21T08:53:28Z</time>
      </trkpt>
      <trkpt lat="45.99852" lon="1.37495">
        <ele>539</ele>
        <time>2021-11-21T08:53:30Z</time>
      </trkpt>
      <trkpt lat="45.99878" lon="1.37497">
        <ele>538.6</ele>
        <time>2021-11-21T08:53:34Z</time>
      </trkpt>
      <trkpt lat="45.99886" lon="1.375">
        <ele>538.6</ele>
        <time>2021-11-21T08:53:36Z</time>
      </trkpt>
      <trkpt lat="45.99891" lon="1.37507">
        <ele>538.2</ele>
        <time>2021-11-21T08:53:38Z</time>
      </trkpt>
      <trkpt lat="45.99892" lon="1.37511">
        <ele>537.8</ele>
        <time>2021-11-21T08:53:39Z</time>
      </trkpt>
      <trkpt lat="45.99893" lon="1.37521">
        <ele>537.2</ele>
        <time>2021-11-21T08:53:41Z</time>
      </trkpt>
      <trkpt lat="45.99892" lon="1.37527">
        <ele>535.8</ele>
        <time>2021-11-21T08:53:42Z</time>
      </trkpt>
      <trkpt lat="45.99891" lon="1.37534">
        <ele>534.4</ele>
        <time>2021-11-21T08:53:43Z</time>
      </trkpt>
      <trkpt lat="45.99888" lon="1.37549">
        <ele>532.8</ele>
        <time>2021-11-21T08:53:45Z</time>
      </trkpt>
      <trkpt lat="45.99887" lon="1.37566">
        <ele>530.6</ele>
        <time>2021-11-21T08:53:47Z</time>
      </trkpt>
      <trkpt lat="45.99884" lon="1.37585">
        <ele>529.2</ele>
        <time>2021-11-21T08:53:49Z</time>
      </trkpt>
      <trkpt lat="45.99877" lon="1.3761">
        <ele>527.4</ele>
        <time>2021-11-21T08:53:52Z</time>
      </trkpt>
      <trkpt lat="45.99876" lon="1.37618">
        <ele>526</ele>
        <time>2021-11-21T08:53:53Z</time>
      </trkpt>
      <trkpt lat="45.99876" lon="1.37626">
        <ele>525.4</ele>
        <time>2021-11-21T08:53:54Z</time>
      </trkpt>
      <trkpt lat="45.99877" lon="1.37633">
        <ele>525</ele>
        <time>2021-11-21T08:53:55Z</time>
      </trkpt>
      <trkpt lat="45.99878" lon="1.37641">
        <ele>524.4</ele>
        <time>2021-11-21T08:53:56Z</time>
      </trkpt>
      <trkpt lat="45.99881" lon="1.37657">
        <ele>523.4</ele>
        <time>2021-11-21T08:53:58Z</time>
      </trkpt>
      <trkpt lat="45.99884" lon="1.37672">
        <ele>523</ele>
        <time>2021-11-21T08:54:00Z</time>
      </trkpt>
      <trkpt lat="45.99884" lon="1.37679">
        <ele>522.2</ele>
        <time>2021-11-21T08:54:01Z</time>
      </trkpt>
      <trkpt lat="45.99885" lon="1.37695">
        <ele>521.2</ele>
        <time>2021-11-21T08:54:03Z</time>
      </trkpt>
      <trkpt lat="45.99887" lon="1.37711">
        <ele>520</ele>
        <time>2021-11-21T08:54:05Z</time>
      </trkpt>
      <trkpt lat="45.99899" lon="1.37754">
        <ele>519.2</ele>
        <time>2021-11-21T08:54:11Z</time>
      </trkpt>
      <trkpt lat="45.99915" lon="1.37811">
        <ele>519.4</ele>
        <time>2021-11-21T08:54:20Z</time>
      </trkpt>
      <trkpt lat="45.99932" lon="1.37865">
        <ele>520.2</ele>
        <time>2021-11-21T08:54:29Z</time>
      </trkpt>
      <trkpt lat="45.99941" lon="1.37898">
        <ele>521</ele>
        <time>2021-11-21T08:54:36Z</time>
      </trkpt>
      <trkpt lat="45.99942" lon="1.37901">
        <ele>521</ele>
        <time>2021-11-21T08:54:37Z</time>
      </trkpt>
      <trkpt lat="45.99951" lon="1.37914">
        <ele>521.2</ele>
        <time>2021-11-21T08:54:42Z</time>
      </trkpt>
      <trkpt lat="45.99958" lon="1.37921">
        <ele>522</ele>
        <time>2021-11-21T08:54:46Z</time>
      </trkpt>
      <trkpt lat="45.9996" lon="1.37922">
        <ele>522.4</ele>
        <time>2021-11-21T08:54:47Z</time>
      </trkpt>
      <trkpt lat="45.99963" lon="1.37924">
        <ele>523.4</ele>
        <time>2021-11-21T08:54:49Z</time>
      </trkpt>
      <trkpt lat="45.99967" lon="1.37928">
        <ele>524.4</ele>
        <time>2021-11-21T08:54:52Z</time>
      </trkpt>
      <trkpt lat="45.99969" lon="1.37929">
        <ele>524.4</ele>
        <time>2021-11-21T08:54:53Z</time>
      </trkpt>
      <trkpt lat="45.99974" lon="1.37934">
        <ele>525.6</ele>
        <time>2021-11-21T08:54:56Z</time>
      </trkpt>
      <trkpt lat="45.99981" lon="1.37941">
        <ele>526.2</ele>
        <time>2021-11-21T08:55:00Z</time>
      </trkpt>
      <trkpt lat="45.99987" lon="1.37946">
        <ele>526.6</ele>
        <time>2021-11-21T08:55:03Z</time>
      </trkpt>
      <trkpt lat="45.99991" lon="1.37951">
        <ele>527.2</ele>
        <time>2021-11-21T08:55:06Z</time>
      </trkpt>
      <trkpt lat="45.99994" lon="1.37954">
        <ele>527.8</ele>
        <time>2021-11-21T08:55:08Z</time>
      </trkpt>
      <trkpt lat="45.99999" lon="1.37957">
        <ele>529</ele>
        <time>2021-11-21T08:55:11Z</time>
      </trkpt>
      <trkpt lat="46.00004" lon="1.37959">
        <ele>530</ele>
        <time>2021-11-21T08:55:14Z</time>
      </trkpt>
      <trkpt lat="46.00006" lon="1.3796">
        <ele>530.4</ele>
        <time>2021-11-21T08:55:15Z</time>
      </trkpt>
      <trkpt lat="46.00015" lon="1.37965">
        <ele>531.4</ele>
        <time>2021-11-21T08:55:20Z</time>
      </trkpt>
      <trkpt lat="46.00017" lon="1.37967">
        <ele>532</ele>
        <time>2021-11-21T08:55:22Z</time>
      </trkpt>
      <trkpt lat="46.00019" lon="1.37973">
        <ele>532.6</ele>
        <time>2021-11-21T08:55:26Z</time>
      </trkpt>
      <trkpt lat="46.00019" lon="1.37975">
        <ele>532.8</ele>
        <time>2021-11-21T08:55:27Z</time>
      </trkpt>
      <trkpt lat="46.00021" lon="1.37981">
        <ele>533.2</ele>
        <time>2021-11-21T08:55:30Z</time>
      </trkpt>
      <trkpt lat="46.00023" lon="1.37985">
        <ele>533.8</ele>
        <time>2021-11-21T08:55:32Z</time>
      </trkpt>
      <trkpt lat="46.00027" lon="1.37992">
        <ele>535</ele>
        <time>2021-11-21T08:55:38Z</time>
      </trkpt>
      <trkpt lat="46.00029" lon="1.37997">
        <ele>536.4</ele>
        <time>2021-11-21T08:55:41Z</time>
      </trkpt>
      <trkpt lat="46.0003" lon="1.37998">
        <ele>536.6</ele>
        <time>2021-11-21T08:55:42Z</time>
      </trkpt>
      <trkpt lat="46.00031" lon="1.38">
        <ele>537.4</ele>
        <time>2021-11-21T08:55:44Z</time>
      </trkpt>
      <trkpt lat="46.00032" lon="1.38004">
        <ele>538.8</ele>
        <time>2021-11-21T08:55:47Z</time>
      </trkpt>
      <trkpt lat="46.00035" lon="1.38008">
        <ele>540</ele>
        <time>2021-11-21T08:55:51Z</time>
      </trkpt>
      <trkpt lat="46.00037" lon="1.38011">
        <ele>540.6</ele>
        <time>2021-11-21T08:55:54Z</time>
      </trkpt>
      <trkpt lat="46.00038" lon="1.38013">
        <ele>541</ele>
        <time>2021-11-21T08:55:56Z</time>
      </trkpt>
      <trkpt lat="46.00039" lon="1.38014">
        <ele>541.2</ele>
        <time>2021-11-21T08:55:57Z</time>
      </trkpt>
      <trkpt lat="46.0004" lon="1.38015">
        <ele>541.4</ele>
        <time>2021-11-21T08:55:58Z</time>
      </trkpt>
      <trkpt lat="46.00042" lon="1.38019">
        <ele>542.4</ele>
        <time>2021-11-21T08:56:01Z</time>
      </trkpt>
      <trkpt lat="46.00042" lon="1.3802">
        <ele>542.8</ele>
        <time>2021-11-21T08:56:02Z</time>
      </trkpt>
      <trkpt lat="46.00044" lon="1.38024">
        <ele>543.2</ele>
        <time>2021-11-21T08:56:04Z</time>
      </trkpt>
      <trkpt lat="46.00045" lon="1.38025">
        <ele>543.4</ele>
        <time>2021-11-21T08:56:05Z</time>
      </trkpt>
      <trkpt lat="46.00045" lon="1.38026">
        <ele>543.6</ele>
        <time>2021-11-21T08:56:06Z</time>
      </trkpt>
      <trkpt lat="46.00047" lon="1.38031">
        <ele>544.2</ele>
        <time>2021-11-21T08:56:09Z</time>
      </trkpt>
      <trkpt lat="46.00047" lon="1.38032">
        <ele>544.4</ele>
        <time>2021-11-21T08:56:10Z</time>
      </trkpt>
      <trkpt lat="46.00048" lon="1.38039">
        <ele>545.4</ele>
        <time>2021-11-21T08:56:14Z</time>
      </trkpt>
      <trkpt lat="46.00048" lon="1.3804">
        <ele>545.8</ele>
        <time>2021-11-21T08:56:15Z</time>
      </trkpt>
      <trkpt lat="46.00049" lon="1.38043">
        <ele>546.6</ele>
        <time>2021-11-21T08:56:17Z</time>
      </trkpt>
      <trkpt lat="46.0005" lon="1.38048">
        <ele>547.4</ele>
        <time>2021-11-21T08:56:21Z</time>
      </trkpt>
      <trkpt lat="46.0005" lon="1.3805">
        <ele>547.6</ele>
        <time>2021-11-21T08:56:22Z</time>
      </trkpt>
      <trkpt lat="46.00049" lon="1.38059">
        <ele>548.8</ele>
        <time>2021-11-21T08:56:28Z</time>
      </trkpt>
      <trkpt lat="46.0005" lon="1.3807">
        <ele>549.8</ele>
        <time>2021-11-21T08:56:35Z</time>
      </trkpt>
      <trkpt lat="46.0005" lon="1.38082">
        <ele>550.8</ele>
        <time>2021-11-21T08:56:42Z</time>
      </trkpt>
      <trkpt lat="46.00051" lon="1.38093">
        <ele>551.6</ele>
        <time>2021-11-21T08:56:48Z</time>
      </trkpt>
      <trkpt lat="46.00052" lon="1.38102">
        <ele>551.8</ele>
        <time>2021-11-21T08:56:52Z</time>
      </trkpt>
      <trkpt lat="46.00053" lon="1.38123">
        <ele>552.8</ele>
        <time>2021-11-21T08:57:00Z</time>
      </trkpt>
      <trkpt lat="46.00054" lon="1.38136">
        <ele>553.4</ele>
        <time>2021-11-21T08:57:06Z</time>
      </trkpt>
      <trkpt lat="46.00057" lon="1.38141">
        <ele>554</ele>
        <time>2021-11-21T08:57:09Z</time>
      </trkpt>
      <trkpt lat="46.00063" lon="1.38161">
        <ele>554.8</ele>
        <time>2021-11-21T08:57:17Z</time>
      </trkpt>
      <trkpt lat="46.00065" lon="1.38165">
        <ele>555</ele>
        <time>2021-11-21T08:57:19Z</time>
      </trkpt>
      <trkpt lat="46.00071" lon="1.38176">
        <ele>555.6</ele>
        <time>2021-11-21T08:57:24Z</time>
      </trkpt>
      <trkpt lat="46.00079" lon="1.38191">
        <ele>555.8</ele>
        <time>2021-11-21T08:57:30Z</time>
      </trkpt>
      <trkpt lat="46.00087" lon="1.38213">
        <ele>554</ele>
        <time>2021-11-21T08:57:34Z</time>
      </trkpt>
      <trkpt lat="46.00091" lon="1.3822">
        <ele>553.6</ele>
        <time>2021-11-21T08:57:35Z</time>
      </trkpt>
      <trkpt lat="46.00096" lon="1.38226">
        <ele>553</ele>
        <time>2021-11-21T08:57:36Z</time>
      </trkpt>
      <trkpt lat="46.00107" lon="1.38237">
        <ele>552</ele>
        <time>2021-11-21T08:57:38Z</time>
      </trkpt>
      <trkpt lat="46.00112" lon="1.38242">
        <ele>551.2</ele>
        <time>2021-11-21T08:57:39Z</time>
      </trkpt>
      <trkpt lat="46.00118" lon="1.38245">
        <ele>550.4</ele>
        <time>2021-11-21T08:57:40Z</time>
      </trkpt>
      <trkpt lat="46.00125" lon="1.38247">
        <ele>550</ele>
        <time>2021-11-21T08:57:41Z</time>
      </trkpt>
      <trkpt lat="46.00139" lon="1.38247">
        <ele>549.2</ele>
        <time>2021-11-21T08:57:43Z</time>
      </trkpt>
      <trkpt lat="46.00144" lon="1.38246">
        <ele>548.6</ele>
        <time>2021-11-21T08:57:44Z</time>
      </trkpt>
      <trkpt lat="46.00164" lon="1.38245">
        <ele>547.8</ele>
        <time>2021-11-21T08:57:48Z</time>
      </trkpt>
      <trkpt lat="46.00193" lon="1.38242">
        <ele>547.8</ele>
        <time>2021-11-21T08:57:53Z</time>
      </trkpt>
      <trkpt lat="46.00201" lon="1.38245">
        <ele>547.8</ele>
        <time>2021-11-21T08:57:55Z</time>
      </trkpt>
      <trkpt lat="46.00224" lon="1.38262">
        <ele>548.2</ele>
        <time>2021-11-21T08:57:59Z</time>
      </trkpt>
      <trkpt lat="46.00232" lon="1.38271">
        <ele>548.6</ele>
        <time>2021-11-21T08:58:01Z</time>
      </trkpt>
      <trkpt lat="46.00238" lon="1.38281">
        <ele>548.8</ele>
        <time>2021-11-21T08:58:03Z</time>
      </trkpt>
      <trkpt lat="46.00242" lon="1.38291">
        <ele>549</ele>
        <time>2021-11-21T08:58:05Z</time>
      </trkpt>
      <trkpt lat="46.00242" lon="1.38296">
        <ele>549.2</ele>
        <time>2021-11-21T08:58:06Z</time>
      </trkpt>
      <trkpt lat="46.00243" lon="1.38301">
        <ele>549.4</ele>
        <time>2021-11-21T08:58:07Z</time>
      </trkpt>
      <trkpt lat="46.00242" lon="1.38311">
        <ele>549.6</ele>
        <time>2021-11-21T08:58:09Z</time>
      </trkpt>
      <trkpt lat="46.0024" lon="1.38318">
        <ele>549.8</ele>
        <time>2021-11-21T08:58:11Z</time>
      </trkpt>
      <trkpt lat="46.00233" lon="1.38335">
        <ele>550.8</ele>
        <time>2021-11-21T08:58:16Z</time>
      </trkpt>
      <trkpt lat="46.00233" lon="1.38338">
        <ele>551</ele>
        <time>2021-11-21T08:58:17Z</time>
      </trkpt>
      <trkpt lat="46.00232" lon="1.38347">
        <ele>552</ele>
        <time>2021-11-21T08:58:20Z</time>
      </trkpt>
      <trkpt lat="46.00231" lon="1.38358">
        <ele>553</ele>
        <time>2021-11-21T08:58:23Z</time>
      </trkpt>
      <trkpt lat="46.00231" lon="1.38361">
        <ele>553.4</ele>
        <time>2021-11-21T08:58:24Z</time>
      </trkpt>
      <trkpt lat="46.00229" lon="1.38373">
        <ele>554.2</ele>
        <time>2021-11-21T08:58:28Z</time>
      </trkpt>
      <trkpt lat="46.00229" lon="1.38383">
        <ele>555.2</ele>
        <time>2021-11-21T08:58:31Z</time>
      </trkpt>
      <trkpt lat="46.00229" lon="1.38386">
        <ele>555.2</ele>
        <time>2021-11-21T08:58:32Z</time>
      </trkpt>
      <trkpt lat="46.00227" lon="1.38407">
        <ele>556.4</ele>
        <time>2021-11-21T08:58:38Z</time>
      </trkpt>
      <trkpt lat="46.00227" lon="1.3841">
        <ele>556.4</ele>
        <time>2021-11-21T08:58:39Z</time>
      </trkpt>
      <trkpt lat="46.00224" lon="1.38435">
        <ele>557</ele>
        <time>2021-11-21T08:58:46Z</time>
      </trkpt>
      <trkpt lat="46.00222" lon="1.38448">
        <ele>557.6</ele>
        <time>2021-11-21T08:58:49Z</time>
      </trkpt>
      <trkpt lat="46.00219" lon="1.38465">
        <ele>558</ele>
        <time>2021-11-21T08:58:53Z</time>
      </trkpt>
      <trkpt lat="46.00217" lon="1.38495">
        <ele>558.2</ele>
        <time>2021-11-21T08:58:59Z</time>
      </trkpt>
      <trkpt lat="46.00219" lon="1.38516">
        <ele>557.6</ele>
        <time>2021-11-21T08:59:04Z</time>
      </trkpt>
      <trkpt lat="46.00222" lon="1.38544">
        <ele>556.4</ele>
        <time>2021-11-21T08:59:09Z</time>
      </trkpt>
      <trkpt lat="46.00223" lon="1.3855">
        <ele>556.2</ele>
        <time>2021-11-21T08:59:10Z</time>
      </trkpt>
      <trkpt lat="46.00225" lon="1.38561">
        <ele>555.8</ele>
        <time>2021-11-21T08:59:12Z</time>
      </trkpt>
      <trkpt lat="46.0023" lon="1.38573">
        <ele>555.4</ele>
        <time>2021-11-21T08:59:14Z</time>
      </trkpt>
      <trkpt lat="46.00233" lon="1.38579">
        <ele>555.2</ele>
        <time>2021-11-21T08:59:15Z</time>
      </trkpt>
      <trkpt lat="46.00236" lon="1.38585">
        <ele>555.2</ele>
        <time>2021-11-21T08:59:16Z</time>
      </trkpt>
      <trkpt lat="46.00242" lon="1.38596">
        <ele>554.8</ele>
        <time>2021-11-21T08:59:18Z</time>
      </trkpt>
      <trkpt lat="46.0025" lon="1.38608">
        <ele>554.8</ele>
        <time>2021-11-21T08:59:20Z</time>
      </trkpt>
      <trkpt lat="46.00261" lon="1.38619">
        <ele>554.6</ele>
        <time>2021-11-21T08:59:22Z</time>
      </trkpt>
      <trkpt lat="46.00265" lon="1.38633">
        <ele>554.6</ele>
        <time>2021-11-21T08:59:24Z</time>
      </trkpt>
      <trkpt lat="46.00264" lon="1.38649">
        <ele>554.4</ele>
        <time>2021-11-21T08:59:26Z</time>
      </trkpt>
      <trkpt lat="46.00261" lon="1.38658">
        <ele>554.4</ele>
        <time>2021-11-21T08:59:27Z</time>
      </trkpt>
      <trkpt lat="46.00258" lon="1.38668">
        <ele>554.4</ele>
        <time>2021-11-21T08:59:28Z</time>
      </trkpt>
      <trkpt lat="46.0025" lon="1.38695">
        <ele>554.2</ele>
        <time>2021-11-21T08:59:31Z</time>
      </trkpt>
      <trkpt lat="46.00239" lon="1.38728">
        <ele>554</ele>
        <time>2021-11-21T08:59:35Z</time>
      </trkpt>
      <trkpt lat="46.00237" lon="1.38743">
        <ele>554</ele>
        <time>2021-11-21T08:59:37Z</time>
      </trkpt>
      <trkpt lat="46.00236" lon="1.3875">
        <ele>554</ele>
        <time>2021-11-21T08:59:38Z</time>
      </trkpt>
      <trkpt lat="46.00232" lon="1.38758">
        <ele>554</ele>
        <time>2021-11-21T08:59:40Z</time>
      </trkpt>
      <trkpt lat="46.00226" lon="1.3876">
        <ele>554.4</ele>
        <time>2021-11-21T08:59:42Z</time>
      </trkpt>
      <trkpt lat="46.00218" lon="1.3876">
        <ele>555</ele>
        <time>2021-11-21T08:59:45Z</time>
      </trkpt>
      <trkpt lat="46.0021" lon="1.38764">
        <ele>555.4</ele>
        <time>2021-11-21T08:59:49Z</time>
      </trkpt>
      <trkpt lat="46.00206" lon="1.38764">
        <ele>555.6</ele>
        <time>2021-11-21T08:59:51Z</time>
      </trkpt>
      <trkpt lat="46.00203" lon="1.38766">
        <ele>556</ele>
        <time>2021-11-21T08:59:53Z</time>
      </trkpt>
      <trkpt lat="46.00201" lon="1.38769">
        <ele>556.6</ele>
        <time>2021-11-21T08:59:55Z</time>
      </trkpt>
      <trkpt lat="46.002" lon="1.38772">
        <ele>557.2</ele>
        <time>2021-11-21T08:59:57Z</time>
      </trkpt>
      <trkpt lat="46.00199" lon="1.38774">
        <ele>557.6</ele>
        <time>2021-11-21T08:59:58Z</time>
      </trkpt>
      <trkpt lat="46.00198" lon="1.38775">
        <ele>557.8</ele>
        <time>2021-11-21T08:59:59Z</time>
      </trkpt>
      <trkpt lat="46.00194" lon="1.38779">
        <ele>558.4</ele>
        <time>2021-11-21T09:00:02Z</time>
      </trkpt>
      <trkpt lat="46.00193" lon="1.3878">
        <ele>558.8</ele>
        <time>2021-11-21T09:00:03Z</time>
      </trkpt>
      <trkpt lat="46.00188" lon="1.38787">
        <ele>559.8</ele>
        <time>2021-11-21T09:00:07Z</time>
      </trkpt>
      <trkpt lat="46.00185" lon="1.38793">
        <ele>560.4</ele>
        <time>2021-11-21T09:00:09Z</time>
      </trkpt>
      <trkpt lat="46.00182" lon="1.38799">
        <ele>560.8</ele>
        <time>2021-11-21T09:00:11Z</time>
      </trkpt>
      <trkpt lat="46.00178" lon="1.38812">
        <ele>561.6</ele>
        <time>2021-11-21T09:00:15Z</time>
      </trkpt>
      <trkpt lat="46.00176" lon="1.38817">
        <ele>561.8</ele>
        <time>2021-11-21T09:00:17Z</time>
      </trkpt>
      <trkpt lat="46.00172" lon="1.38819">
        <ele>562</ele>
        <time>2021-11-21T09:00:19Z</time>
      </trkpt>
      <trkpt lat="46.0017" lon="1.38819">
        <ele>562</ele>
        <time>2021-11-21T09:00:20Z</time>
      </trkpt>
      <trkpt lat="46.00156" lon="1.38821">
        <ele>562.6</ele>
        <time>2021-11-21T09:00:26Z</time>
      </trkpt>
      <trkpt lat="46.0015" lon="1.38823">
        <ele>562.8</ele>
        <time>2021-11-21T09:00:29Z</time>
      </trkpt>
      <trkpt lat="46.00149" lon="1.38826">
        <ele>563</ele>
        <time>2021-11-21T09:00:30Z</time>
      </trkpt>
      <trkpt lat="46.00148" lon="1.38829">
        <ele>563.2</ele>
        <time>2021-11-21T09:00:31Z</time>
      </trkpt>
      <trkpt lat="46.00149" lon="1.38839">
        <ele>564.2</ele>
        <time>2021-11-21T09:00:35Z</time>
      </trkpt>
      <trkpt lat="46.0015" lon="1.38841">
        <ele>564.4</ele>
        <time>2021-11-21T09:00:36Z</time>
      </trkpt>
      <trkpt lat="46.00164" lon="1.38849">
        <ele>563.8</ele>
        <time>2021-11-21T09:00:41Z</time>
      </trkpt>
      <trkpt lat="46.00171" lon="1.38853">
        <ele>563.2</ele>
        <time>2021-11-21T09:00:43Z</time>
      </trkpt>
      <trkpt lat="46.00173" lon="1.38855">
        <ele>563</ele>
        <time>2021-11-21T09:00:44Z</time>
      </trkpt>
      <trkpt lat="46.00178" lon="1.3886">
        <ele>562.8</ele>
        <time>2021-11-21T09:00:46Z</time>
      </trkpt>
      <trkpt lat="46.00187" lon="1.38872">
        <ele>564</ele>
        <time>2021-11-21T09:00:51Z</time>
      </trkpt>
      <trkpt lat="46.00187" lon="1.38874">
        <ele>564.6</ele>
        <time>2021-11-21T09:00:52Z</time>
      </trkpt>
      <trkpt lat="46.00191" lon="1.38884">
        <ele>565.8</ele>
        <time>2021-11-21T09:00:56Z</time>
      </trkpt>
      <trkpt lat="46.00191" lon="1.38885">
        <ele>566.2</ele>
        <time>2021-11-21T09:00:57Z</time>
      </trkpt>
      <trkpt lat="46.00194" lon="1.38892">
        <ele>566.6</ele>
        <time>2021-11-21T09:01:00Z</time>
      </trkpt>
      <trkpt lat="46.00195" lon="1.38896">
        <ele>567</ele>
        <time>2021-11-21T09:01:02Z</time>
      </trkpt>
      <trkpt lat="46.00196" lon="1.38897">
        <ele>567.2</ele>
        <time>2021-11-21T09:01:03Z</time>
      </trkpt>
      <trkpt lat="46.00198" lon="1.38904">
        <ele>568</ele>
        <time>2021-11-21T09:01:07Z</time>
      </trkpt>
      <trkpt lat="46.002" lon="1.38907">
        <ele>568.6</ele>
        <time>2021-11-21T09:01:09Z</time>
      </trkpt>
      <trkpt lat="46.00202" lon="1.38913">
        <ele>569.2</ele>
        <time>2021-11-21T09:01:12Z</time>
      </trkpt>
      <trkpt lat="46.00206" lon="1.38919">
        <ele>570</ele>
        <time>2021-11-21T09:01:15Z</time>
      </trkpt>
      <trkpt lat="46.00207" lon="1.38921">
        <ele>570.4</ele>
        <time>2021-11-21T09:01:16Z</time>
      </trkpt>
      <trkpt lat="46.00211" lon="1.38927">
        <ele>571.4</ele>
        <time>2021-11-21T09:01:20Z</time>
      </trkpt>
      <trkpt lat="46.00212" lon="1.38928">
        <ele>571.6</ele>
        <time>2021-11-21T09:01:21Z</time>
      </trkpt>
      <trkpt lat="46.00213" lon="1.38929">
        <ele>571.8</ele>
        <time>2021-11-21T09:01:22Z</time>
      </trkpt>
      <trkpt lat="46.00214" lon="1.38934">
        <ele>572.8</ele>
        <time>2021-11-21T09:01:26Z</time>
      </trkpt>
      <trkpt lat="46.00214" lon="1.38938">
        <ele>573.4</ele>
        <time>2021-11-21T09:01:29Z</time>
      </trkpt>
      <trkpt lat="46.00215" lon="1.3894">
        <ele>573.8</ele>
        <time>2021-11-21T09:01:30Z</time>
      </trkpt>
      <trkpt lat="46.00213" lon="1.38945">
        <ele>574.8</ele>
        <time>2021-11-21T09:01:35Z</time>
      </trkpt>
      <trkpt lat="46.00213" lon="1.38946">
        <ele>574.8</ele>
        <time>2021-11-21T09:01:36Z</time>
      </trkpt>
      <trkpt lat="46.00212" lon="1.38952">
        <ele>575.4</ele>
        <time>2021-11-21T09:01:39Z</time>
      </trkpt>
      <trkpt lat="46.00211" lon="1.38956">
        <ele>576</ele>
        <time>2021-11-21T09:01:43Z</time>
      </trkpt>
      <trkpt lat="46.00209" lon="1.38962">
        <ele>576.6</ele>
        <time>2021-11-21T09:01:46Z</time>
      </trkpt>
      <trkpt lat="46.00208" lon="1.38965">
        <ele>576.8</ele>
        <time>2021-11-21T09:01:48Z</time>
      </trkpt>
      <trkpt lat="46.00207" lon="1.38967">
        <ele>577</ele>
        <time>2021-11-21T09:01:49Z</time>
      </trkpt>
      <trkpt lat="46.00205" lon="1.38978">
        <ele>578</ele>
        <time>2021-11-21T09:01:55Z</time>
      </trkpt>
      <trkpt lat="46.00204" lon="1.38986">
        <ele>578.8</ele>
        <time>2021-11-21T09:02:00Z</time>
      </trkpt>
      <trkpt lat="46.00199" lon="1.38998">
        <ele>579</ele>
        <time>2021-11-21T09:02:06Z</time>
      </trkpt>
      <trkpt lat="46.00196" lon="1.39011">
        <ele>579.8</ele>
        <time>2021-11-21T09:02:12Z</time>
      </trkpt>
      <trkpt lat="46.00194" lon="1.39016">
        <ele>580.2</ele>
        <time>2021-11-21T09:02:14Z</time>
      </trkpt>
      <trkpt lat="46.00192" lon="1.39028">
        <ele>581</ele>
        <time>2021-11-21T09:02:19Z</time>
      </trkpt>
      <trkpt lat="46.00191" lon="1.39038">
        <ele>581.4</ele>
        <time>2021-11-21T09:02:23Z</time>
      </trkpt>
      <trkpt lat="46.00188" lon="1.3905">
        <ele>581.8</ele>
        <time>2021-11-21T09:02:27Z</time>
      </trkpt>
      <trkpt lat="46.00183" lon="1.39067">
        <ele>582.4</ele>
        <time>2021-11-21T09:02:32Z</time>
      </trkpt>
      <trkpt lat="46.00183" lon="1.39071">
        <ele>582.4</ele>
        <time>2021-11-21T09:02:33Z</time>
      </trkpt>
      <trkpt lat="46.00184" lon="1.3909">
        <ele>582.4</ele>
        <time>2021-11-21T09:02:38Z</time>
      </trkpt>
      <trkpt lat="46.00189" lon="1.3911">
        <ele>583.4</ele>
        <time>2021-11-21T09:02:43Z</time>
      </trkpt>
      <trkpt lat="46.0019" lon="1.39115">
        <ele>583.6</ele>
        <time>2021-11-21T09:02:44Z</time>
      </trkpt>
      <trkpt lat="46.00194" lon="1.39132">
        <ele>584.4</ele>
        <time>2021-11-21T09:02:48Z</time>
      </trkpt>
      <trkpt lat="46.00196" lon="1.39145">
        <ele>584.6</ele>
        <time>2021-11-21T09:02:51Z</time>
      </trkpt>
      <trkpt lat="46.00201" lon="1.39173">
        <ele>585.2</ele>
        <time>2021-11-21T09:02:58Z</time>
      </trkpt>
      <trkpt lat="46.00203" lon="1.39183">
        <ele>585.6</ele>
        <time>2021-11-21T09:03:01Z</time>
      </trkpt>
      <trkpt lat="46.00206" lon="1.39195">
        <ele>586.4</ele>
        <time>2021-11-21T09:03:05Z</time>
      </trkpt>
      <trkpt lat="46.00207" lon="1.392">
        <ele>586.8</ele>
        <time>2021-11-21T09:03:07Z</time>
      </trkpt>
      <trkpt lat="46.00216" lon="1.39211">
        <ele>588</ele>
        <time>2021-11-21T09:03:12Z</time>
      </trkpt>
      <trkpt lat="46.0023" lon="1.39225">
        <ele>588.6</ele>
        <time>2021-11-21T09:03:19Z</time>
      </trkpt>
      <trkpt lat="46.00238" lon="1.39233">
        <ele>589.2</ele>
        <time>2021-11-21T09:03:23Z</time>
      </trkpt>
      <trkpt lat="46.00244" lon="1.39238">
        <ele>589.6</ele>
        <time>2021-11-21T09:03:26Z</time>
      </trkpt>
      <trkpt lat="46.00251" lon="1.39243">
        <ele>590.2</ele>
        <time>2021-11-21T09:03:30Z</time>
      </trkpt>
      <trkpt lat="46.00257" lon="1.39247">
        <ele>590.8</ele>
        <time>2021-11-21T09:03:33Z</time>
      </trkpt>
      <trkpt lat="46.00265" lon="1.39252">
        <ele>591.2</ele>
        <time>2021-11-21T09:03:37Z</time>
      </trkpt>
      <trkpt lat="46.00268" lon="1.39253">
        <ele>591.4</ele>
        <time>2021-11-21T09:03:38Z</time>
      </trkpt>
      <trkpt lat="46.00287" lon="1.39264">
        <ele>592</ele>
        <time>2021-11-21T09:03:45Z</time>
      </trkpt>
      <trkpt lat="46.00298" lon="1.39268">
        <ele>592.4</ele>
        <time>2021-11-21T09:03:49Z</time>
      </trkpt>
      <trkpt lat="46.00305" lon="1.39269">
        <ele>592.6</ele>
        <time>2021-11-21T09:03:52Z</time>
      </trkpt>
      <trkpt lat="46.00326" lon="1.39269">
        <ele>593.4</ele>
        <time>2021-11-21T09:04:00Z</time>
      </trkpt>
      <trkpt lat="46.00328" lon="1.39269">
        <ele>593.6</ele>
        <time>2021-11-21T09:04:01Z</time>
      </trkpt>
      <trkpt lat="46.00353" lon="1.39273">
        <ele>593.6</ele>
        <time>2021-11-21T09:04:08Z</time>
      </trkpt>
      <trkpt lat="46.00376" lon="1.39277">
        <ele>594</ele>
        <time>2021-11-21T09:04:15Z</time>
      </trkpt>
      <trkpt lat="46.00386" lon="1.39278">
        <ele>594.6</ele>
        <time>2021-11-21T09:04:18Z</time>
      </trkpt>
      <trkpt lat="46.00398" lon="1.39274">
        <ele>595.2</ele>
        <time>2021-11-21T09:04:21Z</time>
      </trkpt>
      <trkpt lat="46.00417" lon="1.39269">
        <ele>595.6</ele>
        <time>2021-11-21T09:04:27Z</time>
      </trkpt>
      <trkpt lat="46.0042" lon="1.39269">
        <ele>595.8</ele>
        <time>2021-11-21T09:04:28Z</time>
      </trkpt>
      <trkpt lat="46.00428" lon="1.39267">
        <ele>596.6</ele>
        <time>2021-11-21T09:04:32Z</time>
      </trkpt>
      <trkpt lat="46.0043" lon="1.39267">
        <ele>597</ele>
        <time>2021-11-21T09:04:33Z</time>
      </trkpt>
      <trkpt lat="46.00443" lon="1.39265">
        <ele>598</ele>
        <time>2021-11-21T09:04:39Z</time>
      </trkpt>
      <trkpt lat="46.00462" lon="1.39265">
        <ele>598</ele>
        <time>2021-11-21T09:04:46Z</time>
      </trkpt>
      <trkpt lat="46.00489" lon="1.39271">
        <ele>597.2</ele>
        <time>2021-11-21T09:04:53Z</time>
      </trkpt>
      <trkpt lat="46.00502" lon="1.39274">
        <ele>597</ele>
        <time>2021-11-21T09:04:57Z</time>
      </trkpt>
      <trkpt lat="46.00506" lon="1.39273">
        <ele>597</ele>
        <time>2021-11-21T09:04:58Z</time>
      </trkpt>
      <trkpt lat="46.0051" lon="1.39274">
        <ele>596.8</ele>
        <time>2021-11-21T09:04:59Z</time>
      </trkpt>
      <trkpt lat="46.00527" lon="1.39275">
        <ele>595.8</ele>
        <time>2021-11-21T09:05:04Z</time>
      </trkpt>
      <trkpt lat="46.00531" lon="1.39276">
        <ele>595.8</ele>
        <time>2021-11-21T09:05:05Z</time>
      </trkpt>
      <trkpt lat="46.00539" lon="1.39276">
        <ele>595.6</ele>
        <time>2021-11-21T09:05:07Z</time>
      </trkpt>
      <trkpt lat="46.00558" lon="1.3927">
        <ele>595.6</ele>
        <time>2021-11-21T09:05:11Z</time>
      </trkpt>
      <trkpt lat="46.00561" lon="1.39267">
        <ele>595.8</ele>
        <time>2021-11-21T09:05:12Z</time>
      </trkpt>
      <trkpt lat="46.00565" lon="1.39265">
        <ele>596</ele>
        <time>2021-11-21T09:05:13Z</time>
      </trkpt>
      <trkpt lat="46.00573" lon="1.39258">
        <ele>596.2</ele>
        <time>2021-11-21T09:05:15Z</time>
      </trkpt>
      <trkpt lat="46.00581" lon="1.39249">
        <ele>596.2</ele>
        <time>2021-11-21T09:05:17Z</time>
      </trkpt>
      <trkpt lat="46.00599" lon="1.39224">
        <ele>595.2</ele>
        <time>2021-11-21T09:05:22Z</time>
      </trkpt>
      <trkpt lat="46.00603" lon="1.3922">
        <ele>595.2</ele>
        <time>2021-11-21T09:05:23Z</time>
      </trkpt>
      <trkpt lat="46.00616" lon="1.39206">
        <ele>594.8</ele>
        <time>2021-11-21T09:05:26Z</time>
      </trkpt>
      <trkpt lat="46.00627" lon="1.39192">
        <ele>593.6</ele>
        <time>2021-11-21T09:05:28Z</time>
      </trkpt>
      <trkpt lat="46.00646" lon="1.39174">
        <ele>592.2</ele>
        <time>2021-11-21T09:05:31Z</time>
      </trkpt>
      <trkpt lat="46.00652" lon="1.3917">
        <ele>591.4</ele>
        <time>2021-11-21T09:05:32Z</time>
      </trkpt>
      <trkpt lat="46.00657" lon="1.39167">
        <ele>590.6</ele>
        <time>2021-11-21T09:05:33Z</time>
      </trkpt>
      <trkpt lat="46.00662" lon="1.39166">
        <ele>590.2</ele>
        <time>2021-11-21T09:05:34Z</time>
      </trkpt>
      <trkpt lat="46.00676" lon="1.39163">
        <ele>589.6</ele>
        <time>2021-11-21T09:05:37Z</time>
      </trkpt>
      <trkpt lat="46.00682" lon="1.39163">
        <ele>589.4</ele>
        <time>2021-11-21T09:05:38Z</time>
      </trkpt>
      <trkpt lat="46.00704" lon="1.39161">
        <ele>588.8</ele>
        <time>2021-11-21T09:05:42Z</time>
      </trkpt>
      <trkpt lat="46.00715" lon="1.39159">
        <ele>588.2</ele>
        <time>2021-11-21T09:05:44Z</time>
      </trkpt>
      <trkpt lat="46.00729" lon="1.39155">
        <ele>587.4</ele>
        <time>2021-11-21T09:05:47Z</time>
      </trkpt>
      <trkpt lat="46.00743" lon="1.3915">
        <ele>587.4</ele>
        <time>2021-11-21T09:05:50Z</time>
      </trkpt>
      <trkpt lat="46.00747" lon="1.39148">
        <ele>587.6</ele>
        <time>2021-11-21T09:05:51Z</time>
      </trkpt>
      <trkpt lat="46.00766" lon="1.39133">
        <ele>587.8</ele>
        <time>2021-11-21T09:05:55Z</time>
      </trkpt>
      <trkpt lat="46.0078" lon="1.39124">
        <ele>588</ele>
        <time>2021-11-21T09:05:58Z</time>
      </trkpt>
      <trkpt lat="46.00793" lon="1.39116">
        <ele>588.6</ele>
        <time>2021-11-21T09:06:01Z</time>
      </trkpt>
      <trkpt lat="46.0082" lon="1.39104">
        <ele>588.8</ele>
        <time>2021-11-21T09:06:07Z</time>
      </trkpt>
      <trkpt lat="46.00832" lon="1.391">
        <ele>588.8</ele>
        <time>2021-11-21T09:06:10Z</time>
      </trkpt>
      <trkpt lat="46.0084" lon="1.39097">
        <ele>588.8</ele>
        <time>2021-11-21T09:06:12Z</time>
      </trkpt>
      <trkpt lat="46.00857" lon="1.39089">
        <ele>589.2</ele>
        <time>2021-11-21T09:06:17Z</time>
      </trkpt>
      <trkpt lat="46.0086" lon="1.39087">
        <ele>589.4</ele>
        <time>2021-11-21T09:06:18Z</time>
      </trkpt>
      <trkpt lat="46.00884" lon="1.3908">
        <ele>589.6</ele>
        <time>2021-11-21T09:06:25Z</time>
      </trkpt>
      <trkpt lat="46.00897" lon="1.39078">
        <ele>589.6</ele>
        <time>2021-11-21T09:06:29Z</time>
      </trkpt>
      <trkpt lat="46.00903" lon="1.39077">
        <ele>589.6</ele>
        <time>2021-11-21T09:06:30Z</time>
      </trkpt>
      <trkpt lat="46.00907" lon="1.39076">
        <ele>589.6</ele>
        <time>2021-11-21T09:06:31Z</time>
      </trkpt>
      <trkpt lat="46.00922" lon="1.39077">
        <ele>589.6</ele>
        <time>2021-11-21T09:06:34Z</time>
      </trkpt>
      <trkpt lat="46.00926" lon="1.39078">
        <ele>589.4</ele>
        <time>2021-11-21T09:06:35Z</time>
      </trkpt>
      <trkpt lat="46.00929" lon="1.39079">
        <ele>589.4</ele>
        <time>2021-11-21T09:06:36Z</time>
      </trkpt>
      <trkpt lat="46.00939" lon="1.39087">
        <ele>589.6</ele>
        <time>2021-11-21T09:06:39Z</time>
      </trkpt>
      <trkpt lat="46.00941" lon="1.39091">
        <ele>589.8</ele>
        <time>2021-11-21T09:06:40Z</time>
      </trkpt>
      <trkpt lat="46.00953" lon="1.39106">
        <ele>589.4</ele>
        <time>2021-11-21T09:06:46Z</time>
      </trkpt>
      <trkpt lat="46.00956" lon="1.3911">
        <ele>589.2</ele>
        <time>2021-11-21T09:06:47Z</time>
      </trkpt>
      <trkpt lat="46.0097" lon="1.39122">
        <ele>588.4</ele>
        <time>2021-11-21T09:06:51Z</time>
      </trkpt>
      <trkpt lat="46.00972" lon="1.39125">
        <ele>588.2</ele>
        <time>2021-11-21T09:06:52Z</time>
      </trkpt>
      <trkpt lat="46.00978" lon="1.39132">
        <ele>586.4</ele>
        <time>2021-11-21T09:06:54Z</time>
      </trkpt>
      <trkpt lat="46.00981" lon="1.39136">
        <ele>585</ele>
        <time>2021-11-21T09:06:55Z</time>
      </trkpt>
      <trkpt lat="46.00988" lon="1.39146">
        <ele>583.4</ele>
        <time>2021-11-21T09:06:57Z</time>
      </trkpt>
      <trkpt lat="46.00994" lon="1.39154">
        <ele>582.2</ele>
        <time>2021-11-21T09:06:59Z</time>
      </trkpt>
      <trkpt lat="46.00997" lon="1.39158">
        <ele>581.8</ele>
        <time>2021-11-21T09:07:00Z</time>
      </trkpt>
      <trkpt lat="46.00997" lon="1.39158">
        <ele>578.8</ele>
        <time>2021-11-21T09:07:02Z</time>
      </trkpt>
      <trkpt lat="46.01012" lon="1.39178">
        <ele>578</ele>
        <time>2021-11-21T09:07:04Z</time>
      </trkpt>
      <trkpt lat="46.01016" lon="1.39182">
        <ele>577.2</ele>
        <time>2021-11-21T09:07:05Z</time>
      </trkpt>
      <trkpt lat="46.01021" lon="1.39186">
        <ele>576.4</ele>
        <time>2021-11-21T09:07:06Z</time>
      </trkpt>
      <trkpt lat="46.01026" lon="1.39191">
        <ele>576</ele>
        <time>2021-11-21T09:07:07Z</time>
      </trkpt>
      <trkpt lat="46.01035" lon="1.39199">
        <ele>574.4</ele>
        <time>2021-11-21T09:07:09Z</time>
      </trkpt>
      <trkpt lat="46.01037" lon="1.39203">
        <ele>574</ele>
        <time>2021-11-21T09:07:10Z</time>
      </trkpt>
      <trkpt lat="46.0104" lon="1.39208">
        <ele>573.6</ele>
        <time>2021-11-21T09:07:11Z</time>
      </trkpt>
      <trkpt lat="46.01043" lon="1.39212">
        <ele>573</ele>
        <time>2021-11-21T09:07:12Z</time>
      </trkpt>
      <trkpt lat="46.01046" lon="1.39217">
        <ele>572.4</ele>
        <time>2021-11-21T09:07:13Z</time>
      </trkpt>
      <trkpt lat="46.01048" lon="1.39222">
        <ele>571.8</ele>
        <time>2021-11-21T09:07:14Z</time>
      </trkpt>
      <trkpt lat="46.01051" lon="1.39226">
        <ele>571.4</ele>
        <time>2021-11-21T09:07:15Z</time>
      </trkpt>
      <trkpt lat="46.01057" lon="1.39237">
        <ele>570.4</ele>
        <time>2021-11-21T09:07:17Z</time>
      </trkpt>
      <trkpt lat="46.01064" lon="1.39247">
        <ele>568.8</ele>
        <time>2021-11-21T09:07:19Z</time>
      </trkpt>
      <trkpt lat="46.01068" lon="1.39258">
        <ele>568</ele>
        <time>2021-11-21T09:07:21Z</time>
      </trkpt>
      <trkpt lat="46.01072" lon="1.3927">
        <ele>567.4</ele>
        <time>2021-11-21T09:07:22Z</time>
      </trkpt>
      <trkpt lat="46.01078" lon="1.39291">
        <ele>566.8</ele>
        <time>2021-11-21T09:07:26Z</time>
      </trkpt>
      <trkpt lat="46.01087" lon="1.39312">
        <ele>566.4</ele>
        <time>2021-11-21T09:07:30Z</time>
      </trkpt>
      <trkpt lat="46.01093" lon="1.39332">
        <ele>567</ele>
        <time>2021-11-21T09:07:36Z</time>
      </trkpt>
      <trkpt lat="46.01095" lon="1.39341">
        <ele>568</ele>
        <time>2021-11-21T09:07:41Z</time>
      </trkpt>
      <trkpt lat="46.01095" lon="1.39342">
        <ele>568.4</ele>
        <time>2021-11-21T09:07:42Z</time>
      </trkpt>
      <trkpt lat="46.01095" lon="1.39345">
        <ele>569.2</ele>
        <time>2021-11-21T09:07:45Z</time>
      </trkpt>
      <trkpt lat="46.01095" lon="1.39348">
        <ele>569.4</ele>
        <time>2021-11-21T09:07:47Z</time>
      </trkpt>
      <trkpt lat="46.01094" lon="1.39355">
        <ele>570.6</ele>
        <time>2021-11-21T09:07:51Z</time>
      </trkpt>
      <trkpt lat="46.01093" lon="1.39362">
        <ele>571.8</ele>
        <time>2021-11-21T09:07:55Z</time>
      </trkpt>
      <trkpt lat="46.01092" lon="1.39365">
        <ele>572.4</ele>
        <time>2021-11-21T09:07:57Z</time>
      </trkpt>
      <trkpt lat="46.01091" lon="1.39368">
        <ele>573</ele>
        <time>2021-11-21T09:07:59Z</time>
      </trkpt>
      <trkpt lat="46.0109" lon="1.39371">
        <ele>573.6</ele>
        <time>2021-11-21T09:08:01Z</time>
      </trkpt>
      <trkpt lat="46.01088" lon="1.39375">
        <ele>574</ele>
        <time>2021-11-21T09:08:04Z</time>
      </trkpt>
      <trkpt lat="46.01088" lon="1.39376">
        <ele>574.2</ele>
        <time>2021-11-21T09:08:05Z</time>
      </trkpt>
      <trkpt lat="46.01087" lon="1.39379">
        <ele>574.4</ele>
        <time>2021-11-21T09:08:06Z</time>
      </trkpt>
      <trkpt lat="46.01081" lon="1.39383">
        <ele>575.2</ele>
        <time>2021-11-21T09:08:10Z</time>
      </trkpt>
      <trkpt lat="46.01078" lon="1.39386">
        <ele>575.2</ele>
        <time>2021-11-21T09:08:12Z</time>
      </trkpt>
      <trkpt lat="46.01066" lon="1.39394">
        <ele>576</ele>
        <time>2021-11-21T09:08:20Z</time>
      </trkpt>
      <trkpt lat="46.01062" lon="1.39397">
        <ele>576.4</ele>
        <time>2021-11-21T09:08:22Z</time>
      </trkpt>
      <trkpt lat="46.01047" lon="1.394">
        <ele>577.4</ele>
        <time>2021-11-21T09:08:27Z</time>
      </trkpt>
      <trkpt lat="46.01044" lon="1.39401">
        <ele>577.4</ele>
        <time>2021-11-21T09:08:28Z</time>
      </trkpt>
      <trkpt lat="46.01035" lon="1.39406">
        <ele>578.4</ele>
        <time>2021-11-21T09:08:34Z</time>
      </trkpt>
      <trkpt lat="46.01031" lon="1.39407">
        <ele>579</ele>
        <time>2021-11-21T09:08:37Z</time>
      </trkpt>
      <trkpt lat="46.01027" lon="1.39408">
        <ele>579.4</ele>
        <time>2021-11-21T09:08:41Z</time>
      </trkpt>
      <trkpt lat="46.01025" lon="1.39408">
        <ele>579.6</ele>
        <time>2021-11-21T09:08:42Z</time>
      </trkpt>
      <trkpt lat="46.01015" lon="1.39411">
        <ele>580.4</ele>
        <time>2021-11-21T09:08:49Z</time>
      </trkpt>
      <trkpt lat="46.01014" lon="1.39411">
        <ele>580.8</ele>
        <time>2021-11-21T09:08:50Z</time>
      </trkpt>
      <trkpt lat="46.01007" lon="1.39411">
        <ele>581.8</ele>
        <time>2021-11-21T09:08:55Z</time>
      </trkpt>
      <trkpt lat="46.01003" lon="1.39411">
        <ele>582.6</ele>
        <time>2021-11-21T09:08:58Z</time>
      </trkpt>
      <trkpt lat="46.01001" lon="1.39411">
        <ele>582.8</ele>
        <time>2021-11-21T09:08:59Z</time>
      </trkpt>
      <trkpt lat="46.00992" lon="1.3941">
        <ele>584.4</ele>
        <time>2021-11-21T09:09:04Z</time>
      </trkpt>
      <trkpt lat="46.00991" lon="1.3941">
        <ele>584.6</ele>
        <time>2021-11-21T09:09:05Z</time>
      </trkpt>
      <trkpt lat="46.00984" lon="1.39409">
        <ele>585.6</ele>
        <time>2021-11-21T09:09:10Z</time>
      </trkpt>
      <trkpt lat="46.00981" lon="1.39408">
        <ele>586.4</ele>
        <time>2021-11-21T09:09:13Z</time>
      </trkpt>
      <trkpt lat="46.00977" lon="1.39405">
        <ele>586.8</ele>
        <time>2021-11-21T09:09:16Z</time>
      </trkpt>
      <trkpt lat="46.00974" lon="1.39401">
        <ele>587.6</ele>
        <time>2021-11-21T09:09:20Z</time>
      </trkpt>
      <trkpt lat="46.00974" lon="1.394">
        <ele>588</ele>
        <time>2021-11-21T09:09:21Z</time>
      </trkpt>
      <trkpt lat="46.00968" lon="1.39397">
        <ele>589</ele>
        <time>2021-11-21T09:09:26Z</time>
      </trkpt>
      <trkpt lat="46.00966" lon="1.39397">
        <ele>589.2</ele>
        <time>2021-11-21T09:09:28Z</time>
      </trkpt>
      <trkpt lat="46.00962" lon="1.39395">
        <ele>590</ele>
        <time>2021-11-21T09:09:32Z</time>
      </trkpt>
      <trkpt lat="46.00958" lon="1.39393">
        <ele>591.2</ele>
        <time>2021-11-21T09:09:36Z</time>
      </trkpt>
      <trkpt lat="46.0095" lon="1.39391">
        <ele>592.4</ele>
        <time>2021-11-21T09:09:41Z</time>
      </trkpt>
      <trkpt lat="46.00946" lon="1.3939">
        <ele>593</ele>
        <time>2021-11-21T09:09:44Z</time>
      </trkpt>
      <trkpt lat="46.00944" lon="1.3939">
        <ele>593.4</ele>
        <time>2021-11-21T09:09:46Z</time>
      </trkpt>
      <trkpt lat="46.00938" lon="1.39391">
        <ele>594.6</ele>
        <time>2021-11-21T09:09:52Z</time>
      </trkpt>
      <trkpt lat="46.00937" lon="1.39391">
        <ele>594.8</ele>
        <time>2021-11-21T09:09:53Z</time>
      </trkpt>
      <trkpt lat="46.00936" lon="1.39392">
        <ele>595</ele>
        <time>2021-11-21T09:09:54Z</time>
      </trkpt>
      <trkpt lat="46.00932" lon="1.39393">
        <ele>595.6</ele>
        <time>2021-11-21T09:09:57Z</time>
      </trkpt>
      <trkpt lat="46.00929" lon="1.39393">
        <ele>596</ele>
        <time>2021-11-21T09:10:00Z</time>
      </trkpt>
      <trkpt lat="46.00928" lon="1.39394">
        <ele>596</ele>
        <time>2021-11-21T09:10:01Z</time>
      </trkpt>
      <trkpt lat="46.00925" lon="1.39396">
        <ele>596.4</ele>
        <time>2021-11-21T09:10:04Z</time>
      </trkpt>
      <trkpt lat="46.00923" lon="1.39397">
        <ele>596.6</ele>
        <time>2021-11-21T09:10:06Z</time>
      </trkpt>
      <trkpt lat="46.0092" lon="1.39397">
        <ele>597</ele>
        <time>2021-11-21T09:10:08Z</time>
      </trkpt>
      <trkpt lat="46.00917" lon="1.39398">
        <ele>597.6</ele>
        <time>2021-11-21T09:10:11Z</time>
      </trkpt>
      <trkpt lat="46.00915" lon="1.39398">
        <ele>597.8</ele>
        <time>2021-11-21T09:10:13Z</time>
      </trkpt>
      <trkpt lat="46.00914" lon="1.39399">
        <ele>598.2</ele>
        <time>2021-11-21T09:10:15Z</time>
      </trkpt>
      <trkpt lat="46.00908" lon="1.39402">
        <ele>599.2</ele>
        <time>2021-11-21T09:10:19Z</time>
      </trkpt>
      <trkpt lat="46.00906" lon="1.39403">
        <ele>599.6</ele>
        <time>2021-11-21T09:10:21Z</time>
      </trkpt>
      <trkpt lat="46.00897" lon="1.39405">
        <ele>600.2</ele>
        <time>2021-11-21T09:10:27Z</time>
      </trkpt>
      <trkpt lat="46.00891" lon="1.39407">
        <ele>601.4</ele>
        <time>2021-11-21T09:10:33Z</time>
      </trkpt>
      <trkpt lat="46.00883" lon="1.39411">
        <ele>602.6</ele>
        <time>2021-11-21T09:10:39Z</time>
      </trkpt>
      <trkpt lat="46.00878" lon="1.39415">
        <ele>603.8</ele>
        <time>2021-11-21T09:10:44Z</time>
      </trkpt>
      <trkpt lat="46.00873" lon="1.39418">
        <ele>604.8</ele>
        <time>2021-11-21T09:10:49Z</time>
      </trkpt>
      <trkpt lat="46.00866" lon="1.39424">
        <ele>605.8</ele>
        <time>2021-11-21T09:10:55Z</time>
      </trkpt>
      <trkpt lat="46.00859" lon="1.39431">
        <ele>606.4</ele>
        <time>2021-11-21T09:11:02Z</time>
      </trkpt>
      <trkpt lat="46.00855" lon="1.39437">
        <ele>606.8</ele>
        <time>2021-11-21T09:11:08Z</time>
      </trkpt>
      <trkpt lat="46.00845" lon="1.39449">
        <ele>607.8</ele>
        <time>2021-11-21T09:11:17Z</time>
      </trkpt>
      <trkpt lat="46.00844" lon="1.39451">
        <ele>608</ele>
        <time>2021-11-21T09:11:18Z</time>
      </trkpt>
      <trkpt lat="46.00841" lon="1.3946">
        <ele>609</ele>
        <time>2021-11-21T09:11:25Z</time>
      </trkpt>
      <trkpt lat="46.0084" lon="1.39461">
        <ele>609</ele>
        <time>2021-11-21T09:11:27Z</time>
      </trkpt>
      <trkpt lat="46.00838" lon="1.39462">
        <ele>609</ele>
        <time>2021-11-21T09:11:38Z</time>
      </trkpt>
      <trkpt lat="46.00836" lon="1.39466">
        <ele>609.2</ele>
        <time>2021-11-21T09:11:46Z</time>
      </trkpt>
      <trkpt lat="46.00832" lon="1.39469">
        <ele>609.4</ele>
        <time>2021-11-21T09:11:49Z</time>
      </trkpt>
      <trkpt lat="46.00822" lon="1.39474">
        <ele>609.8</ele>
        <time>2021-11-21T09:11:54Z</time>
      </trkpt>
      <trkpt lat="46.00819" lon="1.39476">
        <ele>610</ele>
        <time>2021-11-21T09:11:56Z</time>
      </trkpt>
      <trkpt lat="46.00813" lon="1.3948">
        <ele>610.6</ele>
        <time>2021-11-21T09:12:00Z</time>
      </trkpt>
      <trkpt lat="46.0081" lon="1.39482">
        <ele>611</ele>
        <time>2021-11-21T09:12:02Z</time>
      </trkpt>
      <trkpt lat="46.00802" lon="1.39487">
        <ele>612</ele>
        <time>2021-11-21T09:12:07Z</time>
      </trkpt>
      <trkpt lat="46.00801" lon="1.39488">
        <ele>612.2</ele>
        <time>2021-11-21T09:12:08Z</time>
      </trkpt>
      <trkpt lat="46.0079" lon="1.39494">
        <ele>613.4</ele>
        <time>2021-11-21T09:12:13Z</time>
      </trkpt>
      <trkpt lat="46.00787" lon="1.39496">
        <ele>613.6</ele>
        <time>2021-11-21T09:12:14Z</time>
      </trkpt>
      <trkpt lat="46.00769" lon="1.39507">
        <ele>614.4</ele>
        <time>2021-11-21T09:12:21Z</time>
      </trkpt>
      <trkpt lat="46.00751" lon="1.39509">
        <ele>615.2</ele>
        <time>2021-11-21T09:12:28Z</time>
      </trkpt>
      <trkpt lat="46.00751" lon="1.39507">
        <ele>615</ele>
        <time>2021-11-21T09:12:32Z</time>
      </trkpt>
      <trkpt lat="46.00748" lon="1.39515">
        <ele>614.8</ele>
        <time>2021-11-21T09:12:36Z</time>
      </trkpt>
      <trkpt lat="46.00744" lon="1.3952">
        <ele>614.8</ele>
        <time>2021-11-21T09:12:40Z</time>
      </trkpt>
      <trkpt lat="46.00739" lon="1.39526">
        <ele>615.4</ele>
        <time>2021-11-21T09:12:46Z</time>
      </trkpt>
      <trkpt lat="46.00739" lon="1.39531">
        <ele>615.8</ele>
        <time>2021-11-21T09:12:49Z</time>
      </trkpt>
      <trkpt lat="46.00741" lon="1.39551">
        <ele>616.2</ele>
        <time>2021-11-21T09:12:55Z</time>
      </trkpt>
      <trkpt lat="46.00748" lon="1.39566">
        <ele>616.6</ele>
        <time>2021-11-21T09:13:00Z</time>
      </trkpt>
      <trkpt lat="46.00749" lon="1.39569">
        <ele>616.8</ele>
        <time>2021-11-21T09:13:01Z</time>
      </trkpt>
      <trkpt lat="46.00758" lon="1.39588">
        <ele>616.6</ele>
        <time>2021-11-21T09:13:06Z</time>
      </trkpt>
      <trkpt lat="46.00771" lon="1.39618">
        <ele>616.2</ele>
        <time>2021-11-21T09:13:12Z</time>
      </trkpt>
      <trkpt lat="46.0078" lon="1.39636">
        <ele>615.6</ele>
        <time>2021-11-21T09:13:16Z</time>
      </trkpt>
      <trkpt lat="46.00782" lon="1.39641">
        <ele>615.6</ele>
        <time>2021-11-21T09:13:17Z</time>
      </trkpt>
      <trkpt lat="46.00794" lon="1.39662">
        <ele>615.4</ele>
        <time>2021-11-21T09:13:21Z</time>
      </trkpt>
      <trkpt lat="46.00799" lon="1.39673">
        <ele>615.4</ele>
        <time>2021-11-21T09:13:23Z</time>
      </trkpt>
      <trkpt lat="46.00801" lon="1.39678">
        <ele>615.6</ele>
        <time>2021-11-21T09:13:24Z</time>
      </trkpt>
      <trkpt lat="46.00809" lon="1.39701">
        <ele>615.8</ele>
        <time>2021-11-21T09:13:28Z</time>
      </trkpt>
      <trkpt lat="46.00812" lon="1.3971">
        <ele>616</ele>
        <time>2021-11-21T09:13:30Z</time>
      </trkpt>
      <trkpt lat="46.00819" lon="1.39729">
        <ele>616</ele>
        <time>2021-11-21T09:13:34Z</time>
      </trkpt>
      <trkpt lat="46.00824" lon="1.39743">
        <ele>616</ele>
        <time>2021-11-21T09:13:37Z</time>
      </trkpt>
      <trkpt lat="46.00827" lon="1.39753">
        <ele>616</ele>
        <time>2021-11-21T09:13:39Z</time>
      </trkpt>
      <trkpt lat="46.00842" lon="1.39792">
        <ele>616.2</ele>
        <time>2021-11-21T09:13:46Z</time>
      </trkpt>
      <trkpt lat="46.00854" lon="1.3982">
        <ele>616.6</ele>
        <time>2021-11-21T09:13:52Z</time>
      </trkpt>
      <trkpt lat="46.00855" lon="1.39824">
        <ele>616.6</ele>
        <time>2021-11-21T09:13:53Z</time>
      </trkpt>
      <trkpt lat="46.00862" lon="1.39836">
        <ele>618.4</ele>
        <time>2021-11-21T09:13:56Z</time>
      </trkpt>
      <trkpt lat="46.00873" lon="1.39849">
        <ele>619.4</ele>
        <time>2021-11-21T09:14:00Z</time>
      </trkpt>
      <trkpt lat="46.00886" lon="1.39869">
        <ele>619.8</ele>
        <time>2021-11-21T09:14:06Z</time>
      </trkpt>
      <trkpt lat="46.00895" lon="1.39882">
        <ele>620.4</ele>
        <time>2021-11-21T09:14:10Z</time>
      </trkpt>
      <trkpt lat="46.00896" lon="1.39884">
        <ele>620.6</ele>
        <time>2021-11-21T09:14:11Z</time>
      </trkpt>
      <trkpt lat="46.00903" lon="1.39894">
        <ele>621.4</ele>
        <time>2021-11-21T09:14:16Z</time>
      </trkpt>
      <trkpt lat="46.00905" lon="1.39897">
        <ele>621.6</ele>
        <time>2021-11-21T09:14:17Z</time>
      </trkpt>
      <trkpt lat="46.00909" lon="1.39905">
        <ele>622.4</ele>
        <time>2021-11-21T09:14:21Z</time>
      </trkpt>
      <trkpt lat="46.00913" lon="1.39911">
        <ele>623.2</ele>
        <time>2021-11-21T09:14:24Z</time>
      </trkpt>
      <trkpt lat="46.0092" lon="1.3992">
        <ele>623.6</ele>
        <time>2021-11-21T09:14:28Z</time>
      </trkpt>
      <trkpt lat="46.00925" lon="1.39929">
        <ele>623.8</ele>
        <time>2021-11-21T09:14:32Z</time>
      </trkpt>
      <trkpt lat="46.00936" lon="1.39947">
        <ele>624.2</ele>
        <time>2021-11-21T09:14:38Z</time>
      </trkpt>
      <trkpt lat="46.00947" lon="1.39976">
        <ele>624.2</ele>
        <time>2021-11-21T09:14:44Z</time>
      </trkpt>
      <trkpt lat="46.00952" lon="1.39997">
        <ele>624.8</ele>
        <time>2021-11-21T09:14:49Z</time>
      </trkpt>
      <trkpt lat="46.00954" lon="1.40005">
        <ele>625.2</ele>
        <time>2021-11-21T09:14:51Z</time>
      </trkpt>
      <trkpt lat="46.00961" lon="1.40027">
        <ele>625.6</ele>
        <time>2021-11-21T09:14:56Z</time>
      </trkpt>
      <trkpt lat="46.00968" lon="1.40051">
        <ele>625.2</ele>
        <time>2021-11-21T09:15:00Z</time>
      </trkpt>
      <trkpt lat="46.0097" lon="1.40057">
        <ele>624.6</ele>
        <time>2021-11-21T09:15:01Z</time>
      </trkpt>
      <trkpt lat="46.00976" lon="1.40078">
        <ele>623.4</ele>
        <time>2021-11-21T09:15:04Z</time>
      </trkpt>
      <trkpt lat="46.00978" lon="1.40085">
        <ele>622.8</ele>
        <time>2021-11-21T09:15:05Z</time>
      </trkpt>
      <trkpt lat="46.0098" lon="1.40092">
        <ele>622.4</ele>
        <time>2021-11-21T09:15:06Z</time>
      </trkpt>
      <trkpt lat="46.00984" lon="1.40103">
        <ele>621.6</ele>
        <time>2021-11-21T09:15:08Z</time>
      </trkpt>
      <trkpt lat="46.00986" lon="1.40109">
        <ele>620.4</ele>
        <time>2021-11-21T09:15:09Z</time>
      </trkpt>
      <trkpt lat="46.00988" lon="1.40116">
        <ele>619.6</ele>
        <time>2021-11-21T09:15:10Z</time>
      </trkpt>
      <trkpt lat="46.0099" lon="1.40123">
        <ele>619.2</ele>
        <time>2021-11-21T09:15:11Z</time>
      </trkpt>
      <trkpt lat="46.00992" lon="1.40137">
        <ele>617</ele>
        <time>2021-11-21T09:15:13Z</time>
      </trkpt>
      <trkpt lat="46.00993" lon="1.40145">
        <ele>615.8</ele>
        <time>2021-11-21T09:15:14Z</time>
      </trkpt>
      <trkpt lat="46.00995" lon="1.40163">
        <ele>614.8</ele>
        <time>2021-11-21T09:15:16Z</time>
      </trkpt>
      <trkpt lat="46.01" lon="1.40176">
        <ele>613.2</ele>
        <time>2021-11-21T09:15:18Z</time>
      </trkpt>
      <trkpt lat="46.01008" lon="1.40187">
        <ele>612</ele>
        <time>2021-11-21T09:15:20Z</time>
      </trkpt>
      <trkpt lat="46.01015" lon="1.40197">
        <ele>610.4</ele>
        <time>2021-11-21T09:15:22Z</time>
      </trkpt>
      <trkpt lat="46.01028" lon="1.40213">
        <ele>608.4</ele>
        <time>2021-11-21T09:15:25Z</time>
      </trkpt>
      <trkpt lat="46.01033" lon="1.40219">
        <ele>607.4</ele>
        <time>2021-11-21T09:15:26Z</time>
      </trkpt>
      <trkpt lat="46.01039" lon="1.40225">
        <ele>607</ele>
        <time>2021-11-21T09:15:27Z</time>
      </trkpt>
      <trkpt lat="46.01055" lon="1.40239">
        <ele>606.4</ele>
        <time>2021-11-21T09:15:30Z</time>
      </trkpt>
      <trkpt lat="46.01065" lon="1.40246">
        <ele>605.6</ele>
        <time>2021-11-21T09:15:32Z</time>
      </trkpt>
      <trkpt lat="46.0107" lon="1.40248">
        <ele>605.2</ele>
        <time>2021-11-21T09:15:33Z</time>
      </trkpt>
      <trkpt lat="46.01075" lon="1.40249">
        <ele>604.6</ele>
        <time>2021-11-21T09:15:34Z</time>
      </trkpt>
      <trkpt lat="46.01081" lon="1.4025">
        <ele>603.8</ele>
        <time>2021-11-21T09:15:35Z</time>
      </trkpt>
      <trkpt lat="46.0109" lon="1.40252">
        <ele>602.6</ele>
        <time>2021-11-21T09:15:37Z</time>
      </trkpt>
      <trkpt lat="46.01094" lon="1.40253">
        <ele>602.2</ele>
        <time>2021-11-21T09:15:38Z</time>
      </trkpt>
      <trkpt lat="46.01099" lon="1.40254">
        <ele>601.2</ele>
        <time>2021-11-21T09:15:39Z</time>
      </trkpt>
      <trkpt lat="46.01104" lon="1.40256">
        <ele>600.2</ele>
        <time>2021-11-21T09:15:40Z</time>
      </trkpt>
      <trkpt lat="46.01117" lon="1.40257">
        <ele>598.2</ele>
        <time>2021-11-21T09:15:43Z</time>
      </trkpt>
      <trkpt lat="46.0112" lon="1.40257">
        <ele>597.6</ele>
        <time>2021-11-21T09:15:44Z</time>
      </trkpt>
      <trkpt lat="46.01125" lon="1.40257">
        <ele>596.8</ele>
        <time>2021-11-21T09:15:45Z</time>
      </trkpt>
      <trkpt lat="46.01133" lon="1.40258">
        <ele>595.8</ele>
        <time>2021-11-21T09:15:47Z</time>
      </trkpt>
      <trkpt lat="46.01137" lon="1.4026">
        <ele>595</ele>
        <time>2021-11-21T09:15:48Z</time>
      </trkpt>
      <trkpt lat="46.01141" lon="1.40262">
        <ele>594</ele>
        <time>2021-11-21T09:15:49Z</time>
      </trkpt>
      <trkpt lat="46.01148" lon="1.40264">
        <ele>592.6</ele>
        <time>2021-11-21T09:15:51Z</time>
      </trkpt>
      <trkpt lat="46.01155" lon="1.40266">
        <ele>591</ele>
        <time>2021-11-21T09:15:53Z</time>
      </trkpt>
      <trkpt lat="46.01162" lon="1.4027">
        <ele>589.4</ele>
        <time>2021-11-21T09:15:55Z</time>
      </trkpt>
      <trkpt lat="46.01165" lon="1.40272">
        <ele>587.8</ele>
        <time>2021-11-21T09:15:56Z</time>
      </trkpt>
      <trkpt lat="46.01171" lon="1.40275">
        <ele>586.8</ele>
        <time>2021-11-21T09:15:58Z</time>
      </trkpt>
      <trkpt lat="46.01177" lon="1.40278">
        <ele>585.2</ele>
        <time>2021-11-21T09:16:00Z</time>
      </trkpt>
      <trkpt lat="46.0118" lon="1.40281">
        <ele>583.6</ele>
        <time>2021-11-21T09:16:01Z</time>
      </trkpt>
      <trkpt lat="46.01183" lon="1.40284">
        <ele>582.4</ele>
        <time>2021-11-21T09:16:02Z</time>
      </trkpt>
      <trkpt lat="46.01185" lon="1.40288">
        <ele>581.8</ele>
        <time>2021-11-21T09:16:03Z</time>
      </trkpt>
      <trkpt lat="46.01188" lon="1.40291">
        <ele>581.2</ele>
        <time>2021-11-21T09:16:04Z</time>
      </trkpt>
      <trkpt lat="46.01193" lon="1.40297">
        <ele>580</ele>
        <time>2021-11-21T09:16:06Z</time>
      </trkpt>
      <trkpt lat="46.01199" lon="1.403">
        <ele>578.8</ele>
        <time>2021-11-21T09:16:08Z</time>
      </trkpt>
      <trkpt lat="46.01208" lon="1.40309">
        <ele>577.8</ele>
        <time>2021-11-21T09:16:11Z</time>
      </trkpt>
      <trkpt lat="46.01219" lon="1.40314">
        <ele>576.6</ele>
        <time>2021-11-21T09:16:14Z</time>
      </trkpt>
      <trkpt lat="46.01222" lon="1.40316">
        <ele>575</ele>
        <time>2021-11-21T09:16:15Z</time>
      </trkpt>
      <trkpt lat="46.01228" lon="1.40322">
        <ele>573.2</ele>
        <time>2021-11-21T09:16:17Z</time>
      </trkpt>
      <trkpt lat="46.01236" lon="1.40328">
        <ele>571.6</ele>
        <time>2021-11-21T09:16:19Z</time>
      </trkpt>
      <trkpt lat="46.01238" lon="1.4033">
        <ele>570.6</ele>
        <time>2021-11-21T09:16:20Z</time>
      </trkpt>
      <trkpt lat="46.01241" lon="1.40333">
        <ele>569.6</ele>
        <time>2021-11-21T09:16:21Z</time>
      </trkpt>
      <trkpt lat="46.01249" lon="1.40346">
        <ele>568.6</ele>
        <time>2021-11-21T09:16:24Z</time>
      </trkpt>
      <trkpt lat="46.01251" lon="1.40351">
        <ele>567.8</ele>
        <time>2021-11-21T09:16:25Z</time>
      </trkpt>
      <trkpt lat="46.01252" lon="1.40356">
        <ele>566.8</ele>
        <time>2021-11-21T09:16:26Z</time>
      </trkpt>
      <trkpt lat="46.01252" lon="1.40362">
        <ele>565.8</ele>
        <time>2021-11-21T09:16:27Z</time>
      </trkpt>
      <trkpt lat="46.01254" lon="1.40375">
        <ele>564.6</ele>
        <time>2021-11-21T09:16:29Z</time>
      </trkpt>
      <trkpt lat="46.01257" lon="1.40398">
        <ele>563.6</ele>
        <time>2021-11-21T09:16:32Z</time>
      </trkpt>
      <trkpt lat="46.0126" lon="1.40424">
        <ele>562.4</ele>
        <time>2021-11-21T09:16:35Z</time>
      </trkpt>
      <trkpt lat="46.01267" lon="1.40435">
        <ele>562.2</ele>
        <time>2021-11-21T09:16:37Z</time>
      </trkpt>
      <trkpt lat="46.01279" lon="1.40447">
        <ele>562</ele>
        <time>2021-11-21T09:16:40Z</time>
      </trkpt>
      <trkpt lat="46.01296" lon="1.40464">
        <ele>562.8</ele>
        <time>2021-11-21T09:16:46Z</time>
      </trkpt>
      <trkpt lat="46.01305" lon="1.40478">
        <ele>563.8</ele>
        <time>2021-11-21T09:16:52Z</time>
      </trkpt>
      <trkpt lat="46.01307" lon="1.40487">
        <ele>564.8</ele>
        <time>2021-11-21T09:16:56Z</time>
      </trkpt>
      <trkpt lat="46.0131" lon="1.40495">
        <ele>565.2</ele>
        <time>2021-11-21T09:16:59Z</time>
      </trkpt>
      <trkpt lat="46.0131" lon="1.40504">
        <ele>566.2</ele>
        <time>2021-11-21T09:17:02Z</time>
      </trkpt>
      <trkpt lat="46.01312" lon="1.40515">
        <ele>566.8</ele>
        <time>2021-11-21T09:17:06Z</time>
      </trkpt>
      <trkpt lat="46.01311" lon="1.40538">
        <ele>567.2</ele>
        <time>2021-11-21T09:17:12Z</time>
      </trkpt>
      <trkpt lat="46.0131" lon="1.40541">
        <ele>567.4</ele>
        <time>2021-11-21T09:17:13Z</time>
      </trkpt>
      <trkpt lat="46.01307" lon="1.40566">
        <ele>568</ele>
        <time>2021-11-21T09:17:20Z</time>
      </trkpt>
      <trkpt lat="46.01307" lon="1.40571">
        <ele>568.4</ele>
        <time>2021-11-21T09:17:22Z</time>
      </trkpt>
      <trkpt lat="46.01306" lon="1.40583">
        <ele>569.6</ele>
        <time>2021-11-21T09:17:27Z</time>
      </trkpt>
      <trkpt lat="46.01304" lon="1.40593">
        <ele>570.6</ele>
        <time>2021-11-21T09:17:31Z</time>
      </trkpt>
      <trkpt lat="46.01305" lon="1.40595">
        <ele>570.8</ele>
        <time>2021-11-21T09:17:32Z</time>
      </trkpt>
      <trkpt lat="46.01306" lon="1.40597">
        <ele>571</ele>
        <time>2021-11-21T09:17:33Z</time>
      </trkpt>
      <trkpt lat="46.01309" lon="1.40603">
        <ele>571.6</ele>
        <time>2021-11-21T09:17:37Z</time>
      </trkpt>
      <trkpt lat="46.01312" lon="1.40606">
        <ele>572.2</ele>
        <time>2021-11-21T09:17:40Z</time>
      </trkpt>
      <trkpt lat="46.01325" lon="1.40615">
        <ele>572.6</ele>
        <time>2021-11-21T09:17:47Z</time>
      </trkpt>
      <trkpt lat="46.01326" lon="1.40617">
        <ele>573</ele>
        <time>2021-11-21T09:17:48Z</time>
      </trkpt>
      <trkpt lat="46.01336" lon="1.40626">
        <ele>573.8</ele>
        <time>2021-11-21T09:17:55Z</time>
      </trkpt>
      <trkpt lat="46.01338" lon="1.40629">
        <ele>574.2</ele>
        <time>2021-11-21T09:17:57Z</time>
      </trkpt>
      <trkpt lat="46.01347" lon="1.40637">
        <ele>574.8</ele>
        <time>2021-11-21T09:18:02Z</time>
      </trkpt>
      <trkpt lat="46.01351" lon="1.40641">
        <ele>575.2</ele>
        <time>2021-11-21T09:18:05Z</time>
      </trkpt>
      <trkpt lat="46.01356" lon="1.40648">
        <ele>576</ele>
        <time>2021-11-21T09:18:09Z</time>
      </trkpt>
      <trkpt lat="46.0136" lon="1.40654">
        <ele>576.2</ele>
        <time>2021-11-21T09:18:11Z</time>
      </trkpt>
      <trkpt lat="46.0136" lon="1.40678">
        <ele>577</ele>
        <time>2021-11-21T09:18:18Z</time>
      </trkpt>
      <trkpt lat="46.0136" lon="1.40681">
        <ele>577.2</ele>
        <time>2021-11-21T09:18:19Z</time>
      </trkpt>
      <trkpt lat="46.01361" lon="1.40699">
        <ele>578.2</ele>
        <time>2021-11-21T09:18:25Z</time>
      </trkpt>
      <trkpt lat="46.0136" lon="1.40715">
        <ele>578.8</ele>
        <time>2021-11-21T09:18:31Z</time>
      </trkpt>
      <trkpt lat="46.01358" lon="1.40724">
        <ele>579.2</ele>
        <time>2021-11-21T09:18:35Z</time>
      </trkpt>
      <trkpt lat="46.01357" lon="1.4073">
        <ele>579.6</ele>
        <time>2021-11-21T09:18:38Z</time>
      </trkpt>
      <trkpt lat="46.01355" lon="1.40742">
        <ele>580.2</ele>
        <time>2021-11-21T09:18:42Z</time>
      </trkpt>
      <trkpt lat="46.01352" lon="1.40752">
        <ele>580.6</ele>
        <time>2021-11-21T09:18:45Z</time>
      </trkpt>
      <trkpt lat="46.01347" lon="1.40768">
        <ele>581.4</ele>
        <time>2021-11-21T09:18:50Z</time>
      </trkpt>
      <trkpt lat="46.01346" lon="1.40776">
        <ele>581.8</ele>
        <time>2021-11-21T09:18:53Z</time>
      </trkpt>
      <trkpt lat="46.01344" lon="1.40785">
        <ele>582.4</ele>
        <time>2021-11-21T09:18:56Z</time>
      </trkpt>
      <trkpt lat="46.01339" lon="1.40796">
        <ele>583.2</ele>
        <time>2021-11-21T09:19:01Z</time>
      </trkpt>
      <trkpt lat="46.01334" lon="1.40804">
        <ele>583.6</ele>
        <time>2021-11-21T09:19:05Z</time>
      </trkpt>
      <trkpt lat="46.01327" lon="1.40813">
        <ele>583.8</ele>
        <time>2021-11-21T09:19:09Z</time>
      </trkpt>
      <trkpt lat="46.01317" lon="1.40823">
        <ele>584.4</ele>
        <time>2021-11-21T09:19:15Z</time>
      </trkpt>
      <trkpt lat="46.01315" lon="1.40825">
        <ele>584.6</ele>
        <time>2021-11-21T09:19:16Z</time>
      </trkpt>
      <trkpt lat="46.01306" lon="1.40832">
        <ele>585.6</ele>
        <time>2021-11-21T09:19:21Z</time>
      </trkpt>
      <trkpt lat="46.01304" lon="1.40833">
        <ele>585.8</ele>
        <time>2021-11-21T09:19:22Z</time>
      </trkpt>
      <trkpt lat="46.01293" lon="1.40847">
        <ele>586.8</ele>
        <time>2021-11-21T09:19:28Z</time>
      </trkpt>
      <trkpt lat="46.01291" lon="1.40849">
        <ele>587</ele>
        <time>2021-11-21T09:19:29Z</time>
      </trkpt>
      <trkpt lat="46.01283" lon="1.40871">
        <ele>587.8</ele>
        <time>2021-11-21T09:19:35Z</time>
      </trkpt>
      <trkpt lat="46.01276" lon="1.40894">
        <ele>587.6</ele>
        <time>2021-11-21T09:19:41Z</time>
      </trkpt>
      <trkpt lat="46.01263" lon="1.40915">
        <ele>588</ele>
        <time>2021-11-21T09:19:47Z</time>
      </trkpt>
      <trkpt lat="46.01248" lon="1.40917">
        <ele>588</ele>
        <time>2021-11-21T09:19:51Z</time>
      </trkpt>
      <trkpt lat="46.01227" lon="1.40918">
        <ele>587.6</ele>
        <time>2021-11-21T09:19:56Z</time>
      </trkpt>
      <trkpt lat="46.01222" lon="1.40919">
        <ele>587.6</ele>
        <time>2021-11-21T09:19:57Z</time>
      </trkpt>
      <trkpt lat="46.01193" lon="1.4093">
        <ele>587</ele>
        <time>2021-11-21T09:20:04Z</time>
      </trkpt>
      <trkpt lat="46.01189" lon="1.40932">
        <ele>586.8</ele>
        <time>2021-11-21T09:20:05Z</time>
      </trkpt>
      <trkpt lat="46.01177" lon="1.40935">
        <ele>585.6</ele>
        <time>2021-11-21T09:20:08Z</time>
      </trkpt>
      <trkpt lat="46.01173" lon="1.40936">
        <ele>585.4</ele>
        <time>2021-11-21T09:20:09Z</time>
      </trkpt>
      <trkpt lat="46.01167" lon="1.40935">
        <ele>584.6</ele>
        <time>2021-11-21T09:20:11Z</time>
      </trkpt>
      <trkpt lat="46.01152" lon="1.40938">
        <ele>584</ele>
        <time>2021-11-21T09:20:14Z</time>
      </trkpt>
      <trkpt lat="46.01146" lon="1.40941">
        <ele>584</ele>
        <time>2021-11-21T09:20:15Z</time>
      </trkpt>
      <trkpt lat="46.01136" lon="1.40948">
        <ele>583.4</ele>
        <time>2021-11-21T09:20:17Z</time>
      </trkpt>
      <trkpt lat="46.01126" lon="1.40959">
        <ele>582.4</ele>
        <time>2021-11-21T09:20:19Z</time>
      </trkpt>
      <trkpt lat="46.01116" lon="1.40974">
        <ele>580.4</ele>
        <time>2021-11-21T09:20:21Z</time>
      </trkpt>
      <trkpt lat="46.01101" lon="1.40998">
        <ele>579.4</ele>
        <time>2021-11-21T09:20:24Z</time>
      </trkpt>
      <trkpt lat="46.01096" lon="1.41006">
        <ele>578</ele>
        <time>2021-11-21T09:20:25Z</time>
      </trkpt>
      <trkpt lat="46.0109" lon="1.41013">
        <ele>577.2</ele>
        <time>2021-11-21T09:20:26Z</time>
      </trkpt>
      <trkpt lat="46.01085" lon="1.41019">
        <ele>576.8</ele>
        <time>2021-11-21T09:20:27Z</time>
      </trkpt>
      <trkpt lat="46.01079" lon="1.41023">
        <ele>576.6</ele>
        <time>2021-11-21T09:20:28Z</time>
      </trkpt>
      <trkpt lat="46.01061" lon="1.41029">
        <ele>575.8</ele>
        <time>2021-11-21T09:20:32Z</time>
      </trkpt>
      <trkpt lat="46.01058" lon="1.41029">
        <ele>575.4</ele>
        <time>2021-11-21T09:20:33Z</time>
      </trkpt>
      <trkpt lat="46.01035" lon="1.41031">
        <ele>575.6</ele>
        <time>2021-11-21T09:20:40Z</time>
      </trkpt>
      <trkpt lat="46.01026" lon="1.41038">
        <ele>576.2</ele>
        <time>2021-11-21T09:20:46Z</time>
      </trkpt>
      <trkpt lat="46.01025" lon="1.41041">
        <ele>576.6</ele>
        <time>2021-11-21T09:20:47Z</time>
      </trkpt>
      <trkpt lat="46.01024" lon="1.41048">
        <ele>577.2</ele>
        <time>2021-11-21T09:20:52Z</time>
      </trkpt>
      <trkpt lat="46.01024" lon="1.41049">
        <ele>577.4</ele>
        <time>2021-11-21T09:20:53Z</time>
      </trkpt>
      <trkpt lat="46.01024" lon="1.4105">
        <ele>577.6</ele>
        <time>2021-11-21T09:20:54Z</time>
      </trkpt>
      <trkpt lat="46.01021" lon="1.41056">
        <ele>578.8</ele>
        <time>2021-11-21T09:20:59Z</time>
      </trkpt>
      <trkpt lat="46.0102" lon="1.41058">
        <ele>579</ele>
        <time>2021-11-21T09:21:00Z</time>
      </trkpt>
      <trkpt lat="46.01017" lon="1.41062">
        <ele>580</ele>
        <time>2021-11-21T09:21:03Z</time>
      </trkpt>
      <trkpt lat="46.01014" lon="1.41066">
        <ele>581.2</ele>
        <time>2021-11-21T09:21:07Z</time>
      </trkpt>
      <trkpt lat="46.01012" lon="1.41067">
        <ele>581.6</ele>
        <time>2021-11-21T09:21:09Z</time>
      </trkpt>
      <trkpt lat="46.01008" lon="1.41069">
        <ele>582.2</ele>
        <time>2021-11-21T09:21:12Z</time>
      </trkpt>
      <trkpt lat="46.01004" lon="1.41071">
        <ele>583.4</ele>
        <time>2021-11-21T09:21:16Z</time>
      </trkpt>
      <trkpt lat="46.00998" lon="1.41073">
        <ele>584.2</ele>
        <time>2021-11-21T09:21:19Z</time>
      </trkpt>
      <trkpt lat="46.00995" lon="1.41074">
        <ele>584.6</ele>
        <time>2021-11-21T09:21:21Z</time>
      </trkpt>
      <trkpt lat="46.00988" lon="1.41079">
        <ele>585.6</ele>
        <time>2021-11-21T09:21:27Z</time>
      </trkpt>
      <trkpt lat="46.00985" lon="1.41082">
        <ele>586</ele>
        <time>2021-11-21T09:21:30Z</time>
      </trkpt>
      <trkpt lat="46.0098" lon="1.41085">
        <ele>586.6</ele>
        <time>2021-11-21T09:21:34Z</time>
      </trkpt>
      <trkpt lat="46.00975" lon="1.41087">
        <ele>587.8</ele>
        <time>2021-11-21T09:21:38Z</time>
      </trkpt>
      <trkpt lat="46.00966" lon="1.41093">
        <ele>589</ele>
        <time>2021-11-21T09:21:44Z</time>
      </trkpt>
      <trkpt lat="46.00964" lon="1.41095">
        <ele>589.6</ele>
        <time>2021-11-21T09:21:46Z</time>
      </trkpt>
      <trkpt lat="46.00962" lon="1.41098">
        <ele>590.2</ele>
        <time>2021-11-21T09:21:49Z</time>
      </trkpt>
      <trkpt lat="46.00961" lon="1.411">
        <ele>590.6</ele>
        <time>2021-11-21T09:21:51Z</time>
      </trkpt>
      <trkpt lat="46.00957" lon="1.41105">
        <ele>591.4</ele>
        <time>2021-11-21T09:21:55Z</time>
      </trkpt>
      <trkpt lat="46.00957" lon="1.41106">
        <ele>591.8</ele>
        <time>2021-11-21T09:21:56Z</time>
      </trkpt>
      <trkpt lat="46.00955" lon="1.41107">
        <ele>592</ele>
        <time>2021-11-21T09:21:58Z</time>
      </trkpt>
      <trkpt lat="46.00954" lon="1.41108">
        <ele>592.2</ele>
        <time>2021-11-21T09:21:59Z</time>
      </trkpt>
      <trkpt lat="46.00952" lon="1.41109">
        <ele>592.4</ele>
        <time>2021-11-21T09:22:01Z</time>
      </trkpt>
      <trkpt lat="46.00951" lon="1.4111">
        <ele>592.8</ele>
        <time>2021-11-21T09:22:02Z</time>
      </trkpt>
      <trkpt lat="46.0095" lon="1.4111">
        <ele>593.2</ele>
        <time>2021-11-21T09:22:04Z</time>
      </trkpt>
      <trkpt lat="46.00948" lon="1.4111">
        <ele>593.4</ele>
        <time>2021-11-21T09:22:06Z</time>
      </trkpt>
      <trkpt lat="46.00945" lon="1.41108">
        <ele>594</ele>
        <time>2021-11-21T09:22:09Z</time>
      </trkpt>
      <trkpt lat="46.00944" lon="1.41107">
        <ele>594.2</ele>
        <time>2021-11-21T09:22:11Z</time>
      </trkpt>
      <trkpt lat="46.00941" lon="1.41105">
        <ele>594.6</ele>
        <time>2021-11-21T09:22:14Z</time>
      </trkpt>
      <trkpt lat="46.00939" lon="1.41102">
        <ele>595.8</ele>
        <time>2021-11-21T09:22:17Z</time>
      </trkpt>
      <trkpt lat="46.00936" lon="1.41098">
        <ele>596</ele>
        <time>2021-11-21T09:22:20Z</time>
      </trkpt>
      <trkpt lat="46.00931" lon="1.41096">
        <ele>596.4</ele>
        <time>2021-11-21T09:22:23Z</time>
      </trkpt>
      <trkpt lat="46.00921" lon="1.41094">
        <ele>596.2</ele>
        <time>2021-11-21T09:22:29Z</time>
      </trkpt>
      <trkpt lat="46.00912" lon="1.41097">
        <ele>596.8</ele>
        <time>2021-11-21T09:22:35Z</time>
      </trkpt>
      <trkpt lat="46.00908" lon="1.41098">
        <ele>597</ele>
        <time>2021-11-21T09:22:37Z</time>
      </trkpt>
      <trkpt lat="46.00899" lon="1.41103">
        <ele>597</ele>
        <time>2021-11-21T09:22:43Z</time>
      </trkpt>
      <trkpt lat="46.00888" lon="1.41107">
        <ele>597.8</ele>
        <time>2021-11-21T09:22:51Z</time>
      </trkpt>
      <trkpt lat="46.00886" lon="1.41108">
        <ele>598</ele>
        <time>2021-11-21T09:22:53Z</time>
      </trkpt>
      <trkpt lat="46.00881" lon="1.4111">
        <ele>598.8</ele>
        <time>2021-11-21T09:22:58Z</time>
      </trkpt>
      <trkpt lat="46.0088" lon="1.41111">
        <ele>599</ele>
        <time>2021-11-21T09:22:59Z</time>
      </trkpt>
      <trkpt lat="46.00879" lon="1.41111">
        <ele>599.4</ele>
        <time>2021-11-21T09:23:01Z</time>
      </trkpt>
      <trkpt lat="46.00875" lon="1.41114">
        <ele>600.6</ele>
        <time>2021-11-21T09:23:06Z</time>
      </trkpt>
      <trkpt lat="46.00874" lon="1.41114">
        <ele>601</ele>
        <time>2021-11-21T09:23:07Z</time>
      </trkpt>
      <trkpt lat="46.00873" lon="1.41114">
        <ele>601.2</ele>
        <time>2021-11-21T09:23:08Z</time>
      </trkpt>
      <trkpt lat="46.0087" lon="1.41115">
        <ele>601.2</ele>
        <time>2021-11-21T09:23:11Z</time>
      </trkpt>
      <trkpt lat="46.00869" lon="1.41117">
        <ele>601.8</ele>
        <time>2021-11-21T09:23:13Z</time>
      </trkpt>
      <trkpt lat="46.00868" lon="1.41118">
        <ele>602.2</ele>
        <time>2021-11-21T09:23:15Z</time>
      </trkpt>
      <trkpt lat="46.00865" lon="1.4112">
        <ele>602.8</ele>
        <time>2021-11-21T09:23:17Z</time>
      </trkpt>
      <trkpt lat="46.00864" lon="1.41122">
        <ele>603</ele>
        <time>2021-11-21T09:23:18Z</time>
      </trkpt>
      <trkpt lat="46.00862" lon="1.41126">
        <ele>603.8</ele>
        <time>2021-11-21T09:23:21Z</time>
      </trkpt>
      <trkpt lat="46.00861" lon="1.41127">
        <ele>604</ele>
        <time>2021-11-21T09:23:22Z</time>
      </trkpt>
      <trkpt lat="46.00859" lon="1.4113">
        <ele>604.8</ele>
        <time>2021-11-21T09:23:26Z</time>
      </trkpt>
      <trkpt lat="46.00856" lon="1.41132">
        <ele>605.4</ele>
        <time>2021-11-21T09:23:29Z</time>
      </trkpt>
      <trkpt lat="46.00851" lon="1.41136">
        <ele>606.6</ele>
        <time>2021-11-21T09:23:34Z</time>
      </trkpt>
      <trkpt lat="46.00845" lon="1.41142">
        <ele>607.6</ele>
        <time>2021-11-21T09:23:38Z</time>
      </trkpt>
      <trkpt lat="46.00843" lon="1.41143">
        <ele>607.6</ele>
        <time>2021-11-21T09:23:39Z</time>
      </trkpt>
      <trkpt lat="46.00841" lon="1.41145">
        <ele>607.8</ele>
        <time>2021-11-21T09:23:41Z</time>
      </trkpt>
      <trkpt lat="46.00835" lon="1.41151">
        <ele>608.4</ele>
        <time>2021-11-21T09:23:45Z</time>
      </trkpt>
      <trkpt lat="46.00833" lon="1.41153">
        <ele>608.6</ele>
        <time>2021-11-21T09:23:46Z</time>
      </trkpt>
      <trkpt lat="46.00832" lon="1.41154">
        <ele>608.8</ele>
        <time>2021-11-21T09:23:47Z</time>
      </trkpt>
      <trkpt lat="46.00821" lon="1.41165">
        <ele>609.8</ele>
        <time>2021-11-21T09:23:54Z</time>
      </trkpt>
      <trkpt lat="46.00817" lon="1.41172">
        <ele>609.8</ele>
        <time>2021-11-21T09:23:57Z</time>
      </trkpt>
      <trkpt lat="46.00808" lon="1.41185">
        <ele>610.8</ele>
        <time>2021-11-21T09:24:05Z</time>
      </trkpt>
      <trkpt lat="46.00807" lon="1.41186">
        <ele>610.8</ele>
        <time>2021-11-21T09:24:06Z</time>
      </trkpt>
      <trkpt lat="46.00795" lon="1.41196">
        <ele>612</ele>
        <time>2021-11-21T09:24:13Z</time>
      </trkpt>
      <trkpt lat="46.00783" lon="1.41205">
        <ele>613.2</ele>
        <time>2021-11-21T09:24:21Z</time>
      </trkpt>
      <trkpt lat="46.00775" lon="1.41213">
        <ele>614.2</ele>
        <time>2021-11-21T09:24:28Z</time>
      </trkpt>
      <trkpt lat="46.00774" lon="1.41214">
        <ele>614.6</ele>
        <time>2021-11-21T09:24:29Z</time>
      </trkpt>
      <trkpt lat="46.00767" lon="1.41218">
        <ele>615.6</ele>
        <time>2021-11-21T09:24:33Z</time>
      </trkpt>
      <trkpt lat="46.00761" lon="1.41222">
        <ele>616.2</ele>
        <time>2021-11-21T09:24:37Z</time>
      </trkpt>
      <trkpt lat="46.00756" lon="1.41225">
        <ele>616.8</ele>
        <time>2021-11-21T09:24:40Z</time>
      </trkpt>
      <trkpt lat="46.00747" lon="1.41231">
        <ele>617.2</ele>
        <time>2021-11-21T09:24:45Z</time>
      </trkpt>
      <trkpt lat="46.00741" lon="1.41234">
        <ele>617.8</ele>
        <time>2021-11-21T09:24:49Z</time>
      </trkpt>
      <trkpt lat="46.00738" lon="1.41237">
        <ele>618</ele>
        <time>2021-11-21T09:24:51Z</time>
      </trkpt>
      <trkpt lat="46.00735" lon="1.41238">
        <ele>618.8</ele>
        <time>2021-11-21T09:24:54Z</time>
      </trkpt>
      <trkpt lat="46.00731" lon="1.41242">
        <ele>620</ele>
        <time>2021-11-21T09:24:59Z</time>
      </trkpt>
      <trkpt lat="46.00723" lon="1.41246">
        <ele>621</ele>
        <time>2021-11-21T09:25:06Z</time>
      </trkpt>
      <trkpt lat="46.00722" lon="1.41246">
        <ele>621.2</ele>
        <time>2021-11-21T09:25:07Z</time>
      </trkpt>
      <trkpt lat="46.0072" lon="1.41246">
        <ele>621.4</ele>
        <time>2021-11-21T09:25:09Z</time>
      </trkpt>
      <trkpt lat="46.00718" lon="1.41247">
        <ele>621.8</ele>
        <time>2021-11-21T09:25:11Z</time>
      </trkpt>
      <trkpt lat="46.00716" lon="1.41249">
        <ele>622.6</ele>
        <time>2021-11-21T09:25:13Z</time>
      </trkpt>
      <trkpt lat="46.00713" lon="1.41251">
        <ele>623.4</ele>
        <time>2021-11-21T09:25:17Z</time>
      </trkpt>
      <trkpt lat="46.00712" lon="1.41252">
        <ele>623.6</ele>
        <time>2021-11-21T09:25:18Z</time>
      </trkpt>
      <trkpt lat="46.0071" lon="1.41253">
        <ele>623.6</ele>
        <time>2021-11-21T09:25:19Z</time>
      </trkpt>
      <trkpt lat="46.00708" lon="1.41253">
        <ele>623.6</ele>
        <time>2021-11-21T09:25:20Z</time>
      </trkpt>
      <trkpt lat="46.00695" lon="1.41262">
        <ele>624.6</ele>
        <time>2021-11-21T09:25:28Z</time>
      </trkpt>
      <trkpt lat="46.00693" lon="1.41263">
        <ele>624.8</ele>
        <time>2021-11-21T09:25:29Z</time>
      </trkpt>
      <trkpt lat="46.0067" lon="1.41276">
        <ele>625.8</ele>
        <time>2021-11-21T09:25:41Z</time>
      </trkpt>
      <trkpt lat="46.00667" lon="1.41277">
        <ele>626</ele>
        <time>2021-11-21T09:25:42Z</time>
      </trkpt>
      <trkpt lat="46.00655" lon="1.41289">
        <ele>626.8</ele>
        <time>2021-11-21T09:25:49Z</time>
      </trkpt>
      <trkpt lat="46.00645" lon="1.41299">
        <ele>627.4</ele>
        <time>2021-11-21T09:25:54Z</time>
      </trkpt>
      <trkpt lat="46.00641" lon="1.41301">
        <ele>627.4</ele>
        <time>2021-11-21T09:25:56Z</time>
      </trkpt>
      <trkpt lat="46.00631" lon="1.41309">
        <ele>628</ele>
        <time>2021-11-21T09:26:02Z</time>
      </trkpt>
      <trkpt lat="46.00629" lon="1.4131">
        <ele>628.2</ele>
        <time>2021-11-21T09:26:03Z</time>
      </trkpt>
      <trkpt lat="46.00615" lon="1.41323">
        <ele>629.2</ele>
        <time>2021-11-21T09:26:11Z</time>
      </trkpt>
      <trkpt lat="46.00604" lon="1.41332">
        <ele>629.8</ele>
        <time>2021-11-21T09:26:17Z</time>
      </trkpt>
      <trkpt lat="46.00599" lon="1.41337">
        <ele>630.4</ele>
        <time>2021-11-21T09:26:21Z</time>
      </trkpt>
      <trkpt lat="46.00596" lon="1.41339">
        <ele>631</ele>
        <time>2021-11-21T09:26:24Z</time>
      </trkpt>
      <trkpt lat="46.00585" lon="1.41345">
        <ele>631.4</ele>
        <time>2021-11-21T09:26:30Z</time>
      </trkpt>
      <trkpt lat="46.00581" lon="1.41347">
        <ele>631.6</ele>
        <time>2021-11-21T09:26:32Z</time>
      </trkpt>
      <trkpt lat="46.00559" lon="1.41364">
        <ele>631.4</ele>
        <time>2021-11-21T09:26:40Z</time>
      </trkpt>
      <trkpt lat="46.00538" lon="1.41377">
        <ele>630.4</ele>
        <time>2021-11-21T09:26:46Z</time>
      </trkpt>
      <trkpt lat="46.00529" lon="1.41382">
        <ele>629.2</ele>
        <time>2021-11-21T09:26:50Z</time>
      </trkpt>
      <trkpt lat="46.00527" lon="1.41383">
        <ele>629.2</ele>
        <time>2021-11-21T09:26:51Z</time>
      </trkpt>
      <trkpt lat="46.00525" lon="1.41385">
        <ele>629.2</ele>
        <time>2021-11-21T09:26:52Z</time>
      </trkpt>
      <trkpt lat="46.00521" lon="1.41392">
        <ele>629.4</ele>
        <time>2021-11-21T09:26:56Z</time>
      </trkpt>
      <trkpt lat="46.00514" lon="1.41407">
        <ele>630.4</ele>
        <time>2021-11-21T09:27:02Z</time>
      </trkpt>
      <trkpt lat="46.00508" lon="1.41419">
        <ele>631</ele>
        <time>2021-11-21T09:27:06Z</time>
      </trkpt>
      <trkpt lat="46.00507" lon="1.41423">
        <ele>631.2</ele>
        <time>2021-11-21T09:27:07Z</time>
      </trkpt>
      <trkpt lat="46.00506" lon="1.41442">
        <ele>631.6</ele>
        <time>2021-11-21T09:27:11Z</time>
      </trkpt>
      <trkpt lat="46.00504" lon="1.41455">
        <ele>632</ele>
        <time>2021-11-21T09:27:14Z</time>
      </trkpt>
      <trkpt lat="46.00501" lon="1.41474">
        <ele>632.2</ele>
        <time>2021-11-21T09:27:19Z</time>
      </trkpt>
      <trkpt lat="46.005" lon="1.41478">
        <ele>632.2</ele>
        <time>2021-11-21T09:27:20Z</time>
      </trkpt>
      <trkpt lat="46.00497" lon="1.41506">
        <ele>633</ele>
        <time>2021-11-21T09:27:26Z</time>
      </trkpt>
      <trkpt lat="46.00495" lon="1.41515">
        <ele>633.2</ele>
        <time>2021-11-21T09:27:28Z</time>
      </trkpt>
      <trkpt lat="46.00496" lon="1.4153">
        <ele>633.4</ele>
        <time>2021-11-21T09:27:31Z</time>
      </trkpt>
      <trkpt lat="46.00494" lon="1.41537">
        <ele>633.4</ele>
        <time>2021-11-21T09:27:33Z</time>
      </trkpt>
      <trkpt lat="46.00491" lon="1.41544">
        <ele>633.6</ele>
        <time>2021-11-21T09:27:35Z</time>
      </trkpt>
      <trkpt lat="46.00489" lon="1.41549">
        <ele>633.6</ele>
        <time>2021-11-21T09:27:37Z</time>
      </trkpt>
      <trkpt lat="46.00485" lon="1.41559">
        <ele>633.8</ele>
        <time>2021-11-21T09:27:40Z</time>
      </trkpt>
      <trkpt lat="46.00482" lon="1.41564">
        <ele>634</ele>
        <time>2021-11-21T09:27:42Z</time>
      </trkpt>
      <trkpt lat="46.00478" lon="1.41578">
        <ele>634.6</ele>
        <time>2021-11-21T09:27:47Z</time>
      </trkpt>
      <trkpt lat="46.00474" lon="1.41584">
        <ele>635</ele>
        <time>2021-11-21T09:27:49Z</time>
      </trkpt>
      <trkpt lat="46.00466" lon="1.41602">
        <ele>635.2</ele>
        <time>2021-11-21T09:27:54Z</time>
      </trkpt>
      <trkpt lat="46.00463" lon="1.41623">
        <ele>635.2</ele>
        <time>2021-11-21T09:28:00Z</time>
      </trkpt>
      <trkpt lat="46.00463" lon="1.41646">
        <ele>635.4</ele>
        <time>2021-11-21T09:28:06Z</time>
      </trkpt>
      <trkpt lat="46.00456" lon="1.41669">
        <ele>635.2</ele>
        <time>2021-11-21T09:28:12Z</time>
      </trkpt>
      <trkpt lat="46.00451" lon="1.4169">
        <ele>634.8</ele>
        <time>2021-11-21T09:28:18Z</time>
      </trkpt>
      <trkpt lat="46.00448" lon="1.41721">
        <ele>634.6</ele>
        <time>2021-11-21T09:28:23Z</time>
      </trkpt>
      <trkpt lat="46.00447" lon="1.41729">
        <ele>634.4</ele>
        <time>2021-11-21T09:28:25Z</time>
      </trkpt>
      <trkpt lat="46.00446" lon="1.41741">
        <ele>634.4</ele>
        <time>2021-11-21T09:28:28Z</time>
      </trkpt>
      <trkpt lat="46.00445" lon="1.41743">
        <ele>634.4</ele>
        <time>2021-11-21T09:28:29Z</time>
      </trkpt>
      <trkpt lat="46.00439" lon="1.41754">
        <ele>634.6</ele>
        <time>2021-11-21T09:28:33Z</time>
      </trkpt>
      <trkpt lat="46.00426" lon="1.41777">
        <ele>634.2</ele>
        <time>2021-11-21T09:28:39Z</time>
      </trkpt>
      <trkpt lat="46.00416" lon="1.41799">
        <ele>634</ele>
        <time>2021-11-21T09:28:43Z</time>
      </trkpt>
      <trkpt lat="46.00407" lon="1.41815">
        <ele>633.8</ele>
        <time>2021-11-21T09:28:47Z</time>
      </trkpt>
      <trkpt lat="46.00385" lon="1.41848">
        <ele>633</ele>
        <time>2021-11-21T09:28:54Z</time>
      </trkpt>
      <trkpt lat="46.00382" lon="1.41853">
        <ele>632.8</ele>
        <time>2021-11-21T09:28:55Z</time>
      </trkpt>
      <trkpt lat="46.00377" lon="1.41865">
        <ele>632.6</ele>
        <time>2021-11-21T09:28:58Z</time>
      </trkpt>
      <trkpt lat="46.00378" lon="1.41869">
        <ele>632.6</ele>
        <time>2021-11-21T09:28:59Z</time>
      </trkpt>
      <trkpt lat="46.00381" lon="1.41884">
        <ele>631.4</ele>
        <time>2021-11-21T09:29:03Z</time>
      </trkpt>
      <trkpt lat="46.00383" lon="1.41891">
        <ele>630.6</ele>
        <time>2021-11-21T09:29:05Z</time>
      </trkpt>
      <trkpt lat="46.00385" lon="1.41897">
        <ele>630</ele>
        <time>2021-11-21T09:29:07Z</time>
      </trkpt>
      <trkpt lat="46.0039" lon="1.41905">
        <ele>629</ele>
        <time>2021-11-21T09:29:10Z</time>
      </trkpt>
      <trkpt lat="46.00392" lon="1.41907">
        <ele>628.8</ele>
        <time>2021-11-21T09:29:11Z</time>
      </trkpt>
      <trkpt lat="46.00395" lon="1.41909">
        <ele>628.2</ele>
        <time>2021-11-21T09:29:13Z</time>
      </trkpt>
      <trkpt lat="46.00396" lon="1.4191">
        <ele>628</ele>
        <time>2021-11-21T09:29:14Z</time>
      </trkpt>
      <trkpt lat="46.00397" lon="1.4191">
        <ele>626.8</ele>
        <time>2021-11-21T09:29:15Z</time>
      </trkpt>
      <trkpt lat="46.00399" lon="1.4191">
        <ele>626</ele>
        <time>2021-11-21T09:29:16Z</time>
      </trkpt>
      <trkpt lat="46.00401" lon="1.41909">
        <ele>625.4</ele>
        <time>2021-11-21T09:29:17Z</time>
      </trkpt>
      <trkpt lat="46.00404" lon="1.41908">
        <ele>624.6</ele>
        <time>2021-11-21T09:29:19Z</time>
      </trkpt>
      <trkpt lat="46.00406" lon="1.41909">
        <ele>624.2</ele>
        <time>2021-11-21T09:29:20Z</time>
      </trkpt>
      <trkpt lat="46.00408" lon="1.4191">
        <ele>624.2</ele>
        <time>2021-11-21T09:29:21Z</time>
      </trkpt>
      <trkpt lat="46.00412" lon="1.41913">
        <ele>624</ele>
        <time>2021-11-21T09:29:23Z</time>
      </trkpt>
      <trkpt lat="46.00417" lon="1.41915">
        <ele>622.8</ele>
        <time>2021-11-21T09:29:25Z</time>
      </trkpt>
      <trkpt lat="46.00423" lon="1.41919">
        <ele>621</ele>
        <time>2021-11-21T09:29:27Z</time>
      </trkpt>
      <trkpt lat="46.00429" lon="1.41922">
        <ele>619.2</ele>
        <time>2021-11-21T09:29:29Z</time>
      </trkpt>
      <trkpt lat="46.00434" lon="1.41925">
        <ele>618.2</ele>
        <time>2021-11-21T09:29:31Z</time>
      </trkpt>
      <trkpt lat="46.00439" lon="1.41927">
        <ele>617.2</ele>
        <time>2021-11-21T09:29:33Z</time>
      </trkpt>
      <trkpt lat="46.00442" lon="1.41927">
        <ele>617</ele>
        <time>2021-11-21T09:29:34Z</time>
      </trkpt>
      <trkpt lat="46.00451" lon="1.41929">
        <ele>615.4</ele>
        <time>2021-11-21T09:29:37Z</time>
      </trkpt>
      <trkpt lat="46.00458" lon="1.41931">
        <ele>614</ele>
        <time>2021-11-21T09:29:39Z</time>
      </trkpt>
      <trkpt lat="46.00462" lon="1.41931">
        <ele>612.8</ele>
        <time>2021-11-21T09:29:40Z</time>
      </trkpt>
      <trkpt lat="46.00466" lon="1.41934">
        <ele>612</ele>
        <time>2021-11-21T09:29:41Z</time>
      </trkpt>
      <trkpt lat="46.00469" lon="1.41936">
        <ele>611.6</ele>
        <time>2021-11-21T09:29:42Z</time>
      </trkpt>
      <trkpt lat="46.00472" lon="1.41939">
        <ele>611.4</ele>
        <time>2021-11-21T09:29:43Z</time>
      </trkpt>
      <trkpt lat="46.00478" lon="1.41944">
        <ele>610.2</ele>
        <time>2021-11-21T09:29:45Z</time>
      </trkpt>
      <trkpt lat="46.00487" lon="1.41947">
        <ele>608.8</ele>
        <time>2021-11-21T09:29:48Z</time>
      </trkpt>
      <trkpt lat="46.0049" lon="1.41947">
        <ele>608.4</ele>
        <time>2021-11-21T09:29:49Z</time>
      </trkpt>
      <trkpt lat="46.00498" lon="1.41947">
        <ele>607.8</ele>
        <time>2021-11-21T09:29:51Z</time>
      </trkpt>
      <trkpt lat="46.0051" lon="1.41948">
        <ele>607.2</ele>
        <time>2021-11-21T09:29:54Z</time>
      </trkpt>
      <trkpt lat="46.00514" lon="1.4195">
        <ele>607</ele>
        <time>2021-11-21T09:29:55Z</time>
      </trkpt>
      <trkpt lat="46.00518" lon="1.41951">
        <ele>606.6</ele>
        <time>2021-11-21T09:29:56Z</time>
      </trkpt>
      <trkpt lat="46.00527" lon="1.41955">
        <ele>606.2</ele>
        <time>2021-11-21T09:29:58Z</time>
      </trkpt>
      <trkpt lat="46.0053" lon="1.41958">
        <ele>605.8</ele>
        <time>2021-11-21T09:29:59Z</time>
      </trkpt>
      <trkpt lat="46.00535" lon="1.41963">
        <ele>605.4</ele>
        <time>2021-11-21T09:30:00Z</time>
      </trkpt>
      <trkpt lat="46.00542" lon="1.41977">
        <ele>604.8</ele>
        <time>2021-11-21T09:30:03Z</time>
      </trkpt>
      <trkpt lat="46.00543" lon="1.41982">
        <ele>604.6</ele>
        <time>2021-11-21T09:30:04Z</time>
      </trkpt>
      <trkpt lat="46.00544" lon="1.41987">
        <ele>603.8</ele>
        <time>2021-11-21T09:30:05Z</time>
      </trkpt>
      <trkpt lat="46.00546" lon="1.41994">
        <ele>602.8</ele>
        <time>2021-11-21T09:30:07Z</time>
      </trkpt>
      <trkpt lat="46.00546" lon="1.41996">
        <ele>602.4</ele>
        <time>2021-11-21T09:30:08Z</time>
      </trkpt>
      <trkpt lat="46.00545" lon="1.41998">
        <ele>601.8</ele>
        <time>2021-11-21T09:30:09Z</time>
      </trkpt>
      <trkpt lat="46.00544" lon="1.42">
        <ele>601.6</ele>
        <time>2021-11-21T09:30:10Z</time>
      </trkpt>
      <trkpt lat="46.00542" lon="1.42002">
        <ele>601.2</ele>
        <time>2021-11-21T09:30:11Z</time>
      </trkpt>
      <trkpt lat="46.00541" lon="1.42003">
        <ele>600.8</ele>
        <time>2021-11-21T09:30:12Z</time>
      </trkpt>
      <trkpt lat="46.0054" lon="1.42004">
        <ele>600.8</ele>
        <time>2021-11-21T09:30:13Z</time>
      </trkpt>
      <trkpt lat="46.00535" lon="1.42006">
        <ele>600.4</ele>
        <time>2021-11-21T09:30:15Z</time>
      </trkpt>
      <trkpt lat="46.0053" lon="1.4201">
        <ele>599.6</ele>
        <time>2021-11-21T09:30:17Z</time>
      </trkpt>
      <trkpt lat="46.00526" lon="1.42012">
        <ele>598.6</ele>
        <time>2021-11-21T09:30:18Z</time>
      </trkpt>
      <trkpt lat="46.0052" lon="1.42015">
        <ele>597.6</ele>
        <time>2021-11-21T09:30:20Z</time>
      </trkpt>
      <trkpt lat="46.00517" lon="1.42018">
        <ele>597.4</ele>
        <time>2021-11-21T09:30:21Z</time>
      </trkpt>
      <trkpt lat="46.00514" lon="1.42022">
        <ele>597.2</ele>
        <time>2021-11-21T09:30:22Z</time>
      </trkpt>
      <trkpt lat="46.0051" lon="1.4203">
        <ele>596.4</ele>
        <time>2021-11-21T09:30:24Z</time>
      </trkpt>
      <trkpt lat="46.00509" lon="1.42033">
        <ele>596</ele>
        <time>2021-11-21T09:30:25Z</time>
      </trkpt>
      <trkpt lat="46.00507" lon="1.42039">
        <ele>595.4</ele>
        <time>2021-11-21T09:30:27Z</time>
      </trkpt>
      <trkpt lat="46.00503" lon="1.42044">
        <ele>594.8</ele>
        <time>2021-11-21T09:30:28Z</time>
      </trkpt>
      <trkpt lat="46.00502" lon="1.42048">
        <ele>594.6</ele>
        <time>2021-11-21T09:30:29Z</time>
      </trkpt>
      <trkpt lat="46.00501" lon="1.42055">
        <ele>594.2</ele>
        <time>2021-11-21T09:30:31Z</time>
      </trkpt>
      <trkpt lat="46.00501" lon="1.42058">
        <ele>594.2</ele>
        <time>2021-11-21T09:30:32Z</time>
      </trkpt>
      <trkpt lat="46.00503" lon="1.42076">
        <ele>594.2</ele>
        <time>2021-11-21T09:30:36Z</time>
      </trkpt>
      <trkpt lat="46.00503" lon="1.42102">
        <ele>595</ele>
        <time>2021-11-21T09:30:42Z</time>
      </trkpt>
      <trkpt lat="46.00501" lon="1.42137">
        <ele>595</ele>
        <time>2021-11-21T09:30:48Z</time>
      </trkpt>
      <trkpt lat="46.00506" lon="1.42167">
        <ele>594</ele>
        <time>2021-11-21T09:30:54Z</time>
      </trkpt>
      <trkpt lat="46.00505" lon="1.42173">
        <ele>593.8</ele>
        <time>2021-11-21T09:30:55Z</time>
      </trkpt>
      <trkpt lat="46.00503" lon="1.42185">
        <ele>593.4</ele>
        <time>2021-11-21T09:30:57Z</time>
      </trkpt>
      <trkpt lat="46.00497" lon="1.42196">
        <ele>592.4</ele>
        <time>2021-11-21T09:30:59Z</time>
      </trkpt>
      <trkpt lat="46.00496" lon="1.422">
        <ele>592</ele>
        <time>2021-11-21T09:31:00Z</time>
      </trkpt>
      <trkpt lat="46.00493" lon="1.42214">
        <ele>591.2</ele>
        <time>2021-11-21T09:31:03Z</time>
      </trkpt>
      <trkpt lat="46.00493" lon="1.42219">
        <ele>591</ele>
        <time>2021-11-21T09:31:04Z</time>
      </trkpt>
      <trkpt lat="46.00493" lon="1.42236">
        <ele>590</ele>
        <time>2021-11-21T09:31:07Z</time>
      </trkpt>
      <trkpt lat="46.0049" lon="1.42249">
        <ele>589.6</ele>
        <time>2021-11-21T09:31:08Z</time>
      </trkpt>
      <trkpt lat="46.00488" lon="1.42262">
        <ele>589.4</ele>
        <time>2021-11-21T09:31:09Z</time>
      </trkpt>
      <trkpt lat="46.0049" lon="1.42281">
        <ele>589</ele>
        <time>2021-11-21T09:31:11Z</time>
      </trkpt>
      <trkpt lat="46.00491" lon="1.42289">
        <ele>588.6</ele>
        <time>2021-11-21T09:31:12Z</time>
      </trkpt>
      <trkpt lat="46.00493" lon="1.42295">
        <ele>587.4</ele>
        <time>2021-11-21T09:31:13Z</time>
      </trkpt>
      <trkpt lat="46.00498" lon="1.42309">
        <ele>585.8</ele>
        <time>2021-11-21T09:31:15Z</time>
      </trkpt>
      <trkpt lat="46.00501" lon="1.42314">
        <ele>585.6</ele>
        <time>2021-11-21T09:31:16Z</time>
      </trkpt>
      <trkpt lat="46.00509" lon="1.42324">
        <ele>585.2</ele>
        <time>2021-11-21T09:31:19Z</time>
      </trkpt>
      <trkpt lat="46.0051" lon="1.42327">
        <ele>585</ele>
        <time>2021-11-21T09:31:20Z</time>
      </trkpt>
      <trkpt lat="46.0051" lon="1.42329">
        <ele>585</ele>
        <time>2021-11-21T09:31:21Z</time>
      </trkpt>
      <trkpt lat="46.00506" lon="1.42332">
        <ele>585</ele>
        <time>2021-11-21T09:31:23Z</time>
      </trkpt>
      <trkpt lat="46.00506" lon="1.42332">
        <ele>584.8</ele>
        <time>2021-11-21T09:31:24Z</time>
      </trkpt>
      <trkpt lat="46.00491" lon="1.42327">
        <ele>584.4</ele>
        <time>2021-11-21T09:31:28Z</time>
      </trkpt>
      <trkpt lat="46.00483" lon="1.42325">
        <ele>583.4</ele>
        <time>2021-11-21T09:31:30Z</time>
      </trkpt>
      <trkpt lat="46.00474" lon="1.42321">
        <ele>582.8</ele>
        <time>2021-11-21T09:31:32Z</time>
      </trkpt>
      <trkpt lat="46.0047" lon="1.42318">
        <ele>582.8</ele>
        <time>2021-11-21T09:31:33Z</time>
      </trkpt>
      <trkpt lat="46.00466" lon="1.42316">
        <ele>582.2</ele>
        <time>2021-11-21T09:31:34Z</time>
      </trkpt>
      <trkpt lat="46.00457" lon="1.4231">
        <ele>581.2</ele>
        <time>2021-11-21T09:31:38Z</time>
      </trkpt>
      <trkpt lat="46.00456" lon="1.42309">
        <ele>581.2</ele>
        <time>2021-11-21T09:31:39Z</time>
      </trkpt>
      <trkpt lat="46.00453" lon="1.42303">
        <ele>581.2</ele>
        <time>2021-11-21T09:31:43Z</time>
      </trkpt>
      <trkpt lat="46.00448" lon="1.42302">
        <ele>581.8</ele>
        <time>2021-11-21T09:31:46Z</time>
      </trkpt>
      <trkpt lat="46.00446" lon="1.42305">
        <ele>581.8</ele>
        <time>2021-11-21T09:31:48Z</time>
      </trkpt>
      <trkpt lat="46.00444" lon="1.42315">
        <ele>581</ele>
        <time>2021-11-21T09:31:52Z</time>
      </trkpt>
      <trkpt lat="46.00441" lon="1.42321">
        <ele>581</ele>
        <time>2021-11-21T09:31:54Z</time>
      </trkpt>
      <trkpt lat="46.00435" lon="1.42332">
        <ele>580.6</ele>
        <time>2021-11-21T09:32:00Z</time>
      </trkpt>
      <trkpt lat="46.0043" lon="1.42342">
        <ele>581</ele>
        <time>2021-11-21T09:32:05Z</time>
      </trkpt>
      <trkpt lat="46.00428" lon="1.42346">
        <ele>581.2</ele>
        <time>2021-11-21T09:32:07Z</time>
      </trkpt>
      <trkpt lat="46.0042" lon="1.42359">
        <ele>581.8</ele>
        <time>2021-11-21T09:32:14Z</time>
      </trkpt>
      <trkpt lat="46.00414" lon="1.42366">
        <ele>582.2</ele>
        <time>2021-11-21T09:32:17Z</time>
      </trkpt>
      <trkpt lat="46.00403" lon="1.42372">
        <ele>583</ele>
        <time>2021-11-21T09:32:21Z</time>
      </trkpt>
      <trkpt lat="46.00396" lon="1.42376">
        <ele>583.2</ele>
        <time>2021-11-21T09:32:23Z</time>
      </trkpt>
      <trkpt lat="46.00381" lon="1.42383">
        <ele>583.2</ele>
        <time>2021-11-21T09:32:27Z</time>
      </trkpt>
      <trkpt lat="46.00368" lon="1.42389">
        <ele>583.6</ele>
        <time>2021-11-21T09:32:34Z</time>
      </trkpt>
      <trkpt lat="46.00358" lon="1.42388">
        <ele>584.6</ele>
        <time>2021-11-21T09:32:39Z</time>
      </trkpt>
      <trkpt lat="46.00354" lon="1.42387">
        <ele>585.8</ele>
        <time>2021-11-21T09:32:42Z</time>
      </trkpt>
      <trkpt lat="46.00353" lon="1.42386">
        <ele>585.8</ele>
        <time>2021-11-21T09:32:43Z</time>
      </trkpt>
      <trkpt lat="46.00351" lon="1.42385">
        <ele>585.8</ele>
        <time>2021-11-21T09:32:44Z</time>
      </trkpt>
      <trkpt lat="46.00345" lon="1.42385">
        <ele>586.8</ele>
        <time>2021-11-21T09:32:47Z</time>
      </trkpt>
      <trkpt lat="46.00343" lon="1.42386">
        <ele>587.2</ele>
        <time>2021-11-21T09:32:49Z</time>
      </trkpt>
      <trkpt lat="46.00337" lon="1.42387">
        <ele>587.4</ele>
        <time>2021-11-21T09:32:51Z</time>
      </trkpt>
      <trkpt lat="46.00334" lon="1.42387">
        <ele>587.4</ele>
        <time>2021-11-21T09:32:53Z</time>
      </trkpt>
      <trkpt lat="46.00333" lon="1.42387">
        <ele>587.4</ele>
        <time>2021-11-21T09:32:54Z</time>
      </trkpt>
      <trkpt lat="46.00327" lon="1.42384">
        <ele>587.8</ele>
        <time>2021-11-21T09:32:58Z</time>
      </trkpt>
      <trkpt lat="46.00315" lon="1.42382">
        <ele>588.4</ele>
        <time>2021-11-21T09:33:03Z</time>
      </trkpt>
      <trkpt lat="46.00304" lon="1.42378">
        <ele>588.6</ele>
        <time>2021-11-21T09:33:08Z</time>
      </trkpt>
      <trkpt lat="46.00301" lon="1.42376">
        <ele>588.8</ele>
        <time>2021-11-21T09:33:10Z</time>
      </trkpt>
      <trkpt lat="46.00293" lon="1.4237">
        <ele>589.6</ele>
        <time>2021-11-21T09:33:15Z</time>
      </trkpt>
      <trkpt lat="46.00286" lon="1.42367">
        <ele>590</ele>
        <time>2021-11-21T09:33:19Z</time>
      </trkpt>
      <trkpt lat="46.00283" lon="1.42365">
        <ele>590.8</ele>
        <time>2021-11-21T09:33:21Z</time>
      </trkpt>
      <trkpt lat="46.00281" lon="1.42364">
        <ele>591</ele>
        <time>2021-11-21T09:33:22Z</time>
      </trkpt>
      <trkpt lat="46.00272" lon="1.42357">
        <ele>592</ele>
        <time>2021-11-21T09:33:29Z</time>
      </trkpt>
      <trkpt lat="46.00271" lon="1.42356">
        <ele>592.2</ele>
        <time>2021-11-21T09:33:30Z</time>
      </trkpt>
      <trkpt lat="46.00264" lon="1.42353">
        <ele>593.2</ele>
        <time>2021-11-21T09:33:36Z</time>
      </trkpt>
      <trkpt lat="46.00263" lon="1.42353">
        <ele>593.4</ele>
        <time>2021-11-21T09:33:37Z</time>
      </trkpt>
      <trkpt lat="46.0026" lon="1.42351">
        <ele>593.8</ele>
        <time>2021-11-21T09:33:39Z</time>
      </trkpt>
      <trkpt lat="46.00257" lon="1.42347">
        <ele>594.4</ele>
        <time>2021-11-21T09:33:41Z</time>
      </trkpt>
      <trkpt lat="46.00256" lon="1.42345">
        <ele>595</ele>
        <time>2021-11-21T09:33:43Z</time>
      </trkpt>
      <trkpt lat="46.00254" lon="1.42343">
        <ele>595.6</ele>
        <time>2021-11-21T09:33:45Z</time>
      </trkpt>
      <trkpt lat="46.00252" lon="1.42341">
        <ele>595.8</ele>
        <time>2021-11-21T09:33:47Z</time>
      </trkpt>
      <trkpt lat="46.00248" lon="1.42336">
        <ele>596.2</ele>
        <time>2021-11-21T09:33:51Z</time>
      </trkpt>
      <trkpt lat="46.00247" lon="1.42335">
        <ele>596.2</ele>
        <time>2021-11-21T09:33:52Z</time>
      </trkpt>
      <trkpt lat="46.00242" lon="1.42329">
        <ele>596.8</ele>
        <time>2021-11-21T09:33:56Z</time>
      </trkpt>
      <trkpt lat="46.00238" lon="1.42322">
        <ele>597.2</ele>
        <time>2021-11-21T09:34:00Z</time>
      </trkpt>
      <trkpt lat="46.00237" lon="1.4232">
        <ele>597.4</ele>
        <time>2021-11-21T09:34:01Z</time>
      </trkpt>
      <trkpt lat="46.00235" lon="1.42317">
        <ele>597.8</ele>
        <time>2021-11-21T09:34:03Z</time>
      </trkpt>
      <trkpt lat="46.00232" lon="1.42313">
        <ele>598.6</ele>
        <time>2021-11-21T09:34:07Z</time>
      </trkpt>
      <trkpt lat="46.00232" lon="1.42312">
        <ele>598.8</ele>
        <time>2021-11-21T09:34:08Z</time>
      </trkpt>
      <trkpt lat="46.00231" lon="1.42311">
        <ele>599.2</ele>
        <time>2021-11-21T09:34:09Z</time>
      </trkpt>
      <trkpt lat="46.00229" lon="1.42307">
        <ele>599.8</ele>
        <time>2021-11-21T09:34:12Z</time>
      </trkpt>
      <trkpt lat="46.00228" lon="1.42306">
        <ele>600.2</ele>
        <time>2021-11-21T09:34:13Z</time>
      </trkpt>
      <trkpt lat="46.00225" lon="1.42304">
        <ele>600.8</ele>
        <time>2021-11-21T09:34:16Z</time>
      </trkpt>
      <trkpt lat="46.0022" lon="1.42299">
        <ele>601.2</ele>
        <time>2021-11-21T09:34:20Z</time>
      </trkpt>
      <trkpt lat="46.00219" lon="1.42298">
        <ele>601.4</ele>
        <time>2021-11-21T09:34:21Z</time>
      </trkpt>
      <trkpt lat="46.00204" lon="1.42297">
        <ele>601.6</ele>
        <time>2021-11-21T09:34:29Z</time>
      </trkpt>
      <trkpt lat="46.00191" lon="1.42301">
        <ele>601.8</ele>
        <time>2021-11-21T09:34:35Z</time>
      </trkpt>
      <trkpt lat="46.00188" lon="1.42312">
        <ele>601.6</ele>
        <time>2021-11-21T09:34:39Z</time>
      </trkpt>
      <trkpt lat="46.00191" lon="1.42335">
        <ele>601</ele>
        <time>2021-11-21T09:34:44Z</time>
      </trkpt>
      <trkpt lat="46.00195" lon="1.42359">
        <ele>600.8</ele>
        <time>2021-11-21T09:34:50Z</time>
      </trkpt>
      <trkpt lat="46.00195" lon="1.42374">
        <ele>601</ele>
        <time>2021-11-21T09:34:55Z</time>
      </trkpt>
      <trkpt lat="46.0019" lon="1.42402">
        <ele>602.4</ele>
        <time>2021-11-21T09:35:03Z</time>
      </trkpt>
      <trkpt lat="46.0019" lon="1.42405">
        <ele>602.4</ele>
        <time>2021-11-21T09:35:04Z</time>
      </trkpt>
      <trkpt lat="46.00187" lon="1.42419">
        <ele>603.4</ele>
        <time>2021-11-21T09:35:09Z</time>
      </trkpt>
      <trkpt lat="46.00184" lon="1.42429">
        <ele>604</ele>
        <time>2021-11-21T09:35:12Z</time>
      </trkpt>
      <trkpt lat="46.00181" lon="1.42447">
        <ele>604.4</ele>
        <time>2021-11-21T09:35:18Z</time>
      </trkpt>
      <trkpt lat="46.00177" lon="1.42464">
        <ele>604.8</ele>
        <time>2021-11-21T09:35:23Z</time>
      </trkpt>
      <trkpt lat="46.00173" lon="1.4248">
        <ele>604.8</ele>
        <time>2021-11-21T09:35:29Z</time>
      </trkpt>
      <trkpt lat="46.00162" lon="1.42499">
        <ele>605.4</ele>
        <time>2021-11-21T09:35:36Z</time>
      </trkpt>
      <trkpt lat="46.00149" lon="1.42512">
        <ele>605.2</ele>
        <time>2021-11-21T09:35:42Z</time>
      </trkpt>
      <trkpt lat="46.00132" lon="1.42522">
        <ele>605.4</ele>
        <time>2021-11-21T09:35:47Z</time>
      </trkpt>
      <trkpt lat="46.00126" lon="1.42525">
        <ele>605.6</ele>
        <time>2021-11-21T09:35:49Z</time>
      </trkpt>
      <trkpt lat="46.00105" lon="1.42532">
        <ele>606</ele>
        <time>2021-11-21T09:35:56Z</time>
      </trkpt>
      <trkpt lat="46.00092" lon="1.42536">
        <ele>606.6</ele>
        <time>2021-11-21T09:35:59Z</time>
      </trkpt>
      <trkpt lat="46.00084" lon="1.42537">
        <ele>606.6</ele>
        <time>2021-11-21T09:36:01Z</time>
      </trkpt>
      <trkpt lat="46.00061" lon="1.42544">
        <ele>607</ele>
        <time>2021-11-21T09:36:07Z</time>
      </trkpt>
      <trkpt lat="46.00053" lon="1.42544">
        <ele>607.6</ele>
        <time>2021-11-21T09:36:10Z</time>
      </trkpt>
      <trkpt lat="46.00042" lon="1.42543">
        <ele>608.6</ele>
        <time>2021-11-21T09:36:14Z</time>
      </trkpt>
      <trkpt lat="46.00039" lon="1.42543">
        <ele>608.6</ele>
        <time>2021-11-21T09:36:15Z</time>
      </trkpt>
      <trkpt lat="46.00025" lon="1.42543">
        <ele>610</ele>
        <time>2021-11-21T09:36:19Z</time>
      </trkpt>
      <trkpt lat="46.00022" lon="1.42544">
        <ele>610</ele>
        <time>2021-11-21T09:36:20Z</time>
      </trkpt>
      <trkpt lat="46.00008" lon="1.42545">
        <ele>611.2</ele>
        <time>2021-11-21T09:36:24Z</time>
      </trkpt>
      <trkpt lat="46" lon="1.42547">
        <ele>612</ele>
        <time>2021-11-21T09:36:27Z</time>
      </trkpt>
      <trkpt lat="45.99996" lon="1.42547">
        <ele>612.4</ele>
        <time>2021-11-21T09:36:28Z</time>
      </trkpt>
      <trkpt lat="45.99981" lon="1.42545">
        <ele>613.4</ele>
        <time>2021-11-21T09:36:32Z</time>
      </trkpt>
      <trkpt lat="45.99977" lon="1.42544">
        <ele>613.6</ele>
        <time>2021-11-21T09:36:33Z</time>
      </trkpt>
      <trkpt lat="45.99952" lon="1.42534">
        <ele>614.4</ele>
        <time>2021-11-21T09:36:41Z</time>
      </trkpt>
      <trkpt lat="45.99949" lon="1.42533">
        <ele>614.4</ele>
        <time>2021-11-21T09:36:42Z</time>
      </trkpt>
      <trkpt lat="45.9994" lon="1.42528">
        <ele>614.4</ele>
        <time>2021-11-21T09:36:46Z</time>
      </trkpt>
      <trkpt lat="45.99922" lon="1.42522">
        <ele>614.2</ele>
        <time>2021-11-21T09:36:52Z</time>
      </trkpt>
      <trkpt lat="45.99916" lon="1.42517">
        <ele>614</ele>
        <time>2021-11-21T09:36:54Z</time>
      </trkpt>
      <trkpt lat="45.99909" lon="1.42508">
        <ele>613.4</ele>
        <time>2021-11-21T09:36:57Z</time>
      </trkpt>
      <trkpt lat="45.99907" lon="1.42504">
        <ele>613.2</ele>
        <time>2021-11-21T09:36:58Z</time>
      </trkpt>
      <trkpt lat="45.99906" lon="1.42499">
        <ele>612.8</ele>
        <time>2021-11-21T09:36:59Z</time>
      </trkpt>
      <trkpt lat="45.99906" lon="1.42492">
        <ele>612.2</ele>
        <time>2021-11-21T09:37:00Z</time>
      </trkpt>
      <trkpt lat="45.99906" lon="1.42485">
        <ele>611.8</ele>
        <time>2021-11-21T09:37:01Z</time>
      </trkpt>
      <trkpt lat="45.99904" lon="1.42466">
        <ele>611.2</ele>
        <time>2021-11-21T09:37:04Z</time>
      </trkpt>
      <trkpt lat="45.99905" lon="1.42455">
        <ele>610.8</ele>
        <time>2021-11-21T09:37:06Z</time>
      </trkpt>
      <trkpt lat="45.99907" lon="1.4243">
        <ele>611.2</ele>
        <time>2021-11-21T09:37:12Z</time>
      </trkpt>
      <trkpt lat="45.99905" lon="1.42417">
        <ele>611.8</ele>
        <time>2021-11-21T09:37:16Z</time>
      </trkpt>
      <trkpt lat="45.99899" lon="1.4241">
        <ele>612</ele>
        <time>2021-11-21T09:37:18Z</time>
      </trkpt>
      <trkpt lat="45.99888" lon="1.42398">
        <ele>611.8</ele>
        <time>2021-11-21T09:37:20Z</time>
      </trkpt>
      <trkpt lat="45.99879" lon="1.42393">
        <ele>611.4</ele>
        <time>2021-11-21T09:37:22Z</time>
      </trkpt>
      <trkpt lat="45.99871" lon="1.42392">
        <ele>611.2</ele>
        <time>2021-11-21T09:37:24Z</time>
      </trkpt>
      <trkpt lat="45.99864" lon="1.42392">
        <ele>610.8</ele>
        <time>2021-11-21T09:37:26Z</time>
      </trkpt>
      <trkpt lat="45.9986" lon="1.42392">
        <ele>610.6</ele>
        <time>2021-11-21T09:37:27Z</time>
      </trkpt>
      <trkpt lat="45.99856" lon="1.42392">
        <ele>610.4</ele>
        <time>2021-11-21T09:37:29Z</time>
      </trkpt>
      <trkpt lat="45.99852" lon="1.42394">
        <ele>610.4</ele>
        <time>2021-11-21T09:37:31Z</time>
      </trkpt>
      <trkpt lat="45.9985" lon="1.42395">
        <ele>610.4</ele>
        <time>2021-11-21T09:37:32Z</time>
      </trkpt>
      <trkpt lat="45.99845" lon="1.42394">
        <ele>610.2</ele>
        <time>2021-11-21T09:37:35Z</time>
      </trkpt>
      <trkpt lat="45.99844" lon="1.42395">
        <ele>610.2</ele>
        <time>2021-11-21T09:37:36Z</time>
      </trkpt>
      <trkpt lat="45.99839" lon="1.42395">
        <ele>610.2</ele>
        <time>2021-11-21T09:37:38Z</time>
      </trkpt>
      <trkpt lat="45.99826" lon="1.42398">
        <ele>610.4</ele>
        <time>2021-11-21T09:37:42Z</time>
      </trkpt>
      <trkpt lat="45.99815" lon="1.42398">
        <ele>611.6</ele>
        <time>2021-11-21T09:37:46Z</time>
      </trkpt>
      <trkpt lat="45.99812" lon="1.42397">
        <ele>611.8</ele>
        <time>2021-11-21T09:37:47Z</time>
      </trkpt>
      <trkpt lat="45.99804" lon="1.42394">
        <ele>612.8</ele>
        <time>2021-11-21T09:37:50Z</time>
      </trkpt>
      <trkpt lat="45.99797" lon="1.42392">
        <ele>614.2</ele>
        <time>2021-11-21T09:37:54Z</time>
      </trkpt>
      <trkpt lat="45.99787" lon="1.42388">
        <ele>615.2</ele>
        <time>2021-11-21T09:38:00Z</time>
      </trkpt>
      <trkpt lat="45.99784" lon="1.42386">
        <ele>615.6</ele>
        <time>2021-11-21T09:38:02Z</time>
      </trkpt>
      <trkpt lat="45.99777" lon="1.42382">
        <ele>616.4</ele>
        <time>2021-11-21T09:38:06Z</time>
      </trkpt>
      <trkpt lat="45.9977" lon="1.42379">
        <ele>617.4</ele>
        <time>2021-11-21T09:38:10Z</time>
      </trkpt>
      <trkpt lat="45.99768" lon="1.42379">
        <ele>617.4</ele>
        <time>2021-11-21T09:38:11Z</time>
      </trkpt>
      <trkpt lat="45.9976" lon="1.42377">
        <ele>618.6</ele>
        <time>2021-11-21T09:38:16Z</time>
      </trkpt>
      <trkpt lat="45.99757" lon="1.42376">
        <ele>619</ele>
        <time>2021-11-21T09:38:18Z</time>
      </trkpt>
      <trkpt lat="45.9975" lon="1.42375">
        <ele>619.8</ele>
        <time>2021-11-21T09:38:22Z</time>
      </trkpt>
      <trkpt lat="45.99748" lon="1.42375">
        <ele>619.8</ele>
        <time>2021-11-21T09:38:23Z</time>
      </trkpt>
      <trkpt lat="45.99745" lon="1.42374">
        <ele>620.4</ele>
        <time>2021-11-21T09:38:25Z</time>
      </trkpt>
      <trkpt lat="45.9974" lon="1.42374">
        <ele>620.8</ele>
        <time>2021-11-21T09:38:28Z</time>
      </trkpt>
      <trkpt lat="45.99735" lon="1.4237">
        <ele>621.4</ele>
        <time>2021-11-21T09:38:32Z</time>
      </trkpt>
      <trkpt lat="45.99731" lon="1.42368">
        <ele>621.8</ele>
        <time>2021-11-21T09:38:35Z</time>
      </trkpt>
      <trkpt lat="45.99728" lon="1.42364">
        <ele>622.6</ele>
        <time>2021-11-21T09:38:40Z</time>
      </trkpt>
      <trkpt lat="45.99727" lon="1.4236">
        <ele>623</ele>
        <time>2021-11-21T09:38:43Z</time>
      </trkpt>
      <trkpt lat="45.99728" lon="1.42355">
        <ele>623.6</ele>
        <time>2021-11-21T09:38:46Z</time>
      </trkpt>
      <trkpt lat="45.99731" lon="1.42353">
        <ele>624.2</ele>
        <time>2021-11-21T09:38:49Z</time>
      </trkpt>
      <trkpt lat="45.99732" lon="1.42352">
        <ele>624.4</ele>
        <time>2021-11-21T09:38:50Z</time>
      </trkpt>
      <trkpt lat="45.99736" lon="1.4235">
        <ele>625.2</ele>
        <time>2021-11-21T09:38:54Z</time>
      </trkpt>
      <trkpt lat="45.99737" lon="1.42349">
        <ele>625.4</ele>
        <time>2021-11-21T09:38:55Z</time>
      </trkpt>
      <trkpt lat="45.99741" lon="1.42342">
        <ele>626.6</ele>
        <time>2021-11-21T09:39:00Z</time>
      </trkpt>
      <trkpt lat="45.99742" lon="1.4234">
        <ele>627.2</ele>
        <time>2021-11-21T09:39:02Z</time>
      </trkpt>
      <trkpt lat="45.99743" lon="1.42338">
        <ele>627.8</ele>
        <time>2021-11-21T09:39:04Z</time>
      </trkpt>
      <trkpt lat="45.99747" lon="1.42333">
        <ele>629</ele>
        <time>2021-11-21T09:39:09Z</time>
      </trkpt>
      <trkpt lat="45.99752" lon="1.42325">
        <ele>630.2</ele>
        <time>2021-11-21T09:39:14Z</time>
      </trkpt>
      <trkpt lat="45.99752" lon="1.42324">
        <ele>630.6</ele>
        <time>2021-11-21T09:39:15Z</time>
      </trkpt>
      <trkpt lat="45.99754" lon="1.42322">
        <ele>631.2</ele>
        <time>2021-11-21T09:39:17Z</time>
      </trkpt>
      <trkpt lat="45.99756" lon="1.42322">
        <ele>631.8</ele>
        <time>2021-11-21T09:39:19Z</time>
      </trkpt>
      <trkpt lat="45.99762" lon="1.4232">
        <ele>632.2</ele>
        <time>2021-11-21T09:39:23Z</time>
      </trkpt>
      <trkpt lat="45.99763" lon="1.4232">
        <ele>632.2</ele>
        <time>2021-11-21T09:39:24Z</time>
      </trkpt>
      <trkpt lat="45.99776" lon="1.42309">
        <ele>633.4</ele>
        <time>2021-11-21T09:39:34Z</time>
      </trkpt>
      <trkpt lat="45.99777" lon="1.42304">
        <ele>634.4</ele>
        <time>2021-11-21T09:39:38Z</time>
      </trkpt>
      <trkpt lat="45.99778" lon="1.42301">
        <ele>635.4</ele>
        <time>2021-11-21T09:39:41Z</time>
      </trkpt>
      <trkpt lat="45.99779" lon="1.42299">
        <ele>635.8</ele>
        <time>2021-11-21T09:39:43Z</time>
      </trkpt>
      <trkpt lat="45.99784" lon="1.42298">
        <ele>636.2</ele>
        <time>2021-11-21T09:39:48Z</time>
      </trkpt>
      <trkpt lat="45.99787" lon="1.42295">
        <ele>636.2</ele>
        <time>2021-11-21T09:39:51Z</time>
      </trkpt>
      <trkpt lat="45.99798" lon="1.4228">
        <ele>635.4</ele>
        <time>2021-11-21T09:39:59Z</time>
      </trkpt>
      <trkpt lat="45.99807" lon="1.42259">
        <ele>635.4</ele>
        <time>2021-11-21T09:40:07Z</time>
      </trkpt>
      <trkpt lat="45.99813" lon="1.42242">
        <ele>635.6</ele>
        <time>2021-11-21T09:40:13Z</time>
      </trkpt>
      <trkpt lat="45.99818" lon="1.4222">
        <ele>635.8</ele>
        <time>2021-11-21T09:40:19Z</time>
      </trkpt>
      <trkpt lat="45.99819" lon="1.42216">
        <ele>635.8</ele>
        <time>2021-11-21T09:40:20Z</time>
      </trkpt>
      <trkpt lat="45.9982" lon="1.42204">
        <ele>636</ele>
        <time>2021-11-21T09:40:24Z</time>
      </trkpt>
      <trkpt lat="45.99823" lon="1.42181">
        <ele>635.6</ele>
        <time>2021-11-21T09:40:29Z</time>
      </trkpt>
      <trkpt lat="45.99826" lon="1.42163">
        <ele>634.8</ele>
        <time>2021-11-21T09:40:32Z</time>
      </trkpt>
      <trkpt lat="45.99829" lon="1.42152">
        <ele>634</ele>
        <time>2021-11-21T09:40:34Z</time>
      </trkpt>
      <trkpt lat="45.9983" lon="1.42143">
        <ele>633.6</ele>
        <time>2021-11-21T09:40:36Z</time>
      </trkpt>
      <trkpt lat="45.99829" lon="1.4214">
        <ele>633.6</ele>
        <time>2021-11-21T09:40:37Z</time>
      </trkpt>
      <trkpt lat="45.9982" lon="1.42115">
        <ele>633.4</ele>
        <time>2021-11-21T09:40:43Z</time>
      </trkpt>
      <trkpt lat="45.99815" lon="1.4209">
        <ele>633.4</ele>
        <time>2021-11-21T09:40:49Z</time>
      </trkpt>
      <trkpt lat="45.99816" lon="1.42083">
        <ele>633.4</ele>
        <time>2021-11-21T09:40:50Z</time>
      </trkpt>
      <trkpt lat="45.99817" lon="1.42077">
        <ele>632.8</ele>
        <time>2021-11-21T09:40:51Z</time>
      </trkpt>
      <trkpt lat="45.99818" lon="1.42071">
        <ele>632</ele>
        <time>2021-11-21T09:40:52Z</time>
      </trkpt>
      <trkpt lat="45.99819" lon="1.42065">
        <ele>631.2</ele>
        <time>2021-11-21T09:40:53Z</time>
      </trkpt>
      <trkpt lat="45.99819" lon="1.42058">
        <ele>630.8</ele>
        <time>2021-11-21T09:40:54Z</time>
      </trkpt>
      <trkpt lat="45.99819" lon="1.42058">
        <ele>629.8</ele>
        <time>2021-11-21T09:40:55Z</time>
      </trkpt>
      <trkpt lat="45.9982" lon="1.42031">
        <ele>628.6</ele>
        <time>2021-11-21T09:40:58Z</time>
      </trkpt>
      <trkpt lat="45.99823" lon="1.42027">
        <ele>628.2</ele>
        <time>2021-11-21T09:40:59Z</time>
      </trkpt>
      <trkpt lat="45.99826" lon="1.42024">
        <ele>626.8</ele>
        <time>2021-11-21T09:41:00Z</time>
      </trkpt>
      <trkpt lat="45.99832" lon="1.42018">
        <ele>625.6</ele>
        <time>2021-11-21T09:41:02Z</time>
      </trkpt>
      <trkpt lat="45.99835" lon="1.42012">
        <ele>625</ele>
        <time>2021-11-21T09:41:03Z</time>
      </trkpt>
      <trkpt lat="45.99836" lon="1.42005">
        <ele>624.8</ele>
        <time>2021-11-21T09:41:04Z</time>
      </trkpt>
      <trkpt lat="45.99836" lon="1.41997">
        <ele>624.4</ele>
        <time>2021-11-21T09:41:05Z</time>
      </trkpt>
      <trkpt lat="45.99837" lon="1.4199">
        <ele>624.4</ele>
        <time>2021-11-21T09:41:06Z</time>
      </trkpt>
      <trkpt lat="45.99841" lon="1.41976">
        <ele>623.6</ele>
        <time>2021-11-21T09:41:08Z</time>
      </trkpt>
      <trkpt lat="45.99843" lon="1.41969">
        <ele>623.4</ele>
        <time>2021-11-21T09:41:09Z</time>
      </trkpt>
      <trkpt lat="45.99844" lon="1.41961">
        <ele>623</ele>
        <time>2021-11-21T09:41:10Z</time>
      </trkpt>
      <trkpt lat="45.99845" lon="1.41947">
        <ele>622.6</ele>
        <time>2021-11-21T09:41:12Z</time>
      </trkpt>
      <trkpt lat="45.99845" lon="1.41942">
        <ele>622.4</ele>
        <time>2021-11-21T09:41:13Z</time>
      </trkpt>
      <trkpt lat="45.99845" lon="1.41937">
        <ele>622.2</ele>
        <time>2021-11-21T09:41:14Z</time>
      </trkpt>
      <trkpt lat="45.99842" lon="1.4193">
        <ele>622</ele>
        <time>2021-11-21T09:41:16Z</time>
      </trkpt>
      <trkpt lat="45.99839" lon="1.4192">
        <ele>621.4</ele>
        <time>2021-11-21T09:41:18Z</time>
      </trkpt>
      <trkpt lat="45.99837" lon="1.41913">
        <ele>621</ele>
        <time>2021-11-21T09:41:19Z</time>
      </trkpt>
      <trkpt lat="45.99837" lon="1.41905">
        <ele>620.8</ele>
        <time>2021-11-21T09:41:20Z</time>
      </trkpt>
      <trkpt lat="45.99836" lon="1.4189">
        <ele>620.2</ele>
        <time>2021-11-21T09:41:22Z</time>
      </trkpt>
      <trkpt lat="45.99836" lon="1.41883">
        <ele>620.2</ele>
        <time>2021-11-21T09:41:23Z</time>
      </trkpt>
      <trkpt lat="45.99837" lon="1.41877">
        <ele>620</ele>
        <time>2021-11-21T09:41:24Z</time>
      </trkpt>
      <trkpt lat="45.99838" lon="1.41867">
        <ele>619.8</ele>
        <time>2021-11-21T09:41:26Z</time>
      </trkpt>
      <trkpt lat="45.99839" lon="1.41864">
        <ele>619.8</ele>
        <time>2021-11-21T09:41:27Z</time>
      </trkpt>
      <trkpt lat="45.99841" lon="1.41863">
        <ele>620</ele>
        <time>2021-11-21T09:41:28Z</time>
      </trkpt>
      <trkpt lat="45.99844" lon="1.41861">
        <ele>620.2</ele>
        <time>2021-11-21T09:41:31Z</time>
      </trkpt>
      <trkpt lat="45.99845" lon="1.41861">
        <ele>620.4</ele>
        <time>2021-11-21T09:41:32Z</time>
      </trkpt>
      <trkpt lat="45.9985" lon="1.41866">
        <ele>621.2</ele>
        <time>2021-11-21T09:41:36Z</time>
      </trkpt>
      <trkpt lat="45.99858" lon="1.41875">
        <ele>622.2</ele>
        <time>2021-11-21T09:41:40Z</time>
      </trkpt>
      <trkpt lat="45.99863" lon="1.41881">
        <ele>622.6</ele>
        <time>2021-11-21T09:41:42Z</time>
      </trkpt>
      <trkpt lat="45.99875" lon="1.41895">
        <ele>622.6</ele>
        <time>2021-11-21T09:41:47Z</time>
      </trkpt>
      <trkpt lat="45.99894" lon="1.41908">
        <ele>623</ele>
        <time>2021-11-21T09:41:53Z</time>
      </trkpt>
      <trkpt lat="45.99903" lon="1.4191">
        <ele>623.2</ele>
        <time>2021-11-21T09:41:56Z</time>
      </trkpt>
      <trkpt lat="45.99913" lon="1.4191">
        <ele>623.6</ele>
        <time>2021-11-21T09:42:00Z</time>
      </trkpt>
      <trkpt lat="45.99924" lon="1.41912">
        <ele>624.6</ele>
        <time>2021-11-21T09:42:05Z</time>
      </trkpt>
      <trkpt lat="45.99925" lon="1.41912">
        <ele>624.4</ele>
        <time>2021-11-21T09:42:06Z</time>
      </trkpt>
      <trkpt lat="45.99934" lon="1.41912">
        <ele>625.8</ele>
        <time>2021-11-21T09:42:11Z</time>
      </trkpt>
      <trkpt lat="45.99938" lon="1.41913">
        <ele>626</ele>
        <time>2021-11-21T09:42:13Z</time>
      </trkpt>
      <trkpt lat="45.99942" lon="1.41913">
        <ele>626.8</ele>
        <time>2021-11-21T09:42:15Z</time>
      </trkpt>
      <trkpt lat="45.99952" lon="1.41915">
        <ele>628</ele>
        <time>2021-11-21T09:42:21Z</time>
      </trkpt>
      <trkpt lat="45.99964" lon="1.41916">
        <ele>629</ele>
        <time>2021-11-21T09:42:27Z</time>
      </trkpt>
      <trkpt lat="45.99969" lon="1.41917">
        <ele>629.2</ele>
        <time>2021-11-21T09:42:30Z</time>
      </trkpt>
      <trkpt lat="45.99974" lon="1.41916">
        <ele>630.2</ele>
        <time>2021-11-21T09:42:33Z</time>
      </trkpt>
      <trkpt lat="45.99978" lon="1.41918">
        <ele>631.2</ele>
        <time>2021-11-21T09:42:36Z</time>
      </trkpt>
      <trkpt lat="45.99983" lon="1.41918">
        <ele>631.8</ele>
        <time>2021-11-21T09:42:40Z</time>
      </trkpt>
      <trkpt lat="45.99987" lon="1.41919">
        <ele>632.4</ele>
        <time>2021-11-21T09:42:43Z</time>
      </trkpt>
      <trkpt lat="45.99992" lon="1.41919">
        <ele>633</ele>
        <time>2021-11-21T09:42:46Z</time>
      </trkpt>
      <trkpt lat="45.99994" lon="1.41919">
        <ele>633.4</ele>
        <time>2021-11-21T09:42:48Z</time>
      </trkpt>
      <trkpt lat="45.99995" lon="1.4192">
        <ele>633.6</ele>
        <time>2021-11-21T09:42:49Z</time>
      </trkpt>
      <trkpt lat="45.99998" lon="1.41921">
        <ele>633.8</ele>
        <time>2021-11-21T09:42:51Z</time>
      </trkpt>
      <trkpt lat="46.00004" lon="1.41926">
        <ele>634.4</ele>
        <time>2021-11-21T09:42:55Z</time>
      </trkpt>
      <trkpt lat="46.00014" lon="1.4193">
        <ele>635.2</ele>
        <time>2021-11-21T09:43:02Z</time>
      </trkpt>
      <trkpt lat="46.00017" lon="1.41932">
        <ele>635.4</ele>
        <time>2021-11-21T09:43:04Z</time>
      </trkpt>
      <trkpt lat="46.00031" lon="1.4194">
        <ele>636.4</ele>
        <time>2021-11-21T09:43:14Z</time>
      </trkpt>
      <trkpt lat="46.00051" lon="1.41944">
        <ele>637.2</ele>
        <time>2021-11-21T09:43:25Z</time>
      </trkpt>
      <trkpt lat="46.00052" lon="1.41943">
        <ele>637.4</ele>
        <time>2021-11-21T09:43:26Z</time>
      </trkpt>
      <trkpt lat="46.00062" lon="1.41938">
        <ele>638.6</ele>
        <time>2021-11-21T09:43:32Z</time>
      </trkpt>
      <trkpt lat="46.00067" lon="1.41935">
        <ele>639</ele>
        <time>2021-11-21T09:43:35Z</time>
      </trkpt>
      <trkpt lat="46.0007" lon="1.41933">
        <ele>639.8</ele>
        <time>2021-11-21T09:43:37Z</time>
      </trkpt>
      <trkpt lat="46.00078" lon="1.41928">
        <ele>641</ele>
        <time>2021-11-21T09:43:43Z</time>
      </trkpt>
      <trkpt lat="46.00084" lon="1.41922">
        <ele>641.6</ele>
        <time>2021-11-21T09:43:49Z</time>
      </trkpt>
      <trkpt lat="46.00087" lon="1.41918">
        <ele>642</ele>
        <time>2021-11-21T09:43:52Z</time>
      </trkpt>
      <trkpt lat="46.00097" lon="1.41909">
        <ele>643</ele>
        <time>2021-11-21T09:44:00Z</time>
      </trkpt>
      <trkpt lat="46.00099" lon="1.41909">
        <ele>643.2</ele>
        <time>2021-11-21T09:44:01Z</time>
      </trkpt>
      <trkpt lat="46.00104" lon="1.41905">
        <ele>644.2</ele>
        <time>2021-11-21T09:44:05Z</time>
      </trkpt>
      <trkpt lat="46.00115" lon="1.41894">
        <ele>645.2</ele>
        <time>2021-11-21T09:44:12Z</time>
      </trkpt>
      <trkpt lat="46.00118" lon="1.41891">
        <ele>645.6</ele>
        <time>2021-11-21T09:44:14Z</time>
      </trkpt>
      <trkpt lat="46.00124" lon="1.41883">
        <ele>646.4</ele>
        <time>2021-11-21T09:44:18Z</time>
      </trkpt>
      <trkpt lat="46.00131" lon="1.41872">
        <ele>647.4</ele>
        <time>2021-11-21T09:44:24Z</time>
      </trkpt>
      <trkpt lat="46.00136" lon="1.41865">
        <ele>647.8</ele>
        <time>2021-11-21T09:44:28Z</time>
      </trkpt>
      <trkpt lat="46.00141" lon="1.41855">
        <ele>648.6</ele>
        <time>2021-11-21T09:44:32Z</time>
      </trkpt>
      <trkpt lat="46.00152" lon="1.41835">
        <ele>649.2</ele>
        <time>2021-11-21T09:44:41Z</time>
      </trkpt>
      <trkpt lat="46.00156" lon="1.41829">
        <ele>649.6</ele>
        <time>2021-11-21T09:44:44Z</time>
      </trkpt>
      <trkpt lat="46.00163" lon="1.41819">
        <ele>650</ele>
        <time>2021-11-21T09:44:48Z</time>
      </trkpt>
      <trkpt lat="46.00172" lon="1.41803">
        <ele>650.8</ele>
        <time>2021-11-21T09:44:54Z</time>
      </trkpt>
      <trkpt lat="46.00182" lon="1.41786">
        <ele>651.6</ele>
        <time>2021-11-21T09:45:01Z</time>
      </trkpt>
      <trkpt lat="46.00188" lon="1.41764">
        <ele>651.8</ele>
        <time>2021-11-21T09:45:07Z</time>
      </trkpt>
      <trkpt lat="46.00188" lon="1.4176">
        <ele>652</ele>
        <time>2021-11-21T09:45:08Z</time>
      </trkpt>
      <trkpt lat="46.00187" lon="1.41752">
        <ele>652</ele>
        <time>2021-11-21T09:45:11Z</time>
      </trkpt>
      <trkpt lat="46.00185" lon="1.41749">
        <ele>652.4</ele>
        <time>2021-11-21T09:45:13Z</time>
      </trkpt>
      <trkpt lat="46.00183" lon="1.41747">
        <ele>653</ele>
        <time>2021-11-21T09:45:16Z</time>
      </trkpt>
      <trkpt lat="46.00178" lon="1.41741">
        <ele>654</ele>
        <time>2021-11-21T09:45:21Z</time>
      </trkpt>
      <trkpt lat="46.00171" lon="1.41738">
        <ele>655.2</ele>
        <time>2021-11-21T09:45:27Z</time>
      </trkpt>
      <trkpt lat="46.00169" lon="1.41738">
        <ele>655.6</ele>
        <time>2021-11-21T09:45:29Z</time>
      </trkpt>
      <trkpt lat="46.00167" lon="1.41735">
        <ele>656.2</ele>
        <time>2021-11-21T09:45:31Z</time>
      </trkpt>
      <trkpt lat="46.00161" lon="1.41734">
        <ele>657.2</ele>
        <time>2021-11-21T09:45:37Z</time>
      </trkpt>
      <trkpt lat="46.00158" lon="1.41735">
        <ele>657.8</ele>
        <time>2021-11-21T09:45:39Z</time>
      </trkpt>
      <trkpt lat="46.00153" lon="1.41735">
        <ele>658.4</ele>
        <time>2021-11-21T09:45:43Z</time>
      </trkpt>
      <trkpt lat="46.00152" lon="1.41735">
        <ele>658.6</ele>
        <time>2021-11-21T09:45:44Z</time>
      </trkpt>
      <trkpt lat="46.00149" lon="1.41732">
        <ele>659.4</ele>
        <time>2021-11-21T09:45:47Z</time>
      </trkpt>
      <trkpt lat="46.00147" lon="1.41731">
        <ele>659.6</ele>
        <time>2021-11-21T09:45:49Z</time>
      </trkpt>
      <trkpt lat="46.0014" lon="1.4173">
        <ele>660.6</ele>
        <time>2021-11-21T09:45:55Z</time>
      </trkpt>
      <trkpt lat="46.00138" lon="1.41729">
        <ele>661.2</ele>
        <time>2021-11-21T09:45:57Z</time>
      </trkpt>
      <trkpt lat="46.00132" lon="1.41729">
        <ele>661.6</ele>
        <time>2021-11-21T09:46:01Z</time>
      </trkpt>
      <trkpt lat="46.00127" lon="1.4173">
        <ele>662.4</ele>
        <time>2021-11-21T09:46:05Z</time>
      </trkpt>
      <trkpt lat="46.00124" lon="1.41731">
        <ele>662.8</ele>
        <time>2021-11-21T09:46:07Z</time>
      </trkpt>
      <trkpt lat="46.00118" lon="1.41732">
        <ele>663.8</ele>
        <time>2021-11-21T09:46:12Z</time>
      </trkpt>
      <trkpt lat="46.00116" lon="1.41732">
        <ele>664</ele>
        <time>2021-11-21T09:46:13Z</time>
      </trkpt>
      <trkpt lat="46.0011" lon="1.41735">
        <ele>665</ele>
        <time>2021-11-21T09:46:17Z</time>
      </trkpt>
      <trkpt lat="46.00109" lon="1.41735">
        <ele>665.2</ele>
        <time>2021-11-21T09:46:18Z</time>
      </trkpt>
      <trkpt lat="46.00108" lon="1.41735">
        <ele>665.4</ele>
        <time>2021-11-21T09:46:19Z</time>
      </trkpt>
      <trkpt lat="46.00104" lon="1.4173">
        <ele>665.6</ele>
        <time>2021-11-21T09:46:22Z</time>
      </trkpt>
      <trkpt lat="46.00098" lon="1.41724">
        <ele>665</ele>
        <time>2021-11-21T09:46:25Z</time>
      </trkpt>
      <trkpt lat="46.00097" lon="1.41721">
        <ele>665</ele>
        <time>2021-11-21T09:46:26Z</time>
      </trkpt>
      <trkpt lat="46.00086" lon="1.41714">
        <ele>664.6</ele>
        <time>2021-11-21T09:46:30Z</time>
      </trkpt>
      <trkpt lat="46.00068" lon="1.41712">
        <ele>663.8</ele>
        <time>2021-11-21T09:46:35Z</time>
      </trkpt>
      <trkpt lat="46.0006" lon="1.41718">
        <ele>662.8</ele>
        <time>2021-11-21T09:46:39Z</time>
      </trkpt>
      <trkpt lat="46.0006" lon="1.4172">
        <ele>662.8</ele>
        <time>2021-11-21T09:46:40Z</time>
      </trkpt>
      <trkpt lat="46.00059" lon="1.41724">
        <ele>662.4</ele>
        <time>2021-11-21T09:46:42Z</time>
      </trkpt>
      <trkpt lat="46.00054" lon="1.41727">
        <ele>661.6</ele>
        <time>2021-11-21T09:46:45Z</time>
      </trkpt>
      <trkpt lat="46.00046" lon="1.41735">
        <ele>659.6</ele>
        <time>2021-11-21T09:46:49Z</time>
      </trkpt>
      <trkpt lat="46.00044" lon="1.41736">
        <ele>658.6</ele>
        <time>2021-11-21T09:46:50Z</time>
      </trkpt>
      <trkpt lat="46.00042" lon="1.41736">
        <ele>657.6</ele>
        <time>2021-11-21T09:46:51Z</time>
      </trkpt>
      <trkpt lat="46.00039" lon="1.41737">
        <ele>657.2</ele>
        <time>2021-11-21T09:46:52Z</time>
      </trkpt>
      <trkpt lat="46.00033" lon="1.41737">
        <ele>656</ele>
        <time>2021-11-21T09:46:54Z</time>
      </trkpt>
      <trkpt lat="46.00026" lon="1.41736">
        <ele>654.8</ele>
        <time>2021-11-21T09:46:56Z</time>
      </trkpt>
      <trkpt lat="46.00022" lon="1.41735">
        <ele>653.6</ele>
        <time>2021-11-21T09:46:58Z</time>
      </trkpt>
      <trkpt lat="46.00017" lon="1.41736">
        <ele>652.6</ele>
        <time>2021-11-21T09:47:00Z</time>
      </trkpt>
      <trkpt lat="46.00015" lon="1.41736">
        <ele>651.6</ele>
        <time>2021-11-21T09:47:01Z</time>
      </trkpt>
      <trkpt lat="46.00012" lon="1.41738">
        <ele>650.4</ele>
        <time>2021-11-21T09:47:03Z</time>
      </trkpt>
      <trkpt lat="46.0001" lon="1.41739">
        <ele>649.2</ele>
        <time>2021-11-21T09:47:06Z</time>
      </trkpt>
      <trkpt lat="46.00005" lon="1.41738">
        <ele>649</ele>
        <time>2021-11-21T09:47:15Z</time>
      </trkpt>
      <trkpt lat="46.00004" lon="1.41737">
        <ele>649.8</ele>
        <time>2021-11-21T09:47:27Z</time>
      </trkpt>
      <trkpt lat="46.00004" lon="1.41737">
        <ele>649.8</ele>
        <time>2021-11-21T09:47:28Z</time>
      </trkpt>
      <trkpt lat="46.00004" lon="1.41733">
        <ele>649.4</ele>
        <time>2021-11-21T09:47:32Z</time>
      </trkpt>
      <trkpt lat="46.00006" lon="1.41724">
        <ele>649.6</ele>
        <time>2021-11-21T09:47:36Z</time>
      </trkpt>
      <trkpt lat="46.00008" lon="1.41704">
        <ele>649.8</ele>
        <time>2021-11-21T09:47:42Z</time>
      </trkpt>
      <trkpt lat="46.00012" lon="1.4169">
        <ele>649.6</ele>
        <time>2021-11-21T09:47:45Z</time>
      </trkpt>
      <trkpt lat="46.00017" lon="1.41675">
        <ele>649.4</ele>
        <time>2021-11-21T09:47:48Z</time>
      </trkpt>
      <trkpt lat="46.0002" lon="1.4166">
        <ele>649.4</ele>
        <time>2021-11-21T09:47:51Z</time>
      </trkpt>
      <trkpt lat="46.00024" lon="1.4165">
        <ele>649.4</ele>
        <time>2021-11-21T09:47:53Z</time>
      </trkpt>
      <trkpt lat="46.00028" lon="1.4164">
        <ele>649.6</ele>
        <time>2021-11-21T09:47:55Z</time>
      </trkpt>
      <trkpt lat="46.00035" lon="1.41621">
        <ele>650.4</ele>
        <time>2021-11-21T09:47:59Z</time>
      </trkpt>
      <trkpt lat="46.00042" lon="1.41597">
        <ele>651.4</ele>
        <time>2021-11-21T09:48:06Z</time>
      </trkpt>
      <trkpt lat="46.00051" lon="1.41572">
        <ele>651.8</ele>
        <time>2021-11-21T09:48:13Z</time>
      </trkpt>
      <trkpt lat="46.00057" lon="1.41549">
        <ele>652.2</ele>
        <time>2021-11-21T09:48:19Z</time>
      </trkpt>
      <trkpt lat="46.00059" lon="1.41539">
        <ele>652.2</ele>
        <time>2021-11-21T09:48:21Z</time>
      </trkpt>
      <trkpt lat="46.00059" lon="1.41529">
        <ele>652</ele>
        <time>2021-11-21T09:48:23Z</time>
      </trkpt>
      <trkpt lat="46.00052" lon="1.41508">
        <ele>651.6</ele>
        <time>2021-11-21T09:48:28Z</time>
      </trkpt>
      <trkpt lat="46.00037" lon="1.4148">
        <ele>651.4</ele>
        <time>2021-11-21T09:48:34Z</time>
      </trkpt>
      <trkpt lat="46.0003" lon="1.4147">
        <ele>651</ele>
        <time>2021-11-21T09:48:36Z</time>
      </trkpt>
      <trkpt lat="46.00018" lon="1.41455">
        <ele>651</ele>
        <time>2021-11-21T09:48:39Z</time>
      </trkpt>
      <trkpt lat="46.00001" lon="1.41438">
        <ele>649.6</ele>
        <time>2021-11-21T09:48:42Z</time>
      </trkpt>
      <trkpt lat="45.99989" lon="1.41425">
        <ele>647.6</ele>
        <time>2021-11-21T09:48:44Z</time>
      </trkpt>
      <trkpt lat="45.99976" lon="1.4141">
        <ele>646.2</ele>
        <time>2021-11-21T09:48:46Z</time>
      </trkpt>
      <trkpt lat="45.99951" lon="1.41382">
        <ele>645</ele>
        <time>2021-11-21T09:48:50Z</time>
      </trkpt>
      <trkpt lat="45.99934" lon="1.41364">
        <ele>643.6</ele>
        <time>2021-11-21T09:48:53Z</time>
      </trkpt>
      <trkpt lat="45.9993" lon="1.41357">
        <ele>643.2</ele>
        <time>2021-11-21T09:48:54Z</time>
      </trkpt>
      <trkpt lat="45.99925" lon="1.41349">
        <ele>642.8</ele>
        <time>2021-11-21T09:48:55Z</time>
      </trkpt>
      <trkpt lat="45.99922" lon="1.41341">
        <ele>642.4</ele>
        <time>2021-11-21T09:48:56Z</time>
      </trkpt>
      <trkpt lat="45.99918" lon="1.41321">
        <ele>641.6</ele>
        <time>2021-11-21T09:48:59Z</time>
      </trkpt>
      <trkpt lat="45.9992" lon="1.41303">
        <ele>641.2</ele>
        <time>2021-11-21T09:49:02Z</time>
      </trkpt>
      <trkpt lat="45.99921" lon="1.41296">
        <ele>641.2</ele>
        <time>2021-11-21T09:49:03Z</time>
      </trkpt>
      <trkpt lat="45.99922" lon="1.41289">
        <ele>640.2</ele>
        <time>2021-11-21T09:49:04Z</time>
      </trkpt>
      <trkpt lat="45.99927" lon="1.41269">
        <ele>638.4</ele>
        <time>2021-11-21T09:49:07Z</time>
      </trkpt>
      <trkpt lat="45.99931" lon="1.41254">
        <ele>637.2</ele>
        <time>2021-11-21T09:49:09Z</time>
      </trkpt>
      <trkpt lat="45.99933" lon="1.41247">
        <ele>635.6</ele>
        <time>2021-11-21T09:49:10Z</time>
      </trkpt>
      <trkpt lat="45.99935" lon="1.41241">
        <ele>634.4</ele>
        <time>2021-11-21T09:49:11Z</time>
      </trkpt>
      <trkpt lat="45.99937" lon="1.41233">
        <ele>633.2</ele>
        <time>2021-11-21T09:49:12Z</time>
      </trkpt>
      <trkpt lat="45.99939" lon="1.41225">
        <ele>632.2</ele>
        <time>2021-11-21T09:49:13Z</time>
      </trkpt>
      <trkpt lat="45.99942" lon="1.41215">
        <ele>631.6</ele>
        <time>2021-11-21T09:49:14Z</time>
      </trkpt>
      <trkpt lat="45.99945" lon="1.41205">
        <ele>631</ele>
        <time>2021-11-21T09:49:15Z</time>
      </trkpt>
      <trkpt lat="45.99951" lon="1.41178">
        <ele>629.6</ele>
        <time>2021-11-21T09:49:17Z</time>
      </trkpt>
      <trkpt lat="45.99955" lon="1.41166">
        <ele>628.2</ele>
        <time>2021-11-21T09:49:18Z</time>
      </trkpt>
      <trkpt lat="45.99958" lon="1.41153">
        <ele>626.8</ele>
        <time>2021-11-21T09:49:19Z</time>
      </trkpt>
      <trkpt lat="45.99964" lon="1.41123">
        <ele>625.8</ele>
        <time>2021-11-21T09:49:21Z</time>
      </trkpt>
      <trkpt lat="45.9997" lon="1.41083">
        <ele>623.8</ele>
        <time>2021-11-21T09:49:24Z</time>
      </trkpt>
      <trkpt lat="45.99977" lon="1.41059">
        <ele>622.2</ele>
        <time>2021-11-21T09:49:26Z</time>
      </trkpt>
      <trkpt lat="45.99982" lon="1.41036">
        <ele>621.6</ele>
        <time>2021-11-21T09:49:28Z</time>
      </trkpt>
      <trkpt lat="45.99983" lon="1.41024">
        <ele>621</ele>
        <time>2021-11-21T09:49:29Z</time>
      </trkpt>
      <trkpt lat="45.99985" lon="1.40994">
        <ele>619.6</ele>
        <time>2021-11-21T09:49:32Z</time>
      </trkpt>
      <trkpt lat="45.99987" lon="1.40959">
        <ele>618.6</ele>
        <time>2021-11-21T09:49:36Z</time>
      </trkpt>
      <trkpt lat="45.99988" lon="1.40944">
        <ele>618.4</ele>
        <time>2021-11-21T09:49:38Z</time>
      </trkpt>
      <trkpt lat="45.99988" lon="1.40901">
        <ele>618</ele>
        <time>2021-11-21T09:49:44Z</time>
      </trkpt>
      <trkpt lat="45.99983" lon="1.40878">
        <ele>617.8</ele>
        <time>2021-11-21T09:49:47Z</time>
      </trkpt>
      <trkpt lat="45.99981" lon="1.40873">
        <ele>617.8</ele>
        <time>2021-11-21T09:49:48Z</time>
      </trkpt>
      <trkpt lat="45.99981" lon="1.40869">
        <ele>617.8</ele>
        <time>2021-11-21T09:49:49Z</time>
      </trkpt>
      <trkpt lat="45.99979" lon="1.4085">
        <ele>617.6</ele>
        <time>2021-11-21T09:49:53Z</time>
      </trkpt>
      <trkpt lat="45.99973" lon="1.40814">
        <ele>618.6</ele>
        <time>2021-11-21T09:50:00Z</time>
      </trkpt>
      <trkpt lat="45.99967" lon="1.40788">
        <ele>619.8</ele>
        <time>2021-11-21T09:50:05Z</time>
      </trkpt>
      <trkpt lat="45.99964" lon="1.40777">
        <ele>620</ele>
        <time>2021-11-21T09:50:07Z</time>
      </trkpt>
      <trkpt lat="45.99962" lon="1.40773">
        <ele>620</ele>
        <time>2021-11-21T09:50:08Z</time>
      </trkpt>
      <trkpt lat="45.99949" lon="1.40739">
        <ele>619.4</ele>
        <time>2021-11-21T09:50:14Z</time>
      </trkpt>
      <trkpt lat="45.99944" lon="1.40727">
        <ele>619</ele>
        <time>2021-11-21T09:50:16Z</time>
      </trkpt>
      <trkpt lat="45.99941" lon="1.40709">
        <ele>618.8</ele>
        <time>2021-11-21T09:50:19Z</time>
      </trkpt>
      <trkpt lat="45.9994" lon="1.40702">
        <ele>618.6</ele>
        <time>2021-11-21T09:50:20Z</time>
      </trkpt>
      <trkpt lat="45.99938" lon="1.40691">
        <ele>618.4</ele>
        <time>2021-11-21T09:50:22Z</time>
      </trkpt>
      <trkpt lat="45.99934" lon="1.4067">
        <ele>617.2</ele>
        <time>2021-11-21T09:50:25Z</time>
      </trkpt>
      <trkpt lat="45.9993" lon="1.40656">
        <ele>616.8</ele>
        <time>2021-11-21T09:50:27Z</time>
      </trkpt>
      <trkpt lat="45.99928" lon="1.40645">
        <ele>616.8</ele>
        <time>2021-11-21T09:50:29Z</time>
      </trkpt>
      <trkpt lat="45.99919" lon="1.40626">
        <ele>616.8</ele>
        <time>2021-11-21T09:50:32Z</time>
      </trkpt>
      <trkpt lat="45.99915" lon="1.40615">
        <ele>616</ele>
        <time>2021-11-21T09:50:34Z</time>
      </trkpt>
      <trkpt lat="45.9991" lon="1.40604">
        <ele>615.4</ele>
        <time>2021-11-21T09:50:36Z</time>
      </trkpt>
      <trkpt lat="45.99907" lon="1.40593">
        <ele>615</ele>
        <time>2021-11-21T09:50:38Z</time>
      </trkpt>
      <trkpt lat="45.99904" lon="1.40585">
        <ele>615</ele>
        <time>2021-11-21T09:50:40Z</time>
      </trkpt>
      <trkpt lat="45.99902" lon="1.40575">
        <ele>615</ele>
        <time>2021-11-21T09:50:43Z</time>
      </trkpt>
      <trkpt lat="45.99893" lon="1.4055">
        <ele>615.2</ele>
        <time>2021-11-21T09:50:50Z</time>
      </trkpt>
      <trkpt lat="45.99891" lon="1.4054">
        <ele>616</ele>
        <time>2021-11-21T09:50:54Z</time>
      </trkpt>
      <trkpt lat="45.99888" lon="1.40533">
        <ele>616.2</ele>
        <time>2021-11-21T09:50:56Z</time>
      </trkpt>
      <trkpt lat="45.99873" lon="1.40508">
        <ele>617.2</ele>
        <time>2021-11-21T09:51:03Z</time>
      </trkpt>
      <trkpt lat="45.99859" lon="1.40485">
        <ele>617.2</ele>
        <time>2021-11-21T09:51:09Z</time>
      </trkpt>
      <trkpt lat="45.99849" lon="1.40468">
        <ele>616.4</ele>
        <time>2021-11-21T09:51:13Z</time>
      </trkpt>
      <trkpt lat="45.99844" lon="1.40459">
        <ele>616.2</ele>
        <time>2021-11-21T09:51:15Z</time>
      </trkpt>
      <trkpt lat="45.99841" lon="1.40454">
        <ele>615.4</ele>
        <time>2021-11-21T09:51:16Z</time>
      </trkpt>
      <trkpt lat="45.99839" lon="1.4045">
        <ele>614.8</ele>
        <time>2021-11-21T09:51:17Z</time>
      </trkpt>
      <trkpt lat="45.99835" lon="1.40441">
        <ele>614.4</ele>
        <time>2021-11-21T09:51:19Z</time>
      </trkpt>
      <trkpt lat="45.99832" lon="1.40434">
        <ele>614</ele>
        <time>2021-11-21T09:51:21Z</time>
      </trkpt>
      <trkpt lat="45.99831" lon="1.40431">
        <ele>613.2</ele>
        <time>2021-11-21T09:51:22Z</time>
      </trkpt>
      <trkpt lat="45.99829" lon="1.40428">
        <ele>613</ele>
        <time>2021-11-21T09:51:23Z</time>
      </trkpt>
      <trkpt lat="45.99825" lon="1.40423">
        <ele>611.6</ele>
        <time>2021-11-21T09:51:25Z</time>
      </trkpt>
      <trkpt lat="45.99824" lon="1.4042">
        <ele>611.2</ele>
        <time>2021-11-21T09:51:26Z</time>
      </trkpt>
      <trkpt lat="45.99816" lon="1.40409">
        <ele>610.4</ele>
        <time>2021-11-21T09:51:30Z</time>
      </trkpt>
      <trkpt lat="45.99812" lon="1.40404">
        <ele>610.4</ele>
        <time>2021-11-21T09:51:31Z</time>
      </trkpt>
      <trkpt lat="45.99805" lon="1.40397">
        <ele>609</ele>
        <time>2021-11-21T09:51:33Z</time>
      </trkpt>
      <trkpt lat="45.99802" lon="1.40394">
        <ele>607.8</ele>
        <time>2021-11-21T09:51:34Z</time>
      </trkpt>
      <trkpt lat="45.99796" lon="1.40386">
        <ele>606.4</ele>
        <time>2021-11-21T09:51:36Z</time>
      </trkpt>
      <trkpt lat="45.99791" lon="1.40378">
        <ele>604.8</ele>
        <time>2021-11-21T09:51:38Z</time>
      </trkpt>
      <trkpt lat="45.99789" lon="1.40375">
        <ele>603.4</ele>
        <time>2021-11-21T09:51:39Z</time>
      </trkpt>
      <trkpt lat="45.99785" lon="1.40368">
        <ele>602.4</ele>
        <time>2021-11-21T09:51:41Z</time>
      </trkpt>
      <trkpt lat="45.99779" lon="1.4036">
        <ele>602</ele>
        <time>2021-11-21T09:51:43Z</time>
      </trkpt>
      <trkpt lat="45.99776" lon="1.40355">
        <ele>601.8</ele>
        <time>2021-11-21T09:51:44Z</time>
      </trkpt>
      <trkpt lat="45.99768" lon="1.40342">
        <ele>601.2</ele>
        <time>2021-11-21T09:51:47Z</time>
      </trkpt>
      <trkpt lat="45.99764" lon="1.40335">
        <ele>600.8</ele>
        <time>2021-11-21T09:51:49Z</time>
      </trkpt>
      <trkpt lat="45.99761" lon="1.4033">
        <ele>600.2</ele>
        <time>2021-11-21T09:51:50Z</time>
      </trkpt>
      <trkpt lat="45.99756" lon="1.40318">
        <ele>599.2</ele>
        <time>2021-11-21T09:51:52Z</time>
      </trkpt>
      <trkpt lat="45.99755" lon="1.40313">
        <ele>598.8</ele>
        <time>2021-11-21T09:51:53Z</time>
      </trkpt>
      <trkpt lat="45.99754" lon="1.40307">
        <ele>598.2</ele>
        <time>2021-11-21T09:51:54Z</time>
      </trkpt>
      <trkpt lat="45.99752" lon="1.40297">
        <ele>597.4</ele>
        <time>2021-11-21T09:51:56Z</time>
      </trkpt>
      <trkpt lat="45.99746" lon="1.40278">
        <ele>595.6</ele>
        <time>2021-11-21T09:51:59Z</time>
      </trkpt>
      <trkpt lat="45.99747" lon="1.40267">
        <ele>594.6</ele>
        <time>2021-11-21T09:52:01Z</time>
      </trkpt>
      <trkpt lat="45.99747" lon="1.40255">
        <ele>594.2</ele>
        <time>2021-11-21T09:52:03Z</time>
      </trkpt>
      <trkpt lat="45.99739" lon="1.40233">
        <ele>593.4</ele>
        <time>2021-11-21T09:52:07Z</time>
      </trkpt>
      <trkpt lat="45.99737" lon="1.40227">
        <ele>593.2</ele>
        <time>2021-11-21T09:52:08Z</time>
      </trkpt>
      <trkpt lat="45.9973" lon="1.40204">
        <ele>592.8</ele>
        <time>2021-11-21T09:52:11Z</time>
      </trkpt>
      <trkpt lat="45.99727" lon="1.40187">
        <ele>592.6</ele>
        <time>2021-11-21T09:52:13Z</time>
      </trkpt>
      <trkpt lat="45.99723" lon="1.40165">
        <ele>592.4</ele>
        <time>2021-11-21T09:52:16Z</time>
      </trkpt>
      <trkpt lat="45.99718" lon="1.40143">
        <ele>592</ele>
        <time>2021-11-21T09:52:19Z</time>
      </trkpt>
      <trkpt lat="45.99711" lon="1.40118">
        <ele>591.8</ele>
        <time>2021-11-21T09:52:24Z</time>
      </trkpt>
      <trkpt lat="45.99703" lon="1.40094">
        <ele>592.4</ele>
        <time>2021-11-21T09:52:31Z</time>
      </trkpt>
      <trkpt lat="45.99698" lon="1.40085">
        <ele>592.6</ele>
        <time>2021-11-21T09:52:34Z</time>
      </trkpt>
      <trkpt lat="45.99692" lon="1.40078">
        <ele>592.8</ele>
        <time>2021-11-21T09:52:37Z</time>
      </trkpt>
      <trkpt lat="45.99692" lon="1.40076">
        <ele>592.8</ele>
        <time>2021-11-21T09:52:38Z</time>
      </trkpt>
      <trkpt lat="45.99694" lon="1.40066">
        <ele>593</ele>
        <time>2021-11-21T09:52:43Z</time>
      </trkpt>
      <trkpt lat="45.99695" lon="1.40068">
        <ele>593</ele>
        <time>2021-11-21T09:52:52Z</time>
      </trkpt>
      <trkpt lat="45.99695" lon="1.40069">
        <ele>592.4</ele>
        <time>2021-11-21T09:52:57Z</time>
      </trkpt>
      <trkpt lat="45.99697" lon="1.40066">
        <ele>591.2</ele>
        <time>2021-11-21T09:58:36Z</time>
      </trkpt>
      <trkpt lat="45.99697" lon="1.40066">
        <ele>591</ele>
        <time>2021-11-21T09:58:40Z</time>
      </trkpt>
      <trkpt lat="45.99693" lon="1.40062">
        <ele>591</ele>
        <time>2021-11-21T09:58:53Z</time>
      </trkpt>
      <trkpt lat="45.99694" lon="1.40057">
        <ele>591</ele>
        <time>2021-11-21T09:58:55Z</time>
      </trkpt>
      <trkpt lat="45.99697" lon="1.40051">
        <ele>591.2</ele>
        <time>2021-11-21T09:58:57Z</time>
      </trkpt>
      <trkpt lat="45.99702" lon="1.40035">
        <ele>592.2</ele>
        <time>2021-11-21T09:59:03Z</time>
      </trkpt>
      <trkpt lat="45.99703" lon="1.40032">
        <ele>592.6</ele>
        <time>2021-11-21T09:59:04Z</time>
      </trkpt>
      <trkpt lat="45.99709" lon="1.40018">
        <ele>593.6</ele>
        <time>2021-11-21T09:59:09Z</time>
      </trkpt>
      <trkpt lat="45.99711" lon="1.40016">
        <ele>593.8</ele>
        <time>2021-11-21T09:59:10Z</time>
      </trkpt>
      <trkpt lat="45.99717" lon="1.4">
        <ele>594.8</ele>
        <time>2021-11-21T09:59:15Z</time>
      </trkpt>
      <trkpt lat="45.99719" lon="1.39992">
        <ele>595.2</ele>
        <time>2021-11-21T09:59:17Z</time>
      </trkpt>
      <trkpt lat="45.99724" lon="1.39976">
        <ele>595.8</ele>
        <time>2021-11-21T09:59:22Z</time>
      </trkpt>
      <trkpt lat="45.99727" lon="1.39964">
        <ele>596.4</ele>
        <time>2021-11-21T09:59:25Z</time>
      </trkpt>
      <trkpt lat="45.99734" lon="1.39934">
        <ele>596.2</ele>
        <time>2021-11-21T09:59:32Z</time>
      </trkpt>
      <trkpt lat="45.99742" lon="1.39902">
        <ele>595.6</ele>
        <time>2021-11-21T09:59:38Z</time>
      </trkpt>
      <trkpt lat="45.99748" lon="1.39878">
        <ele>595.2</ele>
        <time>2021-11-21T09:59:42Z</time>
      </trkpt>
      <trkpt lat="45.99751" lon="1.39871">
        <ele>594.8</ele>
        <time>2021-11-21T09:59:43Z</time>
      </trkpt>
      <trkpt lat="45.99753" lon="1.39864">
        <ele>594.4</ele>
        <time>2021-11-21T09:59:44Z</time>
      </trkpt>
      <trkpt lat="45.99755" lon="1.39856">
        <ele>594.2</ele>
        <time>2021-11-21T09:59:45Z</time>
      </trkpt>
      <trkpt lat="45.99758" lon="1.39842">
        <ele>594</ele>
        <time>2021-11-21T09:59:47Z</time>
      </trkpt>
      <trkpt lat="45.99758" lon="1.39837">
        <ele>593.6</ele>
        <time>2021-11-21T09:59:48Z</time>
      </trkpt>
      <trkpt lat="45.99758" lon="1.39832">
        <ele>593.4</ele>
        <time>2021-11-21T09:59:49Z</time>
      </trkpt>
      <trkpt lat="45.99752" lon="1.39823">
        <ele>593</ele>
        <time>2021-11-21T09:59:52Z</time>
      </trkpt>
      <trkpt lat="45.9975" lon="1.39819">
        <ele>593.2</ele>
        <time>2021-11-21T09:59:53Z</time>
      </trkpt>
      <trkpt lat="45.99745" lon="1.39803">
        <ele>594.2</ele>
        <time>2021-11-21T09:59:57Z</time>
      </trkpt>
      <trkpt lat="45.99742" lon="1.3979">
        <ele>594.6</ele>
        <time>2021-11-21T10:00:00Z</time>
      </trkpt>
      <trkpt lat="45.9974" lon="1.39784">
        <ele>594.8</ele>
        <time>2021-11-21T10:00:01Z</time>
      </trkpt>
      <trkpt lat="45.99736" lon="1.39773">
        <ele>594.6</ele>
        <time>2021-11-21T10:00:03Z</time>
      </trkpt>
      <trkpt lat="45.99734" lon="1.39766">
        <ele>594.6</ele>
        <time>2021-11-21T10:00:04Z</time>
      </trkpt>
      <trkpt lat="45.99732" lon="1.39745">
        <ele>593.6</ele>
        <time>2021-11-21T10:00:07Z</time>
      </trkpt>
      <trkpt lat="45.99731" lon="1.39738">
        <ele>593</ele>
        <time>2021-11-21T10:00:08Z</time>
      </trkpt>
      <trkpt lat="45.99732" lon="1.39731">
        <ele>592.6</ele>
        <time>2021-11-21T10:00:09Z</time>
      </trkpt>
      <trkpt lat="45.99734" lon="1.39718">
        <ele>591</ele>
        <time>2021-11-21T10:00:11Z</time>
      </trkpt>
      <trkpt lat="45.99734" lon="1.39711">
        <ele>590.4</ele>
        <time>2021-11-21T10:00:12Z</time>
      </trkpt>
      <trkpt lat="45.99734" lon="1.39706">
        <ele>590</ele>
        <time>2021-11-21T10:00:13Z</time>
      </trkpt>
      <trkpt lat="45.99734" lon="1.39699">
        <ele>589</ele>
        <time>2021-11-21T10:00:14Z</time>
      </trkpt>
      <trkpt lat="45.99733" lon="1.39687">
        <ele>587</ele>
        <time>2021-11-21T10:00:16Z</time>
      </trkpt>
      <trkpt lat="45.9973" lon="1.3968">
        <ele>585</ele>
        <time>2021-11-21T10:00:17Z</time>
      </trkpt>
      <trkpt lat="45.99727" lon="1.39676">
        <ele>585</ele>
        <time>2021-11-21T10:00:18Z</time>
      </trkpt>
      <trkpt lat="45.9972" lon="1.39665">
        <ele>583.8</ele>
        <time>2021-11-21T10:00:20Z</time>
      </trkpt>
      <trkpt lat="45.99717" lon="1.39659">
        <ele>583.6</ele>
        <time>2021-11-21T10:00:21Z</time>
      </trkpt>
      <trkpt lat="45.99714" lon="1.39652">
        <ele>582.2</ele>
        <time>2021-11-21T10:00:22Z</time>
      </trkpt>
      <trkpt lat="45.99712" lon="1.39645">
        <ele>581</ele>
        <time>2021-11-21T10:00:23Z</time>
      </trkpt>
      <trkpt lat="45.99711" lon="1.39632">
        <ele>579.4</ele>
        <time>2021-11-21T10:00:25Z</time>
      </trkpt>
      <trkpt lat="45.99711" lon="1.39626">
        <ele>579</ele>
        <time>2021-11-21T10:00:26Z</time>
      </trkpt>
      <trkpt lat="45.99711" lon="1.39618">
        <ele>578.2</ele>
        <time>2021-11-21T10:00:27Z</time>
      </trkpt>
      <trkpt lat="45.99711" lon="1.39603">
        <ele>576.8</ele>
        <time>2021-11-21T10:00:29Z</time>
      </trkpt>
      <trkpt lat="45.99712" lon="1.39592">
        <ele>574.8</ele>
        <time>2021-11-21T10:00:31Z</time>
      </trkpt>
      <trkpt lat="45.99713" lon="1.39578">
        <ele>573.4</ele>
        <time>2021-11-21T10:00:33Z</time>
      </trkpt>
      <trkpt lat="45.99717" lon="1.39564">
        <ele>572.6</ele>
        <time>2021-11-21T10:00:35Z</time>
      </trkpt>
      <trkpt lat="45.99719" lon="1.39557">
        <ele>572</ele>
        <time>2021-11-21T10:00:36Z</time>
      </trkpt>
      <trkpt lat="45.99721" lon="1.39549">
        <ele>571.6</ele>
        <time>2021-11-21T10:00:37Z</time>
      </trkpt>
      <trkpt lat="45.99724" lon="1.39542">
        <ele>571</ele>
        <time>2021-11-21T10:00:38Z</time>
      </trkpt>
      <trkpt lat="45.99729" lon="1.39523">
        <ele>569.2</ele>
        <time>2021-11-21T10:00:41Z</time>
      </trkpt>
      <trkpt lat="45.99736" lon="1.39514">
        <ele>567.8</ele>
        <time>2021-11-21T10:00:43Z</time>
      </trkpt>
      <trkpt lat="45.99743" lon="1.39512">
        <ele>567.4</ele>
        <time>2021-11-21T10:00:45Z</time>
      </trkpt>
      <trkpt lat="45.99754" lon="1.39511">
        <ele>566.6</ele>
        <time>2021-11-21T10:00:48Z</time>
      </trkpt>
      <trkpt lat="45.99759" lon="1.39511">
        <ele>565.4</ele>
        <time>2021-11-21T10:00:49Z</time>
      </trkpt>
      <trkpt lat="45.99768" lon="1.39512">
        <ele>564.4</ele>
        <time>2021-11-21T10:00:51Z</time>
      </trkpt>
      <trkpt lat="45.99772" lon="1.39513">
        <ele>564.2</ele>
        <time>2021-11-21T10:00:52Z</time>
      </trkpt>
      <trkpt lat="45.99779" lon="1.39516">
        <ele>562.6</ele>
        <time>2021-11-21T10:00:54Z</time>
      </trkpt>
      <trkpt lat="45.99787" lon="1.39518">
        <ele>561.8</ele>
        <time>2021-11-21T10:00:56Z</time>
      </trkpt>
      <trkpt lat="45.99792" lon="1.39519">
        <ele>560.6</ele>
        <time>2021-11-21T10:00:57Z</time>
      </trkpt>
      <trkpt lat="45.99802" lon="1.39518">
        <ele>559.4</ele>
        <time>2021-11-21T10:00:59Z</time>
      </trkpt>
      <trkpt lat="45.99809" lon="1.39515">
        <ele>558.2</ele>
        <time>2021-11-21T10:01:01Z</time>
      </trkpt>
      <trkpt lat="45.99812" lon="1.3951">
        <ele>556.6</ele>
        <time>2021-11-21T10:01:03Z</time>
      </trkpt>
      <trkpt lat="45.99816" lon="1.39511">
        <ele>556</ele>
        <time>2021-11-21T10:01:05Z</time>
      </trkpt>
      <trkpt lat="45.99818" lon="1.39511">
        <ele>555.8</ele>
        <time>2021-11-21T10:01:07Z</time>
      </trkpt>
      <trkpt lat="45.99818" lon="1.39511">
        <ele>555.6</ele>
        <time>2021-11-21T10:01:08Z</time>
      </trkpt>
      <trkpt lat="45.99819" lon="1.39509">
        <ele>555.6</ele>
        <time>2021-11-21T10:01:10Z</time>
      </trkpt>
      <trkpt lat="45.99819" lon="1.39505">
        <ele>555.6</ele>
        <time>2021-11-21T10:01:13Z</time>
      </trkpt>
      <trkpt lat="45.99815" lon="1.39499">
        <ele>555.6</ele>
        <time>2021-11-21T10:01:15Z</time>
      </trkpt>
      <trkpt lat="45.99793" lon="1.39469">
        <ele>556.4</ele>
        <time>2021-11-21T10:01:22Z</time>
      </trkpt>
      <trkpt lat="45.99777" lon="1.39446">
        <ele>556.4</ele>
        <time>2021-11-21T10:01:27Z</time>
      </trkpt>
      <trkpt lat="45.99774" lon="1.39442">
        <ele>556.6</ele>
        <time>2021-11-21T10:01:28Z</time>
      </trkpt>
      <trkpt lat="45.99766" lon="1.39436">
        <ele>556.8</ele>
        <time>2021-11-21T10:01:30Z</time>
      </trkpt>
      <trkpt lat="45.99759" lon="1.39432">
        <ele>557</ele>
        <time>2021-11-21T10:01:32Z</time>
      </trkpt>
      <trkpt lat="45.99739" lon="1.39432">
        <ele>557.8</ele>
        <time>2021-11-21T10:01:38Z</time>
      </trkpt>
      <trkpt lat="45.99731" lon="1.39431">
        <ele>558</ele>
        <time>2021-11-21T10:01:41Z</time>
      </trkpt>
      <trkpt lat="45.99728" lon="1.39429">
        <ele>558</ele>
        <time>2021-11-21T10:01:42Z</time>
      </trkpt>
      <trkpt lat="45.99724" lon="1.39426">
        <ele>558</ele>
        <time>2021-11-21T10:01:43Z</time>
      </trkpt>
      <trkpt lat="45.99717" lon="1.39422">
        <ele>556.8</ele>
        <time>2021-11-21T10:01:45Z</time>
      </trkpt>
      <trkpt lat="45.99713" lon="1.39422">
        <ele>555.8</ele>
        <time>2021-11-21T10:01:46Z</time>
      </trkpt>
      <trkpt lat="45.99705" lon="1.39423">
        <ele>554.8</ele>
        <time>2021-11-21T10:01:48Z</time>
      </trkpt>
      <trkpt lat="45.99701" lon="1.39423">
        <ele>554.6</ele>
        <time>2021-11-21T10:01:49Z</time>
      </trkpt>
      <trkpt lat="45.99697" lon="1.39423">
        <ele>553.2</ele>
        <time>2021-11-21T10:01:50Z</time>
      </trkpt>
      <trkpt lat="45.99692" lon="1.39422">
        <ele>552.4</ele>
        <time>2021-11-21T10:01:51Z</time>
      </trkpt>
      <trkpt lat="45.9969" lon="1.39419">
        <ele>551.8</ele>
        <time>2021-11-21T10:01:52Z</time>
      </trkpt>
      <trkpt lat="45.99684" lon="1.39411">
        <ele>550.8</ele>
        <time>2021-11-21T10:01:54Z</time>
      </trkpt>
      <trkpt lat="45.9968" lon="1.39406">
        <ele>550.4</ele>
        <time>2021-11-21T10:01:55Z</time>
      </trkpt>
      <trkpt lat="45.99672" lon="1.39396">
        <ele>549.6</ele>
        <time>2021-11-21T10:01:57Z</time>
      </trkpt>
      <trkpt lat="45.99661" lon="1.39377">
        <ele>548.2</ele>
        <time>2021-11-21T10:02:00Z</time>
      </trkpt>
      <trkpt lat="45.99654" lon="1.39348">
        <ele>547.4</ele>
        <time>2021-11-21T10:02:05Z</time>
      </trkpt>
      <trkpt lat="45.99653" lon="1.39344">
        <ele>547</ele>
        <time>2021-11-21T10:02:06Z</time>
      </trkpt>
      <trkpt lat="45.99653" lon="1.3934">
        <ele>547</ele>
        <time>2021-11-21T10:02:07Z</time>
      </trkpt>
      <trkpt lat="45.99648" lon="1.39324">
        <ele>547</ele>
        <time>2021-11-21T10:02:10Z</time>
      </trkpt>
      <trkpt lat="45.99642" lon="1.39302">
        <ele>547</ele>
        <time>2021-11-21T10:02:13Z</time>
      </trkpt>
      <trkpt lat="45.99638" lon="1.3929">
        <ele>546.8</ele>
        <time>2021-11-21T10:02:15Z</time>
      </trkpt>
      <trkpt lat="45.99635" lon="1.39284">
        <ele>546.6</ele>
        <time>2021-11-21T10:02:16Z</time>
      </trkpt>
      <trkpt lat="45.99624" lon="1.39269">
        <ele>545.8</ele>
        <time>2021-11-21T10:02:19Z</time>
      </trkpt>
      <trkpt lat="45.9962" lon="1.39264">
        <ele>545.6</ele>
        <time>2021-11-21T10:02:20Z</time>
      </trkpt>
      <trkpt lat="45.99612" lon="1.39258">
        <ele>544.6</ele>
        <time>2021-11-21T10:02:22Z</time>
      </trkpt>
      <trkpt lat="45.99608" lon="1.39255">
        <ele>544</ele>
        <time>2021-11-21T10:02:23Z</time>
      </trkpt>
      <trkpt lat="45.99604" lon="1.39253">
        <ele>543.4</ele>
        <time>2021-11-21T10:02:24Z</time>
      </trkpt>
      <trkpt lat="45.99599" lon="1.39251">
        <ele>543</ele>
        <time>2021-11-21T10:02:25Z</time>
      </trkpt>
      <trkpt lat="45.9959" lon="1.39247">
        <ele>542.2</ele>
        <time>2021-11-21T10:02:27Z</time>
      </trkpt>
      <trkpt lat="45.99585" lon="1.39246">
        <ele>541.2</ele>
        <time>2021-11-21T10:02:28Z</time>
      </trkpt>
      <trkpt lat="45.9958" lon="1.39246">
        <ele>540.6</ele>
        <time>2021-11-21T10:02:29Z</time>
      </trkpt>
      <trkpt lat="45.99575" lon="1.39246">
        <ele>540</ele>
        <time>2021-11-21T10:02:30Z</time>
      </trkpt>
      <trkpt lat="45.99563" lon="1.39247">
        <ele>539.2</ele>
        <time>2021-11-21T10:02:32Z</time>
      </trkpt>
      <trkpt lat="45.99552" lon="1.39248">
        <ele>537.8</ele>
        <time>2021-11-21T10:02:34Z</time>
      </trkpt>
      <trkpt lat="45.99546" lon="1.39248">
        <ele>537.4</ele>
        <time>2021-11-21T10:02:35Z</time>
      </trkpt>
      <trkpt lat="45.9954" lon="1.39245">
        <ele>537</ele>
        <time>2021-11-21T10:02:36Z</time>
      </trkpt>
      <trkpt lat="45.99536" lon="1.39241">
        <ele>536.8</ele>
        <time>2021-11-21T10:02:37Z</time>
      </trkpt>
      <trkpt lat="45.99533" lon="1.39236">
        <ele>536.4</ele>
        <time>2021-11-21T10:02:38Z</time>
      </trkpt>
      <trkpt lat="45.99531" lon="1.39232">
        <ele>536</ele>
        <time>2021-11-21T10:02:39Z</time>
      </trkpt>
      <trkpt lat="45.9953" lon="1.39228">
        <ele>536</ele>
        <time>2021-11-21T10:02:40Z</time>
      </trkpt>
      <trkpt lat="45.9953" lon="1.39221">
        <ele>536</ele>
        <time>2021-11-21T10:02:42Z</time>
      </trkpt>
      <trkpt lat="45.99532" lon="1.392">
        <ele>537.4</ele>
        <time>2021-11-21T10:02:47Z</time>
      </trkpt>
      <trkpt lat="45.99532" lon="1.39196">
        <ele>537.8</ele>
        <time>2021-11-21T10:02:48Z</time>
      </trkpt>
      <trkpt lat="45.99533" lon="1.39187">
        <ele>539.2</ele>
        <time>2021-11-21T10:02:51Z</time>
      </trkpt>
      <trkpt lat="45.99534" lon="1.39179">
        <ele>540.6</ele>
        <time>2021-11-21T10:02:54Z</time>
      </trkpt>
      <trkpt lat="45.99535" lon="1.39179">
        <ele>541</ele>
        <time>2021-11-21T10:02:55Z</time>
      </trkpt>
      <trkpt lat="45.99536" lon="1.39177">
        <ele>541</ele>
        <time>2021-11-21T10:02:56Z</time>
      </trkpt>
      <trkpt lat="45.99546" lon="1.39168">
        <ele>541.2</ele>
        <time>2021-11-21T10:03:00Z</time>
      </trkpt>
      <trkpt lat="45.99566" lon="1.39138">
        <ele>540.4</ele>
        <time>2021-11-21T10:03:06Z</time>
      </trkpt>
      <trkpt lat="45.99568" lon="1.39131">
        <ele>539.2</ele>
        <time>2021-11-21T10:03:07Z</time>
      </trkpt>
      <trkpt lat="45.99568" lon="1.39125">
        <ele>538.6</ele>
        <time>2021-11-21T10:03:08Z</time>
      </trkpt>
      <trkpt lat="45.99568" lon="1.39111">
        <ele>538</ele>
        <time>2021-11-21T10:03:10Z</time>
      </trkpt>
      <trkpt lat="45.99569" lon="1.39101">
        <ele>537</ele>
        <time>2021-11-21T10:03:12Z</time>
      </trkpt>
      <trkpt lat="45.9957" lon="1.39094">
        <ele>536.2</ele>
        <time>2021-11-21T10:03:14Z</time>
      </trkpt>
      <trkpt lat="45.99571" lon="1.39092">
        <ele>535.8</ele>
        <time>2021-11-21T10:03:15Z</time>
      </trkpt>
      <trkpt lat="45.99574" lon="1.39079">
        <ele>535.2</ele>
        <time>2021-11-21T10:03:19Z</time>
      </trkpt>
      <trkpt lat="45.99576" lon="1.39065">
        <ele>534.6</ele>
        <time>2021-11-21T10:03:21Z</time>
      </trkpt>
      <trkpt lat="45.99574" lon="1.39048">
        <ele>534</ele>
        <time>2021-11-21T10:03:23Z</time>
      </trkpt>
      <trkpt lat="45.99573" lon="1.39028">
        <ele>533.2</ele>
        <time>2021-11-21T10:03:25Z</time>
      </trkpt>
      <trkpt lat="45.99572" lon="1.39011">
        <ele>531.8</ele>
        <time>2021-11-21T10:03:27Z</time>
      </trkpt>
      <trkpt lat="45.99572" lon="1.38996">
        <ele>531.4</ele>
        <time>2021-11-21T10:03:29Z</time>
      </trkpt>
      <trkpt lat="45.99572" lon="1.38985">
        <ele>531.2</ele>
        <time>2021-11-21T10:03:31Z</time>
      </trkpt>
      <trkpt lat="45.99567" lon="1.38978">
        <ele>530.6</ele>
        <time>2021-11-21T10:03:33Z</time>
      </trkpt>
      <trkpt lat="45.99556" lon="1.38976">
        <ele>529.6</ele>
        <time>2021-11-21T10:03:36Z</time>
      </trkpt>
      <trkpt lat="45.99552" lon="1.38976">
        <ele>529.4</ele>
        <time>2021-11-21T10:03:37Z</time>
      </trkpt>
      <trkpt lat="45.99548" lon="1.38975">
        <ele>529.2</ele>
        <time>2021-11-21T10:03:38Z</time>
      </trkpt>
      <trkpt lat="45.99536" lon="1.38966">
        <ele>528.8</ele>
        <time>2021-11-21T10:03:42Z</time>
      </trkpt>
      <trkpt lat="45.99535" lon="1.38963">
        <ele>528.6</ele>
        <time>2021-11-21T10:03:43Z</time>
      </trkpt>
      <trkpt lat="45.99532" lon="1.38954">
        <ele>528.6</ele>
        <time>2021-11-21T10:03:45Z</time>
      </trkpt>
      <trkpt lat="45.99531" lon="1.38945">
        <ele>528.6</ele>
        <time>2021-11-21T10:03:47Z</time>
      </trkpt>
      <trkpt lat="45.99532" lon="1.38941">
        <ele>528.6</ele>
        <time>2021-11-21T10:03:48Z</time>
      </trkpt>
      <trkpt lat="45.99533" lon="1.38936">
        <ele>528.6</ele>
        <time>2021-11-21T10:03:49Z</time>
      </trkpt>
      <trkpt lat="45.99537" lon="1.38927">
        <ele>528.2</ele>
        <time>2021-11-21T10:03:51Z</time>
      </trkpt>
      <trkpt lat="45.99542" lon="1.38919">
        <ele>527.8</ele>
        <time>2021-11-21T10:03:53Z</time>
      </trkpt>
      <trkpt lat="45.99544" lon="1.38915">
        <ele>527.6</ele>
        <time>2021-11-21T10:03:54Z</time>
      </trkpt>
      <trkpt lat="45.99551" lon="1.38901">
        <ele>527.4</ele>
        <time>2021-11-21T10:03:57Z</time>
      </trkpt>
      <trkpt lat="45.99554" lon="1.38894">
        <ele>527.2</ele>
        <time>2021-11-21T10:03:58Z</time>
      </trkpt>
      <trkpt lat="45.99557" lon="1.38888">
        <ele>527</ele>
        <time>2021-11-21T10:03:59Z</time>
      </trkpt>
      <trkpt lat="45.99562" lon="1.38875">
        <ele>527</ele>
        <time>2021-11-21T10:04:01Z</time>
      </trkpt>
      <trkpt lat="45.99566" lon="1.3886">
        <ele>527.2</ele>
        <time>2021-11-21T10:04:03Z</time>
      </trkpt>
      <trkpt lat="45.99567" lon="1.38855">
        <ele>527.2</ele>
        <time>2021-11-21T10:04:04Z</time>
      </trkpt>
      <trkpt lat="45.99569" lon="1.38851">
        <ele>527.4</ele>
        <time>2021-11-21T10:04:05Z</time>
      </trkpt>
      <trkpt lat="45.99575" lon="1.38838">
        <ele>528</ele>
        <time>2021-11-21T10:04:08Z</time>
      </trkpt>
      <trkpt lat="45.99576" lon="1.38834">
        <ele>528.4</ele>
        <time>2021-11-21T10:04:09Z</time>
      </trkpt>
      <trkpt lat="45.99575" lon="1.38823">
        <ele>528.8</ele>
        <time>2021-11-21T10:04:12Z</time>
      </trkpt>
      <trkpt lat="45.99572" lon="1.3881">
        <ele>529.4</ele>
        <time>2021-11-21T10:04:15Z</time>
      </trkpt>
      <trkpt lat="45.99571" lon="1.388">
        <ele>530</ele>
        <time>2021-11-21T10:04:18Z</time>
      </trkpt>
      <trkpt lat="45.99565" lon="1.38784">
        <ele>530.6</ele>
        <time>2021-11-21T10:04:23Z</time>
      </trkpt>
      <trkpt lat="45.99564" lon="1.3878">
        <ele>530.8</ele>
        <time>2021-11-21T10:04:24Z</time>
      </trkpt>
      <trkpt lat="45.99556" lon="1.38761">
        <ele>531.6</ele>
        <time>2021-11-21T10:04:31Z</time>
      </trkpt>
      <trkpt lat="45.9955" lon="1.38743">
        <ele>533.2</ele>
        <time>2021-11-21T10:04:38Z</time>
      </trkpt>
      <trkpt lat="45.99545" lon="1.38735">
        <ele>534</ele>
        <time>2021-11-21T10:04:42Z</time>
      </trkpt>
      <trkpt lat="45.99542" lon="1.38732">
        <ele>534.2</ele>
        <time>2021-11-21T10:04:44Z</time>
      </trkpt>
      <trkpt lat="45.99538" lon="1.3873">
        <ele>534.4</ele>
        <time>2021-11-21T10:04:46Z</time>
      </trkpt>
      <trkpt lat="45.99526" lon="1.38725">
        <ele>535</ele>
        <time>2021-11-21T10:04:51Z</time>
      </trkpt>
      <trkpt lat="45.99514" lon="1.38725">
        <ele>535.2</ele>
        <time>2021-11-21T10:04:56Z</time>
      </trkpt>
      <trkpt lat="45.99511" lon="1.38725">
        <ele>535</ele>
        <time>2021-11-21T10:04:57Z</time>
      </trkpt>
      <trkpt lat="45.99491" lon="1.38726">
        <ele>534.6</ele>
        <time>2021-11-21T10:05:03Z</time>
      </trkpt>
      <trkpt lat="45.99479" lon="1.38731">
        <ele>534.2</ele>
        <time>2021-11-21T10:05:07Z</time>
      </trkpt>
      <trkpt lat="45.99468" lon="1.38735">
        <ele>533.8</ele>
        <time>2021-11-21T10:05:10Z</time>
      </trkpt>
      <trkpt lat="45.99461" lon="1.3874">
        <ele>533.2</ele>
        <time>2021-11-21T10:05:12Z</time>
      </trkpt>
      <trkpt lat="45.99446" lon="1.38757">
        <ele>531.8</ele>
        <time>2021-11-21T10:05:16Z</time>
      </trkpt>
      <trkpt lat="45.99425" lon="1.38776">
        <ele>530.6</ele>
        <time>2021-11-21T10:05:20Z</time>
      </trkpt>
      <trkpt lat="45.99416" lon="1.38787">
        <ele>529.4</ele>
        <time>2021-11-21T10:05:22Z</time>
      </trkpt>
      <trkpt lat="45.99401" lon="1.38804">
        <ele>527.6</ele>
        <time>2021-11-21T10:05:25Z</time>
      </trkpt>
      <trkpt lat="45.99398" lon="1.38809">
        <ele>527</ele>
        <time>2021-11-21T10:05:26Z</time>
      </trkpt>
      <trkpt lat="45.99395" lon="1.38814">
        <ele>526.4</ele>
        <time>2021-11-21T10:05:27Z</time>
      </trkpt>
      <trkpt lat="45.99389" lon="1.38822">
        <ele>525.4</ele>
        <time>2021-11-21T10:05:29Z</time>
      </trkpt>
      <trkpt lat="45.99382" lon="1.38828">
        <ele>524.2</ele>
        <time>2021-11-21T10:05:31Z</time>
      </trkpt>
      <trkpt lat="45.99379" lon="1.38831">
        <ele>523.8</ele>
        <time>2021-11-21T10:05:32Z</time>
      </trkpt>
      <trkpt lat="45.99374" lon="1.38837">
        <ele>522.8</ele>
        <time>2021-11-21T10:05:34Z</time>
      </trkpt>
      <trkpt lat="45.99368" lon="1.38849">
        <ele>521.8</ele>
        <time>2021-11-21T10:05:37Z</time>
      </trkpt>
      <trkpt lat="45.99366" lon="1.38853">
        <ele>520.6</ele>
        <time>2021-11-21T10:05:38Z</time>
      </trkpt>
      <trkpt lat="45.99361" lon="1.38861">
        <ele>519.4</ele>
        <time>2021-11-21T10:05:40Z</time>
      </trkpt>
      <trkpt lat="45.99355" lon="1.3887">
        <ele>518.8</ele>
        <time>2021-11-21T10:05:42Z</time>
      </trkpt>
      <trkpt lat="45.99351" lon="1.38873">
        <ele>518.6</ele>
        <time>2021-11-21T10:05:43Z</time>
      </trkpt>
      <trkpt lat="45.99344" lon="1.38878">
        <ele>518.4</ele>
        <time>2021-11-21T10:05:45Z</time>
      </trkpt>
      <trkpt lat="45.9934" lon="1.38881">
        <ele>518</ele>
        <time>2021-11-21T10:05:46Z</time>
      </trkpt>
      <trkpt lat="45.99333" lon="1.38885">
        <ele>516.8</ele>
        <time>2021-11-21T10:05:48Z</time>
      </trkpt>
      <trkpt lat="45.9933" lon="1.38889">
        <ele>516.6</ele>
        <time>2021-11-21T10:05:49Z</time>
      </trkpt>
      <trkpt lat="45.99317" lon="1.38898">
        <ele>515.6</ele>
        <time>2021-11-21T10:05:52Z</time>
      </trkpt>
      <trkpt lat="45.99309" lon="1.38904">
        <ele>514.6</ele>
        <time>2021-11-21T10:05:54Z</time>
      </trkpt>
      <trkpt lat="45.99303" lon="1.38908">
        <ele>514.4</ele>
        <time>2021-11-21T10:05:55Z</time>
      </trkpt>
      <trkpt lat="45.99281" lon="1.38927">
        <ele>513.4</ele>
        <time>2021-11-21T10:05:59Z</time>
      </trkpt>
      <trkpt lat="45.99276" lon="1.38932">
        <ele>513</ele>
        <time>2021-11-21T10:06:00Z</time>
      </trkpt>
      <trkpt lat="45.99263" lon="1.38942">
        <ele>512.2</ele>
        <time>2021-11-21T10:06:02Z</time>
      </trkpt>
      <trkpt lat="45.99246" lon="1.38951">
        <ele>511.2</ele>
        <time>2021-11-21T10:06:05Z</time>
      </trkpt>
      <trkpt lat="45.99239" lon="1.38953">
        <ele>511</ele>
        <time>2021-11-21T10:06:06Z</time>
      </trkpt>
      <trkpt lat="45.99233" lon="1.38956">
        <ele>510.2</ele>
        <time>2021-11-21T10:06:07Z</time>
      </trkpt>
      <trkpt lat="45.99228" lon="1.3896">
        <ele>509.8</ele>
        <time>2021-11-21T10:06:08Z</time>
      </trkpt>
      <trkpt lat="45.99218" lon="1.38968">
        <ele>508.8</ele>
        <time>2021-11-21T10:06:10Z</time>
      </trkpt>
      <trkpt lat="45.99209" lon="1.38974">
        <ele>507.6</ele>
        <time>2021-11-21T10:06:12Z</time>
      </trkpt>
      <trkpt lat="45.99198" lon="1.38979">
        <ele>506.6</ele>
        <time>2021-11-21T10:06:14Z</time>
      </trkpt>
      <trkpt lat="45.99191" lon="1.38981">
        <ele>505.8</ele>
        <time>2021-11-21T10:06:15Z</time>
      </trkpt>
      <trkpt lat="45.99185" lon="1.38984">
        <ele>505.2</ele>
        <time>2021-11-21T10:06:16Z</time>
      </trkpt>
      <trkpt lat="45.99159" lon="1.38998">
        <ele>504.2</ele>
        <time>2021-11-21T10:06:20Z</time>
      </trkpt>
      <trkpt lat="45.99154" lon="1.39002">
        <ele>503.6</ele>
        <time>2021-11-21T10:06:21Z</time>
      </trkpt>
      <trkpt lat="45.99148" lon="1.39009">
        <ele>503.2</ele>
        <time>2021-11-21T10:06:22Z</time>
      </trkpt>
      <trkpt lat="45.99143" lon="1.39013">
        <ele>502.6</ele>
        <time>2021-11-21T10:06:23Z</time>
      </trkpt>
      <trkpt lat="45.99138" lon="1.39018">
        <ele>501.6</ele>
        <time>2021-11-21T10:06:24Z</time>
      </trkpt>
      <trkpt lat="45.99128" lon="1.39021">
        <ele>500.4</ele>
        <time>2021-11-21T10:06:26Z</time>
      </trkpt>
      <trkpt lat="45.99118" lon="1.39026">
        <ele>498.8</ele>
        <time>2021-11-21T10:06:29Z</time>
      </trkpt>
      <trkpt lat="45.99112" lon="1.39033">
        <ele>497.4</ele>
        <time>2021-11-21T10:06:31Z</time>
      </trkpt>
      <trkpt lat="45.99107" lon="1.39041">
        <ele>496.6</ele>
        <time>2021-11-21T10:06:33Z</time>
      </trkpt>
      <trkpt lat="45.99104" lon="1.39046">
        <ele>495.8</ele>
        <time>2021-11-21T10:06:34Z</time>
      </trkpt>
      <trkpt lat="45.991" lon="1.39055">
        <ele>495.2</ele>
        <time>2021-11-21T10:06:36Z</time>
      </trkpt>
      <trkpt lat="45.99094" lon="1.39067">
        <ele>494.6</ele>
        <time>2021-11-21T10:06:38Z</time>
      </trkpt>
      <trkpt lat="45.99083" lon="1.39089">
        <ele>494.4</ele>
        <time>2021-11-21T10:06:41Z</time>
      </trkpt>
      <trkpt lat="45.9908" lon="1.39096">
        <ele>493.4</ele>
        <time>2021-11-21T10:06:42Z</time>
      </trkpt>
      <trkpt lat="45.99074" lon="1.39111">
        <ele>492</ele>
        <time>2021-11-21T10:06:44Z</time>
      </trkpt>
      <trkpt lat="45.99073" lon="1.39116">
        <ele>491.6</ele>
        <time>2021-11-21T10:06:45Z</time>
      </trkpt>
      <trkpt lat="45.99072" lon="1.39121">
        <ele>491</ele>
        <time>2021-11-21T10:06:46Z</time>
      </trkpt>
      <trkpt lat="45.9907" lon="1.39125">
        <ele>489.8</ele>
        <time>2021-11-21T10:06:47Z</time>
      </trkpt>
      <trkpt lat="45.99068" lon="1.3913">
        <ele>488.6</ele>
        <time>2021-11-21T10:06:48Z</time>
      </trkpt>
      <trkpt lat="45.99063" lon="1.39141">
        <ele>487.6</ele>
        <time>2021-11-21T10:06:50Z</time>
      </trkpt>
      <trkpt lat="45.99054" lon="1.39161">
        <ele>486.4</ele>
        <time>2021-11-21T10:06:53Z</time>
      </trkpt>
      <trkpt lat="45.99044" lon="1.39183">
        <ele>485.2</ele>
        <time>2021-11-21T10:06:56Z</time>
      </trkpt>
      <trkpt lat="45.99035" lon="1.39208">
        <ele>484.2</ele>
        <time>2021-11-21T10:06:59Z</time>
      </trkpt>
      <trkpt lat="45.99031" lon="1.39216">
        <ele>483.4</ele>
        <time>2021-11-21T10:07:00Z</time>
      </trkpt>
      <trkpt lat="45.99028" lon="1.39223">
        <ele>482</ele>
        <time>2021-11-21T10:07:01Z</time>
      </trkpt>
      <trkpt lat="45.99025" lon="1.39229">
        <ele>481</ele>
        <time>2021-11-21T10:07:02Z</time>
      </trkpt>
      <trkpt lat="45.9902" lon="1.3924">
        <ele>479.2</ele>
        <time>2021-11-21T10:07:04Z</time>
      </trkpt>
      <trkpt lat="45.99018" lon="1.39244">
        <ele>478.8</ele>
        <time>2021-11-21T10:07:05Z</time>
      </trkpt>
      <trkpt lat="45.99014" lon="1.39252">
        <ele>477.8</ele>
        <time>2021-11-21T10:07:07Z</time>
      </trkpt>
      <trkpt lat="45.99006" lon="1.39263">
        <ele>476.8</ele>
        <time>2021-11-21T10:07:10Z</time>
      </trkpt>
      <trkpt lat="45.98992" lon="1.39285">
        <ele>475.4</ele>
        <time>2021-11-21T10:07:14Z</time>
      </trkpt>
      <trkpt lat="45.98985" lon="1.39298">
        <ele>475</ele>
        <time>2021-11-21T10:07:16Z</time>
      </trkpt>
      <trkpt lat="45.98973" lon="1.3932">
        <ele>474.4</ele>
        <time>2021-11-21T10:07:19Z</time>
      </trkpt>
      <trkpt lat="45.98964" lon="1.39337">
        <ele>473.4</ele>
        <time>2021-11-21T10:07:21Z</time>
      </trkpt>
      <trkpt lat="45.98961" lon="1.39345">
        <ele>473</ele>
        <time>2021-11-21T10:07:22Z</time>
      </trkpt>
      <trkpt lat="45.98953" lon="1.39362">
        <ele>472</ele>
        <time>2021-11-21T10:07:24Z</time>
      </trkpt>
      <trkpt lat="45.98947" lon="1.39377">
        <ele>470.4</ele>
        <time>2021-11-21T10:07:26Z</time>
      </trkpt>
      <trkpt lat="45.98944" lon="1.39385">
        <ele>469.8</ele>
        <time>2021-11-21T10:07:27Z</time>
      </trkpt>
      <trkpt lat="45.98942" lon="1.39393">
        <ele>468.8</ele>
        <time>2021-11-21T10:07:28Z</time>
      </trkpt>
      <trkpt lat="45.98941" lon="1.39399">
        <ele>467.8</ele>
        <time>2021-11-21T10:07:29Z</time>
      </trkpt>
      <trkpt lat="45.98939" lon="1.39406">
        <ele>466.8</ele>
        <time>2021-11-21T10:07:30Z</time>
      </trkpt>
      <trkpt lat="45.98936" lon="1.3941">
        <ele>466.2</ele>
        <time>2021-11-21T10:07:31Z</time>
      </trkpt>
      <trkpt lat="45.98933" lon="1.39414">
        <ele>466</ele>
        <time>2021-11-21T10:07:32Z</time>
      </trkpt>
      <trkpt lat="45.98925" lon="1.3942">
        <ele>465.4</ele>
        <time>2021-11-21T10:07:35Z</time>
      </trkpt>
      <trkpt lat="45.98922" lon="1.3942">
        <ele>465.2</ele>
        <time>2021-11-21T10:07:36Z</time>
      </trkpt>
      <trkpt lat="45.98909" lon="1.39423">
        <ele>464.2</ele>
        <time>2021-11-21T10:07:39Z</time>
      </trkpt>
      <trkpt lat="45.98902" lon="1.39426">
        <ele>463.6</ele>
        <time>2021-11-21T10:07:40Z</time>
      </trkpt>
      <trkpt lat="45.98891" lon="1.39432">
        <ele>462</ele>
        <time>2021-11-21T10:07:42Z</time>
      </trkpt>
      <trkpt lat="45.98886" lon="1.39433">
        <ele>460.4</ele>
        <time>2021-11-21T10:07:43Z</time>
      </trkpt>
      <trkpt lat="45.9888" lon="1.39427">
        <ele>458</ele>
        <time>2021-11-21T10:07:45Z</time>
      </trkpt>
      <trkpt lat="45.98878" lon="1.39423">
        <ele>457</ele>
        <time>2021-11-21T10:07:46Z</time>
      </trkpt>
      <trkpt lat="45.98877" lon="1.3942">
        <ele>456</ele>
        <time>2021-11-21T10:07:47Z</time>
      </trkpt>
      <trkpt lat="45.98873" lon="1.39411">
        <ele>455</ele>
        <time>2021-11-21T10:07:49Z</time>
      </trkpt>
      <trkpt lat="45.98869" lon="1.39391">
        <ele>453.4</ele>
        <time>2021-11-21T10:07:52Z</time>
      </trkpt>
      <trkpt lat="45.98867" lon="1.39383">
        <ele>453</ele>
        <time>2021-11-21T10:07:53Z</time>
      </trkpt>
      <trkpt lat="45.98865" lon="1.39364">
        <ele>452.2</ele>
        <time>2021-11-21T10:07:55Z</time>
      </trkpt>
      <trkpt lat="45.98864" lon="1.39355">
        <ele>451.6</ele>
        <time>2021-11-21T10:07:56Z</time>
      </trkpt>
      <trkpt lat="45.98863" lon="1.39346">
        <ele>450.4</ele>
        <time>2021-11-21T10:07:57Z</time>
      </trkpt>
      <trkpt lat="45.9886" lon="1.39337">
        <ele>449.4</ele>
        <time>2021-11-21T10:07:58Z</time>
      </trkpt>
      <trkpt lat="45.98857" lon="1.39328">
        <ele>448.4</ele>
        <time>2021-11-21T10:07:59Z</time>
      </trkpt>
      <trkpt lat="45.98855" lon="1.3932">
        <ele>447.2</ele>
        <time>2021-11-21T10:08:00Z</time>
      </trkpt>
      <trkpt lat="45.98853" lon="1.39311">
        <ele>446.4</ele>
        <time>2021-11-21T10:08:01Z</time>
      </trkpt>
      <trkpt lat="45.98852" lon="1.39302">
        <ele>444.8</ele>
        <time>2021-11-21T10:08:02Z</time>
      </trkpt>
      <trkpt lat="45.98849" lon="1.39286">
        <ele>443.2</ele>
        <time>2021-11-21T10:08:04Z</time>
      </trkpt>
      <trkpt lat="45.98846" lon="1.39281">
        <ele>442.4</ele>
        <time>2021-11-21T10:08:05Z</time>
      </trkpt>
      <trkpt lat="45.98843" lon="1.39278">
        <ele>440.4</ele>
        <time>2021-11-21T10:08:06Z</time>
      </trkpt>
      <trkpt lat="45.98839" lon="1.39276">
        <ele>438.6</ele>
        <time>2021-11-21T10:08:07Z</time>
      </trkpt>
      <trkpt lat="45.98836" lon="1.39277">
        <ele>437.2</ele>
        <time>2021-11-21T10:08:08Z</time>
      </trkpt>
      <trkpt lat="45.98828" lon="1.39277">
        <ele>435.6</ele>
        <time>2021-11-21T10:08:10Z</time>
      </trkpt>
      <trkpt lat="45.98821" lon="1.39269">
        <ele>434.6</ele>
        <time>2021-11-21T10:08:12Z</time>
      </trkpt>
      <trkpt lat="45.98819" lon="1.39254">
        <ele>433.8</ele>
        <time>2021-11-21T10:08:14Z</time>
      </trkpt>
      <trkpt lat="45.9882" lon="1.39246">
        <ele>433.4</ele>
        <time>2021-11-21T10:08:15Z</time>
      </trkpt>
      <trkpt lat="45.98824" lon="1.39219">
        <ele>432.4</ele>
        <time>2021-11-21T10:08:18Z</time>
      </trkpt>
      <trkpt lat="45.98824" lon="1.39211">
        <ele>432</ele>
        <time>2021-11-21T10:08:19Z</time>
      </trkpt>
      <trkpt lat="45.98823" lon="1.39203">
        <ele>431</ele>
        <time>2021-11-21T10:08:20Z</time>
      </trkpt>
      <trkpt lat="45.98819" lon="1.39197">
        <ele>430.2</ele>
        <time>2021-11-21T10:08:21Z</time>
      </trkpt>
      <trkpt lat="45.98814" lon="1.39193">
        <ele>430</ele>
        <time>2021-11-21T10:08:22Z</time>
      </trkpt>
      <trkpt lat="45.98807" lon="1.3919">
        <ele>428.8</ele>
        <time>2021-11-21T10:08:23Z</time>
      </trkpt>
      <trkpt lat="45.98799" lon="1.39186">
        <ele>427.8</ele>
        <time>2021-11-21T10:08:24Z</time>
      </trkpt>
      <trkpt lat="45.98791" lon="1.39181">
        <ele>426.4</ele>
        <time>2021-11-21T10:08:25Z</time>
      </trkpt>
      <trkpt lat="45.98775" lon="1.39172">
        <ele>425.2</ele>
        <time>2021-11-21T10:08:27Z</time>
      </trkpt>
      <trkpt lat="45.98757" lon="1.39168">
        <ele>424.8</ele>
        <time>2021-11-21T10:08:29Z</time>
      </trkpt>
      <trkpt lat="45.98748" lon="1.39167">
        <ele>423.4</ele>
        <time>2021-11-21T10:08:30Z</time>
      </trkpt>
      <trkpt lat="45.98739" lon="1.39167">
        <ele>422</ele>
        <time>2021-11-21T10:08:31Z</time>
      </trkpt>
      <trkpt lat="45.98722" lon="1.39169">
        <ele>420.4</ele>
        <time>2021-11-21T10:08:33Z</time>
      </trkpt>
      <trkpt lat="45.9869" lon="1.39172">
        <ele>419.2</ele>
        <time>2021-11-21T10:08:37Z</time>
      </trkpt>
      <trkpt lat="45.98669" lon="1.39177">
        <ele>418.2</ele>
        <time>2021-11-21T10:08:40Z</time>
      </trkpt>
      <trkpt lat="45.98657" lon="1.39181">
        <ele>417.6</ele>
        <time>2021-11-21T10:08:42Z</time>
      </trkpt>
      <trkpt lat="45.98651" lon="1.39184">
        <ele>417</ele>
        <time>2021-11-21T10:08:43Z</time>
      </trkpt>
      <trkpt lat="45.98625" lon="1.39207">
        <ele>416</ele>
        <time>2021-11-21T10:08:48Z</time>
      </trkpt>
      <trkpt lat="45.98619" lon="1.39213">
        <ele>416</ele>
        <time>2021-11-21T10:08:49Z</time>
      </trkpt>
      <trkpt lat="45.98595" lon="1.39245">
        <ele>415.4</ele>
        <time>2021-11-21T10:08:54Z</time>
      </trkpt>
      <trkpt lat="45.98585" lon="1.39256">
        <ele>414.6</ele>
        <time>2021-11-21T10:08:56Z</time>
      </trkpt>
      <trkpt lat="45.98563" lon="1.39281">
        <ele>413.8</ele>
        <time>2021-11-21T10:09:00Z</time>
      </trkpt>
      <trkpt lat="45.98557" lon="1.39288">
        <ele>413.6</ele>
        <time>2021-11-21T10:09:01Z</time>
      </trkpt>
      <trkpt lat="45.98539" lon="1.39311">
        <ele>412.2</ele>
        <time>2021-11-21T10:09:04Z</time>
      </trkpt>
      <trkpt lat="45.98529" lon="1.39325">
        <ele>411.4</ele>
        <time>2021-11-21T10:09:06Z</time>
      </trkpt>
      <trkpt lat="45.98524" lon="1.39333">
        <ele>410.4</ele>
        <time>2021-11-21T10:09:07Z</time>
      </trkpt>
      <trkpt lat="45.98516" lon="1.39348">
        <ele>409.2</ele>
        <time>2021-11-21T10:09:09Z</time>
      </trkpt>
      <trkpt lat="45.98511" lon="1.39362">
        <ele>408.4</ele>
        <time>2021-11-21T10:09:11Z</time>
      </trkpt>
      <trkpt lat="45.98509" lon="1.39369">
        <ele>407.2</ele>
        <time>2021-11-21T10:09:12Z</time>
      </trkpt>
      <trkpt lat="45.98508" lon="1.39377">
        <ele>406</ele>
        <time>2021-11-21T10:09:13Z</time>
      </trkpt>
      <trkpt lat="45.98509" lon="1.39392">
        <ele>404.2</ele>
        <time>2021-11-21T10:09:15Z</time>
      </trkpt>
      <trkpt lat="45.9851" lon="1.39406">
        <ele>402.6</ele>
        <time>2021-11-21T10:09:17Z</time>
      </trkpt>
      <trkpt lat="45.98509" lon="1.39412">
        <ele>401.4</ele>
        <time>2021-11-21T10:09:18Z</time>
      </trkpt>
      <trkpt lat="45.98508" lon="1.39418">
        <ele>400.4</ele>
        <time>2021-11-21T10:09:19Z</time>
      </trkpt>
      <trkpt lat="45.98501" lon="1.39423">
        <ele>398.4</ele>
        <time>2021-11-21T10:09:21Z</time>
      </trkpt>
      <trkpt lat="45.98496" lon="1.39426">
        <ele>397.8</ele>
        <time>2021-11-21T10:09:22Z</time>
      </trkpt>
      <trkpt lat="45.98494" lon="1.39425">
        <ele>397.2</ele>
        <time>2021-11-21T10:09:23Z</time>
      </trkpt>
      <trkpt lat="45.98492" lon="1.39423">
        <ele>396.8</ele>
        <time>2021-11-21T10:09:24Z</time>
      </trkpt>
      <trkpt lat="45.9849" lon="1.3942">
        <ele>396.2</ele>
        <time>2021-11-21T10:09:25Z</time>
      </trkpt>
      <trkpt lat="45.98488" lon="1.39417">
        <ele>395.4</ele>
        <time>2021-11-21T10:09:26Z</time>
      </trkpt>
      <trkpt lat="45.98481" lon="1.39413">
        <ele>394.4</ele>
        <time>2021-11-21T10:09:28Z</time>
      </trkpt>
      <trkpt lat="45.98476" lon="1.39412">
        <ele>393.4</ele>
        <time>2021-11-21T10:09:29Z</time>
      </trkpt>
      <trkpt lat="45.98476" lon="1.39412">
        <ele>392.4</ele>
        <time>2021-11-21T10:09:30Z</time>
      </trkpt>
      <trkpt lat="45.98458" lon="1.39414">
        <ele>392.2</ele>
        <time>2021-11-21T10:09:32Z</time>
      </trkpt>
      <trkpt lat="45.98452" lon="1.39413">
        <ele>391.4</ele>
        <time>2021-11-21T10:09:33Z</time>
      </trkpt>
      <trkpt lat="45.98447" lon="1.39412">
        <ele>391</ele>
        <time>2021-11-21T10:09:34Z</time>
      </trkpt>
      <trkpt lat="45.98437" lon="1.39413">
        <ele>390</ele>
        <time>2021-11-21T10:09:36Z</time>
      </trkpt>
      <trkpt lat="45.98427" lon="1.39412">
        <ele>389.6</ele>
        <time>2021-11-21T10:09:38Z</time>
      </trkpt>
      <trkpt lat="45.98421" lon="1.39412">
        <ele>389.4</ele>
        <time>2021-11-21T10:09:39Z</time>
      </trkpt>
      <trkpt lat="45.9839" lon="1.39407">
        <ele>389.2</ele>
        <time>2021-11-21T10:09:45Z</time>
      </trkpt>
      <trkpt lat="45.98379" lon="1.39407">
        <ele>388.8</ele>
        <time>2021-11-21T10:09:47Z</time>
      </trkpt>
      <trkpt lat="45.98352" lon="1.39411">
        <ele>388.8</ele>
        <time>2021-11-21T10:09:52Z</time>
      </trkpt>
      <trkpt lat="45.98322" lon="1.39417">
        <ele>388.8</ele>
        <time>2021-11-21T10:09:58Z</time>
      </trkpt>
      <trkpt lat="45.98318" lon="1.39418">
        <ele>388.8</ele>
        <time>2021-11-21T10:09:59Z</time>
      </trkpt>
      <trkpt lat="45.98313" lon="1.39419">
        <ele>389</ele>
        <time>2021-11-21T10:10:00Z</time>
      </trkpt>
      <trkpt lat="45.98302" lon="1.39421">
        <ele>389.2</ele>
        <time>2021-11-21T10:10:03Z</time>
      </trkpt>
      <trkpt lat="45.98298" lon="1.39422">
        <ele>389.6</ele>
        <time>2021-11-21T10:10:04Z</time>
      </trkpt>
      <trkpt lat="45.98292" lon="1.39423">
        <ele>390</ele>
        <time>2021-11-21T10:10:06Z</time>
      </trkpt>
      <trkpt lat="45.98288" lon="1.39423">
        <ele>390</ele>
        <time>2021-11-21T10:10:07Z</time>
      </trkpt>
      <trkpt lat="45.98281" lon="1.39424">
        <ele>390</ele>
        <time>2021-11-21T10:10:09Z</time>
      </trkpt>
      <trkpt lat="45.98275" lon="1.39425">
        <ele>390.2</ele>
        <time>2021-11-21T10:10:11Z</time>
      </trkpt>
      <trkpt lat="45.9825" lon="1.3943">
        <ele>390.4</ele>
        <time>2021-11-21T10:10:17Z</time>
      </trkpt>
      <trkpt lat="45.98246" lon="1.39431">
        <ele>390.4</ele>
        <time>2021-11-21T10:10:18Z</time>
      </trkpt>
      <trkpt lat="45.98229" lon="1.39438">
        <ele>390.4</ele>
        <time>2021-11-21T10:10:22Z</time>
      </trkpt>
      <trkpt lat="45.98225" lon="1.39441">
        <ele>390.6</ele>
        <time>2021-11-21T10:10:23Z</time>
      </trkpt>
      <trkpt lat="45.98218" lon="1.39446">
        <ele>391</ele>
        <time>2021-11-21T10:10:25Z</time>
      </trkpt>
      <trkpt lat="45.98203" lon="1.39454">
        <ele>391.6</ele>
        <time>2021-11-21T10:10:29Z</time>
      </trkpt>
      <trkpt lat="45.98182" lon="1.39459">
        <ele>391.6</ele>
        <time>2021-11-21T10:10:34Z</time>
      </trkpt>
      <trkpt lat="45.98153" lon="1.39458">
        <ele>391</ele>
        <time>2021-11-21T10:10:41Z</time>
      </trkpt>
      <trkpt lat="45.98123" lon="1.39453">
        <ele>390.8</ele>
        <time>2021-11-21T10:10:47Z</time>
      </trkpt>
      <trkpt lat="45.98107" lon="1.39458">
        <ele>391.2</ele>
        <time>2021-11-21T10:10:50Z</time>
      </trkpt>
      <trkpt lat="45.98102" lon="1.39461">
        <ele>391.2</ele>
        <time>2021-11-21T10:10:51Z</time>
      </trkpt>
      <trkpt lat="45.98097" lon="1.39466">
        <ele>391.2</ele>
        <time>2021-11-21T10:10:52Z</time>
      </trkpt>
      <trkpt lat="45.98085" lon="1.39484">
        <ele>391</ele>
        <time>2021-11-21T10:10:55Z</time>
      </trkpt>
      <trkpt lat="45.9808" lon="1.39491">
        <ele>391</ele>
        <time>2021-11-21T10:10:56Z</time>
      </trkpt>
      <trkpt lat="45.9807" lon="1.39505">
        <ele>389.8</ele>
        <time>2021-11-21T10:10:58Z</time>
      </trkpt>
      <trkpt lat="45.98064" lon="1.39512">
        <ele>389</ele>
        <time>2021-11-21T10:10:59Z</time>
      </trkpt>
      <trkpt lat="45.98058" lon="1.39518">
        <ele>388.4</ele>
        <time>2021-11-21T10:11:00Z</time>
      </trkpt>
      <trkpt lat="45.98052" lon="1.39524">
        <ele>387</ele>
        <time>2021-11-21T10:11:01Z</time>
      </trkpt>
      <trkpt lat="45.98039" lon="1.39533">
        <ele>385.6</ele>
        <time>2021-11-21T10:11:03Z</time>
      </trkpt>
      <trkpt lat="45.98032" lon="1.39535">
        <ele>385.2</ele>
        <time>2021-11-21T10:11:04Z</time>
      </trkpt>
      <trkpt lat="45.98025" lon="1.39537">
        <ele>385</ele>
        <time>2021-11-21T10:11:05Z</time>
      </trkpt>
      <trkpt lat="45.98018" lon="1.39538">
        <ele>384.6</ele>
        <time>2021-11-21T10:11:06Z</time>
      </trkpt>
      <trkpt lat="45.98004" lon="1.39539">
        <ele>383.6</ele>
        <time>2021-11-21T10:11:08Z</time>
      </trkpt>
      <trkpt lat="45.97997" lon="1.3954">
        <ele>383.4</ele>
        <time>2021-11-21T10:11:09Z</time>
      </trkpt>
      <trkpt lat="45.97954" lon="1.3954">
        <ele>382.6</ele>
        <time>2021-11-21T10:11:15Z</time>
      </trkpt>
      <trkpt lat="45.97948" lon="1.3954">
        <ele>382.6</ele>
        <time>2021-11-21T10:11:16Z</time>
      </trkpt>
      <trkpt lat="45.97923" lon="1.39538">
        <ele>382.6</ele>
        <time>2021-11-21T10:11:20Z</time>
      </trkpt>
      <trkpt lat="45.97917" lon="1.39536">
        <ele>382.6</ele>
        <time>2021-11-21T10:11:21Z</time>
      </trkpt>
      <trkpt lat="45.97883" lon="1.39527">
        <ele>382.8</ele>
        <time>2021-11-21T10:11:27Z</time>
      </trkpt>
      <trkpt lat="45.97862" lon="1.39523">
        <ele>382.8</ele>
        <time>2021-11-21T10:11:31Z</time>
      </trkpt>
      <trkpt lat="45.97854" lon="1.39522">
        <ele>382.8</ele>
        <time>2021-11-21T10:11:33Z</time>
      </trkpt>
      <trkpt lat="45.97839" lon="1.39521">
        <ele>383.6</ele>
        <time>2021-11-21T10:11:37Z</time>
      </trkpt>
      <trkpt lat="45.97833" lon="1.39522">
        <ele>384.4</ele>
        <time>2021-11-21T10:11:39Z</time>
      </trkpt>
      <trkpt lat="45.9783" lon="1.39522">
        <ele>384.8</ele>
        <time>2021-11-21T10:11:40Z</time>
      </trkpt>
      <trkpt lat="45.97814" lon="1.39525">
        <ele>385.8</ele>
        <time>2021-11-21T10:11:45Z</time>
      </trkpt>
      <trkpt lat="45.97812" lon="1.39525">
        <ele>386</ele>
        <time>2021-11-21T10:11:46Z</time>
      </trkpt>
      <trkpt lat="45.978" lon="1.39526">
        <ele>387</ele>
        <time>2021-11-21T10:11:50Z</time>
      </trkpt>
      <trkpt lat="45.97789" lon="1.39525">
        <ele>388.4</ele>
        <time>2021-11-21T10:11:54Z</time>
      </trkpt>
      <trkpt lat="45.97779" lon="1.39522">
        <ele>389.6</ele>
        <time>2021-11-21T10:11:58Z</time>
      </trkpt>
      <trkpt lat="45.97772" lon="1.39518">
        <ele>390.2</ele>
        <time>2021-11-21T10:12:01Z</time>
      </trkpt>
      <trkpt lat="45.97767" lon="1.39514">
        <ele>390.6</ele>
        <time>2021-11-21T10:12:03Z</time>
      </trkpt>
      <trkpt lat="45.9776" lon="1.395">
        <ele>391.6</ele>
        <time>2021-11-21T10:12:08Z</time>
      </trkpt>
      <trkpt lat="45.9776" lon="1.395">
        <ele>391.8</ele>
        <time>2021-11-21T10:12:09Z</time>
      </trkpt>
      <trkpt lat="45.97761" lon="1.39493">
        <ele>392</ele>
        <time>2021-11-21T10:12:11Z</time>
      </trkpt>
      <trkpt lat="45.97763" lon="1.39488">
        <ele>392.6</ele>
        <time>2021-11-21T10:12:14Z</time>
      </trkpt>
      <trkpt lat="45.97765" lon="1.39485">
        <ele>393</ele>
        <time>2021-11-21T10:12:16Z</time>
      </trkpt>
      <trkpt lat="45.97773" lon="1.39481">
        <ele>393.8</ele>
        <time>2021-11-21T10:12:21Z</time>
      </trkpt>
      <trkpt lat="45.97774" lon="1.3948">
        <ele>394</ele>
        <time>2021-11-21T10:12:22Z</time>
      </trkpt>
      <trkpt lat="45.97782" lon="1.39477">
        <ele>395.2</ele>
        <time>2021-11-21T10:12:27Z</time>
      </trkpt>
      <trkpt lat="45.97785" lon="1.39476">
        <ele>395.8</ele>
        <time>2021-11-21T10:12:29Z</time>
      </trkpt>
      <trkpt lat="45.97792" lon="1.39473">
        <ele>396.2</ele>
        <time>2021-11-21T10:12:33Z</time>
      </trkpt>
      <trkpt lat="45.978" lon="1.39467">
        <ele>397</ele>
        <time>2021-11-21T10:12:38Z</time>
      </trkpt>
      <trkpt lat="45.97802" lon="1.39464">
        <ele>397.4</ele>
        <time>2021-11-21T10:12:40Z</time>
      </trkpt>
      <trkpt lat="45.97808" lon="1.39453">
        <ele>398.6</ele>
        <time>2021-11-21T10:12:46Z</time>
      </trkpt>
      <trkpt lat="45.9781" lon="1.3945">
        <ele>399.2</ele>
        <time>2021-11-21T10:12:48Z</time>
      </trkpt>
      <trkpt lat="45.97811" lon="1.39446">
        <ele>399.8</ele>
        <time>2021-11-21T10:12:50Z</time>
      </trkpt>
      <trkpt lat="45.97811" lon="1.39436">
        <ele>400.6</ele>
        <time>2021-11-21T10:12:55Z</time>
      </trkpt>
      <trkpt lat="45.97812" lon="1.39434">
        <ele>400.8</ele>
        <time>2021-11-21T10:12:56Z</time>
      </trkpt>
      <trkpt lat="45.97812" lon="1.39433">
        <ele>401</ele>
        <time>2021-11-21T10:12:57Z</time>
      </trkpt>
      <trkpt lat="45.97811" lon="1.39427">
        <ele>402.2</ele>
        <time>2021-11-21T10:13:00Z</time>
      </trkpt>
      <trkpt lat="45.97811" lon="1.39422">
        <ele>402.6</ele>
        <time>2021-11-21T10:13:03Z</time>
      </trkpt>
      <trkpt lat="45.97809" lon="1.39416">
        <ele>403.2</ele>
        <time>2021-11-21T10:13:06Z</time>
      </trkpt>
      <trkpt lat="45.9781" lon="1.39406">
        <ele>404.2</ele>
        <time>2021-11-21T10:13:11Z</time>
      </trkpt>
      <trkpt lat="45.9781" lon="1.39404">
        <ele>404.4</ele>
        <time>2021-11-21T10:13:12Z</time>
      </trkpt>
      <trkpt lat="45.97809" lon="1.39392">
        <ele>405.4</ele>
        <time>2021-11-21T10:13:18Z</time>
      </trkpt>
      <trkpt lat="45.97809" lon="1.39389">
        <ele>405.6</ele>
        <time>2021-11-21T10:13:19Z</time>
      </trkpt>
      <trkpt lat="45.97808" lon="1.39375">
        <ele>406.6</ele>
        <time>2021-11-21T10:13:25Z</time>
      </trkpt>
      <trkpt lat="45.97808" lon="1.39372">
        <ele>406.6</ele>
        <time>2021-11-21T10:13:26Z</time>
      </trkpt>
      <trkpt lat="45.97807" lon="1.39354">
        <ele>407.6</ele>
        <time>2021-11-21T10:13:33Z</time>
      </trkpt>
      <trkpt lat="45.97808" lon="1.39347">
        <ele>408</ele>
        <time>2021-11-21T10:13:36Z</time>
      </trkpt>
      <trkpt lat="45.97808" lon="1.39338">
        <ele>408.6</ele>
        <time>2021-11-21T10:13:40Z</time>
      </trkpt>
      <trkpt lat="45.97809" lon="1.39329">
        <ele>409.4</ele>
        <time>2021-11-21T10:13:44Z</time>
      </trkpt>
      <trkpt lat="45.97809" lon="1.39324">
        <ele>409.6</ele>
        <time>2021-11-21T10:13:46Z</time>
      </trkpt>
      <trkpt lat="45.97811" lon="1.39309">
        <ele>410.4</ele>
        <time>2021-11-21T10:13:51Z</time>
      </trkpt>
      <trkpt lat="45.97812" lon="1.39301">
        <ele>410.8</ele>
        <time>2021-11-21T10:13:54Z</time>
      </trkpt>
      <trkpt lat="45.97816" lon="1.39287">
        <ele>412</ele>
        <time>2021-11-21T10:14:00Z</time>
      </trkpt>
      <trkpt lat="45.97817" lon="1.39285">
        <ele>412</ele>
        <time>2021-11-21T10:14:01Z</time>
      </trkpt>
      <trkpt lat="45.97823" lon="1.39273">
        <ele>413</ele>
        <time>2021-11-21T10:14:07Z</time>
      </trkpt>
      <trkpt lat="45.97826" lon="1.3927">
        <ele>413.4</ele>
        <time>2021-11-21T10:14:09Z</time>
      </trkpt>
      <trkpt lat="45.97832" lon="1.39262">
        <ele>414</ele>
        <time>2021-11-21T10:14:14Z</time>
      </trkpt>
      <trkpt lat="45.97837" lon="1.39255">
        <ele>415</ele>
        <time>2021-11-21T10:14:19Z</time>
      </trkpt>
      <trkpt lat="45.97838" lon="1.39253">
        <ele>415</ele>
        <time>2021-11-21T10:14:20Z</time>
      </trkpt>
      <trkpt lat="45.97843" lon="1.39246">
        <ele>416</ele>
        <time>2021-11-21T10:14:25Z</time>
      </trkpt>
      <trkpt lat="45.97844" lon="1.39244">
        <ele>416.4</ele>
        <time>2021-11-21T10:14:26Z</time>
      </trkpt>
      <trkpt lat="45.97848" lon="1.39233">
        <ele>417.6</ele>
        <time>2021-11-21T10:14:32Z</time>
      </trkpt>
      <trkpt lat="45.97848" lon="1.3923">
        <ele>418</ele>
        <time>2021-11-21T10:14:34Z</time>
      </trkpt>
      <trkpt lat="45.97849" lon="1.39223">
        <ele>418.6</ele>
        <time>2021-11-21T10:14:37Z</time>
      </trkpt>
      <trkpt lat="45.9785" lon="1.39212">
        <ele>419.4</ele>
        <time>2021-11-21T10:14:42Z</time>
      </trkpt>
      <trkpt lat="45.97848" lon="1.39205">
        <ele>419.8</ele>
        <time>2021-11-21T10:14:45Z</time>
      </trkpt>
      <trkpt lat="45.97846" lon="1.39201">
        <ele>420.2</ele>
        <time>2021-11-21T10:14:48Z</time>
      </trkpt>
      <trkpt lat="45.97845" lon="1.39198">
        <ele>420.4</ele>
        <time>2021-11-21T10:14:50Z</time>
      </trkpt>
      <trkpt lat="45.97842" lon="1.39189">
        <ele>420.8</ele>
        <time>2021-11-21T10:14:54Z</time>
      </trkpt>
      <trkpt lat="45.97841" lon="1.39186">
        <ele>420.8</ele>
        <time>2021-11-21T10:14:55Z</time>
      </trkpt>
      <trkpt lat="45.97838" lon="1.39172">
        <ele>422</ele>
        <time>2021-11-21T10:15:01Z</time>
      </trkpt>
      <trkpt lat="45.97837" lon="1.39168">
        <ele>422.2</ele>
        <time>2021-11-21T10:15:03Z</time>
      </trkpt>
      <trkpt lat="45.97833" lon="1.39159">
        <ele>423</ele>
        <time>2021-11-21T10:15:08Z</time>
      </trkpt>
      <trkpt lat="45.97831" lon="1.39152">
        <ele>423.6</ele>
        <time>2021-11-21T10:15:12Z</time>
      </trkpt>
      <trkpt lat="45.97829" lon="1.39149">
        <ele>424.2</ele>
        <time>2021-11-21T10:15:14Z</time>
      </trkpt>
      <trkpt lat="45.97826" lon="1.39144">
        <ele>425.2</ele>
        <time>2021-11-21T10:15:18Z</time>
      </trkpt>
      <trkpt lat="45.97826" lon="1.39142">
        <ele>425.4</ele>
        <time>2021-11-21T10:15:19Z</time>
      </trkpt>
      <trkpt lat="45.97824" lon="1.39131">
        <ele>426.4</ele>
        <time>2021-11-21T10:15:24Z</time>
      </trkpt>
      <trkpt lat="45.97825" lon="1.39124">
        <ele>427</ele>
        <time>2021-11-21T10:15:27Z</time>
      </trkpt>
      <trkpt lat="45.97826" lon="1.39121">
        <ele>427.6</ele>
        <time>2021-11-21T10:15:29Z</time>
      </trkpt>
      <trkpt lat="45.97829" lon="1.39115">
        <ele>428.4</ele>
        <time>2021-11-21T10:15:34Z</time>
      </trkpt>
      <trkpt lat="45.97829" lon="1.39115">
        <ele>428.6</ele>
        <time>2021-11-21T10:15:35Z</time>
      </trkpt>
      <trkpt lat="45.9783" lon="1.39112">
        <ele>428.8</ele>
        <time>2021-11-21T10:15:36Z</time>
      </trkpt>
      <trkpt lat="45.97832" lon="1.39109">
        <ele>429</ele>
        <time>2021-11-21T10:15:38Z</time>
      </trkpt>
      <trkpt lat="45.97834" lon="1.39107">
        <ele>429.2</ele>
        <time>2021-11-21T10:15:40Z</time>
      </trkpt>
      <trkpt lat="45.97836" lon="1.39104">
        <ele>429.8</ele>
        <time>2021-11-21T10:15:42Z</time>
      </trkpt>
      <trkpt lat="45.97838" lon="1.39094">
        <ele>431</ele>
        <time>2021-11-21T10:15:48Z</time>
      </trkpt>
      <trkpt lat="45.97842" lon="1.39086">
        <ele>432</ele>
        <time>2021-11-21T10:15:54Z</time>
      </trkpt>
      <trkpt lat="45.97843" lon="1.39084">
        <ele>432.2</ele>
        <time>2021-11-21T10:15:55Z</time>
      </trkpt>
      <trkpt lat="45.97846" lon="1.39076">
        <ele>433</ele>
        <time>2021-11-21T10:16:00Z</time>
      </trkpt>
      <trkpt lat="45.97847" lon="1.39075">
        <ele>433.2</ele>
        <time>2021-11-21T10:16:01Z</time>
      </trkpt>
      <trkpt lat="45.97848" lon="1.39073">
        <ele>433.4</ele>
        <time>2021-11-21T10:16:02Z</time>
      </trkpt>
      <trkpt lat="45.97849" lon="1.39072">
        <ele>433.4</ele>
        <time>2021-11-21T10:16:03Z</time>
      </trkpt>
      <trkpt lat="45.97854" lon="1.39061">
        <ele>434</ele>
        <time>2021-11-21T10:16:09Z</time>
      </trkpt>
      <trkpt lat="45.97856" lon="1.39057">
        <ele>434.2</ele>
        <time>2021-11-21T10:16:11Z</time>
      </trkpt>
      <trkpt lat="45.97862" lon="1.39047">
        <ele>435.2</ele>
        <time>2021-11-21T10:16:17Z</time>
      </trkpt>
      <trkpt lat="45.97865" lon="1.39044">
        <ele>435.6</ele>
        <time>2021-11-21T10:16:19Z</time>
      </trkpt>
      <trkpt lat="45.97868" lon="1.39038">
        <ele>436.2</ele>
        <time>2021-11-21T10:16:23Z</time>
      </trkpt>
      <trkpt lat="45.97869" lon="1.39033">
        <ele>436.4</ele>
        <time>2021-11-21T10:16:25Z</time>
      </trkpt>
      <trkpt lat="45.97864" lon="1.39024">
        <ele>437.2</ele>
        <time>2021-11-21T10:16:30Z</time>
      </trkpt>
      <trkpt lat="45.97863" lon="1.39022">
        <ele>437.2</ele>
        <time>2021-11-21T10:16:31Z</time>
      </trkpt>
      <trkpt lat="45.97856" lon="1.39007">
        <ele>437.4</ele>
        <time>2021-11-21T10:16:35Z</time>
      </trkpt>
      <trkpt lat="45.97849" lon="1.38992">
        <ele>435.8</ele>
        <time>2021-11-21T10:16:38Z</time>
      </trkpt>
      <trkpt lat="45.97849" lon="1.38987">
        <ele>434.8</ele>
        <time>2021-11-21T10:16:39Z</time>
      </trkpt>
      <trkpt lat="45.9785" lon="1.38983">
        <ele>434</ele>
        <time>2021-11-21T10:16:40Z</time>
      </trkpt>
      <trkpt lat="45.97852" lon="1.38979">
        <ele>433.6</ele>
        <time>2021-11-21T10:16:41Z</time>
      </trkpt>
      <trkpt lat="45.97855" lon="1.3897">
        <ele>433</ele>
        <time>2021-11-21T10:16:43Z</time>
      </trkpt>
      <trkpt lat="45.97858" lon="1.38963">
        <ele>432.6</ele>
        <time>2021-11-21T10:16:45Z</time>
      </trkpt>
      <trkpt lat="45.97864" lon="1.38943">
        <ele>432.4</ele>
        <time>2021-11-21T10:16:51Z</time>
      </trkpt>
      <trkpt lat="45.97868" lon="1.38923">
        <ele>432.8</ele>
        <time>2021-11-21T10:16:55Z</time>
      </trkpt>
      <trkpt lat="45.97871" lon="1.38915">
        <ele>432.8</ele>
        <time>2021-11-21T10:16:57Z</time>
      </trkpt>
      <trkpt lat="45.97877" lon="1.38895">
        <ele>433</ele>
        <time>2021-11-21T10:17:01Z</time>
      </trkpt>
      <trkpt lat="45.97881" lon="1.38885">
        <ele>432.4</ele>
        <time>2021-11-21T10:17:03Z</time>
      </trkpt>
      <trkpt lat="45.97885" lon="1.38872">
        <ele>432</ele>
        <time>2021-11-21T10:17:05Z</time>
      </trkpt>
      <trkpt lat="45.97891" lon="1.38853">
        <ele>432</ele>
        <time>2021-11-21T10:17:08Z</time>
      </trkpt>
      <trkpt lat="45.97896" lon="1.38841">
        <ele>431.8</ele>
        <time>2021-11-21T10:17:10Z</time>
      </trkpt>
      <trkpt lat="45.97907" lon="1.3882">
        <ele>431.8</ele>
        <time>2021-11-21T10:17:14Z</time>
      </trkpt>
      <trkpt lat="45.97911" lon="1.38814">
        <ele>432</ele>
        <time>2021-11-21T10:17:15Z</time>
      </trkpt>
      <trkpt lat="45.97933" lon="1.38778">
        <ele>431.6</ele>
        <time>2021-11-21T10:17:21Z</time>
      </trkpt>
      <trkpt lat="45.97943" lon="1.38757">
        <ele>431.8</ele>
        <time>2021-11-21T10:17:26Z</time>
      </trkpt>
      <trkpt lat="45.97948" lon="1.38743">
        <ele>431.6</ele>
        <time>2021-11-21T10:17:29Z</time>
      </trkpt>
      <trkpt lat="45.97951" lon="1.38737">
        <ele>431.4</ele>
        <time>2021-11-21T10:17:30Z</time>
      </trkpt>
      <trkpt lat="45.97956" lon="1.38728">
        <ele>430.6</ele>
        <time>2021-11-21T10:17:32Z</time>
      </trkpt>
      <trkpt lat="45.97959" lon="1.38723">
        <ele>430</ele>
        <time>2021-11-21T10:17:33Z</time>
      </trkpt>
      <trkpt lat="45.97965" lon="1.38711">
        <ele>428.8</ele>
        <time>2021-11-21T10:17:35Z</time>
      </trkpt>
      <trkpt lat="45.97967" lon="1.38705">
        <ele>428.4</ele>
        <time>2021-11-21T10:17:36Z</time>
      </trkpt>
      <trkpt lat="45.97968" lon="1.38693">
        <ele>427.8</ele>
        <time>2021-11-21T10:17:38Z</time>
      </trkpt>
      <trkpt lat="45.97968" lon="1.38688">
        <ele>427.4</ele>
        <time>2021-11-21T10:17:39Z</time>
      </trkpt>
      <trkpt lat="45.97968" lon="1.38683">
        <ele>427</ele>
        <time>2021-11-21T10:17:40Z</time>
      </trkpt>
      <trkpt lat="45.97961" lon="1.38664">
        <ele>426.4</ele>
        <time>2021-11-21T10:17:45Z</time>
      </trkpt>
      <trkpt lat="45.97956" lon="1.3866">
        <ele>426.2</ele>
        <time>2021-11-21T10:17:47Z</time>
      </trkpt>
      <trkpt lat="45.97951" lon="1.38656">
        <ele>426.6</ele>
        <time>2021-11-21T10:17:50Z</time>
      </trkpt>
      <trkpt lat="45.97947" lon="1.38651">
        <ele>427</ele>
        <time>2021-11-21T10:17:53Z</time>
      </trkpt>
      <trkpt lat="45.97945" lon="1.38649">
        <ele>427.4</ele>
        <time>2021-11-21T10:17:54Z</time>
      </trkpt>
      <trkpt lat="45.97943" lon="1.38645">
        <ele>428</ele>
        <time>2021-11-21T10:17:56Z</time>
      </trkpt>
      <trkpt lat="45.97942" lon="1.38643">
        <ele>428.6</ele>
        <time>2021-11-21T10:17:57Z</time>
      </trkpt>
      <trkpt lat="45.9794" lon="1.38641">
        <ele>429</ele>
        <time>2021-11-21T10:17:58Z</time>
      </trkpt>
      <trkpt lat="45.97936" lon="1.38637">
        <ele>429.8</ele>
        <time>2021-11-21T10:18:01Z</time>
      </trkpt>
      <trkpt lat="45.97935" lon="1.38637">
        <ele>430</ele>
        <time>2021-11-21T10:18:02Z</time>
      </trkpt>
      <trkpt lat="45.97933" lon="1.38635">
        <ele>430.8</ele>
        <time>2021-11-21T10:18:04Z</time>
      </trkpt>
      <trkpt lat="45.9793" lon="1.38634">
        <ele>431.8</ele>
        <time>2021-11-21T10:18:07Z</time>
      </trkpt>
      <trkpt lat="45.97929" lon="1.38633">
        <ele>431.8</ele>
        <time>2021-11-21T10:18:08Z</time>
      </trkpt>
      <trkpt lat="45.97925" lon="1.38633">
        <ele>432.4</ele>
        <time>2021-11-21T10:18:11Z</time>
      </trkpt>
      <trkpt lat="45.97924" lon="1.38634">
        <ele>432.8</ele>
        <time>2021-11-21T10:18:12Z</time>
      </trkpt>
      <trkpt lat="45.97921" lon="1.38634">
        <ele>434</ele>
        <time>2021-11-21T10:18:16Z</time>
      </trkpt>
      <trkpt lat="45.97915" lon="1.38635">
        <ele>435</ele>
        <time>2021-11-21T10:18:21Z</time>
      </trkpt>
      <trkpt lat="45.9791" lon="1.38638">
        <ele>435.2</ele>
        <time>2021-11-21T10:18:24Z</time>
      </trkpt>
      <trkpt lat="45.97901" lon="1.38646">
        <ele>436</ele>
        <time>2021-11-21T10:18:30Z</time>
      </trkpt>
      <trkpt lat="45.97892" lon="1.38658">
        <ele>436</ele>
        <time>2021-11-21T10:18:36Z</time>
      </trkpt>
      <trkpt lat="45.9788" lon="1.3867">
        <ele>435</ele>
        <time>2021-11-21T10:18:42Z</time>
      </trkpt>
      <trkpt lat="45.97867" lon="1.38681">
        <ele>435.2</ele>
        <time>2021-11-21T10:18:47Z</time>
      </trkpt>
      <trkpt lat="45.97853" lon="1.38699">
        <ele>436</ele>
        <time>2021-11-21T10:18:53Z</time>
      </trkpt>
      <trkpt lat="45.97843" lon="1.38711">
        <ele>437.2</ele>
        <time>2021-11-21T10:18:59Z</time>
      </trkpt>
      <trkpt lat="45.9784" lon="1.38716">
        <ele>438</ele>
        <time>2021-11-21T10:19:01Z</time>
      </trkpt>
      <trkpt lat="45.97836" lon="1.3872">
        <ele>438.4</ele>
        <time>2021-11-21T10:19:03Z</time>
      </trkpt>
      <trkpt lat="45.97833" lon="1.38724">
        <ele>438.8</ele>
        <time>2021-11-21T10:19:05Z</time>
      </trkpt>
      <trkpt lat="45.97825" lon="1.38731">
        <ele>439.4</ele>
        <time>2021-11-21T10:19:09Z</time>
      </trkpt>
      <trkpt lat="45.9782" lon="1.38736">
        <ele>440.2</ele>
        <time>2021-11-21T10:19:12Z</time>
      </trkpt>
      <trkpt lat="45.97813" lon="1.38743">
        <ele>440.4</ele>
        <time>2021-11-21T10:19:16Z</time>
      </trkpt>
      <trkpt lat="45.97808" lon="1.38748">
        <ele>440.8</ele>
        <time>2021-11-21T10:19:19Z</time>
      </trkpt>
      <trkpt lat="45.978" lon="1.38753">
        <ele>441.6</ele>
        <time>2021-11-21T10:19:23Z</time>
      </trkpt>
      <trkpt lat="45.97791" lon="1.38758">
        <ele>442.2</ele>
        <time>2021-11-21T10:19:27Z</time>
      </trkpt>
      <trkpt lat="45.97778" lon="1.38764">
        <ele>441.6</ele>
        <time>2021-11-21T10:19:32Z</time>
      </trkpt>
      <trkpt lat="45.97767" lon="1.38773">
        <ele>441.8</ele>
        <time>2021-11-21T10:19:37Z</time>
      </trkpt>
      <trkpt lat="45.97763" lon="1.38783">
        <ele>441.8</ele>
        <time>2021-11-21T10:19:40Z</time>
      </trkpt>
      <trkpt lat="45.9776" lon="1.38791">
        <ele>441.8</ele>
        <time>2021-11-21T10:19:42Z</time>
      </trkpt>
      <trkpt lat="45.97754" lon="1.38807">
        <ele>442.6</ele>
        <time>2021-11-21T10:19:47Z</time>
      </trkpt>
      <trkpt lat="45.97753" lon="1.3881">
        <ele>442.8</ele>
        <time>2021-11-21T10:19:48Z</time>
      </trkpt>
      <trkpt lat="45.97748" lon="1.3882">
        <ele>443.6</ele>
        <time>2021-11-21T10:19:52Z</time>
      </trkpt>
      <trkpt lat="45.97742" lon="1.3883">
        <ele>444.6</ele>
        <time>2021-11-21T10:19:56Z</time>
      </trkpt>
      <trkpt lat="45.97738" lon="1.38839">
        <ele>445.6</ele>
        <time>2021-11-21T10:20:00Z</time>
      </trkpt>
      <trkpt lat="45.97736" lon="1.38841">
        <ele>445.6</ele>
        <time>2021-11-21T10:20:01Z</time>
      </trkpt>
      <trkpt lat="45.97733" lon="1.38846">
        <ele>446.2</ele>
        <time>2021-11-21T10:20:03Z</time>
      </trkpt>
      <trkpt lat="45.9773" lon="1.38851">
        <ele>446.6</ele>
        <time>2021-11-21T10:20:05Z</time>
      </trkpt>
      <trkpt lat="45.97728" lon="1.38853">
        <ele>447</ele>
        <time>2021-11-21T10:20:06Z</time>
      </trkpt>
      <trkpt lat="45.97723" lon="1.3886">
        <ele>448</ele>
        <time>2021-11-21T10:20:10Z</time>
      </trkpt>
      <trkpt lat="45.97722" lon="1.38861">
        <ele>448.2</ele>
        <time>2021-11-21T10:20:11Z</time>
      </trkpt>
      <trkpt lat="45.97719" lon="1.38865">
        <ele>448.6</ele>
        <time>2021-11-21T10:20:13Z</time>
      </trkpt>
      <trkpt lat="45.97716" lon="1.38867">
        <ele>449.4</ele>
        <time>2021-11-21T10:20:15Z</time>
      </trkpt>
      <trkpt lat="45.97709" lon="1.38872">
        <ele>450.6</ele>
        <time>2021-11-21T10:20:20Z</time>
      </trkpt>
      <trkpt lat="45.97707" lon="1.38874">
        <ele>451.4</ele>
        <time>2021-11-21T10:20:24Z</time>
      </trkpt>
      <trkpt lat="45.97706" lon="1.38874">
        <ele>451.6</ele>
        <time>2021-11-21T10:20:27Z</time>
      </trkpt>
      <trkpt lat="45.97704" lon="1.38877">
        <ele>451.8</ele>
        <time>2021-11-21T10:20:39Z</time>
      </trkpt>
      <trkpt lat="45.97703" lon="1.38877">
        <ele>452</ele>
        <time>2021-11-21T10:20:40Z</time>
      </trkpt>
      <trkpt lat="45.97701" lon="1.38879">
        <ele>452.6</ele>
        <time>2021-11-21T10:20:43Z</time>
      </trkpt>
      <trkpt lat="45.97694" lon="1.38882">
        <ele>454</ele>
        <time>2021-11-21T10:20:49Z</time>
      </trkpt>
      <trkpt lat="45.9769" lon="1.38883">
        <ele>454.6</ele>
        <time>2021-11-21T10:20:52Z</time>
      </trkpt>
      <trkpt lat="45.97687" lon="1.38884">
        <ele>455</ele>
        <time>2021-11-21T10:20:54Z</time>
      </trkpt>
      <trkpt lat="45.9768" lon="1.38888">
        <ele>456</ele>
        <time>2021-11-21T10:21:00Z</time>
      </trkpt>
      <trkpt lat="45.97674" lon="1.38891">
        <ele>456.8</ele>
        <time>2021-11-21T10:21:06Z</time>
      </trkpt>
      <trkpt lat="45.97673" lon="1.38892">
        <ele>457</ele>
        <time>2021-11-21T10:21:07Z</time>
      </trkpt>
      <trkpt lat="45.97668" lon="1.38899">
        <ele>458.2</ele>
        <time>2021-11-21T10:21:13Z</time>
      </trkpt>
      <trkpt lat="45.97665" lon="1.38903">
        <ele>458.8</ele>
        <time>2021-11-21T10:21:17Z</time>
      </trkpt>
      <trkpt lat="45.97663" lon="1.38905">
        <ele>459.2</ele>
        <time>2021-11-21T10:21:19Z</time>
      </trkpt>
      <trkpt lat="45.97661" lon="1.38907">
        <ele>459.6</ele>
        <time>2021-11-21T10:21:22Z</time>
      </trkpt>
      <trkpt lat="45.97655" lon="1.38915">
        <ele>460.4</ele>
        <time>2021-11-21T10:21:27Z</time>
      </trkpt>
      <trkpt lat="45.97651" lon="1.3892">
        <ele>460.8</ele>
        <time>2021-11-21T10:21:31Z</time>
      </trkpt>
      <trkpt lat="45.97647" lon="1.38925">
        <ele>461.4</ele>
        <time>2021-11-21T10:21:34Z</time>
      </trkpt>
      <trkpt lat="45.97644" lon="1.38931">
        <ele>462.2</ele>
        <time>2021-11-21T10:21:38Z</time>
      </trkpt>
      <trkpt lat="45.97643" lon="1.38932">
        <ele>462.6</ele>
        <time>2021-11-21T10:21:39Z</time>
      </trkpt>
      <trkpt lat="45.97642" lon="1.38933">
        <ele>462.6</ele>
        <time>2021-11-21T10:21:40Z</time>
      </trkpt>
      <trkpt lat="45.9764" lon="1.38935">
        <ele>462.8</ele>
        <time>2021-11-21T10:21:42Z</time>
      </trkpt>
      <trkpt lat="45.97637" lon="1.38941">
        <ele>463.6</ele>
        <time>2021-11-21T10:21:46Z</time>
      </trkpt>
      <trkpt lat="45.97633" lon="1.38948">
        <ele>464</ele>
        <time>2021-11-21T10:21:50Z</time>
      </trkpt>
      <trkpt lat="45.97629" lon="1.38954">
        <ele>464.6</ele>
        <time>2021-11-21T10:21:54Z</time>
      </trkpt>
      <trkpt lat="45.97625" lon="1.38959">
        <ele>464.8</ele>
        <time>2021-11-21T10:21:57Z</time>
      </trkpt>
      <trkpt lat="45.97623" lon="1.38962">
        <ele>465</ele>
        <time>2021-11-21T10:21:59Z</time>
      </trkpt>
      <trkpt lat="45.9761" lon="1.38981">
        <ele>465.8</ele>
        <time>2021-11-21T10:22:10Z</time>
      </trkpt>
      <trkpt lat="45.97598" lon="1.38996">
        <ele>465.8</ele>
        <time>2021-11-21T10:22:17Z</time>
      </trkpt>
      <trkpt lat="45.97585" lon="1.39008">
        <ele>466.8</ele>
        <time>2021-11-21T10:22:24Z</time>
      </trkpt>
      <trkpt lat="45.97583" lon="1.39011">
        <ele>466.8</ele>
        <time>2021-11-21T10:22:25Z</time>
      </trkpt>
      <trkpt lat="45.9757" lon="1.39023">
        <ele>467.2</ele>
        <time>2021-11-21T10:22:31Z</time>
      </trkpt>
      <trkpt lat="45.97561" lon="1.3903">
        <ele>467.8</ele>
        <time>2021-11-21T10:22:35Z</time>
      </trkpt>
      <trkpt lat="45.97557" lon="1.39032">
        <ele>468.2</ele>
        <time>2021-11-21T10:22:37Z</time>
      </trkpt>
      <trkpt lat="45.97552" lon="1.39035">
        <ele>469</ele>
        <time>2021-11-21T10:22:40Z</time>
      </trkpt>
      <trkpt lat="45.9755" lon="1.39035">
        <ele>469</ele>
        <time>2021-11-21T10:22:41Z</time>
      </trkpt>
      <trkpt lat="45.9755" lon="1.39034">
        <ele>469.4</ele>
        <time>2021-11-21T10:22:43Z</time>
      </trkpt>
      <trkpt lat="45.97549" lon="1.39034">
        <ele>469.8</ele>
        <time>2021-11-21T10:22:44Z</time>
      </trkpt>
      <trkpt lat="45.97549" lon="1.39033">
        <ele>470</ele>
        <time>2021-11-21T10:22:45Z</time>
      </trkpt>
      <trkpt lat="45.97548" lon="1.39028">
        <ele>470.8</ele>
        <time>2021-11-21T10:22:50Z</time>
      </trkpt>
      <trkpt lat="45.97549" lon="1.39025">
        <ele>471.2</ele>
        <time>2021-11-21T10:22:52Z</time>
      </trkpt>
      <trkpt lat="45.97549" lon="1.39024">
        <ele>471.4</ele>
        <time>2021-11-21T10:22:53Z</time>
      </trkpt>
      <trkpt lat="45.97551" lon="1.39014">
        <ele>472.4</ele>
        <time>2021-11-21T10:22:59Z</time>
      </trkpt>
      <trkpt lat="45.97552" lon="1.39006">
        <ele>473.4</ele>
        <time>2021-11-21T10:23:04Z</time>
      </trkpt>
      <trkpt lat="45.97554" lon="1.39002">
        <ele>474.2</ele>
        <time>2021-11-21T10:23:07Z</time>
      </trkpt>
      <trkpt lat="45.97556" lon="1.38995">
        <ele>474.6</ele>
        <time>2021-11-21T10:23:10Z</time>
      </trkpt>
      <trkpt lat="45.97561" lon="1.38981">
        <ele>475</ele>
        <time>2021-11-21T10:23:18Z</time>
      </trkpt>
      <trkpt lat="45.97565" lon="1.38974">
        <ele>475.6</ele>
        <time>2021-11-21T10:23:22Z</time>
      </trkpt>
      <trkpt lat="45.97573" lon="1.38962">
        <ele>475.8</ele>
        <time>2021-11-21T10:23:28Z</time>
      </trkpt>
      <trkpt lat="45.97579" lon="1.38949">
        <ele>476.6</ele>
        <time>2021-11-21T10:23:35Z</time>
      </trkpt>
      <trkpt lat="45.9758" lon="1.38946">
        <ele>476.8</ele>
        <time>2021-11-21T10:23:37Z</time>
      </trkpt>
      <trkpt lat="45.97586" lon="1.38935">
        <ele>477.4</ele>
        <time>2021-11-21T10:23:43Z</time>
      </trkpt>
      <trkpt lat="45.97587" lon="1.3893">
        <ele>477.8</ele>
        <time>2021-11-21T10:23:45Z</time>
      </trkpt>
      <trkpt lat="45.97589" lon="1.38922">
        <ele>478.6</ele>
        <time>2021-11-21T10:23:49Z</time>
      </trkpt>
      <trkpt lat="45.97588" lon="1.3892">
        <ele>479</ele>
        <time>2021-11-21T10:23:51Z</time>
      </trkpt>
      <trkpt lat="45.97586" lon="1.3892">
        <ele>480</ele>
        <time>2021-11-21T10:23:55Z</time>
      </trkpt>
      <trkpt lat="45.97586" lon="1.38921">
        <ele>480.6</ele>
        <time>2021-11-21T10:23:57Z</time>
      </trkpt>
      <trkpt lat="45.97584" lon="1.38923">
        <ele>481.2</ele>
        <time>2021-11-21T10:24:00Z</time>
      </trkpt>
      <trkpt lat="45.97583" lon="1.38924">
        <ele>481.6</ele>
        <time>2021-11-21T10:24:03Z</time>
      </trkpt>
      <trkpt lat="45.9758" lon="1.38927">
        <ele>482</ele>
        <time>2021-11-21T10:24:07Z</time>
      </trkpt>
      <trkpt lat="45.97579" lon="1.38928">
        <ele>482.2</ele>
        <time>2021-11-21T10:24:09Z</time>
      </trkpt>
      <trkpt lat="45.97577" lon="1.3893">
        <ele>482.4</ele>
        <time>2021-11-21T10:24:11Z</time>
      </trkpt>
      <trkpt lat="45.97575" lon="1.38932">
        <ele>482.6</ele>
        <time>2021-11-21T10:24:13Z</time>
      </trkpt>
      <trkpt lat="45.97573" lon="1.38934">
        <ele>482.8</ele>
        <time>2021-11-21T10:24:15Z</time>
      </trkpt>
      <trkpt lat="45.97571" lon="1.38937">
        <ele>483.4</ele>
        <time>2021-11-21T10:24:17Z</time>
      </trkpt>
      <trkpt lat="45.97567" lon="1.38941">
        <ele>483.6</ele>
        <time>2021-11-21T10:24:20Z</time>
      </trkpt>
      <trkpt lat="45.97551" lon="1.38958">
        <ele>484.2</ele>
        <time>2021-11-21T10:24:33Z</time>
      </trkpt>
      <trkpt lat="45.97534" lon="1.38984">
        <ele>484</ele>
        <time>2021-11-21T10:24:44Z</time>
      </trkpt>
      <trkpt lat="45.97533" lon="1.38986">
        <ele>483.8</ele>
        <time>2021-11-21T10:24:45Z</time>
      </trkpt>
      <trkpt lat="45.97528" lon="1.38989">
        <ele>484</ele>
        <time>2021-11-21T10:24:48Z</time>
      </trkpt>
      <trkpt lat="45.97528" lon="1.38989">
        <ele>484</ele>
        <time>2021-11-21T10:24:49Z</time>
      </trkpt>
      <trkpt lat="45.97524" lon="1.38994">
        <ele>484.4</ele>
        <time>2021-11-21T10:24:52Z</time>
      </trkpt>
      <trkpt lat="45.9752" lon="1.38995">
        <ele>485.2</ele>
        <time>2021-11-21T10:24:58Z</time>
      </trkpt>
      <trkpt lat="45.97518" lon="1.38992">
        <ele>485.4</ele>
        <time>2021-11-21T10:25:02Z</time>
      </trkpt>
      <trkpt lat="45.97517" lon="1.38988">
        <ele>485.8</ele>
        <time>2021-11-21T10:25:05Z</time>
      </trkpt>
      <trkpt lat="45.97517" lon="1.38983">
        <ele>486.4</ele>
        <time>2021-11-21T10:25:08Z</time>
      </trkpt>
      <trkpt lat="45.97517" lon="1.38981">
        <ele>486.6</ele>
        <time>2021-11-21T10:25:10Z</time>
      </trkpt>
      <trkpt lat="45.97523" lon="1.38967">
        <ele>487.4</ele>
        <time>2021-11-21T10:25:18Z</time>
      </trkpt>
      <trkpt lat="45.97524" lon="1.38965">
        <ele>487.8</ele>
        <time>2021-11-21T10:25:19Z</time>
      </trkpt>
      <trkpt lat="45.97531" lon="1.38953">
        <ele>488.6</ele>
        <time>2021-11-21T10:25:25Z</time>
      </trkpt>
      <trkpt lat="45.97532" lon="1.3895">
        <ele>488.8</ele>
        <time>2021-11-21T10:25:26Z</time>
      </trkpt>
      <trkpt lat="45.9754" lon="1.38935">
        <ele>489.6</ele>
        <time>2021-11-21T10:25:33Z</time>
      </trkpt>
      <trkpt lat="45.9754" lon="1.38935">
        <ele>490</ele>
        <time>2021-11-21T10:25:36Z</time>
      </trkpt>
      <trkpt lat="45.97546" lon="1.38925">
        <ele>490</ele>
        <time>2021-11-21T10:25:40Z</time>
      </trkpt>
      <trkpt lat="45.97552" lon="1.38915">
        <ele>491</ele>
        <time>2021-11-21T10:25:45Z</time>
      </trkpt>
      <trkpt lat="45.97555" lon="1.38906">
        <ele>491.8</ele>
        <time>2021-11-21T10:25:49Z</time>
      </trkpt>
      <trkpt lat="45.9756" lon="1.38898">
        <ele>492</ele>
        <time>2021-11-21T10:25:52Z</time>
      </trkpt>
      <trkpt lat="45.97565" lon="1.38892">
        <ele>492.2</ele>
        <time>2021-11-21T10:25:55Z</time>
      </trkpt>
      <trkpt lat="45.97573" lon="1.38878">
        <ele>493</ele>
        <time>2021-11-21T10:26:01Z</time>
      </trkpt>
      <trkpt lat="45.97575" lon="1.38875">
        <ele>493.2</ele>
        <time>2021-11-21T10:26:02Z</time>
      </trkpt>
      <trkpt lat="45.97585" lon="1.38859">
        <ele>494.2</ele>
        <time>2021-11-21T10:26:09Z</time>
      </trkpt>
      <trkpt lat="45.97586" lon="1.38857">
        <ele>494.2</ele>
        <time>2021-11-21T10:26:10Z</time>
      </trkpt>
      <trkpt lat="45.97592" lon="1.38843">
        <ele>494.6</ele>
        <time>2021-11-21T10:26:16Z</time>
      </trkpt>
      <trkpt lat="45.97601" lon="1.38821">
        <ele>495</ele>
        <time>2021-11-21T10:26:23Z</time>
      </trkpt>
      <trkpt lat="45.97602" lon="1.38818">
        <ele>495.2</ele>
        <time>2021-11-21T10:26:24Z</time>
      </trkpt>
      <trkpt lat="45.97607" lon="1.38798">
        <ele>495.8</ele>
        <time>2021-11-21T10:26:30Z</time>
      </trkpt>
      <trkpt lat="45.97613" lon="1.38774">
        <ele>496.2</ele>
        <time>2021-11-21T10:26:37Z</time>
      </trkpt>
      <trkpt lat="45.97613" lon="1.38771">
        <ele>496.2</ele>
        <time>2021-11-21T10:26:38Z</time>
      </trkpt>
      <trkpt lat="45.97616" lon="1.38751">
        <ele>497.2</ele>
        <time>2021-11-21T10:26:45Z</time>
      </trkpt>
      <trkpt lat="45.97616" lon="1.38748">
        <ele>497.4</ele>
        <time>2021-11-21T10:26:46Z</time>
      </trkpt>
      <trkpt lat="45.97616" lon="1.38724">
        <ele>498.2</ele>
        <time>2021-11-21T10:26:54Z</time>
      </trkpt>
      <trkpt lat="45.97615" lon="1.38722">
        <ele>498.4</ele>
        <time>2021-11-21T10:26:55Z</time>
      </trkpt>
      <trkpt lat="45.97612" lon="1.38702">
        <ele>498.8</ele>
        <time>2021-11-21T10:27:02Z</time>
      </trkpt>
      <trkpt lat="45.97609" lon="1.38692">
        <ele>499.4</ele>
        <time>2021-11-21T10:27:06Z</time>
      </trkpt>
      <trkpt lat="45.97608" lon="1.38687">
        <ele>499.8</ele>
        <time>2021-11-21T10:27:08Z</time>
      </trkpt>
      <trkpt lat="45.97603" lon="1.3867">
        <ele>500.8</ele>
        <time>2021-11-21T10:27:14Z</time>
      </trkpt>
      <trkpt lat="45.97602" lon="1.38665">
        <ele>501.4</ele>
        <time>2021-11-21T10:27:16Z</time>
      </trkpt>
      <trkpt lat="45.97599" lon="1.38659">
        <ele>502</ele>
        <time>2021-11-21T10:27:19Z</time>
      </trkpt>
      <trkpt lat="45.97599" lon="1.38652">
        <ele>502.4</ele>
        <time>2021-11-21T10:27:23Z</time>
      </trkpt>
      <trkpt lat="45.97598" lon="1.38646">
        <ele>503</ele>
        <time>2021-11-21T10:27:26Z</time>
      </trkpt>
      <trkpt lat="45.97597" lon="1.38636">
        <ele>503.4</ele>
        <time>2021-11-21T10:27:30Z</time>
      </trkpt>
      <trkpt lat="45.97596" lon="1.38626">
        <ele>504</ele>
        <time>2021-11-21T10:27:35Z</time>
      </trkpt>
      <trkpt lat="45.97595" lon="1.38621">
        <ele>504.6</ele>
        <time>2021-11-21T10:27:38Z</time>
      </trkpt>
      <trkpt lat="45.97594" lon="1.38616">
        <ele>505</ele>
        <time>2021-11-21T10:27:41Z</time>
      </trkpt>
      <trkpt lat="45.97595" lon="1.38614">
        <ele>505.2</ele>
        <time>2021-11-21T10:27:42Z</time>
      </trkpt>
      <trkpt lat="45.97594" lon="1.3861">
        <ele>505.4</ele>
        <time>2021-11-21T10:27:44Z</time>
      </trkpt>
      <trkpt lat="45.97593" lon="1.386">
        <ele>506.2</ele>
        <time>2021-11-21T10:27:49Z</time>
      </trkpt>
      <trkpt lat="45.97592" lon="1.38595">
        <ele>506.6</ele>
        <time>2021-11-21T10:27:51Z</time>
      </trkpt>
      <trkpt lat="45.97591" lon="1.38586">
        <ele>507.2</ele>
        <time>2021-11-21T10:27:55Z</time>
      </trkpt>
      <trkpt lat="45.9759" lon="1.38575">
        <ele>507.8</ele>
        <time>2021-11-21T10:27:59Z</time>
      </trkpt>
      <trkpt lat="45.9759" lon="1.3857">
        <ele>508.4</ele>
        <time>2021-11-21T10:28:01Z</time>
      </trkpt>
      <trkpt lat="45.97589" lon="1.38562">
        <ele>508.8</ele>
        <time>2021-11-21T10:28:05Z</time>
      </trkpt>
      <trkpt lat="45.9759" lon="1.3855">
        <ele>509.4</ele>
        <time>2021-11-21T10:28:10Z</time>
      </trkpt>
      <trkpt lat="45.97591" lon="1.38542">
        <ele>510.2</ele>
        <time>2021-11-21T10:28:14Z</time>
      </trkpt>
      <trkpt lat="45.97592" lon="1.38536">
        <ele>510.4</ele>
        <time>2021-11-21T10:28:17Z</time>
      </trkpt>
      <trkpt lat="45.97593" lon="1.38529">
        <ele>511</ele>
        <time>2021-11-21T10:28:22Z</time>
      </trkpt>
      <trkpt lat="45.97593" lon="1.38527">
        <ele>511.2</ele>
        <time>2021-11-21T10:28:23Z</time>
      </trkpt>
      <trkpt lat="45.97593" lon="1.38524">
        <ele>511.6</ele>
        <time>2021-11-21T10:28:25Z</time>
      </trkpt>
      <trkpt lat="45.97592" lon="1.38519">
        <ele>512.6</ele>
        <time>2021-11-21T10:28:29Z</time>
      </trkpt>
      <trkpt lat="45.97591" lon="1.38517">
        <ele>512.8</ele>
        <time>2021-11-21T10:28:31Z</time>
      </trkpt>
      <trkpt lat="45.97591" lon="1.38516">
        <ele>512.8</ele>
        <time>2021-11-21T10:28:33Z</time>
      </trkpt>
      <trkpt lat="45.97593" lon="1.38513">
        <ele>513.2</ele>
        <time>2021-11-21T10:28:36Z</time>
      </trkpt>
      <trkpt lat="45.97594" lon="1.38512">
        <ele>513.4</ele>
        <time>2021-11-21T10:28:37Z</time>
      </trkpt>
      <trkpt lat="45.97595" lon="1.38511">
        <ele>513.8</ele>
        <time>2021-11-21T10:28:39Z</time>
      </trkpt>
      <trkpt lat="45.97596" lon="1.38511">
        <ele>514</ele>
        <time>2021-11-21T10:28:41Z</time>
      </trkpt>
      <trkpt lat="45.97598" lon="1.3851">
        <ele>514.6</ele>
        <time>2021-11-21T10:28:43Z</time>
      </trkpt>
      <trkpt lat="45.97599" lon="1.3851">
        <ele>515</ele>
        <time>2021-11-21T10:28:44Z</time>
      </trkpt>
      <trkpt lat="45.97601" lon="1.3851">
        <ele>515.2</ele>
        <time>2021-11-21T10:28:45Z</time>
      </trkpt>
      <trkpt lat="45.97605" lon="1.38508">
        <ele>515.8</ele>
        <time>2021-11-21T10:28:49Z</time>
      </trkpt>
      <trkpt lat="45.97606" lon="1.38507">
        <ele>516</ele>
        <time>2021-11-21T10:28:50Z</time>
      </trkpt>
      <trkpt lat="45.97607" lon="1.38506">
        <ele>516</ele>
        <time>2021-11-21T10:28:51Z</time>
      </trkpt>
      <trkpt lat="45.9761" lon="1.38497">
        <ele>517</ele>
        <time>2021-11-21T10:29:01Z</time>
      </trkpt>
      <trkpt lat="45.9761" lon="1.38495">
        <ele>517.6</ele>
        <time>2021-11-21T10:29:04Z</time>
      </trkpt>
      <trkpt lat="45.97611" lon="1.38493">
        <ele>518.2</ele>
        <time>2021-11-21T10:29:12Z</time>
      </trkpt>
      <trkpt lat="45.97612" lon="1.3849">
        <ele>518.4</ele>
        <time>2021-11-21T10:29:17Z</time>
      </trkpt>
      <trkpt lat="45.97613" lon="1.38481">
        <ele>518.8</ele>
        <time>2021-11-21T10:29:22Z</time>
      </trkpt>
      <trkpt lat="45.97614" lon="1.38477">
        <ele>519.2</ele>
        <time>2021-11-21T10:29:24Z</time>
      </trkpt>
      <trkpt lat="45.97614" lon="1.38474">
        <ele>519.8</ele>
        <time>2021-11-21T10:29:26Z</time>
      </trkpt>
      <trkpt lat="45.97615" lon="1.38472">
        <ele>520.2</ele>
        <time>2021-11-21T10:29:27Z</time>
      </trkpt>
      <trkpt lat="45.97617" lon="1.3846">
        <ele>521.4</ele>
        <time>2021-11-21T10:29:35Z</time>
      </trkpt>
      <trkpt lat="45.97618" lon="1.3845">
        <ele>522.4</ele>
        <time>2021-11-21T10:29:41Z</time>
      </trkpt>
      <trkpt lat="45.97619" lon="1.3844">
        <ele>523.4</ele>
        <time>2021-11-21T10:29:46Z</time>
      </trkpt>
      <trkpt lat="45.97623" lon="1.38429">
        <ele>524.4</ele>
        <time>2021-11-21T10:29:53Z</time>
      </trkpt>
      <trkpt lat="45.97624" lon="1.38428">
        <ele>524.6</ele>
        <time>2021-11-21T10:29:54Z</time>
      </trkpt>
      <trkpt lat="45.97627" lon="1.38426">
        <ele>525.2</ele>
        <time>2021-11-21T10:29:59Z</time>
      </trkpt>
      <trkpt lat="45.97627" lon="1.38426">
        <ele>525.8</ele>
        <time>2021-11-21T10:30:02Z</time>
      </trkpt>
      <trkpt lat="45.97627" lon="1.38429">
        <ele>526.8</ele>
        <time>2021-11-21T10:30:06Z</time>
      </trkpt>
      <trkpt lat="45.97627" lon="1.3843">
        <ele>527</ele>
        <time>2021-11-21T10:30:07Z</time>
      </trkpt>
      <trkpt lat="45.97628" lon="1.38435">
        <ele>527.2</ele>
        <time>2021-11-21T10:30:10Z</time>
      </trkpt>
      <trkpt lat="45.97629" lon="1.38437">
        <ele>527.4</ele>
        <time>2021-11-21T10:30:12Z</time>
      </trkpt>
      <trkpt lat="45.97629" lon="1.38439">
        <ele>527.4</ele>
        <time>2021-11-21T10:30:13Z</time>
      </trkpt>
      <trkpt lat="45.9763" lon="1.38443">
        <ele>527.6</ele>
        <time>2021-11-21T10:30:15Z</time>
      </trkpt>
      <trkpt lat="45.97631" lon="1.38447">
        <ele>527.8</ele>
        <time>2021-11-21T10:30:18Z</time>
      </trkpt>
      <trkpt lat="45.97637" lon="1.38452">
        <ele>528.6</ele>
        <time>2021-11-21T10:30:24Z</time>
      </trkpt>
      <trkpt lat="45.97638" lon="1.38453">
        <ele>528.8</ele>
        <time>2021-11-21T10:30:25Z</time>
      </trkpt>
      <trkpt lat="45.97644" lon="1.38455">
        <ele>529.6</ele>
        <time>2021-11-21T10:30:31Z</time>
      </trkpt>
      <trkpt lat="45.9765" lon="1.38456">
        <ele>530</ele>
        <time>2021-11-21T10:30:34Z</time>
      </trkpt>
      <trkpt lat="45.97652" lon="1.38455">
        <ele>530.4</ele>
        <time>2021-11-21T10:30:36Z</time>
      </trkpt>
      <trkpt lat="45.9766" lon="1.38448">
        <ele>531.2</ele>
        <time>2021-11-21T10:30:43Z</time>
      </trkpt>
      <trkpt lat="45.97663" lon="1.38444">
        <ele>531.6</ele>
        <time>2021-11-21T10:30:46Z</time>
      </trkpt>
      <trkpt lat="45.97668" lon="1.38437">
        <ele>532.2</ele>
        <time>2021-11-21T10:30:51Z</time>
      </trkpt>
      <trkpt lat="45.97672" lon="1.38429">
        <ele>533.2</ele>
        <time>2021-11-21T10:30:56Z</time>
      </trkpt>
      <trkpt lat="45.97673" lon="1.38426">
        <ele>533.6</ele>
        <time>2021-11-21T10:30:58Z</time>
      </trkpt>
      <trkpt lat="45.97675" lon="1.38418">
        <ele>534.2</ele>
        <time>2021-11-21T10:31:05Z</time>
      </trkpt>
      <trkpt lat="45.97678" lon="1.38412">
        <ele>535.2</ele>
        <time>2021-11-21T10:31:09Z</time>
      </trkpt>
      <trkpt lat="45.97679" lon="1.38411">
        <ele>535.4</ele>
        <time>2021-11-21T10:31:10Z</time>
      </trkpt>
      <trkpt lat="45.97684" lon="1.38401">
        <ele>536.6</ele>
        <time>2021-11-21T10:31:16Z</time>
      </trkpt>
      <trkpt lat="45.97689" lon="1.38393">
        <ele>537.6</ele>
        <time>2021-11-21T10:31:22Z</time>
      </trkpt>
      <trkpt lat="45.97695" lon="1.38382">
        <ele>538.8</ele>
        <time>2021-11-21T10:31:29Z</time>
      </trkpt>
      <trkpt lat="45.97698" lon="1.38374">
        <ele>540</ele>
        <time>2021-11-21T10:31:35Z</time>
      </trkpt>
      <trkpt lat="45.97699" lon="1.38372">
        <ele>540.2</ele>
        <time>2021-11-21T10:31:36Z</time>
      </trkpt>
      <trkpt lat="45.97702" lon="1.38367">
        <ele>541</ele>
        <time>2021-11-21T10:31:41Z</time>
      </trkpt>
      <trkpt lat="45.97704" lon="1.38359">
        <ele>542.2</ele>
        <time>2021-11-21T10:31:46Z</time>
      </trkpt>
      <trkpt lat="45.97705" lon="1.38357">
        <ele>542.2</ele>
        <time>2021-11-21T10:31:47Z</time>
      </trkpt>
      <trkpt lat="45.97707" lon="1.38347">
        <ele>543.2</ele>
        <time>2021-11-21T10:31:52Z</time>
      </trkpt>
      <trkpt lat="45.97709" lon="1.38333">
        <ele>544.2</ele>
        <time>2021-11-21T10:31:59Z</time>
      </trkpt>
      <trkpt lat="45.97712" lon="1.38316">
        <ele>545.4</ele>
        <time>2021-11-21T10:32:08Z</time>
      </trkpt>
      <trkpt lat="45.97714" lon="1.38309">
        <ele>546.4</ele>
        <time>2021-11-21T10:32:13Z</time>
      </trkpt>
      <trkpt lat="45.97715" lon="1.38306">
        <ele>546.4</ele>
        <time>2021-11-21T10:32:15Z</time>
      </trkpt>
      <trkpt lat="45.97718" lon="1.38294">
        <ele>547.4</ele>
        <time>2021-11-21T10:32:22Z</time>
      </trkpt>
      <trkpt lat="45.97721" lon="1.38286">
        <ele>548.2</ele>
        <time>2021-11-21T10:32:26Z</time>
      </trkpt>
      <trkpt lat="45.97721" lon="1.38285">
        <ele>548.6</ele>
        <time>2021-11-21T10:32:27Z</time>
      </trkpt>
      <trkpt lat="45.97725" lon="1.38269">
        <ele>549.6</ele>
        <time>2021-11-21T10:32:37Z</time>
      </trkpt>
      <trkpt lat="45.97726" lon="1.38267">
        <ele>549.8</ele>
        <time>2021-11-21T10:32:38Z</time>
      </trkpt>
      <trkpt lat="45.97731" lon="1.38246">
        <ele>550.6</ele>
        <time>2021-11-21T10:32:47Z</time>
      </trkpt>
      <trkpt lat="45.97733" lon="1.3824">
        <ele>551.2</ele>
        <time>2021-11-21T10:32:50Z</time>
      </trkpt>
      <trkpt lat="45.97735" lon="1.38218">
        <ele>551.6</ele>
        <time>2021-11-21T10:32:58Z</time>
      </trkpt>
      <trkpt lat="45.97737" lon="1.38208">
        <ele>552</ele>
        <time>2021-11-21T10:33:01Z</time>
      </trkpt>
      <trkpt lat="45.97739" lon="1.38189">
        <ele>552.8</ele>
        <time>2021-11-21T10:33:08Z</time>
      </trkpt>
      <trkpt lat="45.9774" lon="1.38186">
        <ele>553</ele>
        <time>2021-11-21T10:33:09Z</time>
      </trkpt>
      <trkpt lat="45.97741" lon="1.38167">
        <ele>553.8</ele>
        <time>2021-11-21T10:33:16Z</time>
      </trkpt>
      <trkpt lat="45.97741" lon="1.38151">
        <ele>554.8</ele>
        <time>2021-11-21T10:33:23Z</time>
      </trkpt>
      <trkpt lat="45.97741" lon="1.38149">
        <ele>555</ele>
        <time>2021-11-21T10:33:24Z</time>
      </trkpt>
      <trkpt lat="45.97741" lon="1.38132">
        <ele>555.8</ele>
        <time>2021-11-21T10:33:30Z</time>
      </trkpt>
      <trkpt lat="45.97741" lon="1.38129">
        <ele>556</ele>
        <time>2021-11-21T10:33:31Z</time>
      </trkpt>
      <trkpt lat="45.97741" lon="1.38106">
        <ele>556.8</ele>
        <time>2021-11-21T10:33:38Z</time>
      </trkpt>
      <trkpt lat="45.97741" lon="1.38103">
        <ele>557</ele>
        <time>2021-11-21T10:33:39Z</time>
      </trkpt>
      <trkpt lat="45.9774" lon="1.38082">
        <ele>557.8</ele>
        <time>2021-11-21T10:33:46Z</time>
      </trkpt>
      <trkpt lat="45.9774" lon="1.38079">
        <ele>558</ele>
        <time>2021-11-21T10:33:47Z</time>
      </trkpt>
      <trkpt lat="45.97739" lon="1.38065">
        <ele>558.8</ele>
        <time>2021-11-21T10:33:52Z</time>
      </trkpt>
      <trkpt lat="45.97739" lon="1.38059">
        <ele>559</ele>
        <time>2021-11-21T10:33:54Z</time>
      </trkpt>
      <trkpt lat="45.97739" lon="1.38044">
        <ele>560</ele>
        <time>2021-11-21T10:33:59Z</time>
      </trkpt>
      <trkpt lat="45.97739" lon="1.3804">
        <ele>560</ele>
        <time>2021-11-21T10:34:00Z</time>
      </trkpt>
      <trkpt lat="45.97739" lon="1.38021">
        <ele>561</ele>
        <time>2021-11-21T10:34:06Z</time>
      </trkpt>
      <trkpt lat="45.97738" lon="1.38018">
        <ele>561.2</ele>
        <time>2021-11-21T10:34:07Z</time>
      </trkpt>
      <trkpt lat="45.97736" lon="1.37997">
        <ele>562</ele>
        <time>2021-11-21T10:34:14Z</time>
      </trkpt>
      <trkpt lat="45.97736" lon="1.37994">
        <ele>562</ele>
        <time>2021-11-21T10:34:15Z</time>
      </trkpt>
      <trkpt lat="45.97735" lon="1.37979">
        <ele>562.6</ele>
        <time>2021-11-21T10:34:20Z</time>
      </trkpt>
      <trkpt lat="45.97734" lon="1.37961">
        <ele>563.2</ele>
        <time>2021-11-21T10:34:26Z</time>
      </trkpt>
      <trkpt lat="45.97734" lon="1.37958">
        <ele>563.2</ele>
        <time>2021-11-21T10:34:27Z</time>
      </trkpt>
      <trkpt lat="45.97732" lon="1.37934">
        <ele>563.6</ele>
        <time>2021-11-21T10:34:34Z</time>
      </trkpt>
      <trkpt lat="45.9773" lon="1.37902">
        <ele>563.8</ele>
        <time>2021-11-21T10:34:42Z</time>
      </trkpt>
      <trkpt lat="45.97732" lon="1.37883">
        <ele>563.4</ele>
        <time>2021-11-21T10:34:46Z</time>
      </trkpt>
      <trkpt lat="45.97732" lon="1.37874">
        <ele>563.2</ele>
        <time>2021-11-21T10:34:48Z</time>
      </trkpt>
      <trkpt lat="45.97725" lon="1.3784">
        <ele>563.4</ele>
        <time>2021-11-21T10:34:55Z</time>
      </trkpt>
      <trkpt lat="45.97721" lon="1.37813">
        <ele>563.8</ele>
        <time>2021-11-21T10:35:00Z</time>
      </trkpt>
      <trkpt lat="45.97721" lon="1.37779">
        <ele>564.4</ele>
        <time>2021-11-21T10:35:05Z</time>
      </trkpt>
      <trkpt lat="45.97722" lon="1.37773">
        <ele>564.6</ele>
        <time>2021-11-21T10:35:06Z</time>
      </trkpt>
      <trkpt lat="45.97728" lon="1.37747">
        <ele>565.2</ele>
        <time>2021-11-21T10:35:12Z</time>
      </trkpt>
      <trkpt lat="45.97739" lon="1.37724">
        <ele>564.8</ele>
        <time>2021-11-21T10:35:18Z</time>
      </trkpt>
      <trkpt lat="45.9775" lon="1.37701">
        <ele>564.2</ele>
        <time>2021-11-21T10:35:23Z</time>
      </trkpt>
      <trkpt lat="45.97755" lon="1.37691">
        <ele>563.4</ele>
        <time>2021-11-21T10:35:25Z</time>
      </trkpt>
      <trkpt lat="45.97758" lon="1.37686">
        <ele>563.2</ele>
        <time>2021-11-21T10:35:26Z</time>
      </trkpt>
      <trkpt lat="45.97774" lon="1.37664">
        <ele>562</ele>
        <time>2021-11-21T10:35:30Z</time>
      </trkpt>
      <trkpt lat="45.97787" lon="1.37642">
        <ele>561</ele>
        <time>2021-11-21T10:35:33Z</time>
      </trkpt>
      <trkpt lat="45.9779" lon="1.37634">
        <ele>560.6</ele>
        <time>2021-11-21T10:35:34Z</time>
      </trkpt>
      <trkpt lat="45.97794" lon="1.37624">
        <ele>560.2</ele>
        <time>2021-11-21T10:35:35Z</time>
      </trkpt>
      <trkpt lat="45.97797" lon="1.37614">
        <ele>559.8</ele>
        <time>2021-11-21T10:35:36Z</time>
      </trkpt>
      <trkpt lat="45.97812" lon="1.37572">
        <ele>558.6</ele>
        <time>2021-11-21T10:35:40Z</time>
      </trkpt>
      <trkpt lat="45.97815" lon="1.37562">
        <ele>558.4</ele>
        <time>2021-11-21T10:35:41Z</time>
      </trkpt>
      <trkpt lat="45.97818" lon="1.37544">
        <ele>557.6</ele>
        <time>2021-11-21T10:35:43Z</time>
      </trkpt>
      <trkpt lat="45.97824" lon="1.37514">
        <ele>557</ele>
        <time>2021-11-21T10:35:47Z</time>
      </trkpt>
      <trkpt lat="45.97833" lon="1.37491">
        <ele>556.6</ele>
        <time>2021-11-21T10:35:50Z</time>
      </trkpt>
      <trkpt lat="45.97838" lon="1.37481">
        <ele>556.6</ele>
        <time>2021-11-21T10:35:51Z</time>
      </trkpt>
      <trkpt lat="45.97845" lon="1.37461">
        <ele>556.2</ele>
        <time>2021-11-21T10:35:53Z</time>
      </trkpt>
      <trkpt lat="45.97865" lon="1.37419">
        <ele>555.8</ele>
        <time>2021-11-21T10:35:58Z</time>
      </trkpt>
      <trkpt lat="45.97867" lon="1.37403">
        <ele>555.6</ele>
        <time>2021-11-21T10:36:00Z</time>
      </trkpt>
      <trkpt lat="45.97866" lon="1.37397">
        <ele>555.6</ele>
        <time>2021-11-21T10:36:01Z</time>
      </trkpt>
      <trkpt lat="45.97865" lon="1.3739">
        <ele>555.4</ele>
        <time>2021-11-21T10:36:02Z</time>
      </trkpt>
      <trkpt lat="45.97862" lon="1.37346">
        <ele>555</ele>
        <time>2021-11-21T10:36:08Z</time>
      </trkpt>
      <trkpt lat="45.97863" lon="1.37339">
        <ele>554.8</ele>
        <time>2021-11-21T10:36:09Z</time>
      </trkpt>
      <trkpt lat="45.97867" lon="1.37304">
        <ele>554.6</ele>
        <time>2021-11-21T10:36:14Z</time>
      </trkpt>
      <trkpt lat="45.97869" lon="1.37296">
        <ele>554.4</ele>
        <time>2021-11-21T10:36:15Z</time>
      </trkpt>
      <trkpt lat="45.97871" lon="1.37289">
        <ele>554.2</ele>
        <time>2021-11-21T10:36:16Z</time>
      </trkpt>
      <trkpt lat="45.97873" lon="1.37283">
        <ele>554.2</ele>
        <time>2021-11-21T10:36:17Z</time>
      </trkpt>
      <trkpt lat="45.97876" lon="1.37273">
        <ele>554</ele>
        <time>2021-11-21T10:36:19Z</time>
      </trkpt>
      <trkpt lat="45.97881" lon="1.3725">
        <ele>553.2</ele>
        <time>2021-11-21T10:36:24Z</time>
      </trkpt>
      <trkpt lat="45.97882" lon="1.37246">
        <ele>552.8</ele>
        <time>2021-11-21T10:36:25Z</time>
      </trkpt>
      <trkpt lat="45.97891" lon="1.3722">
        <ele>552.2</ele>
        <time>2021-11-21T10:36:30Z</time>
      </trkpt>
      <trkpt lat="45.97892" lon="1.37213">
        <ele>552</ele>
        <time>2021-11-21T10:36:31Z</time>
      </trkpt>
      <trkpt lat="45.97893" lon="1.37207">
        <ele>552</ele>
        <time>2021-11-21T10:36:32Z</time>
      </trkpt>
      <trkpt lat="45.97892" lon="1.37191">
        <ele>551.8</ele>
        <time>2021-11-21T10:36:34Z</time>
      </trkpt>
      <trkpt lat="45.97888" lon="1.37177">
        <ele>551.8</ele>
        <time>2021-11-21T10:36:36Z</time>
      </trkpt>
      <trkpt lat="45.97882" lon="1.37165">
        <ele>551.2</ele>
        <time>2021-11-21T10:36:38Z</time>
      </trkpt>
      <trkpt lat="45.97877" lon="1.37161">
        <ele>550.6</ele>
        <time>2021-11-21T10:36:39Z</time>
      </trkpt>
      <trkpt lat="45.97871" lon="1.37156">
        <ele>549.8</ele>
        <time>2021-11-21T10:36:40Z</time>
      </trkpt>
      <trkpt lat="45.97866" lon="1.37152">
        <ele>549.6</ele>
        <time>2021-11-21T10:36:41Z</time>
      </trkpt>
      <trkpt lat="45.9786" lon="1.37148">
        <ele>549.4</ele>
        <time>2021-11-21T10:36:42Z</time>
      </trkpt>
      <trkpt lat="45.97849" lon="1.37137">
        <ele>549</ele>
        <time>2021-11-21T10:36:44Z</time>
      </trkpt>
      <trkpt lat="45.97843" lon="1.37129">
        <ele>548.4</ele>
        <time>2021-11-21T10:36:45Z</time>
      </trkpt>
      <trkpt lat="45.97838" lon="1.37122">
        <ele>547.6</ele>
        <time>2021-11-21T10:36:46Z</time>
      </trkpt>
      <trkpt lat="45.97831" lon="1.37109">
        <ele>546</ele>
        <time>2021-11-21T10:36:48Z</time>
      </trkpt>
      <trkpt lat="45.97828" lon="1.37104">
        <ele>545.2</ele>
        <time>2021-11-21T10:36:49Z</time>
      </trkpt>
      <trkpt lat="45.97827" lon="1.37098">
        <ele>544</ele>
        <time>2021-11-21T10:36:50Z</time>
      </trkpt>
      <trkpt lat="45.97827" lon="1.37094">
        <ele>542.8</ele>
        <time>2021-11-21T10:36:51Z</time>
      </trkpt>
      <trkpt lat="45.97829" lon="1.37089">
        <ele>542.2</ele>
        <time>2021-11-21T10:36:52Z</time>
      </trkpt>
      <trkpt lat="45.97832" lon="1.37082">
        <ele>541.8</ele>
        <time>2021-11-21T10:36:54Z</time>
      </trkpt>
      <trkpt lat="45.97838" lon="1.3707">
        <ele>541.4</ele>
        <time>2021-11-21T10:36:57Z</time>
      </trkpt>
      <trkpt lat="45.97842" lon="1.37065">
        <ele>541.4</ele>
        <time>2021-11-21T10:36:58Z</time>
      </trkpt>
      <trkpt lat="45.97848" lon="1.37052">
        <ele>541.4</ele>
        <time>2021-11-21T10:37:00Z</time>
      </trkpt>
      <trkpt lat="45.97848" lon="1.37046">
        <ele>541</ele>
        <time>2021-11-21T10:37:02Z</time>
      </trkpt>
      <trkpt lat="45.97846" lon="1.37034">
        <ele>540.8</ele>
        <time>2021-11-21T10:37:03Z</time>
      </trkpt>
      <trkpt lat="45.97844" lon="1.37029">
        <ele>540.6</ele>
        <time>2021-11-21T10:37:04Z</time>
      </trkpt>
      <trkpt lat="45.97841" lon="1.37023">
        <ele>540.4</ele>
        <time>2021-11-21T10:37:05Z</time>
      </trkpt>
      <trkpt lat="45.97833" lon="1.37006">
        <ele>540.4</ele>
        <time>2021-11-21T10:37:08Z</time>
      </trkpt>
      <trkpt lat="45.97827" lon="1.36991">
        <ele>540.2</ele>
        <time>2021-11-21T10:37:10Z</time>
      </trkpt>
      <trkpt lat="45.97825" lon="1.36986">
        <ele>540.2</ele>
        <time>2021-11-21T10:37:11Z</time>
      </trkpt>
      <trkpt lat="45.97823" lon="1.36979">
        <ele>540.4</ele>
        <time>2021-11-21T10:37:12Z</time>
      </trkpt>
      <trkpt lat="45.97823" lon="1.36963">
        <ele>540.4</ele>
        <time>2021-11-21T10:37:14Z</time>
      </trkpt>
      <trkpt lat="45.97824" lon="1.36957">
        <ele>540.4</ele>
        <time>2021-11-21T10:37:15Z</time>
      </trkpt>
      <trkpt lat="45.97824" lon="1.36951">
        <ele>540.4</ele>
        <time>2021-11-21T10:37:16Z</time>
      </trkpt>
      <trkpt lat="45.97822" lon="1.36938">
        <ele>540.6</ele>
        <time>2021-11-21T10:37:19Z</time>
      </trkpt>
      <trkpt lat="45.97812" lon="1.36929">
        <ele>541.4</ele>
        <time>2021-11-21T10:37:23Z</time>
      </trkpt>
      <trkpt lat="45.97795" lon="1.36913">
        <ele>541.4</ele>
        <time>2021-11-21T10:37:28Z</time>
      </trkpt>
      <trkpt lat="45.97781" lon="1.36892">
        <ele>541</ele>
        <time>2021-11-21T10:37:33Z</time>
      </trkpt>
      <trkpt lat="45.97778" lon="1.36886">
        <ele>541</ele>
        <time>2021-11-21T10:37:34Z</time>
      </trkpt>
      <trkpt lat="45.97765" lon="1.3686">
        <ele>540.8</ele>
        <time>2021-11-21T10:37:39Z</time>
      </trkpt>
      <trkpt lat="45.9776" lon="1.3685">
        <ele>540.8</ele>
        <time>2021-11-21T10:37:41Z</time>
      </trkpt>
      <trkpt lat="45.97748" lon="1.36824">
        <ele>540.6</ele>
        <time>2021-11-21T10:37:47Z</time>
      </trkpt>
      <trkpt lat="45.97747" lon="1.36821">
        <ele>540.6</ele>
        <time>2021-11-21T10:37:48Z</time>
      </trkpt>
      <trkpt lat="45.97745" lon="1.36817">
        <ele>540.6</ele>
        <time>2021-11-21T10:37:49Z</time>
      </trkpt>
      <trkpt lat="45.97738" lon="1.36803">
        <ele>540.6</ele>
        <time>2021-11-21T10:37:53Z</time>
      </trkpt>
      <trkpt lat="45.97727" lon="1.36785">
        <ele>541.6</ele>
        <time>2021-11-21T10:38:00Z</time>
      </trkpt>
      <trkpt lat="45.97727" lon="1.36785">
        <ele>542</ele>
        <time>2021-11-21T10:38:01Z</time>
      </trkpt>
      <trkpt lat="45.97717" lon="1.36769">
        <ele>543</ele>
        <time>2021-11-21T10:38:05Z</time>
      </trkpt>
      <trkpt lat="45.97714" lon="1.36767">
        <ele>543.4</ele>
        <time>2021-11-21T10:38:06Z</time>
      </trkpt>
      <trkpt lat="45.97711" lon="1.36766">
        <ele>543.6</ele>
        <time>2021-11-21T10:38:07Z</time>
      </trkpt>
      <trkpt lat="45.97697" lon="1.36772">
        <ele>544.2</ele>
        <time>2021-11-21T10:38:13Z</time>
      </trkpt>
      <trkpt lat="45.97689" lon="1.36777">
        <ele>544.4</ele>
        <time>2021-11-21T10:38:16Z</time>
      </trkpt>
      <trkpt lat="45.9768" lon="1.36782">
        <ele>544.4</ele>
        <time>2021-11-21T10:38:20Z</time>
      </trkpt>
      <trkpt lat="45.97672" lon="1.36788">
        <ele>545.4</ele>
        <time>2021-11-21T10:38:24Z</time>
      </trkpt>
      <trkpt lat="45.97666" lon="1.36792">
        <ele>545.8</ele>
        <time>2021-11-21T10:38:27Z</time>
      </trkpt>
      <trkpt lat="45.97654" lon="1.36806">
        <ele>546.4</ele>
        <time>2021-11-21T10:38:34Z</time>
      </trkpt>
      <trkpt lat="45.97647" lon="1.36816">
        <ele>546.6</ele>
        <time>2021-11-21T10:38:39Z</time>
      </trkpt>
      <trkpt lat="45.97646" lon="1.36818">
        <ele>546.6</ele>
        <time>2021-11-21T10:38:40Z</time>
      </trkpt>
      <trkpt lat="45.97636" lon="1.36832">
        <ele>547.2</ele>
        <time>2021-11-21T10:38:47Z</time>
      </trkpt>
      <trkpt lat="45.9763" lon="1.36842">
        <ele>547.6</ele>
        <time>2021-11-21T10:38:52Z</time>
      </trkpt>
      <trkpt lat="45.97626" lon="1.36847">
        <ele>548</ele>
        <time>2021-11-21T10:38:54Z</time>
      </trkpt>
      <trkpt lat="45.97617" lon="1.36863">
        <ele>548.6</ele>
        <time>2021-11-21T10:39:00Z</time>
      </trkpt>
      <trkpt lat="45.97615" lon="1.36865">
        <ele>548.6</ele>
        <time>2021-11-21T10:39:01Z</time>
      </trkpt>
      <trkpt lat="45.97608" lon="1.36878">
        <ele>549.6</ele>
        <time>2021-11-21T10:39:06Z</time>
      </trkpt>
      <trkpt lat="45.97607" lon="1.36881">
        <ele>549.6</ele>
        <time>2021-11-21T10:39:07Z</time>
      </trkpt>
      <trkpt lat="45.97606" lon="1.36885">
        <ele>549.6</ele>
        <time>2021-11-21T10:39:08Z</time>
      </trkpt>
      <trkpt lat="45.97598" lon="1.36908">
        <ele>550.2</ele>
        <time>2021-11-21T10:39:14Z</time>
      </trkpt>
      <trkpt lat="45.97593" lon="1.36919">
        <ele>550.8</ele>
        <time>2021-11-21T10:39:17Z</time>
      </trkpt>
      <trkpt lat="45.97586" lon="1.36932">
        <ele>551.8</ele>
        <time>2021-11-21T10:39:22Z</time>
      </trkpt>
      <trkpt lat="45.97575" lon="1.36943">
        <ele>552.6</ele>
        <time>2021-11-21T10:39:28Z</time>
      </trkpt>
      <trkpt lat="45.97571" lon="1.36946">
        <ele>553</ele>
        <time>2021-11-21T10:39:31Z</time>
      </trkpt>
      <trkpt lat="45.97564" lon="1.3695">
        <ele>553.8</ele>
        <time>2021-11-21T10:39:35Z</time>
      </trkpt>
      <trkpt lat="45.97559" lon="1.36953">
        <ele>554</ele>
        <time>2021-11-21T10:39:38Z</time>
      </trkpt>
      <trkpt lat="45.97552" lon="1.36958">
        <ele>554.8</ele>
        <time>2021-11-21T10:39:42Z</time>
      </trkpt>
      <trkpt lat="45.97546" lon="1.36962">
        <ele>555.2</ele>
        <time>2021-11-21T10:39:45Z</time>
      </trkpt>
      <trkpt lat="45.97538" lon="1.36963">
        <ele>555.6</ele>
        <time>2021-11-21T10:39:49Z</time>
      </trkpt>
      <trkpt lat="45.97529" lon="1.36964">
        <ele>556.4</ele>
        <time>2021-11-21T10:39:54Z</time>
      </trkpt>
      <trkpt lat="45.97525" lon="1.36964">
        <ele>557</ele>
        <time>2021-11-21T10:39:56Z</time>
      </trkpt>
      <trkpt lat="45.97516" lon="1.3697">
        <ele>557.4</ele>
        <time>2021-11-21T10:40:02Z</time>
      </trkpt>
      <trkpt lat="45.97514" lon="1.3697">
        <ele>557.4</ele>
        <time>2021-11-21T10:40:03Z</time>
      </trkpt>
      <trkpt lat="45.97504" lon="1.36972">
        <ele>557.4</ele>
        <time>2021-11-21T10:40:07Z</time>
      </trkpt>
      <trkpt lat="45.97498" lon="1.36975">
        <ele>557.4</ele>
        <time>2021-11-21T10:40:09Z</time>
      </trkpt>
      <trkpt lat="45.97482" lon="1.36986">
        <ele>557.4</ele>
        <time>2021-11-21T10:40:15Z</time>
      </trkpt>
      <trkpt lat="45.9747" lon="1.36992">
        <ele>557.8</ele>
        <time>2021-11-21T10:40:21Z</time>
      </trkpt>
      <trkpt lat="45.97452" lon="1.37003">
        <ele>558.4</ele>
        <time>2021-11-21T10:40:29Z</time>
      </trkpt>
      <trkpt lat="45.97451" lon="1.37004">
        <ele>558.6</ele>
        <time>2021-11-21T10:40:30Z</time>
      </trkpt>
      <trkpt lat="45.9744" lon="1.3701">
        <ele>558.8</ele>
        <time>2021-11-21T10:40:35Z</time>
      </trkpt>
      <trkpt lat="45.97427" lon="1.3702">
        <ele>558.8</ele>
        <time>2021-11-21T10:40:41Z</time>
      </trkpt>
      <trkpt lat="45.97409" lon="1.37029">
        <ele>558.8</ele>
        <time>2021-11-21T10:40:46Z</time>
      </trkpt>
      <trkpt lat="45.97383" lon="1.37035">
        <ele>557.2</ele>
        <time>2021-11-21T10:40:52Z</time>
      </trkpt>
      <trkpt lat="45.97366" lon="1.37039">
        <ele>556.2</ele>
        <time>2021-11-21T10:40:55Z</time>
      </trkpt>
      <trkpt lat="45.97347" lon="1.37044">
        <ele>555.6</ele>
        <time>2021-11-21T10:40:58Z</time>
      </trkpt>
      <trkpt lat="45.9734" lon="1.37047">
        <ele>555.2</ele>
        <time>2021-11-21T10:40:59Z</time>
      </trkpt>
      <trkpt lat="45.97328" lon="1.37053">
        <ele>554.4</ele>
        <time>2021-11-21T10:41:01Z</time>
      </trkpt>
      <trkpt lat="45.97318" lon="1.3706">
        <ele>554.2</ele>
        <time>2021-11-21T10:41:03Z</time>
      </trkpt>
      <trkpt lat="45.97307" lon="1.37066">
        <ele>554</ele>
        <time>2021-11-21T10:41:05Z</time>
      </trkpt>
      <trkpt lat="45.9729" lon="1.37085">
        <ele>552.8</ele>
        <time>2021-11-21T10:41:09Z</time>
      </trkpt>
      <trkpt lat="45.97265" lon="1.37116">
        <ele>552.8</ele>
        <time>2021-11-21T10:41:16Z</time>
      </trkpt>
      <trkpt lat="45.97246" lon="1.37135">
        <ele>553.4</ele>
        <time>2021-11-21T10:41:23Z</time>
      </trkpt>
      <trkpt lat="45.97237" lon="1.37147">
        <ele>553.8</ele>
        <time>2021-11-21T10:41:26Z</time>
      </trkpt>
      <trkpt lat="45.97229" lon="1.3716">
        <ele>554.4</ele>
        <time>2021-11-21T10:41:29Z</time>
      </trkpt>
      <trkpt lat="45.97224" lon="1.37169">
        <ele>554.8</ele>
        <time>2021-11-21T10:41:31Z</time>
      </trkpt>
      <trkpt lat="45.97211" lon="1.37188">
        <ele>555.4</ele>
        <time>2021-11-21T10:41:36Z</time>
      </trkpt>
      <trkpt lat="45.97204" lon="1.37197">
        <ele>555.8</ele>
        <time>2021-11-21T10:41:39Z</time>
      </trkpt>
      <trkpt lat="45.97197" lon="1.37209">
        <ele>556.6</ele>
        <time>2021-11-21T10:41:43Z</time>
      </trkpt>
      <trkpt lat="45.97192" lon="1.37214">
        <ele>556.8</ele>
        <time>2021-11-21T10:41:45Z</time>
      </trkpt>
      <trkpt lat="45.97183" lon="1.37228">
        <ele>558</ele>
        <time>2021-11-21T10:41:50Z</time>
      </trkpt>
      <trkpt lat="45.97173" lon="1.37242">
        <ele>559</ele>
        <time>2021-11-21T10:41:56Z</time>
      </trkpt>
      <trkpt lat="45.97171" lon="1.37247">
        <ele>559.4</ele>
        <time>2021-11-21T10:41:58Z</time>
      </trkpt>
      <trkpt lat="45.97162" lon="1.37261">
        <ele>560.2</ele>
        <time>2021-11-21T10:42:04Z</time>
      </trkpt>
      <trkpt lat="45.9716" lon="1.37264">
        <ele>560.4</ele>
        <time>2021-11-21T10:42:06Z</time>
      </trkpt>
      <trkpt lat="45.97157" lon="1.37274">
        <ele>561.2</ele>
        <time>2021-11-21T10:42:11Z</time>
      </trkpt>
      <trkpt lat="45.97156" lon="1.37278">
        <ele>561.4</ele>
        <time>2021-11-21T10:42:13Z</time>
      </trkpt>
      <trkpt lat="45.97149" lon="1.37298">
        <ele>561.6</ele>
        <time>2021-11-21T10:42:20Z</time>
      </trkpt>
      <trkpt lat="45.97143" lon="1.37325">
        <ele>561.8</ele>
        <time>2021-11-21T10:42:26Z</time>
      </trkpt>
      <trkpt lat="45.97131" lon="1.37357">
        <ele>560.6</ele>
        <time>2021-11-21T10:42:32Z</time>
      </trkpt>
      <trkpt lat="45.97126" lon="1.37371">
        <ele>560.2</ele>
        <time>2021-11-21T10:42:34Z</time>
      </trkpt>
      <trkpt lat="45.97118" lon="1.37393">
        <ele>559</ele>
        <time>2021-11-21T10:42:37Z</time>
      </trkpt>
      <trkpt lat="45.97102" lon="1.37421">
        <ele>558</ele>
        <time>2021-11-21T10:42:42Z</time>
      </trkpt>
      <trkpt lat="45.97095" lon="1.37437">
        <ele>557.8</ele>
        <time>2021-11-21T10:42:45Z</time>
      </trkpt>
      <trkpt lat="45.97093" lon="1.37448">
        <ele>557.8</ele>
        <time>2021-11-21T10:42:47Z</time>
      </trkpt>
      <trkpt lat="45.97092" lon="1.37478">
        <ele>557.8</ele>
        <time>2021-11-21T10:42:52Z</time>
      </trkpt>
      <trkpt lat="45.97095" lon="1.37507">
        <ele>557.6</ele>
        <time>2021-11-21T10:42:57Z</time>
      </trkpt>
      <trkpt lat="45.97098" lon="1.37528">
        <ele>558</ele>
        <time>2021-11-21T10:43:03Z</time>
      </trkpt>
      <trkpt lat="45.97099" lon="1.37539">
        <ele>559.6</ele>
        <time>2021-11-21T10:43:07Z</time>
      </trkpt>
      <trkpt lat="45.971" lon="1.37544">
        <ele>560.2</ele>
        <time>2021-11-21T10:43:09Z</time>
      </trkpt>
      <trkpt lat="45.971" lon="1.37548">
        <ele>560.8</ele>
        <time>2021-11-21T10:43:11Z</time>
      </trkpt>
      <trkpt lat="45.971" lon="1.3755">
        <ele>560.8</ele>
        <time>2021-11-21T10:43:12Z</time>
      </trkpt>
      <trkpt lat="45.97101" lon="1.37555">
        <ele>561.4</ele>
        <time>2021-11-21T10:43:15Z</time>
      </trkpt>
      <trkpt lat="45.97101" lon="1.37564">
        <ele>561.8</ele>
        <time>2021-11-21T10:43:19Z</time>
      </trkpt>
      <trkpt lat="45.97101" lon="1.37568">
        <ele>562.4</ele>
        <time>2021-11-21T10:43:21Z</time>
      </trkpt>
      <trkpt lat="45.971" lon="1.37572">
        <ele>563</ele>
        <time>2021-11-21T10:43:23Z</time>
      </trkpt>
      <trkpt lat="45.97099" lon="1.3759">
        <ele>563.4</ele>
        <time>2021-11-21T10:43:30Z</time>
      </trkpt>
      <trkpt lat="45.97097" lon="1.37599">
        <ele>563.8</ele>
        <time>2021-11-21T10:43:33Z</time>
      </trkpt>
      <trkpt lat="45.97093" lon="1.37612">
        <ele>563.6</ele>
        <time>2021-11-21T10:43:37Z</time>
      </trkpt>
      <trkpt lat="45.97089" lon="1.37644">
        <ele>563.2</ele>
        <time>2021-11-21T10:43:44Z</time>
      </trkpt>
      <trkpt lat="45.97083" lon="1.37664">
        <ele>561.6</ele>
        <time>2021-11-21T10:43:48Z</time>
      </trkpt>
      <trkpt lat="45.9708" lon="1.37669">
        <ele>561</ele>
        <time>2021-11-21T10:43:49Z</time>
      </trkpt>
      <trkpt lat="45.97079" lon="1.37672">
        <ele>560.4</ele>
        <time>2021-11-21T10:43:50Z</time>
      </trkpt>
      <trkpt lat="45.97076" lon="1.3768">
        <ele>558.8</ele>
        <time>2021-11-21T10:43:52Z</time>
      </trkpt>
      <trkpt lat="45.97072" lon="1.37685">
        <ele>557.6</ele>
        <time>2021-11-21T10:43:54Z</time>
      </trkpt>
      <trkpt lat="45.9707" lon="1.37688">
        <ele>557</ele>
        <time>2021-11-21T10:43:55Z</time>
      </trkpt>
      <trkpt lat="45.97068" lon="1.37688">
        <ele>556.6</ele>
        <time>2021-11-21T10:43:56Z</time>
      </trkpt>
      <trkpt lat="45.97063" lon="1.37689">
        <ele>555</ele>
        <time>2021-11-21T10:43:58Z</time>
      </trkpt>
      <trkpt lat="45.97058" lon="1.37687">
        <ele>554.2</ele>
        <time>2021-11-21T10:44:00Z</time>
      </trkpt>
      <trkpt lat="45.97056" lon="1.37688">
        <ele>554</ele>
        <time>2021-11-21T10:44:01Z</time>
      </trkpt>
      <trkpt lat="45.97052" lon="1.37694">
        <ele>553.4</ele>
        <time>2021-11-21T10:44:03Z</time>
      </trkpt>
      <trkpt lat="45.97051" lon="1.37699">
        <ele>552.2</ele>
        <time>2021-11-21T10:44:04Z</time>
      </trkpt>
      <trkpt lat="45.97051" lon="1.37704">
        <ele>551.4</ele>
        <time>2021-11-21T10:44:05Z</time>
      </trkpt>
      <trkpt lat="45.97051" lon="1.37708">
        <ele>550.2</ele>
        <time>2021-11-21T10:44:06Z</time>
      </trkpt>
      <trkpt lat="45.97049" lon="1.37713">
        <ele>549.4</ele>
        <time>2021-11-21T10:44:07Z</time>
      </trkpt>
      <trkpt lat="45.97048" lon="1.37719">
        <ele>548.4</ele>
        <time>2021-11-21T10:44:08Z</time>
      </trkpt>
      <trkpt lat="45.97044" lon="1.37731">
        <ele>547</ele>
        <time>2021-11-21T10:44:10Z</time>
      </trkpt>
      <trkpt lat="45.97043" lon="1.37738">
        <ele>546.4</ele>
        <time>2021-11-21T10:44:11Z</time>
      </trkpt>
      <trkpt lat="45.97043" lon="1.37742">
        <ele>545.4</ele>
        <time>2021-11-21T10:44:12Z</time>
      </trkpt>
      <trkpt lat="45.97044" lon="1.37755">
        <ele>543.6</ele>
        <time>2021-11-21T10:44:14Z</time>
      </trkpt>
      <trkpt lat="45.97045" lon="1.3776">
        <ele>542.6</ele>
        <time>2021-11-21T10:44:15Z</time>
      </trkpt>
      <trkpt lat="45.97046" lon="1.37766">
        <ele>542.2</ele>
        <time>2021-11-21T10:44:16Z</time>
      </trkpt>
      <trkpt lat="45.97045" lon="1.37772">
        <ele>541</ele>
        <time>2021-11-21T10:44:17Z</time>
      </trkpt>
      <trkpt lat="45.97043" lon="1.37781">
        <ele>539.6</ele>
        <time>2021-11-21T10:44:19Z</time>
      </trkpt>
      <trkpt lat="45.9704" lon="1.37798">
        <ele>538.6</ele>
        <time>2021-11-21T10:44:23Z</time>
      </trkpt>
      <trkpt lat="45.97038" lon="1.37808">
        <ele>538.6</ele>
        <time>2021-11-21T10:44:25Z</time>
      </trkpt>
      <trkpt lat="45.97036" lon="1.37815">
        <ele>538.8</ele>
        <time>2021-11-21T10:44:26Z</time>
      </trkpt>
      <trkpt lat="45.97031" lon="1.37827">
        <ele>539.8</ele>
        <time>2021-11-21T10:44:29Z</time>
      </trkpt>
      <trkpt lat="45.97028" lon="1.37835">
        <ele>540</ele>
        <time>2021-11-21T10:44:31Z</time>
      </trkpt>
      <trkpt lat="45.97028" lon="1.37838">
        <ele>540</ele>
        <time>2021-11-21T10:44:32Z</time>
      </trkpt>
      <trkpt lat="45.97028" lon="1.37851">
        <ele>539</ele>
        <time>2021-11-21T10:44:35Z</time>
      </trkpt>
      <trkpt lat="45.97027" lon="1.37854">
        <ele>538.4</ele>
        <time>2021-11-21T10:44:36Z</time>
      </trkpt>
      <trkpt lat="45.97025" lon="1.37859">
        <ele>537</ele>
        <time>2021-11-21T10:44:38Z</time>
      </trkpt>
      <trkpt lat="45.97025" lon="1.37864">
        <ele>535.8</ele>
        <time>2021-11-21T10:44:41Z</time>
      </trkpt>
      <trkpt lat="45.97025" lon="1.37867">
        <ele>535</ele>
        <time>2021-11-21T10:44:42Z</time>
      </trkpt>
      <trkpt lat="45.97025" lon="1.37872">
        <ele>533.8</ele>
        <time>2021-11-21T10:44:43Z</time>
      </trkpt>
      <trkpt lat="45.97023" lon="1.37877">
        <ele>532.8</ele>
        <time>2021-11-21T10:44:44Z</time>
      </trkpt>
      <trkpt lat="45.9702" lon="1.37883">
        <ele>531.8</ele>
        <time>2021-11-21T10:44:45Z</time>
      </trkpt>
      <trkpt lat="45.97017" lon="1.37889">
        <ele>530</ele>
        <time>2021-11-21T10:44:46Z</time>
      </trkpt>
      <trkpt lat="45.97014" lon="1.37896">
        <ele>528.6</ele>
        <time>2021-11-21T10:44:47Z</time>
      </trkpt>
      <trkpt lat="45.97009" lon="1.37912">
        <ele>526.8</ele>
        <time>2021-11-21T10:44:49Z</time>
      </trkpt>
      <trkpt lat="45.97002" lon="1.37927">
        <ele>525</ele>
        <time>2021-11-21T10:44:51Z</time>
      </trkpt>
      <trkpt lat="45.96998" lon="1.3794">
        <ele>523.4</ele>
        <time>2021-11-21T10:44:53Z</time>
      </trkpt>
      <trkpt lat="45.96998" lon="1.37946">
        <ele>522.2</ele>
        <time>2021-11-21T10:44:54Z</time>
      </trkpt>
      <trkpt lat="45.96995" lon="1.37959">
        <ele>520.2</ele>
        <time>2021-11-21T10:44:56Z</time>
      </trkpt>
      <trkpt lat="45.96994" lon="1.37965">
        <ele>518</ele>
        <time>2021-11-21T10:44:57Z</time>
      </trkpt>
      <trkpt lat="45.96995" lon="1.37971">
        <ele>516</ele>
        <time>2021-11-21T10:44:58Z</time>
      </trkpt>
      <trkpt lat="45.96994" lon="1.37979">
        <ele>515</ele>
        <time>2021-11-21T10:44:59Z</time>
      </trkpt>
      <trkpt lat="45.96992" lon="1.37987">
        <ele>513.8</ele>
        <time>2021-11-21T10:45:00Z</time>
      </trkpt>
      <trkpt lat="45.96989" lon="1.37996">
        <ele>512.4</ele>
        <time>2021-11-21T10:45:01Z</time>
      </trkpt>
      <trkpt lat="45.96987" lon="1.38007">
        <ele>510.4</ele>
        <time>2021-11-21T10:45:02Z</time>
      </trkpt>
      <trkpt lat="45.96981" lon="1.38023">
        <ele>509.2</ele>
        <time>2021-11-21T10:45:03Z</time>
      </trkpt>
      <trkpt lat="45.96978" lon="1.38034">
        <ele>507.8</ele>
        <time>2021-11-21T10:45:04Z</time>
      </trkpt>
      <trkpt lat="45.96976" lon="1.38042">
        <ele>505.4</ele>
        <time>2021-11-21T10:45:05Z</time>
      </trkpt>
      <trkpt lat="45.96972" lon="1.3805">
        <ele>504.4</ele>
        <time>2021-11-21T10:45:06Z</time>
      </trkpt>
      <trkpt lat="45.96968" lon="1.38055">
        <ele>503.6</ele>
        <time>2021-11-21T10:45:07Z</time>
      </trkpt>
      <trkpt lat="45.96962" lon="1.38064">
        <ele>502</ele>
        <time>2021-11-21T10:45:08Z</time>
      </trkpt>
      <trkpt lat="45.96954" lon="1.38074">
        <ele>501.2</ele>
        <time>2021-11-21T10:45:09Z</time>
      </trkpt>
      <trkpt lat="45.96948" lon="1.38081">
        <ele>500.6</ele>
        <time>2021-11-21T10:45:10Z</time>
      </trkpt>
      <trkpt lat="45.96937" lon="1.38094">
        <ele>500</ele>
        <time>2021-11-21T10:45:12Z</time>
      </trkpt>
      <trkpt lat="45.96921" lon="1.38104">
        <ele>499.4</ele>
        <time>2021-11-21T10:45:16Z</time>
      </trkpt>
      <trkpt lat="45.96906" lon="1.38114">
        <ele>499.2</ele>
        <time>2021-11-21T10:45:19Z</time>
      </trkpt>
      <trkpt lat="45.96895" lon="1.38117">
        <ele>498.6</ele>
        <time>2021-11-21T10:45:21Z</time>
      </trkpt>
      <trkpt lat="45.9689" lon="1.38117">
        <ele>498</ele>
        <time>2021-11-21T10:45:22Z</time>
      </trkpt>
      <trkpt lat="45.96885" lon="1.38116">
        <ele>497.4</ele>
        <time>2021-11-21T10:45:23Z</time>
      </trkpt>
      <trkpt lat="45.9688" lon="1.38116">
        <ele>497.2</ele>
        <time>2021-11-21T10:45:24Z</time>
      </trkpt>
      <trkpt lat="45.96875" lon="1.38116">
        <ele>496.8</ele>
        <time>2021-11-21T10:45:25Z</time>
      </trkpt>
      <trkpt lat="45.96859" lon="1.38116">
        <ele>496.6</ele>
        <time>2021-11-21T10:45:28Z</time>
      </trkpt>
      <trkpt lat="45.96844" lon="1.38115">
        <ele>495.8</ele>
        <time>2021-11-21T10:45:31Z</time>
      </trkpt>
      <trkpt lat="45.96833" lon="1.38115">
        <ele>495.4</ele>
        <time>2021-11-21T10:45:33Z</time>
      </trkpt>
      <trkpt lat="45.96822" lon="1.38112">
        <ele>494.8</ele>
        <time>2021-11-21T10:45:35Z</time>
      </trkpt>
      <trkpt lat="45.96809" lon="1.38107">
        <ele>493.6</ele>
        <time>2021-11-21T10:45:37Z</time>
      </trkpt>
      <trkpt lat="45.96803" lon="1.38104">
        <ele>493.4</ele>
        <time>2021-11-21T10:45:38Z</time>
      </trkpt>
      <trkpt lat="45.96792" lon="1.38103">
        <ele>493.2</ele>
        <time>2021-11-21T10:45:40Z</time>
      </trkpt>
      <trkpt lat="45.96786" lon="1.38103">
        <ele>493.2</ele>
        <time>2021-11-21T10:45:41Z</time>
      </trkpt>
      <trkpt lat="45.9678" lon="1.38103">
        <ele>493.2</ele>
        <time>2021-11-21T10:45:42Z</time>
      </trkpt>
      <trkpt lat="45.96769" lon="1.38101">
        <ele>493</ele>
        <time>2021-11-21T10:45:44Z</time>
      </trkpt>
      <trkpt lat="45.96758" lon="1.38097">
        <ele>492.6</ele>
        <time>2021-11-21T10:45:46Z</time>
      </trkpt>
      <trkpt lat="45.96747" lon="1.38093">
        <ele>492.6</ele>
        <time>2021-11-21T10:45:48Z</time>
      </trkpt>
      <trkpt lat="45.96733" lon="1.38086">
        <ele>492.8</ele>
        <time>2021-11-21T10:45:52Z</time>
      </trkpt>
      <trkpt lat="45.9672" lon="1.38083">
        <ele>493.6</ele>
        <time>2021-11-21T10:45:56Z</time>
      </trkpt>
      <trkpt lat="45.96712" lon="1.38082">
        <ele>494</ele>
        <time>2021-11-21T10:45:58Z</time>
      </trkpt>
      <trkpt lat="45.96706" lon="1.38082">
        <ele>494.6</ele>
        <time>2021-11-21T10:46:00Z</time>
      </trkpt>
      <trkpt lat="45.96691" lon="1.38078">
        <ele>495.4</ele>
        <time>2021-11-21T10:46:04Z</time>
      </trkpt>
      <trkpt lat="45.96683" lon="1.38078">
        <ele>495.6</ele>
        <time>2021-11-21T10:46:08Z</time>
      </trkpt>
      <trkpt lat="45.96685" lon="1.38087">
        <ele>494.2</ele>
        <time>2021-11-21T10:46:12Z</time>
      </trkpt>
      <trkpt lat="45.96686" lon="1.38092">
        <ele>493</ele>
        <time>2021-11-21T10:46:14Z</time>
      </trkpt>
      <trkpt lat="45.96685" lon="1.38096">
        <ele>491.4</ele>
        <time>2021-11-21T10:46:15Z</time>
      </trkpt>
      <trkpt lat="45.96684" lon="1.38099">
        <ele>490.2</ele>
        <time>2021-11-21T10:46:16Z</time>
      </trkpt>
      <trkpt lat="45.96684" lon="1.38102">
        <ele>489.2</ele>
        <time>2021-11-21T10:46:17Z</time>
      </trkpt>
      <trkpt lat="45.96683" lon="1.38106">
        <ele>488.4</ele>
        <time>2021-11-21T10:46:18Z</time>
      </trkpt>
      <trkpt lat="45.96682" lon="1.3811">
        <ele>485.8</ele>
        <time>2021-11-21T10:46:19Z</time>
      </trkpt>
      <trkpt lat="45.96681" lon="1.38115">
        <ele>484.6</ele>
        <time>2021-11-21T10:46:20Z</time>
      </trkpt>
      <trkpt lat="45.96679" lon="1.38119">
        <ele>482.8</ele>
        <time>2021-11-21T10:46:21Z</time>
      </trkpt>
      <trkpt lat="45.96677" lon="1.38123">
        <ele>481.6</ele>
        <time>2021-11-21T10:46:22Z</time>
      </trkpt>
      <trkpt lat="45.96677" lon="1.38123">
        <ele>479</ele>
        <time>2021-11-21T10:46:23Z</time>
      </trkpt>
      <trkpt lat="45.9667" lon="1.38136">
        <ele>478</ele>
        <time>2021-11-21T10:46:25Z</time>
      </trkpt>
      <trkpt lat="45.96668" lon="1.38142">
        <ele>476.8</ele>
        <time>2021-11-21T10:46:26Z</time>
      </trkpt>
      <trkpt lat="45.96662" lon="1.38155">
        <ele>475.4</ele>
        <time>2021-11-21T10:46:28Z</time>
      </trkpt>
      <trkpt lat="45.96659" lon="1.38164">
        <ele>474.6</ele>
        <time>2021-11-21T10:46:29Z</time>
      </trkpt>
      <trkpt lat="45.96657" lon="1.38172">
        <ele>474.2</ele>
        <time>2021-11-21T10:46:30Z</time>
      </trkpt>
      <trkpt lat="45.96653" lon="1.38181">
        <ele>474</ele>
        <time>2021-11-21T10:46:31Z</time>
      </trkpt>
      <trkpt lat="45.96647" lon="1.38193">
        <ele>473.8</ele>
        <time>2021-11-21T10:46:33Z</time>
      </trkpt>
      <trkpt lat="45.96642" lon="1.38199">
        <ele>473.6</ele>
        <time>2021-11-21T10:46:34Z</time>
      </trkpt>
      <trkpt lat="45.96636" lon="1.38204">
        <ele>473.4</ele>
        <time>2021-11-21T10:46:35Z</time>
      </trkpt>
      <trkpt lat="45.96631" lon="1.38208">
        <ele>472.8</ele>
        <time>2021-11-21T10:46:36Z</time>
      </trkpt>
      <trkpt lat="45.96618" lon="1.38216">
        <ele>472.2</ele>
        <time>2021-11-21T10:46:38Z</time>
      </trkpt>
      <trkpt lat="45.96611" lon="1.38219">
        <ele>471.6</ele>
        <time>2021-11-21T10:46:39Z</time>
      </trkpt>
      <trkpt lat="45.96586" lon="1.38237">
        <ele>470.4</ele>
        <time>2021-11-21T10:46:42Z</time>
      </trkpt>
      <trkpt lat="45.96572" lon="1.38246">
        <ele>469.8</ele>
        <time>2021-11-21T10:46:44Z</time>
      </trkpt>
      <trkpt lat="45.96566" lon="1.3825">
        <ele>468.8</ele>
        <time>2021-11-21T10:46:45Z</time>
      </trkpt>
      <trkpt lat="45.96558" lon="1.38253">
        <ele>467.8</ele>
        <time>2021-11-21T10:46:46Z</time>
      </trkpt>
      <trkpt lat="45.96542" lon="1.38264">
        <ele>466.4</ele>
        <time>2021-11-21T10:46:48Z</time>
      </trkpt>
      <trkpt lat="45.96535" lon="1.38269">
        <ele>464.6</ele>
        <time>2021-11-21T10:46:49Z</time>
      </trkpt>
      <trkpt lat="45.96526" lon="1.38276">
        <ele>463.6</ele>
        <time>2021-11-21T10:46:50Z</time>
      </trkpt>
      <trkpt lat="45.96518" lon="1.38283">
        <ele>462</ele>
        <time>2021-11-21T10:46:51Z</time>
      </trkpt>
      <trkpt lat="45.96509" lon="1.38291">
        <ele>460.4</ele>
        <time>2021-11-21T10:46:52Z</time>
      </trkpt>
      <trkpt lat="45.96501" lon="1.38301">
        <ele>459.6</ele>
        <time>2021-11-21T10:46:53Z</time>
      </trkpt>
      <trkpt lat="45.96494" lon="1.3831">
        <ele>458.6</ele>
        <time>2021-11-21T10:46:54Z</time>
      </trkpt>
      <trkpt lat="45.96478" lon="1.3833">
        <ele>456.8</ele>
        <time>2021-11-21T10:46:56Z</time>
      </trkpt>
      <trkpt lat="45.96463" lon="1.38349">
        <ele>455.8</ele>
        <time>2021-11-21T10:46:58Z</time>
      </trkpt>
      <trkpt lat="45.96456" lon="1.38358">
        <ele>454.8</ele>
        <time>2021-11-21T10:46:59Z</time>
      </trkpt>
      <trkpt lat="45.96449" lon="1.38366">
        <ele>454.2</ele>
        <time>2021-11-21T10:47:00Z</time>
      </trkpt>
      <trkpt lat="45.96427" lon="1.38389">
        <ele>452.8</ele>
        <time>2021-11-21T10:47:03Z</time>
      </trkpt>
      <trkpt lat="45.9642" lon="1.38395">
        <ele>452.2</ele>
        <time>2021-11-21T10:47:04Z</time>
      </trkpt>
      <trkpt lat="45.96413" lon="1.38401">
        <ele>451.4</ele>
        <time>2021-11-21T10:47:05Z</time>
      </trkpt>
      <trkpt lat="45.96391" lon="1.38418">
        <ele>450.2</ele>
        <time>2021-11-21T10:47:08Z</time>
      </trkpt>
      <trkpt lat="45.96378" lon="1.38431">
        <ele>448.4</ele>
        <time>2021-11-21T10:47:10Z</time>
      </trkpt>
      <trkpt lat="45.96365" lon="1.38446">
        <ele>446.8</ele>
        <time>2021-11-21T10:47:12Z</time>
      </trkpt>
      <trkpt lat="45.96356" lon="1.3846">
        <ele>445.6</ele>
        <time>2021-11-21T10:47:14Z</time>
      </trkpt>
      <trkpt lat="45.96338" lon="1.38488">
        <ele>443.6</ele>
        <time>2021-11-21T10:47:17Z</time>
      </trkpt>
      <trkpt lat="45.96331" lon="1.385">
        <ele>442.2</ele>
        <time>2021-11-21T10:47:18Z</time>
      </trkpt>
      <trkpt lat="45.96325" lon="1.38509">
        <ele>440.4</ele>
        <time>2021-11-21T10:47:19Z</time>
      </trkpt>
      <trkpt lat="45.96317" lon="1.38522">
        <ele>439</ele>
        <time>2021-11-21T10:47:20Z</time>
      </trkpt>
      <trkpt lat="45.96305" lon="1.38541">
        <ele>436.6</ele>
        <time>2021-11-21T10:47:22Z</time>
      </trkpt>
      <trkpt lat="45.96299" lon="1.38549">
        <ele>435.8</ele>
        <time>2021-11-21T10:47:23Z</time>
      </trkpt>
      <trkpt lat="45.96293" lon="1.38556">
        <ele>434.4</ele>
        <time>2021-11-21T10:47:24Z</time>
      </trkpt>
      <trkpt lat="45.96281" lon="1.38576">
        <ele>432.6</ele>
        <time>2021-11-21T10:47:26Z</time>
      </trkpt>
      <trkpt lat="45.96278" lon="1.38584">
        <ele>431.6</ele>
        <time>2021-11-21T10:47:27Z</time>
      </trkpt>
      <trkpt lat="45.96276" lon="1.38592">
        <ele>430.4</ele>
        <time>2021-11-21T10:47:28Z</time>
      </trkpt>
      <trkpt lat="45.96275" lon="1.386">
        <ele>429.2</ele>
        <time>2021-11-21T10:47:29Z</time>
      </trkpt>
      <trkpt lat="45.96275" lon="1.38608">
        <ele>428.4</ele>
        <time>2021-11-21T10:47:30Z</time>
      </trkpt>
      <trkpt lat="45.96275" lon="1.38616">
        <ele>428</ele>
        <time>2021-11-21T10:47:31Z</time>
      </trkpt>
      <trkpt lat="45.96272" lon="1.38652">
        <ele>427.2</ele>
        <time>2021-11-21T10:47:36Z</time>
      </trkpt>
      <trkpt lat="45.96271" lon="1.38659">
        <ele>426.8</ele>
        <time>2021-11-21T10:47:37Z</time>
      </trkpt>
      <trkpt lat="45.96262" lon="1.3869">
        <ele>425.8</ele>
        <time>2021-11-21T10:47:42Z</time>
      </trkpt>
      <trkpt lat="45.9626" lon="1.38697">
        <ele>425.4</ele>
        <time>2021-11-21T10:47:43Z</time>
      </trkpt>
      <trkpt lat="45.96255" lon="1.38716">
        <ele>425</ele>
        <time>2021-11-21T10:47:46Z</time>
      </trkpt>
      <trkpt lat="45.9625" lon="1.38738">
        <ele>425</ele>
        <time>2021-11-21T10:47:48Z</time>
      </trkpt>
      <trkpt lat="45.96246" lon="1.38766">
        <ele>424.4</ele>
        <time>2021-11-21T10:47:51Z</time>
      </trkpt>
      <trkpt lat="45.96241" lon="1.3879">
        <ele>423.4</ele>
        <time>2021-11-21T10:47:53Z</time>
      </trkpt>
      <trkpt lat="45.96234" lon="1.38826">
        <ele>422.2</ele>
        <time>2021-11-21T10:47:56Z</time>
      </trkpt>
      <trkpt lat="45.96227" lon="1.38861">
        <ele>421.4</ele>
        <time>2021-11-21T10:47:59Z</time>
      </trkpt>
      <trkpt lat="45.96225" lon="1.38872">
        <ele>421.2</ele>
        <time>2021-11-21T10:48:00Z</time>
      </trkpt>
      <trkpt lat="45.96224" lon="1.38891">
        <ele>420.8</ele>
        <time>2021-11-21T10:48:02Z</time>
      </trkpt>
      <trkpt lat="45.96226" lon="1.38911">
        <ele>420.8</ele>
        <time>2021-11-21T10:48:04Z</time>
      </trkpt>
      <trkpt lat="45.9623" lon="1.38927">
        <ele>420.8</ele>
        <time>2021-11-21T10:48:06Z</time>
      </trkpt>
      <trkpt lat="45.96239" lon="1.38945">
        <ele>421</ele>
        <time>2021-11-21T10:48:09Z</time>
      </trkpt>
      <trkpt lat="45.96252" lon="1.38968">
        <ele>421.4</ele>
        <time>2021-11-21T10:48:14Z</time>
      </trkpt>
      <trkpt lat="45.96252" lon="1.38973">
        <ele>421.4</ele>
        <time>2021-11-21T10:48:15Z</time>
      </trkpt>
      <trkpt lat="45.96248" lon="1.38992">
        <ele>420.8</ele>
        <time>2021-11-21T10:48:18Z</time>
      </trkpt>
      <trkpt lat="45.96245" lon="1.39006">
        <ele>419.6</ele>
        <time>2021-11-21T10:48:20Z</time>
      </trkpt>
      <trkpt lat="45.96246" lon="1.3902">
        <ele>418.2</ele>
        <time>2021-11-21T10:48:22Z</time>
      </trkpt>
      <trkpt lat="45.96247" lon="1.39034">
        <ele>417.6</ele>
        <time>2021-11-21T10:48:24Z</time>
      </trkpt>
      <trkpt lat="45.96247" lon="1.39051">
        <ele>417</ele>
        <time>2021-11-21T10:48:26Z</time>
      </trkpt>
      <trkpt lat="45.96246" lon="1.3906">
        <ele>416.8</ele>
        <time>2021-11-21T10:48:27Z</time>
      </trkpt>
      <trkpt lat="45.96247" lon="1.39109">
        <ele>415.8</ele>
        <time>2021-11-21T10:48:32Z</time>
      </trkpt>
      <trkpt lat="45.96247" lon="1.3913">
        <ele>415.4</ele>
        <time>2021-11-21T10:48:34Z</time>
      </trkpt>
      <trkpt lat="45.96246" lon="1.3915">
        <ele>414.6</ele>
        <time>2021-11-21T10:48:36Z</time>
      </trkpt>
      <trkpt lat="45.96245" lon="1.39176">
        <ele>414.4</ele>
        <time>2021-11-21T10:48:39Z</time>
      </trkpt>
      <trkpt lat="45.96244" lon="1.39197">
        <ele>414.4</ele>
        <time>2021-11-21T10:48:42Z</time>
      </trkpt>
      <trkpt lat="45.96241" lon="1.39208">
        <ele>414.4</ele>
        <time>2021-11-21T10:48:44Z</time>
      </trkpt>
      <trkpt lat="45.96233" lon="1.39213">
        <ele>414.6</ele>
        <time>2021-11-21T10:48:46Z</time>
      </trkpt>
      <trkpt lat="45.96228" lon="1.39214">
        <ele>414.4</ele>
        <time>2021-11-21T10:48:47Z</time>
      </trkpt>
      <trkpt lat="45.96198" lon="1.39219">
        <ele>414</ele>
        <time>2021-11-21T10:48:52Z</time>
      </trkpt>
      <trkpt lat="45.96192" lon="1.39221">
        <ele>413.6</ele>
        <time>2021-11-21T10:48:53Z</time>
      </trkpt>
      <trkpt lat="45.96178" lon="1.39227">
        <ele>413</ele>
        <time>2021-11-21T10:48:55Z</time>
      </trkpt>
      <trkpt lat="45.96163" lon="1.39234">
        <ele>412.4</ele>
        <time>2021-11-21T10:48:57Z</time>
      </trkpt>
      <trkpt lat="45.96143" lon="1.39248">
        <ele>411.4</ele>
        <time>2021-11-21T10:49:00Z</time>
      </trkpt>
      <trkpt lat="45.96121" lon="1.39262">
        <ele>411</ele>
        <time>2021-11-21T10:49:03Z</time>
      </trkpt>
      <trkpt lat="45.96107" lon="1.3927">
        <ele>410.2</ele>
        <time>2021-11-21T10:49:05Z</time>
      </trkpt>
      <trkpt lat="45.96071" lon="1.39294">
        <ele>409.2</ele>
        <time>2021-11-21T10:49:10Z</time>
      </trkpt>
      <trkpt lat="45.96063" lon="1.39298">
        <ele>408.8</ele>
        <time>2021-11-21T10:49:11Z</time>
      </trkpt>
      <trkpt lat="45.96048" lon="1.39307">
        <ele>407.8</ele>
        <time>2021-11-21T10:49:13Z</time>
      </trkpt>
      <trkpt lat="45.96024" lon="1.39318">
        <ele>406.4</ele>
        <time>2021-11-21T10:49:16Z</time>
      </trkpt>
      <trkpt lat="45.96016" lon="1.39322">
        <ele>406</ele>
        <time>2021-11-21T10:49:17Z</time>
      </trkpt>
      <trkpt lat="45.96" lon="1.3933">
        <ele>405.2</ele>
        <time>2021-11-21T10:49:19Z</time>
      </trkpt>
      <trkpt lat="45.95984" lon="1.39339">
        <ele>404</ele>
        <time>2021-11-21T10:49:21Z</time>
      </trkpt>
      <trkpt lat="45.95977" lon="1.39345">
        <ele>403.6</ele>
        <time>2021-11-21T10:49:22Z</time>
      </trkpt>
      <trkpt lat="45.95963" lon="1.39359">
        <ele>402.6</ele>
        <time>2021-11-21T10:49:24Z</time>
      </trkpt>
      <trkpt lat="45.95949" lon="1.39374">
        <ele>401.6</ele>
        <time>2021-11-21T10:49:26Z</time>
      </trkpt>
      <trkpt lat="45.95935" lon="1.3939">
        <ele>400</ele>
        <time>2021-11-21T10:49:28Z</time>
      </trkpt>
      <trkpt lat="45.95923" lon="1.39404">
        <ele>399</ele>
        <time>2021-11-21T10:49:30Z</time>
      </trkpt>
      <trkpt lat="45.95912" lon="1.39417">
        <ele>397</ele>
        <time>2021-11-21T10:49:32Z</time>
      </trkpt>
      <trkpt lat="45.95907" lon="1.39423">
        <ele>396.2</ele>
        <time>2021-11-21T10:49:33Z</time>
      </trkpt>
      <trkpt lat="45.95902" lon="1.39429">
        <ele>395.4</ele>
        <time>2021-11-21T10:49:34Z</time>
      </trkpt>
      <trkpt lat="45.95895" lon="1.39439">
        <ele>394.4</ele>
        <time>2021-11-21T10:49:36Z</time>
      </trkpt>
      <trkpt lat="45.9589" lon="1.39444">
        <ele>394</ele>
        <time>2021-11-21T10:49:37Z</time>
      </trkpt>
      <trkpt lat="45.95886" lon="1.39448">
        <ele>393.2</ele>
        <time>2021-11-21T10:49:38Z</time>
      </trkpt>
      <trkpt lat="45.95871" lon="1.39464">
        <ele>392</ele>
        <time>2021-11-21T10:49:41Z</time>
      </trkpt>
      <trkpt lat="45.95859" lon="1.39477">
        <ele>390.8</ele>
        <time>2021-11-21T10:49:43Z</time>
      </trkpt>
      <trkpt lat="45.9584" lon="1.39497">
        <ele>389.4</ele>
        <time>2021-11-21T10:49:46Z</time>
      </trkpt>
      <trkpt lat="45.95834" lon="1.39504">
        <ele>389</ele>
        <time>2021-11-21T10:49:47Z</time>
      </trkpt>
      <trkpt lat="45.95828" lon="1.3951">
        <ele>388.8</ele>
        <time>2021-11-21T10:49:48Z</time>
      </trkpt>
      <trkpt lat="45.95822" lon="1.39517">
        <ele>388.4</ele>
        <time>2021-11-21T10:49:49Z</time>
      </trkpt>
      <trkpt lat="45.95807" lon="1.39533">
        <ele>386.8</ele>
        <time>2021-11-21T10:49:52Z</time>
      </trkpt>
      <trkpt lat="45.95798" lon="1.39543">
        <ele>385.4</ele>
        <time>2021-11-21T10:49:55Z</time>
      </trkpt>
      <trkpt lat="45.95793" lon="1.39549">
        <ele>384.6</ele>
        <time>2021-11-21T10:49:57Z</time>
      </trkpt>
      <trkpt lat="45.95787" lon="1.39555">
        <ele>384.4</ele>
        <time>2021-11-21T10:50:00Z</time>
      </trkpt>
      <trkpt lat="45.95785" lon="1.39557">
        <ele>384.4</ele>
        <time>2021-11-21T10:50:01Z</time>
      </trkpt>
      <trkpt lat="45.95784" lon="1.3956">
        <ele>384.2</ele>
        <time>2021-11-21T10:50:02Z</time>
      </trkpt>
      <trkpt lat="45.95778" lon="1.39581">
        <ele>383.8</ele>
        <time>2021-11-21T10:50:06Z</time>
      </trkpt>
      <trkpt lat="45.95778" lon="1.39615">
        <ele>383.6</ele>
        <time>2021-11-21T10:50:11Z</time>
      </trkpt>
      <trkpt lat="45.9578" lon="1.39661">
        <ele>383.4</ele>
        <time>2021-11-21T10:50:17Z</time>
      </trkpt>
      <trkpt lat="45.9578" lon="1.3967">
        <ele>383.2</ele>
        <time>2021-11-21T10:50:18Z</time>
      </trkpt>
      <trkpt lat="45.95783" lon="1.39712">
        <ele>382.6</ele>
        <time>2021-11-21T10:50:23Z</time>
      </trkpt>
      <trkpt lat="45.95784" lon="1.39729">
        <ele>382.2</ele>
        <time>2021-11-21T10:50:25Z</time>
      </trkpt>
      <trkpt lat="45.95786" lon="1.39754">
        <ele>381.6</ele>
        <time>2021-11-21T10:50:28Z</time>
      </trkpt>
      <trkpt lat="45.95789" lon="1.39759">
        <ele>381.4</ele>
        <time>2021-11-21T10:50:29Z</time>
      </trkpt>
      <trkpt lat="45.95797" lon="1.39764">
        <ele>381</ele>
        <time>2021-11-21T10:50:31Z</time>
      </trkpt>
      <trkpt lat="45.95805" lon="1.39765">
        <ele>380.8</ele>
        <time>2021-11-21T10:50:33Z</time>
      </trkpt>
      <trkpt lat="45.95815" lon="1.39767">
        <ele>380</ele>
        <time>2021-11-21T10:50:37Z</time>
      </trkpt>
      <trkpt lat="45.95818" lon="1.39767">
        <ele>379.6</ele>
        <time>2021-11-21T10:50:39Z</time>
      </trkpt>
      <trkpt lat="45.95834" lon="1.39769">
        <ele>378.8</ele>
        <time>2021-11-21T10:50:44Z</time>
      </trkpt>
      <trkpt lat="45.95856" lon="1.39772">
        <ele>377.6</ele>
        <time>2021-11-21T10:50:48Z</time>
      </trkpt>
      <trkpt lat="45.95869" lon="1.39773">
        <ele>376.6</ele>
        <time>2021-11-21T10:50:50Z</time>
      </trkpt>
      <trkpt lat="45.95875" lon="1.39775">
        <ele>376.2</ele>
        <time>2021-11-21T10:50:51Z</time>
      </trkpt>
      <trkpt lat="45.95885" lon="1.39784">
        <ele>376</ele>
        <time>2021-11-21T10:50:53Z</time>
      </trkpt>
      <trkpt lat="45.95891" lon="1.39799">
        <ele>375.8</ele>
        <time>2021-11-21T10:50:55Z</time>
      </trkpt>
      <trkpt lat="45.9589" lon="1.39807">
        <ele>375.4</ele>
        <time>2021-11-21T10:50:56Z</time>
      </trkpt>
      <trkpt lat="45.95889" lon="1.39816">
        <ele>375.2</ele>
        <time>2021-11-21T10:50:57Z</time>
      </trkpt>
      <trkpt lat="45.95884" lon="1.39833">
        <ele>374.8</ele>
        <time>2021-11-21T10:50:59Z</time>
      </trkpt>
      <trkpt lat="45.95883" lon="1.39843">
        <ele>374.6</ele>
        <time>2021-11-21T10:51:00Z</time>
      </trkpt>
      <trkpt lat="45.95882" lon="1.39854">
        <ele>373.8</ele>
        <time>2021-11-21T10:51:01Z</time>
      </trkpt>
      <trkpt lat="45.95884" lon="1.39878">
        <ele>372.4</ele>
        <time>2021-11-21T10:51:03Z</time>
      </trkpt>
      <trkpt lat="45.95886" lon="1.3989">
        <ele>372</ele>
        <time>2021-11-21T10:51:04Z</time>
      </trkpt>
      <trkpt lat="45.95887" lon="1.39902">
        <ele>371.4</ele>
        <time>2021-11-21T10:51:05Z</time>
      </trkpt>
      <trkpt lat="45.95889" lon="1.39913">
        <ele>371</ele>
        <time>2021-11-21T10:51:06Z</time>
      </trkpt>
      <trkpt lat="45.95889" lon="1.39923">
        <ele>370.2</ele>
        <time>2021-11-21T10:51:07Z</time>
      </trkpt>
      <trkpt lat="45.95889" lon="1.39931">
        <ele>369.4</ele>
        <time>2021-11-21T10:51:08Z</time>
      </trkpt>
      <trkpt lat="45.9589" lon="1.39938">
        <ele>368.8</ele>
        <time>2021-11-21T10:51:09Z</time>
      </trkpt>
      <trkpt lat="45.95893" lon="1.39941">
        <ele>368.4</ele>
        <time>2021-11-21T10:51:10Z</time>
      </trkpt>
      <trkpt lat="45.95898" lon="1.39937">
        <ele>368.2</ele>
        <time>2021-11-21T10:51:12Z</time>
      </trkpt>
      <trkpt lat="45.95898" lon="1.39934">
        <ele>368</ele>
        <time>2021-11-21T10:51:13Z</time>
      </trkpt>
      <trkpt lat="45.95893" lon="1.39918">
        <ele>367.8</ele>
        <time>2021-11-21T10:51:17Z</time>
      </trkpt>
      <trkpt lat="45.95887" lon="1.39886">
        <ele>369</ele>
        <time>2021-11-21T10:51:24Z</time>
      </trkpt>
      <trkpt lat="45.95885" lon="1.3987">
        <ele>370</ele>
        <time>2021-11-21T10:51:28Z</time>
      </trkpt>
      <trkpt lat="45.95884" lon="1.39854">
        <ele>371</ele>
        <time>2021-11-21T10:51:32Z</time>
      </trkpt>
      <trkpt lat="45.95886" lon="1.39834">
        <ele>372.2</ele>
        <time>2021-11-21T10:51:37Z</time>
      </trkpt>
      <trkpt lat="45.95889" lon="1.39824">
        <ele>373</ele>
        <time>2021-11-21T10:51:40Z</time>
      </trkpt>
      <trkpt lat="45.95892" lon="1.39819">
        <ele>373.4</ele>
        <time>2021-11-21T10:51:42Z</time>
      </trkpt>
      <trkpt lat="45.95898" lon="1.39807">
        <ele>374.4</ele>
        <time>2021-11-21T10:51:47Z</time>
      </trkpt>
      <trkpt lat="45.95908" lon="1.3979">
        <ele>375.6</ele>
        <time>2021-11-21T10:51:53Z</time>
      </trkpt>
      <trkpt lat="45.9591" lon="1.39787">
        <ele>376</ele>
        <time>2021-11-21T10:51:54Z</time>
      </trkpt>
      <trkpt lat="45.95917" lon="1.39775">
        <ele>376.6</ele>
        <time>2021-11-21T10:51:58Z</time>
      </trkpt>
      <trkpt lat="45.95925" lon="1.3976">
        <ele>377.8</ele>
        <time>2021-11-21T10:52:03Z</time>
      </trkpt>
      <trkpt lat="45.95927" lon="1.39757">
        <ele>378</ele>
        <time>2021-11-21T10:52:04Z</time>
      </trkpt>
      <trkpt lat="45.95932" lon="1.39748">
        <ele>379</ele>
        <time>2021-11-21T10:52:07Z</time>
      </trkpt>
      <trkpt lat="45.95941" lon="1.39731">
        <ele>380</ele>
        <time>2021-11-21T10:52:12Z</time>
      </trkpt>
      <trkpt lat="45.95945" lon="1.39724">
        <ele>380.4</ele>
        <time>2021-11-21T10:52:14Z</time>
      </trkpt>
      <trkpt lat="45.95952" lon="1.39711">
        <ele>381</ele>
        <time>2021-11-21T10:52:18Z</time>
      </trkpt>
      <trkpt lat="45.95961" lon="1.39694">
        <ele>382</ele>
        <time>2021-11-21T10:52:23Z</time>
      </trkpt>
      <trkpt lat="45.95963" lon="1.39691">
        <ele>382.2</ele>
        <time>2021-11-21T10:52:24Z</time>
      </trkpt>
      <trkpt lat="45.95969" lon="1.39679">
        <ele>383</ele>
        <time>2021-11-21T10:52:28Z</time>
      </trkpt>
      <trkpt lat="45.95969" lon="1.39677">
        <ele>383.2</ele>
        <time>2021-11-21T10:52:29Z</time>
      </trkpt>
      <trkpt lat="45.95964" lon="1.39681">
        <ele>383.4</ele>
        <time>2021-11-21T10:52:32Z</time>
      </trkpt>
      <trkpt lat="45.95954" lon="1.397">
        <ele>383.2</ele>
        <time>2021-11-21T10:52:36Z</time>
      </trkpt>
      <trkpt lat="45.95934" lon="1.39735">
        <ele>381.8</ele>
        <time>2021-11-21T10:52:41Z</time>
      </trkpt>
      <trkpt lat="45.95915" lon="1.39766">
        <ele>380.4</ele>
        <time>2021-11-21T10:52:45Z</time>
      </trkpt>
      <trkpt lat="45.9591" lon="1.39774">
        <ele>380</ele>
        <time>2021-11-21T10:52:46Z</time>
      </trkpt>
      <trkpt lat="45.95907" lon="1.39779">
        <ele>379.6</ele>
        <time>2021-11-21T10:52:47Z</time>
      </trkpt>
      <trkpt lat="45.95903" lon="1.39781">
        <ele>379.2</ele>
        <time>2021-11-21T10:52:48Z</time>
      </trkpt>
      <trkpt lat="45.959" lon="1.39781">
        <ele>378.2</ele>
        <time>2021-11-21T10:52:49Z</time>
      </trkpt>
      <trkpt lat="45.95891" lon="1.3978">
        <ele>377.2</ele>
        <time>2021-11-21T10:52:51Z</time>
      </trkpt>
      <trkpt lat="45.95882" lon="1.39774">
        <ele>376.4</ele>
        <time>2021-11-21T10:52:53Z</time>
      </trkpt>
      <trkpt lat="45.95877" lon="1.39772">
        <ele>376.4</ele>
        <time>2021-11-21T10:52:54Z</time>
      </trkpt>
      <trkpt lat="45.95862" lon="1.39769">
        <ele>376.2</ele>
        <time>2021-11-21T10:52:57Z</time>
      </trkpt>
      <trkpt lat="45.95857" lon="1.39769">
        <ele>376.2</ele>
        <time>2021-11-21T10:52:58Z</time>
      </trkpt>
      <trkpt lat="45.95836" lon="1.39769">
        <ele>377.2</ele>
        <time>2021-11-21T10:53:03Z</time>
      </trkpt>
      <trkpt lat="45.95825" lon="1.3977">
        <ele>377.8</ele>
        <time>2021-11-21T10:53:06Z</time>
      </trkpt>
      <trkpt lat="45.9582" lon="1.3977">
        <ele>378.4</ele>
        <time>2021-11-21T10:53:08Z</time>
      </trkpt>
      <trkpt lat="45.95819" lon="1.39768">
        <ele>378.6</ele>
        <time>2021-11-21T10:53:09Z</time>
      </trkpt>
      <trkpt lat="45.95819" lon="1.39766">
        <ele>379</ele>
        <time>2021-11-21T10:53:10Z</time>
      </trkpt>
      <trkpt lat="45.95819" lon="1.39765">
        <ele>379.4</ele>
        <time>2021-11-21T10:53:13Z</time>
      </trkpt>
      <trkpt lat="45.95819" lon="1.39765">
        <ele>379.4</ele>
        <time>2021-11-21T10:53:14Z</time>
      </trkpt>
    </trkseg>
  </trk>
</gpx>